<?xml version="1.0" encoding="UTF-8" standalone="no" ?>
<gpx xmlns="http://www.topografix.com/GPX/1/1" xmlns:xsi="http://www.w3.org/2001/XMLSchema-instance" xsi:schemaLocation="http://www.topografix.com/GPX/1/1 http://www.topografix.com/GPX/1/1/gpx.xsd" version="1.1" creator="VisuGPX - https://www.visugpx.com">
  <metadata>
    <name>Maureillas-las-Illas Marche à pied</name>
  </metadata>
  <trk>
    <name><![CDATA[Maureillas-las-Illas Marche à pied_1]]></name>
    <trkseg>
      <trkpt lat="42.44019" lon="2.82688">
        <ele>753.8</ele>
        <time>2024-07-16T05:50:23Z</time>
      </trkpt>
      <trkpt lat="42.44033" lon="2.82707">
        <ele>751</ele>
        <time>2024-07-16T05:50:35Z</time>
      </trkpt>
      <trkpt lat="42.44035" lon="2.82709">
        <ele>751</ele>
        <time>2024-07-16T05:50:36Z</time>
      </trkpt>
      <trkpt lat="42.44046" lon="2.8272">
        <ele>750.2</ele>
        <time>2024-07-16T05:50:46Z</time>
      </trkpt>
      <trkpt lat="42.44053" lon="2.82723">
        <ele>749.8</ele>
        <time>2024-07-16T05:50:53Z</time>
      </trkpt>
      <trkpt lat="42.44062" lon="2.82729">
        <ele>749.4</ele>
        <time>2024-07-16T05:51:01Z</time>
      </trkpt>
      <trkpt lat="42.44072" lon="2.82737">
        <ele>748.6</ele>
        <time>2024-07-16T05:51:09Z</time>
      </trkpt>
      <trkpt lat="42.44078" lon="2.82741">
        <ele>747.8</ele>
        <time>2024-07-16T05:51:14Z</time>
      </trkpt>
      <trkpt lat="42.44079" lon="2.82742">
        <ele>747.6</ele>
        <time>2024-07-16T05:51:15Z</time>
      </trkpt>
      <trkpt lat="42.4408" lon="2.82742">
        <ele>747.4</ele>
        <time>2024-07-16T05:51:16Z</time>
      </trkpt>
      <trkpt lat="42.44085" lon="2.82744">
        <ele>746.6</ele>
        <time>2024-07-16T05:51:21Z</time>
      </trkpt>
      <trkpt lat="42.44085" lon="2.82745">
        <ele>746.4</ele>
        <time>2024-07-16T05:51:22Z</time>
      </trkpt>
      <trkpt lat="42.44088" lon="2.82747">
        <ele>746.4</ele>
        <time>2024-07-16T05:51:25Z</time>
      </trkpt>
      <trkpt lat="42.4409" lon="2.82747">
        <ele>746.4</ele>
        <time>2024-07-16T05:51:26Z</time>
      </trkpt>
      <trkpt lat="42.441" lon="2.82752">
        <ele>745.6</ele>
        <time>2024-07-16T05:51:32Z</time>
      </trkpt>
      <trkpt lat="42.44101" lon="2.82755">
        <ele>744.8</ele>
        <time>2024-07-16T05:51:36Z</time>
      </trkpt>
      <trkpt lat="42.44104" lon="2.82756">
        <ele>744</ele>
        <time>2024-07-16T05:51:38Z</time>
      </trkpt>
      <trkpt lat="42.44107" lon="2.82758">
        <ele>743</ele>
        <time>2024-07-16T05:51:41Z</time>
      </trkpt>
      <trkpt lat="42.44114" lon="2.82762">
        <ele>742</ele>
        <time>2024-07-16T05:51:45Z</time>
      </trkpt>
      <trkpt lat="42.44116" lon="2.82765">
        <ele>741.8</ele>
        <time>2024-07-16T05:51:47Z</time>
      </trkpt>
      <trkpt lat="42.44121" lon="2.82767">
        <ele>740.8</ele>
        <time>2024-07-16T05:51:51Z</time>
      </trkpt>
      <trkpt lat="42.44132" lon="2.82773">
        <ele>739</ele>
        <time>2024-07-16T05:51:59Z</time>
      </trkpt>
      <trkpt lat="42.44133" lon="2.82773">
        <ele>739</ele>
        <time>2024-07-16T05:52:00Z</time>
      </trkpt>
      <trkpt lat="42.44143" lon="2.82779">
        <ele>737.8</ele>
        <time>2024-07-16T05:52:10Z</time>
      </trkpt>
      <trkpt lat="42.44154" lon="2.82786">
        <ele>736</ele>
        <time>2024-07-16T05:52:19Z</time>
      </trkpt>
      <trkpt lat="42.44164" lon="2.82793">
        <ele>733.8</ele>
        <time>2024-07-16T05:52:28Z</time>
      </trkpt>
      <trkpt lat="42.44167" lon="2.82796">
        <ele>733.4</ele>
        <time>2024-07-16T05:52:33Z</time>
      </trkpt>
      <trkpt lat="42.44169" lon="2.82798">
        <ele>733.4</ele>
        <time>2024-07-16T05:52:34Z</time>
      </trkpt>
      <trkpt lat="42.44182" lon="2.82808">
        <ele>732.4</ele>
        <time>2024-07-16T05:52:41Z</time>
      </trkpt>
      <trkpt lat="42.44193" lon="2.82812">
        <ele>730.2</ele>
        <time>2024-07-16T05:52:51Z</time>
      </trkpt>
      <trkpt lat="42.44196" lon="2.82817">
        <ele>729.6</ele>
        <time>2024-07-16T05:52:53Z</time>
      </trkpt>
      <trkpt lat="42.44204" lon="2.82825">
        <ele>728.2</ele>
        <time>2024-07-16T05:52:58Z</time>
      </trkpt>
      <trkpt lat="42.44215" lon="2.82827">
        <ele>725.6</ele>
        <time>2024-07-16T05:53:08Z</time>
      </trkpt>
      <trkpt lat="42.44224" lon="2.8283">
        <ele>724.6</ele>
        <time>2024-07-16T05:53:15Z</time>
      </trkpt>
      <trkpt lat="42.44234" lon="2.82834">
        <ele>723.4</ele>
        <time>2024-07-16T05:53:23Z</time>
      </trkpt>
      <trkpt lat="42.44236" lon="2.82835">
        <ele>723.2</ele>
        <time>2024-07-16T05:53:26Z</time>
      </trkpt>
      <trkpt lat="42.4424" lon="2.82837">
        <ele>723</ele>
        <time>2024-07-16T05:53:29Z</time>
      </trkpt>
      <trkpt lat="42.44246" lon="2.82844">
        <ele>722.8</ele>
        <time>2024-07-16T05:53:35Z</time>
      </trkpt>
      <trkpt lat="42.44247" lon="2.82846">
        <ele>722.4</ele>
        <time>2024-07-16T05:53:37Z</time>
      </trkpt>
      <trkpt lat="42.44252" lon="2.82857">
        <ele>721</ele>
        <time>2024-07-16T05:53:44Z</time>
      </trkpt>
      <trkpt lat="42.44259" lon="2.82871">
        <ele>718</ele>
        <time>2024-07-16T05:53:51Z</time>
      </trkpt>
      <trkpt lat="42.44266" lon="2.82889">
        <ele>714</ele>
        <time>2024-07-16T05:53:59Z</time>
      </trkpt>
      <trkpt lat="42.44268" lon="2.82893">
        <ele>712.8</ele>
        <time>2024-07-16T05:54:01Z</time>
      </trkpt>
      <trkpt lat="42.44272" lon="2.82902">
        <ele>710.8</ele>
        <time>2024-07-16T05:54:06Z</time>
      </trkpt>
      <trkpt lat="42.44276" lon="2.82915">
        <ele>708.4</ele>
        <time>2024-07-16T05:54:15Z</time>
      </trkpt>
      <trkpt lat="42.44278" lon="2.82923">
        <ele>706.2</ele>
        <time>2024-07-16T05:54:23Z</time>
      </trkpt>
      <trkpt lat="42.44284" lon="2.82935">
        <ele>703.6</ele>
        <time>2024-07-16T05:54:31Z</time>
      </trkpt>
      <trkpt lat="42.44293" lon="2.82941">
        <ele>702.8</ele>
        <time>2024-07-16T05:54:38Z</time>
      </trkpt>
      <trkpt lat="42.44303" lon="2.82945">
        <ele>701.2</ele>
        <time>2024-07-16T05:54:46Z</time>
      </trkpt>
      <trkpt lat="42.44313" lon="2.82949">
        <ele>700.2</ele>
        <time>2024-07-16T05:54:53Z</time>
      </trkpt>
      <trkpt lat="42.44315" lon="2.82949">
        <ele>700</ele>
        <time>2024-07-16T05:54:55Z</time>
      </trkpt>
      <trkpt lat="42.4432" lon="2.8295">
        <ele>698.8</ele>
        <time>2024-07-16T05:55:00Z</time>
      </trkpt>
      <trkpt lat="42.44324" lon="2.82952">
        <ele>698.4</ele>
        <time>2024-07-16T05:55:02Z</time>
      </trkpt>
      <trkpt lat="42.44328" lon="2.8295">
        <ele>698</ele>
        <time>2024-07-16T05:55:05Z</time>
      </trkpt>
      <trkpt lat="42.44339" lon="2.82946">
        <ele>697.4</ele>
        <time>2024-07-16T05:55:13Z</time>
      </trkpt>
      <trkpt lat="42.4434" lon="2.82944">
        <ele>697.2</ele>
        <time>2024-07-16T05:55:14Z</time>
      </trkpt>
      <trkpt lat="42.44344" lon="2.82939">
        <ele>696.6</ele>
        <time>2024-07-16T05:55:18Z</time>
      </trkpt>
      <trkpt lat="42.44348" lon="2.82939">
        <ele>696.2</ele>
        <time>2024-07-16T05:55:20Z</time>
      </trkpt>
      <trkpt lat="42.44354" lon="2.82939">
        <ele>695.2</ele>
        <time>2024-07-16T05:55:24Z</time>
      </trkpt>
      <trkpt lat="42.44364" lon="2.82932">
        <ele>693.8</ele>
        <time>2024-07-16T05:55:33Z</time>
      </trkpt>
      <trkpt lat="42.44373" lon="2.82935">
        <ele>692.6</ele>
        <time>2024-07-16T05:55:41Z</time>
      </trkpt>
      <trkpt lat="42.44383" lon="2.82938">
        <ele>689.6</ele>
        <time>2024-07-16T05:55:50Z</time>
      </trkpt>
      <trkpt lat="42.44391" lon="2.82938">
        <ele>688.4</ele>
        <time>2024-07-16T05:55:57Z</time>
      </trkpt>
      <trkpt lat="42.44397" lon="2.82942">
        <ele>688.4</ele>
        <time>2024-07-16T05:56:02Z</time>
      </trkpt>
      <trkpt lat="42.44399" lon="2.82941">
        <ele>688.4</ele>
        <time>2024-07-16T05:56:04Z</time>
      </trkpt>
      <trkpt lat="42.444" lon="2.82942">
        <ele>688.2</ele>
        <time>2024-07-16T05:56:05Z</time>
      </trkpt>
      <trkpt lat="42.44406" lon="2.82944">
        <ele>688.2</ele>
        <time>2024-07-16T05:56:10Z</time>
      </trkpt>
      <trkpt lat="42.4442" lon="2.82955">
        <ele>686</ele>
        <time>2024-07-16T05:56:20Z</time>
      </trkpt>
      <trkpt lat="42.44426" lon="2.82961">
        <ele>684.4</ele>
        <time>2024-07-16T05:56:26Z</time>
      </trkpt>
      <trkpt lat="42.44435" lon="2.82961">
        <ele>682</ele>
        <time>2024-07-16T05:56:35Z</time>
      </trkpt>
      <trkpt lat="42.44441" lon="2.82962">
        <ele>681.4</ele>
        <time>2024-07-16T05:56:40Z</time>
      </trkpt>
      <trkpt lat="42.44443" lon="2.82964">
        <ele>681</ele>
        <time>2024-07-16T05:56:42Z</time>
      </trkpt>
      <trkpt lat="42.44445" lon="2.82965">
        <ele>680.8</ele>
        <time>2024-07-16T05:56:43Z</time>
      </trkpt>
      <trkpt lat="42.44453" lon="2.82963">
        <ele>680.2</ele>
        <time>2024-07-16T05:56:50Z</time>
      </trkpt>
      <trkpt lat="42.44466" lon="2.82969">
        <ele>681</ele>
        <time>2024-07-16T05:56:59Z</time>
      </trkpt>
      <trkpt lat="42.44474" lon="2.82975">
        <ele>683</ele>
        <time>2024-07-16T05:57:07Z</time>
      </trkpt>
      <trkpt lat="42.44482" lon="2.82987">
        <ele>684</ele>
        <time>2024-07-16T05:57:15Z</time>
      </trkpt>
      <trkpt lat="42.44489" lon="2.83001">
        <ele>680.6</ele>
        <time>2024-07-16T05:57:24Z</time>
      </trkpt>
      <trkpt lat="42.44495" lon="2.83018">
        <ele>677.8</ele>
        <time>2024-07-16T05:57:32Z</time>
      </trkpt>
      <trkpt lat="42.44495" lon="2.8302">
        <ele>677.4</ele>
        <time>2024-07-16T05:57:33Z</time>
      </trkpt>
      <trkpt lat="42.4449" lon="2.83036">
        <ele>676</ele>
        <time>2024-07-16T05:57:41Z</time>
      </trkpt>
      <trkpt lat="42.44488" lon="2.83042">
        <ele>675.6</ele>
        <time>2024-07-16T05:57:45Z</time>
      </trkpt>
      <trkpt lat="42.44487" lon="2.83044">
        <ele>675.4</ele>
        <time>2024-07-16T05:57:46Z</time>
      </trkpt>
      <trkpt lat="42.44482" lon="2.83053">
        <ele>673.6</ele>
        <time>2024-07-16T05:57:52Z</time>
      </trkpt>
      <trkpt lat="42.44482" lon="2.83057">
        <ele>673.6</ele>
        <time>2024-07-16T05:57:54Z</time>
      </trkpt>
      <trkpt lat="42.44482" lon="2.83067">
        <ele>674.4</ele>
        <time>2024-07-16T05:57:59Z</time>
      </trkpt>
      <trkpt lat="42.44482" lon="2.83076">
        <ele>674.8</ele>
        <time>2024-07-16T05:58:04Z</time>
      </trkpt>
      <trkpt lat="42.44484" lon="2.83079">
        <ele>674.8</ele>
        <time>2024-07-16T05:58:06Z</time>
      </trkpt>
      <trkpt lat="42.44486" lon="2.83083">
        <ele>674.4</ele>
        <time>2024-07-16T05:58:09Z</time>
      </trkpt>
      <trkpt lat="42.44487" lon="2.83087">
        <ele>674.2</ele>
        <time>2024-07-16T05:58:12Z</time>
      </trkpt>
      <trkpt lat="42.44488" lon="2.83108">
        <ele>671</ele>
        <time>2024-07-16T05:58:24Z</time>
      </trkpt>
      <trkpt lat="42.44494" lon="2.83125">
        <ele>671.6</ele>
        <time>2024-07-16T05:58:34Z</time>
      </trkpt>
      <trkpt lat="42.44501" lon="2.83133">
        <ele>673.2</ele>
        <time>2024-07-16T05:58:42Z</time>
      </trkpt>
      <trkpt lat="42.44512" lon="2.83136">
        <ele>671</ele>
        <time>2024-07-16T05:58:52Z</time>
      </trkpt>
      <trkpt lat="42.44522" lon="2.83136">
        <ele>670.8</ele>
        <time>2024-07-16T05:59:01Z</time>
      </trkpt>
      <trkpt lat="42.44531" lon="2.83134">
        <ele>669.6</ele>
        <time>2024-07-16T05:59:09Z</time>
      </trkpt>
      <trkpt lat="42.44531" lon="2.83133">
        <ele>669.6</ele>
        <time>2024-07-16T05:59:10Z</time>
      </trkpt>
      <trkpt lat="42.44537" lon="2.83133">
        <ele>669.8</ele>
        <time>2024-07-16T05:59:15Z</time>
      </trkpt>
      <trkpt lat="42.44546" lon="2.83133">
        <ele>671</ele>
        <time>2024-07-16T05:59:23Z</time>
      </trkpt>
      <trkpt lat="42.44555" lon="2.83134">
        <ele>671.8</ele>
        <time>2024-07-16T05:59:31Z</time>
      </trkpt>
      <trkpt lat="42.44565" lon="2.83135">
        <ele>673.2</ele>
        <time>2024-07-16T05:59:41Z</time>
      </trkpt>
      <trkpt lat="42.44575" lon="2.83136">
        <ele>674.8</ele>
        <time>2024-07-16T05:59:49Z</time>
      </trkpt>
      <trkpt lat="42.44576" lon="2.83135">
        <ele>675</ele>
        <time>2024-07-16T05:59:50Z</time>
      </trkpt>
      <trkpt lat="42.44583" lon="2.83136">
        <ele>676.2</ele>
        <time>2024-07-16T05:59:57Z</time>
      </trkpt>
      <trkpt lat="42.44594" lon="2.83139">
        <ele>677.6</ele>
        <time>2024-07-16T06:00:06Z</time>
      </trkpt>
      <trkpt lat="42.44595" lon="2.83139">
        <ele>677.6</ele>
        <time>2024-07-16T06:00:07Z</time>
      </trkpt>
      <trkpt lat="42.44599" lon="2.83138">
        <ele>678</ele>
        <time>2024-07-16T06:00:11Z</time>
      </trkpt>
      <trkpt lat="42.4461" lon="2.83142">
        <ele>680.4</ele>
        <time>2024-07-16T06:00:20Z</time>
      </trkpt>
      <trkpt lat="42.4462" lon="2.83149">
        <ele>682</ele>
        <time>2024-07-16T06:00:28Z</time>
      </trkpt>
      <trkpt lat="42.44627" lon="2.83154">
        <ele>681.8</ele>
        <time>2024-07-16T06:00:35Z</time>
      </trkpt>
      <trkpt lat="42.44635" lon="2.83162">
        <ele>681</ele>
        <time>2024-07-16T06:00:42Z</time>
      </trkpt>
      <trkpt lat="42.44638" lon="2.83162">
        <ele>680.2</ele>
        <time>2024-07-16T06:00:44Z</time>
      </trkpt>
      <trkpt lat="42.44647" lon="2.8316">
        <ele>680</ele>
        <time>2024-07-16T06:00:52Z</time>
      </trkpt>
      <trkpt lat="42.44649" lon="2.8316">
        <ele>680.4</ele>
        <time>2024-07-16T06:00:54Z</time>
      </trkpt>
      <trkpt lat="42.44652" lon="2.83159">
        <ele>680.6</ele>
        <time>2024-07-16T06:00:56Z</time>
      </trkpt>
      <trkpt lat="42.44659" lon="2.8316">
        <ele>680.6</ele>
        <time>2024-07-16T06:01:01Z</time>
      </trkpt>
      <trkpt lat="42.44663" lon="2.8316">
        <ele>679.8</ele>
        <time>2024-07-16T06:01:04Z</time>
      </trkpt>
      <trkpt lat="42.44674" lon="2.83161">
        <ele>677.2</ele>
        <time>2024-07-16T06:01:12Z</time>
      </trkpt>
      <trkpt lat="42.44693" lon="2.83165">
        <ele>674.4</ele>
        <time>2024-07-16T06:01:22Z</time>
      </trkpt>
      <trkpt lat="42.44702" lon="2.83162">
        <ele>673.4</ele>
        <time>2024-07-16T06:01:29Z</time>
      </trkpt>
      <trkpt lat="42.44712" lon="2.83155">
        <ele>671.8</ele>
        <time>2024-07-16T06:01:37Z</time>
      </trkpt>
      <trkpt lat="42.44712" lon="2.83155">
        <ele>671.2</ele>
        <time>2024-07-16T06:01:38Z</time>
      </trkpt>
      <trkpt lat="42.44718" lon="2.8315">
        <ele>669.6</ele>
        <time>2024-07-16T06:01:43Z</time>
      </trkpt>
      <trkpt lat="42.44726" lon="2.83142">
        <ele>666.6</ele>
        <time>2024-07-16T06:01:52Z</time>
      </trkpt>
      <trkpt lat="42.4473" lon="2.83141">
        <ele>665.8</ele>
        <time>2024-07-16T06:01:55Z</time>
      </trkpt>
      <trkpt lat="42.44733" lon="2.8314">
        <ele>665.2</ele>
        <time>2024-07-16T06:01:57Z</time>
      </trkpt>
      <trkpt lat="42.4474" lon="2.83137">
        <ele>663.6</ele>
        <time>2024-07-16T06:02:03Z</time>
      </trkpt>
      <trkpt lat="42.44743" lon="2.83136">
        <ele>663.2</ele>
        <time>2024-07-16T06:02:05Z</time>
      </trkpt>
      <trkpt lat="42.4475" lon="2.83132">
        <ele>663.2</ele>
        <time>2024-07-16T06:02:11Z</time>
      </trkpt>
      <trkpt lat="42.44751" lon="2.83131">
        <ele>663.4</ele>
        <time>2024-07-16T06:02:12Z</time>
      </trkpt>
      <trkpt lat="42.44754" lon="2.83128">
        <ele>663.4</ele>
        <time>2024-07-16T06:02:15Z</time>
      </trkpt>
      <trkpt lat="42.44758" lon="2.83126">
        <ele>663.2</ele>
        <time>2024-07-16T06:02:18Z</time>
      </trkpt>
      <trkpt lat="42.4476" lon="2.83125">
        <ele>663.2</ele>
        <time>2024-07-16T06:02:19Z</time>
      </trkpt>
      <trkpt lat="42.44762" lon="2.83118">
        <ele>663</ele>
        <time>2024-07-16T06:02:23Z</time>
      </trkpt>
      <trkpt lat="42.44765" lon="2.83112">
        <ele>662.2</ele>
        <time>2024-07-16T06:02:27Z</time>
      </trkpt>
      <trkpt lat="42.44768" lon="2.8311">
        <ele>661.4</ele>
        <time>2024-07-16T06:02:29Z</time>
      </trkpt>
      <trkpt lat="42.44778" lon="2.83107">
        <ele>660.6</ele>
        <time>2024-07-16T06:02:36Z</time>
      </trkpt>
      <trkpt lat="42.44782" lon="2.83103">
        <ele>661.2</ele>
        <time>2024-07-16T06:02:40Z</time>
      </trkpt>
      <trkpt lat="42.44785" lon="2.83103">
        <ele>661.4</ele>
        <time>2024-07-16T06:02:42Z</time>
      </trkpt>
      <trkpt lat="42.44791" lon="2.83092">
        <ele>661.8</ele>
        <time>2024-07-16T06:02:49Z</time>
      </trkpt>
      <trkpt lat="42.448" lon="2.83088">
        <ele>661.2</ele>
        <time>2024-07-16T06:02:55Z</time>
      </trkpt>
      <trkpt lat="42.44802" lon="2.83086">
        <ele>660.6</ele>
        <time>2024-07-16T06:02:57Z</time>
      </trkpt>
      <trkpt lat="42.44808" lon="2.83079">
        <ele>660.8</ele>
        <time>2024-07-16T06:03:04Z</time>
      </trkpt>
      <trkpt lat="42.44811" lon="2.83076">
        <ele>661.4</ele>
        <time>2024-07-16T06:03:08Z</time>
      </trkpt>
      <trkpt lat="42.44814" lon="2.83075">
        <ele>661.8</ele>
        <time>2024-07-16T06:03:10Z</time>
      </trkpt>
      <trkpt lat="42.44815" lon="2.83074">
        <ele>662</ele>
        <time>2024-07-16T06:03:11Z</time>
      </trkpt>
      <trkpt lat="42.44817" lon="2.83067">
        <ele>662.4</ele>
        <time>2024-07-16T06:03:15Z</time>
      </trkpt>
      <trkpt lat="42.44819" lon="2.83063">
        <ele>661.6</ele>
        <time>2024-07-16T06:03:18Z</time>
      </trkpt>
      <trkpt lat="42.44822" lon="2.83063">
        <ele>661.2</ele>
        <time>2024-07-16T06:03:20Z</time>
      </trkpt>
      <trkpt lat="42.44832" lon="2.83062">
        <ele>659.6</ele>
        <time>2024-07-16T06:03:27Z</time>
      </trkpt>
      <trkpt lat="42.44837" lon="2.83054">
        <ele>659</ele>
        <time>2024-07-16T06:03:33Z</time>
      </trkpt>
      <trkpt lat="42.44838" lon="2.8305">
        <ele>659</ele>
        <time>2024-07-16T06:03:35Z</time>
      </trkpt>
      <trkpt lat="42.44843" lon="2.83041">
        <ele>659.4</ele>
        <time>2024-07-16T06:03:40Z</time>
      </trkpt>
      <trkpt lat="42.44848" lon="2.83033">
        <ele>658.8</ele>
        <time>2024-07-16T06:03:47Z</time>
      </trkpt>
      <trkpt lat="42.44856" lon="2.83025">
        <ele>658.2</ele>
        <time>2024-07-16T06:03:56Z</time>
      </trkpt>
      <trkpt lat="42.44864" lon="2.83019">
        <ele>658.6</ele>
        <time>2024-07-16T06:04:03Z</time>
      </trkpt>
      <trkpt lat="42.44867" lon="2.83018">
        <ele>658.2</ele>
        <time>2024-07-16T06:04:05Z</time>
      </trkpt>
      <trkpt lat="42.44874" lon="2.83013">
        <ele>657</ele>
        <time>2024-07-16T06:04:11Z</time>
      </trkpt>
      <trkpt lat="42.44882" lon="2.83006">
        <ele>656.2</ele>
        <time>2024-07-16T06:04:18Z</time>
      </trkpt>
      <trkpt lat="42.44892" lon="2.83001">
        <ele>655.2</ele>
        <time>2024-07-16T06:04:25Z</time>
      </trkpt>
      <trkpt lat="42.44897" lon="2.82992">
        <ele>652.8</ele>
        <time>2024-07-16T06:04:31Z</time>
      </trkpt>
      <trkpt lat="42.44897" lon="2.82991">
        <ele>652.6</ele>
        <time>2024-07-16T06:04:32Z</time>
      </trkpt>
      <trkpt lat="42.44901" lon="2.82983">
        <ele>652.4</ele>
        <time>2024-07-16T06:04:37Z</time>
      </trkpt>
      <trkpt lat="42.44904" lon="2.8298">
        <ele>651.6</ele>
        <time>2024-07-16T06:04:40Z</time>
      </trkpt>
      <trkpt lat="42.44911" lon="2.82975">
        <ele>650</ele>
        <time>2024-07-16T06:04:46Z</time>
      </trkpt>
      <trkpt lat="42.44913" lon="2.82972">
        <ele>649.6</ele>
        <time>2024-07-16T06:04:48Z</time>
      </trkpt>
      <trkpt lat="42.44915" lon="2.82968">
        <ele>648.2</ele>
        <time>2024-07-16T06:04:51Z</time>
      </trkpt>
      <trkpt lat="42.44917" lon="2.82965">
        <ele>647.8</ele>
        <time>2024-07-16T06:04:55Z</time>
      </trkpt>
      <trkpt lat="42.44924" lon="2.82958">
        <ele>648.8</ele>
        <time>2024-07-16T06:05:02Z</time>
      </trkpt>
      <trkpt lat="42.44925" lon="2.82957">
        <ele>648.8</ele>
        <time>2024-07-16T06:05:03Z</time>
      </trkpt>
      <trkpt lat="42.4493" lon="2.82954">
        <ele>649.2</ele>
        <time>2024-07-16T06:05:07Z</time>
      </trkpt>
      <trkpt lat="42.44933" lon="2.82955">
        <ele>649.4</ele>
        <time>2024-07-16T06:05:09Z</time>
      </trkpt>
      <trkpt lat="42.44935" lon="2.82962">
        <ele>650</ele>
        <time>2024-07-16T06:05:12Z</time>
      </trkpt>
      <trkpt lat="42.44932" lon="2.82973">
        <ele>651.2</ele>
        <time>2024-07-16T06:05:20Z</time>
      </trkpt>
      <trkpt lat="42.44923" lon="2.82985">
        <ele>649</ele>
        <time>2024-07-16T06:05:29Z</time>
      </trkpt>
      <trkpt lat="42.4492" lon="2.82995">
        <ele>646</ele>
        <time>2024-07-16T06:05:36Z</time>
      </trkpt>
      <trkpt lat="42.44913" lon="2.83012">
        <ele>644.6</ele>
        <time>2024-07-16T06:05:47Z</time>
      </trkpt>
      <trkpt lat="42.4491" lon="2.83015">
        <ele>644.6</ele>
        <time>2024-07-16T06:05:50Z</time>
      </trkpt>
      <trkpt lat="42.44909" lon="2.8302">
        <ele>644.4</ele>
        <time>2024-07-16T06:05:53Z</time>
      </trkpt>
      <trkpt lat="42.44901" lon="2.83031">
        <ele>643.8</ele>
        <time>2024-07-16T06:06:01Z</time>
      </trkpt>
      <trkpt lat="42.44896" lon="2.83042">
        <ele>643.4</ele>
        <time>2024-07-16T06:06:09Z</time>
      </trkpt>
      <trkpt lat="42.44888" lon="2.83051">
        <ele>644</ele>
        <time>2024-07-16T06:06:17Z</time>
      </trkpt>
      <trkpt lat="42.44887" lon="2.83052">
        <ele>644</ele>
        <time>2024-07-16T06:06:18Z</time>
      </trkpt>
      <trkpt lat="42.44882" lon="2.8306">
        <ele>643.6</ele>
        <time>2024-07-16T06:06:24Z</time>
      </trkpt>
      <trkpt lat="42.44882" lon="2.83061">
        <ele>643.4</ele>
        <time>2024-07-16T06:06:25Z</time>
      </trkpt>
      <trkpt lat="42.44877" lon="2.83071">
        <ele>642.4</ele>
        <time>2024-07-16T06:06:32Z</time>
      </trkpt>
      <trkpt lat="42.44871" lon="2.83083">
        <ele>639</ele>
        <time>2024-07-16T06:06:41Z</time>
      </trkpt>
      <trkpt lat="42.44872" lon="2.83086">
        <ele>638.6</ele>
        <time>2024-07-16T06:06:42Z</time>
      </trkpt>
      <trkpt lat="42.4487" lon="2.83091">
        <ele>638</ele>
        <time>2024-07-16T06:06:46Z</time>
      </trkpt>
      <trkpt lat="42.44863" lon="2.83099">
        <ele>637.4</ele>
        <time>2024-07-16T06:06:54Z</time>
      </trkpt>
      <trkpt lat="42.44864" lon="2.83103">
        <ele>636.8</ele>
        <time>2024-07-16T06:06:56Z</time>
      </trkpt>
      <trkpt lat="42.44863" lon="2.8311">
        <ele>635.6</ele>
        <time>2024-07-16T06:07:00Z</time>
      </trkpt>
      <trkpt lat="42.44864" lon="2.83115">
        <ele>635.4</ele>
        <time>2024-07-16T06:07:02Z</time>
      </trkpt>
      <trkpt lat="42.44865" lon="2.83121">
        <ele>634.8</ele>
        <time>2024-07-16T06:07:05Z</time>
      </trkpt>
      <trkpt lat="42.44864" lon="2.83127">
        <ele>634.2</ele>
        <time>2024-07-16T06:07:08Z</time>
      </trkpt>
      <trkpt lat="42.44865" lon="2.83133">
        <ele>634</ele>
        <time>2024-07-16T06:07:11Z</time>
      </trkpt>
      <trkpt lat="42.44864" lon="2.83136">
        <ele>634.4</ele>
        <time>2024-07-16T06:07:13Z</time>
      </trkpt>
      <trkpt lat="42.44865" lon="2.83141">
        <ele>635</ele>
        <time>2024-07-16T06:07:15Z</time>
      </trkpt>
      <trkpt lat="42.44865" lon="2.83146">
        <ele>635.4</ele>
        <time>2024-07-16T06:07:17Z</time>
      </trkpt>
      <trkpt lat="42.44863" lon="2.83149">
        <ele>635.4</ele>
        <time>2024-07-16T06:07:19Z</time>
      </trkpt>
      <trkpt lat="42.44859" lon="2.8315">
        <ele>635.2</ele>
        <time>2024-07-16T06:07:21Z</time>
      </trkpt>
      <trkpt lat="42.44857" lon="2.83153">
        <ele>635.2</ele>
        <time>2024-07-16T06:07:23Z</time>
      </trkpt>
      <trkpt lat="42.44858" lon="2.83156">
        <ele>635.2</ele>
        <time>2024-07-16T06:07:24Z</time>
      </trkpt>
      <trkpt lat="42.44858" lon="2.83165">
        <ele>634.6</ele>
        <time>2024-07-16T06:07:29Z</time>
      </trkpt>
      <trkpt lat="42.44854" lon="2.83177">
        <ele>633.4</ele>
        <time>2024-07-16T06:07:37Z</time>
      </trkpt>
      <trkpt lat="42.44852" lon="2.83182">
        <ele>631.6</ele>
        <time>2024-07-16T06:07:41Z</time>
      </trkpt>
      <trkpt lat="42.44851" lon="2.83188">
        <ele>630.8</ele>
        <time>2024-07-16T06:07:43Z</time>
      </trkpt>
      <trkpt lat="42.44846" lon="2.832">
        <ele>628.8</ele>
        <time>2024-07-16T06:07:52Z</time>
      </trkpt>
      <trkpt lat="42.44844" lon="2.83211">
        <ele>627.4</ele>
        <time>2024-07-16T06:07:58Z</time>
      </trkpt>
      <trkpt lat="42.44842" lon="2.83214">
        <ele>627</ele>
        <time>2024-07-16T06:08:01Z</time>
      </trkpt>
      <trkpt lat="42.44839" lon="2.83219">
        <ele>627</ele>
        <time>2024-07-16T06:08:04Z</time>
      </trkpt>
      <trkpt lat="42.44838" lon="2.83222">
        <ele>627</ele>
        <time>2024-07-16T06:08:06Z</time>
      </trkpt>
      <trkpt lat="42.44835" lon="2.83223">
        <ele>627.4</ele>
        <time>2024-07-16T06:08:08Z</time>
      </trkpt>
      <trkpt lat="42.44832" lon="2.83228">
        <ele>627.8</ele>
        <time>2024-07-16T06:08:12Z</time>
      </trkpt>
      <trkpt lat="42.44832" lon="2.83232">
        <ele>627.8</ele>
        <time>2024-07-16T06:08:14Z</time>
      </trkpt>
      <trkpt lat="42.44827" lon="2.83241">
        <ele>628</ele>
        <time>2024-07-16T06:08:20Z</time>
      </trkpt>
      <trkpt lat="42.44823" lon="2.8325">
        <ele>629</ele>
        <time>2024-07-16T06:08:26Z</time>
      </trkpt>
      <trkpt lat="42.44823" lon="2.83251">
        <ele>629.4</ele>
        <time>2024-07-16T06:08:27Z</time>
      </trkpt>
      <trkpt lat="42.44817" lon="2.83258">
        <ele>630.6</ele>
        <time>2024-07-16T06:08:33Z</time>
      </trkpt>
      <trkpt lat="42.44816" lon="2.83259">
        <ele>630.6</ele>
        <time>2024-07-16T06:08:34Z</time>
      </trkpt>
      <trkpt lat="42.44814" lon="2.83262">
        <ele>629.6</ele>
        <time>2024-07-16T06:08:37Z</time>
      </trkpt>
      <trkpt lat="42.44813" lon="2.83265">
        <ele>629.2</ele>
        <time>2024-07-16T06:08:39Z</time>
      </trkpt>
      <trkpt lat="42.44811" lon="2.8327">
        <ele>629.4</ele>
        <time>2024-07-16T06:08:43Z</time>
      </trkpt>
      <trkpt lat="42.44813" lon="2.83275">
        <ele>629.6</ele>
        <time>2024-07-16T06:08:46Z</time>
      </trkpt>
      <trkpt lat="42.44813" lon="2.83284">
        <ele>628.8</ele>
        <time>2024-07-16T06:08:52Z</time>
      </trkpt>
      <trkpt lat="42.44813" lon="2.83288">
        <ele>627.6</ele>
        <time>2024-07-16T06:08:57Z</time>
      </trkpt>
      <trkpt lat="42.44813" lon="2.8329">
        <ele>627.6</ele>
        <time>2024-07-16T06:08:58Z</time>
      </trkpt>
      <trkpt lat="42.44817" lon="2.83294">
        <ele>627.4</ele>
        <time>2024-07-16T06:09:01Z</time>
      </trkpt>
      <trkpt lat="42.44824" lon="2.83302">
        <ele>627.2</ele>
        <time>2024-07-16T06:09:09Z</time>
      </trkpt>
      <trkpt lat="42.44829" lon="2.83303">
        <ele>626.4</ele>
        <time>2024-07-16T06:09:18Z</time>
      </trkpt>
      <trkpt lat="42.4483" lon="2.83303">
        <ele>626.4</ele>
        <time>2024-07-16T06:09:19Z</time>
      </trkpt>
      <trkpt lat="42.44838" lon="2.83302">
        <ele>627</ele>
        <time>2024-07-16T06:09:24Z</time>
      </trkpt>
      <trkpt lat="42.44849" lon="2.83306">
        <ele>626.8</ele>
        <time>2024-07-16T06:09:32Z</time>
      </trkpt>
      <trkpt lat="42.44852" lon="2.83304">
        <ele>626.6</ele>
        <time>2024-07-16T06:09:36Z</time>
      </trkpt>
      <trkpt lat="42.44855" lon="2.83303">
        <ele>625</ele>
        <time>2024-07-16T06:09:39Z</time>
      </trkpt>
      <trkpt lat="42.44862" lon="2.83302">
        <ele>623</ele>
        <time>2024-07-16T06:09:45Z</time>
      </trkpt>
      <trkpt lat="42.44865" lon="2.83301">
        <ele>622.6</ele>
        <time>2024-07-16T06:09:48Z</time>
      </trkpt>
      <trkpt lat="42.44869" lon="2.833">
        <ele>622.4</ele>
        <time>2024-07-16T06:09:51Z</time>
      </trkpt>
      <trkpt lat="42.44871" lon="2.83299">
        <ele>622.6</ele>
        <time>2024-07-16T06:09:53Z</time>
      </trkpt>
      <trkpt lat="42.44876" lon="2.83297">
        <ele>622.8</ele>
        <time>2024-07-16T06:09:56Z</time>
      </trkpt>
      <trkpt lat="42.44881" lon="2.83295">
        <ele>622.8</ele>
        <time>2024-07-16T06:09:59Z</time>
      </trkpt>
      <trkpt lat="42.44882" lon="2.83294">
        <ele>623</ele>
        <time>2024-07-16T06:10:00Z</time>
      </trkpt>
      <trkpt lat="42.44883" lon="2.83292">
        <ele>623.2</ele>
        <time>2024-07-16T06:10:02Z</time>
      </trkpt>
      <trkpt lat="42.44887" lon="2.8329">
        <ele>624</ele>
        <time>2024-07-16T06:10:05Z</time>
      </trkpt>
      <trkpt lat="42.44893" lon="2.83292">
        <ele>624.6</ele>
        <time>2024-07-16T06:10:10Z</time>
      </trkpt>
      <trkpt lat="42.44895" lon="2.83291">
        <ele>624.6</ele>
        <time>2024-07-16T06:10:12Z</time>
      </trkpt>
      <trkpt lat="42.44896" lon="2.8329">
        <ele>624.4</ele>
        <time>2024-07-16T06:10:13Z</time>
      </trkpt>
      <trkpt lat="42.449" lon="2.83288">
        <ele>623.6</ele>
        <time>2024-07-16T06:10:16Z</time>
      </trkpt>
      <trkpt lat="42.44913" lon="2.83291">
        <ele>621.8</ele>
        <time>2024-07-16T06:10:25Z</time>
      </trkpt>
      <trkpt lat="42.44913" lon="2.83289">
        <ele>621.2</ele>
        <time>2024-07-16T06:10:26Z</time>
      </trkpt>
      <trkpt lat="42.44918" lon="2.83285">
        <ele>619.4</ele>
        <time>2024-07-16T06:10:31Z</time>
      </trkpt>
      <trkpt lat="42.44924" lon="2.83282">
        <ele>618.6</ele>
        <time>2024-07-16T06:10:34Z</time>
      </trkpt>
      <trkpt lat="42.44928" lon="2.83278">
        <ele>616.8</ele>
        <time>2024-07-16T06:10:38Z</time>
      </trkpt>
      <trkpt lat="42.44937" lon="2.83273">
        <ele>617</ele>
        <time>2024-07-16T06:10:46Z</time>
      </trkpt>
      <trkpt lat="42.44943" lon="2.83263">
        <ele>616.4</ele>
        <time>2024-07-16T06:10:52Z</time>
      </trkpt>
      <trkpt lat="42.44949" lon="2.83257">
        <ele>613.6</ele>
        <time>2024-07-16T06:10:57Z</time>
      </trkpt>
      <trkpt lat="42.44949" lon="2.83255">
        <ele>613.4</ele>
        <time>2024-07-16T06:10:58Z</time>
      </trkpt>
      <trkpt lat="42.44951" lon="2.83255">
        <ele>613.2</ele>
        <time>2024-07-16T06:10:59Z</time>
      </trkpt>
      <trkpt lat="42.44954" lon="2.83251">
        <ele>613</ele>
        <time>2024-07-16T06:11:03Z</time>
      </trkpt>
      <trkpt lat="42.44957" lon="2.83246">
        <ele>613</ele>
        <time>2024-07-16T06:11:07Z</time>
      </trkpt>
      <trkpt lat="42.44959" lon="2.83244">
        <ele>612.6</ele>
        <time>2024-07-16T06:11:09Z</time>
      </trkpt>
      <trkpt lat="42.44964" lon="2.83243">
        <ele>611.4</ele>
        <time>2024-07-16T06:11:13Z</time>
      </trkpt>
      <trkpt lat="42.44968" lon="2.83242">
        <ele>610.4</ele>
        <time>2024-07-16T06:11:16Z</time>
      </trkpt>
      <trkpt lat="42.44971" lon="2.83238">
        <ele>609.4</ele>
        <time>2024-07-16T06:11:19Z</time>
      </trkpt>
      <trkpt lat="42.44973" lon="2.83236">
        <ele>609.2</ele>
        <time>2024-07-16T06:11:21Z</time>
      </trkpt>
      <trkpt lat="42.44975" lon="2.83232">
        <ele>608.8</ele>
        <time>2024-07-16T06:11:24Z</time>
      </trkpt>
      <trkpt lat="42.44978" lon="2.83231">
        <ele>608.8</ele>
        <time>2024-07-16T06:11:26Z</time>
      </trkpt>
      <trkpt lat="42.4498" lon="2.83229">
        <ele>608.6</ele>
        <time>2024-07-16T06:11:28Z</time>
      </trkpt>
      <trkpt lat="42.44986" lon="2.83224">
        <ele>608.6</ele>
        <time>2024-07-16T06:11:33Z</time>
      </trkpt>
      <trkpt lat="42.44987" lon="2.83224">
        <ele>608.8</ele>
        <time>2024-07-16T06:11:34Z</time>
      </trkpt>
      <trkpt lat="42.44994" lon="2.83215">
        <ele>609</ele>
        <time>2024-07-16T06:11:40Z</time>
      </trkpt>
      <trkpt lat="42.45" lon="2.83212">
        <ele>608.4</ele>
        <time>2024-07-16T06:11:45Z</time>
      </trkpt>
      <trkpt lat="42.45002" lon="2.83211">
        <ele>608</ele>
        <time>2024-07-16T06:11:47Z</time>
      </trkpt>
      <trkpt lat="42.45014" lon="2.83205">
        <ele>605.8</ele>
        <time>2024-07-16T06:11:57Z</time>
      </trkpt>
      <trkpt lat="42.45024" lon="2.832">
        <ele>604.2</ele>
        <time>2024-07-16T06:12:05Z</time>
      </trkpt>
      <trkpt lat="42.4503" lon="2.83194">
        <ele>603.8</ele>
        <time>2024-07-16T06:12:12Z</time>
      </trkpt>
      <trkpt lat="42.45032" lon="2.83192">
        <ele>604</ele>
        <time>2024-07-16T06:12:14Z</time>
      </trkpt>
      <trkpt lat="42.45033" lon="2.83191">
        <ele>604</ele>
        <time>2024-07-16T06:12:15Z</time>
      </trkpt>
      <trkpt lat="42.45041" lon="2.83193">
        <ele>604.2</ele>
        <time>2024-07-16T06:12:19Z</time>
      </trkpt>
      <trkpt lat="42.45046" lon="2.83193">
        <ele>603.6</ele>
        <time>2024-07-16T06:12:23Z</time>
      </trkpt>
      <trkpt lat="42.45051" lon="2.83194">
        <ele>603.4</ele>
        <time>2024-07-16T06:12:26Z</time>
      </trkpt>
      <trkpt lat="42.45056" lon="2.83197">
        <ele>603.2</ele>
        <time>2024-07-16T06:12:31Z</time>
      </trkpt>
      <trkpt lat="42.45058" lon="2.83198">
        <ele>603</ele>
        <time>2024-07-16T06:12:32Z</time>
      </trkpt>
      <trkpt lat="42.45063" lon="2.83198">
        <ele>602.6</ele>
        <time>2024-07-16T06:12:35Z</time>
      </trkpt>
      <trkpt lat="42.45069" lon="2.83199">
        <ele>603</ele>
        <time>2024-07-16T06:12:40Z</time>
      </trkpt>
      <trkpt lat="42.4507" lon="2.832">
        <ele>603</ele>
        <time>2024-07-16T06:12:41Z</time>
      </trkpt>
      <trkpt lat="42.45076" lon="2.83199">
        <ele>602.4</ele>
        <time>2024-07-16T06:12:46Z</time>
      </trkpt>
      <trkpt lat="42.45077" lon="2.83198">
        <ele>602</ele>
        <time>2024-07-16T06:12:47Z</time>
      </trkpt>
      <trkpt lat="42.45088" lon="2.83194">
        <ele>599.8</ele>
        <time>2024-07-16T06:12:56Z</time>
      </trkpt>
      <trkpt lat="42.45091" lon="2.83193">
        <ele>599.2</ele>
        <time>2024-07-16T06:12:58Z</time>
      </trkpt>
      <trkpt lat="42.45095" lon="2.83189">
        <ele>598.2</ele>
        <time>2024-07-16T06:13:02Z</time>
      </trkpt>
      <trkpt lat="42.45108" lon="2.83183">
        <ele>595.4</ele>
        <time>2024-07-16T06:13:10Z</time>
      </trkpt>
      <trkpt lat="42.45114" lon="2.83171">
        <ele>594.6</ele>
        <time>2024-07-16T06:13:18Z</time>
      </trkpt>
      <trkpt lat="42.45119" lon="2.83156">
        <ele>594.2</ele>
        <time>2024-07-16T06:13:28Z</time>
      </trkpt>
      <trkpt lat="42.45124" lon="2.83143">
        <ele>590.6</ele>
        <time>2024-07-16T06:13:37Z</time>
      </trkpt>
      <trkpt lat="42.45127" lon="2.8314">
        <ele>589.8</ele>
        <time>2024-07-16T06:13:39Z</time>
      </trkpt>
      <trkpt lat="42.45131" lon="2.83135">
        <ele>588.8</ele>
        <time>2024-07-16T06:13:43Z</time>
      </trkpt>
      <trkpt lat="42.45138" lon="2.83128">
        <ele>588</ele>
        <time>2024-07-16T06:13:49Z</time>
      </trkpt>
      <trkpt lat="42.45147" lon="2.83126">
        <ele>587.4</ele>
        <time>2024-07-16T06:13:57Z</time>
      </trkpt>
      <trkpt lat="42.45154" lon="2.83116">
        <ele>587.2</ele>
        <time>2024-07-16T06:14:04Z</time>
      </trkpt>
      <trkpt lat="42.45165" lon="2.8311">
        <ele>586.4</ele>
        <time>2024-07-16T06:14:13Z</time>
      </trkpt>
      <trkpt lat="42.4517" lon="2.83102">
        <ele>585.8</ele>
        <time>2024-07-16T06:14:19Z</time>
      </trkpt>
      <trkpt lat="42.45171" lon="2.831">
        <ele>585.8</ele>
        <time>2024-07-16T06:14:20Z</time>
      </trkpt>
      <trkpt lat="42.45171" lon="2.83099">
        <ele>585.6</ele>
        <time>2024-07-16T06:14:21Z</time>
      </trkpt>
      <trkpt lat="42.45172" lon="2.83097">
        <ele>585.4</ele>
        <time>2024-07-16T06:14:23Z</time>
      </trkpt>
      <trkpt lat="42.45173" lon="2.83096">
        <ele>585</ele>
        <time>2024-07-16T06:14:25Z</time>
      </trkpt>
      <trkpt lat="42.45178" lon="2.83092">
        <ele>583.6</ele>
        <time>2024-07-16T06:14:31Z</time>
      </trkpt>
      <trkpt lat="42.4519" lon="2.83084">
        <ele>582</ele>
        <time>2024-07-16T06:14:39Z</time>
      </trkpt>
      <trkpt lat="42.45198" lon="2.83071">
        <ele>580.8</ele>
        <time>2024-07-16T06:14:49Z</time>
      </trkpt>
      <trkpt lat="42.45207" lon="2.83062">
        <ele>579.6</ele>
        <time>2024-07-16T06:14:57Z</time>
      </trkpt>
      <trkpt lat="42.45208" lon="2.83062">
        <ele>579.6</ele>
        <time>2024-07-16T06:14:58Z</time>
      </trkpt>
      <trkpt lat="42.4521" lon="2.83061">
        <ele>579.4</ele>
        <time>2024-07-16T06:15:00Z</time>
      </trkpt>
      <trkpt lat="42.45211" lon="2.8306">
        <ele>579.4</ele>
        <time>2024-07-16T06:15:01Z</time>
      </trkpt>
      <trkpt lat="42.45213" lon="2.83054">
        <ele>579</ele>
        <time>2024-07-16T06:15:05Z</time>
      </trkpt>
      <trkpt lat="42.45215" lon="2.83053">
        <ele>578.4</ele>
        <time>2024-07-16T06:15:07Z</time>
      </trkpt>
      <trkpt lat="42.45216" lon="2.83052">
        <ele>578.2</ele>
        <time>2024-07-16T06:15:08Z</time>
      </trkpt>
      <trkpt lat="42.4522" lon="2.83051">
        <ele>578</ele>
        <time>2024-07-16T06:15:10Z</time>
      </trkpt>
      <trkpt lat="42.45225" lon="2.83045">
        <ele>577.4</ele>
        <time>2024-07-16T06:15:14Z</time>
      </trkpt>
      <trkpt lat="42.45228" lon="2.83045">
        <ele>577.4</ele>
        <time>2024-07-16T06:15:16Z</time>
      </trkpt>
      <trkpt lat="42.45233" lon="2.83042">
        <ele>577.2</ele>
        <time>2024-07-16T06:15:20Z</time>
      </trkpt>
      <trkpt lat="42.45233" lon="2.83042">
        <ele>577.2</ele>
        <time>2024-07-16T06:15:21Z</time>
      </trkpt>
      <trkpt lat="42.45238" lon="2.83041">
        <ele>577.2</ele>
        <time>2024-07-16T06:15:25Z</time>
      </trkpt>
      <trkpt lat="42.45238" lon="2.8304">
        <ele>577</ele>
        <time>2024-07-16T06:15:26Z</time>
      </trkpt>
      <trkpt lat="42.45246" lon="2.83039">
        <ele>576.8</ele>
        <time>2024-07-16T06:15:32Z</time>
      </trkpt>
      <trkpt lat="42.45256" lon="2.83028">
        <ele>575.4</ele>
        <time>2024-07-16T06:15:42Z</time>
      </trkpt>
      <trkpt lat="42.4526" lon="2.83025">
        <ele>575</ele>
        <time>2024-07-16T06:15:46Z</time>
      </trkpt>
      <trkpt lat="42.45264" lon="2.83023">
        <ele>574.8</ele>
        <time>2024-07-16T06:15:48Z</time>
      </trkpt>
      <trkpt lat="42.45265" lon="2.83022">
        <ele>574.6</ele>
        <time>2024-07-16T06:15:49Z</time>
      </trkpt>
      <trkpt lat="42.45266" lon="2.83021">
        <ele>574.6</ele>
        <time>2024-07-16T06:15:50Z</time>
      </trkpt>
      <trkpt lat="42.4527" lon="2.83015">
        <ele>574</ele>
        <time>2024-07-16T06:15:54Z</time>
      </trkpt>
      <trkpt lat="42.45271" lon="2.83013">
        <ele>573.2</ele>
        <time>2024-07-16T06:15:56Z</time>
      </trkpt>
      <trkpt lat="42.45287" lon="2.83013">
        <ele>571.8</ele>
        <time>2024-07-16T06:16:07Z</time>
      </trkpt>
      <trkpt lat="42.45297" lon="2.83019">
        <ele>570.8</ele>
        <time>2024-07-16T06:16:15Z</time>
      </trkpt>
      <trkpt lat="42.45306" lon="2.83029">
        <ele>570.8</ele>
        <time>2024-07-16T06:16:25Z</time>
      </trkpt>
      <trkpt lat="42.45314" lon="2.83039">
        <ele>569.6</ele>
        <time>2024-07-16T06:16:33Z</time>
      </trkpt>
      <trkpt lat="42.45322" lon="2.83053">
        <ele>569.8</ele>
        <time>2024-07-16T06:16:42Z</time>
      </trkpt>
      <trkpt lat="42.45325" lon="2.83068">
        <ele>569.8</ele>
        <time>2024-07-16T06:16:49Z</time>
      </trkpt>
      <trkpt lat="42.45332" lon="2.83083">
        <ele>570.8</ele>
        <time>2024-07-16T06:16:57Z</time>
      </trkpt>
      <trkpt lat="42.45335" lon="2.83086">
        <ele>571</ele>
        <time>2024-07-16T06:17:01Z</time>
      </trkpt>
      <trkpt lat="42.45336" lon="2.83087">
        <ele>571.2</ele>
        <time>2024-07-16T06:17:03Z</time>
      </trkpt>
      <trkpt lat="42.45344" lon="2.83095">
        <ele>574</ele>
        <time>2024-07-16T06:17:11Z</time>
      </trkpt>
      <trkpt lat="42.45352" lon="2.83102">
        <ele>575.2</ele>
        <time>2024-07-16T06:17:18Z</time>
      </trkpt>
      <trkpt lat="42.45361" lon="2.83109">
        <ele>572.6</ele>
        <time>2024-07-16T06:17:26Z</time>
      </trkpt>
      <trkpt lat="42.45371" lon="2.83121">
        <ele>565.6</ele>
        <time>2024-07-16T06:17:36Z</time>
      </trkpt>
      <trkpt lat="42.45381" lon="2.83134">
        <ele>562.8</ele>
        <time>2024-07-16T06:17:44Z</time>
      </trkpt>
      <trkpt lat="42.45389" lon="2.83142">
        <ele>562.6</ele>
        <time>2024-07-16T06:17:52Z</time>
      </trkpt>
      <trkpt lat="42.45401" lon="2.83158">
        <ele>559</ele>
        <time>2024-07-16T06:18:04Z</time>
      </trkpt>
      <trkpt lat="42.45407" lon="2.8317">
        <ele>557</ele>
        <time>2024-07-16T06:18:11Z</time>
      </trkpt>
      <trkpt lat="42.45414" lon="2.83184">
        <ele>556</ele>
        <time>2024-07-16T06:18:21Z</time>
      </trkpt>
      <trkpt lat="42.45419" lon="2.83198">
        <ele>556</ele>
        <time>2024-07-16T06:18:29Z</time>
      </trkpt>
      <trkpt lat="42.45418" lon="2.832">
        <ele>556</ele>
        <time>2024-07-16T06:18:30Z</time>
      </trkpt>
      <trkpt lat="42.45421" lon="2.83215">
        <ele>556.8</ele>
        <time>2024-07-16T06:18:39Z</time>
      </trkpt>
      <trkpt lat="42.45423" lon="2.83223">
        <ele>557</ele>
        <time>2024-07-16T06:18:45Z</time>
      </trkpt>
      <trkpt lat="42.45431" lon="2.83236">
        <ele>556.4</ele>
        <time>2024-07-16T06:18:52Z</time>
      </trkpt>
      <trkpt lat="42.45431" lon="2.83236">
        <ele>556.4</ele>
        <time>2024-07-16T06:18:53Z</time>
      </trkpt>
      <trkpt lat="42.45432" lon="2.83238">
        <ele>556.2</ele>
        <time>2024-07-16T06:18:55Z</time>
      </trkpt>
      <trkpt lat="42.45434" lon="2.83244">
        <ele>555.6</ele>
        <time>2024-07-16T06:18:59Z</time>
      </trkpt>
      <trkpt lat="42.45441" lon="2.8326">
        <ele>554.4</ele>
        <time>2024-07-16T06:19:07Z</time>
      </trkpt>
      <trkpt lat="42.45446" lon="2.83275">
        <ele>551.2</ele>
        <time>2024-07-16T06:19:16Z</time>
      </trkpt>
      <trkpt lat="42.45447" lon="2.83284">
        <ele>550.4</ele>
        <time>2024-07-16T06:19:20Z</time>
      </trkpt>
      <trkpt lat="42.45449" lon="2.8329">
        <ele>550.2</ele>
        <time>2024-07-16T06:19:23Z</time>
      </trkpt>
      <trkpt lat="42.45448" lon="2.83303">
        <ele>548.4</ele>
        <time>2024-07-16T06:19:30Z</time>
      </trkpt>
      <trkpt lat="42.45448" lon="2.83305">
        <ele>548.2</ele>
        <time>2024-07-16T06:19:31Z</time>
      </trkpt>
      <trkpt lat="42.4545" lon="2.83318">
        <ele>547.6</ele>
        <time>2024-07-16T06:19:39Z</time>
      </trkpt>
      <trkpt lat="42.45457" lon="2.83328">
        <ele>548</ele>
        <time>2024-07-16T06:19:48Z</time>
      </trkpt>
      <trkpt lat="42.45466" lon="2.8334">
        <ele>548.4</ele>
        <time>2024-07-16T06:19:57Z</time>
      </trkpt>
      <trkpt lat="42.45473" lon="2.83352">
        <ele>547.8</ele>
        <time>2024-07-16T06:20:05Z</time>
      </trkpt>
      <trkpt lat="42.45479" lon="2.83363">
        <ele>546.2</ele>
        <time>2024-07-16T06:20:15Z</time>
      </trkpt>
      <trkpt lat="42.4548" lon="2.83365">
        <ele>546</ele>
        <time>2024-07-16T06:20:16Z</time>
      </trkpt>
      <trkpt lat="42.45484" lon="2.83369">
        <ele>545.4</ele>
        <time>2024-07-16T06:20:21Z</time>
      </trkpt>
      <trkpt lat="42.4549" lon="2.83376">
        <ele>545.6</ele>
        <time>2024-07-16T06:20:26Z</time>
      </trkpt>
      <trkpt lat="42.45491" lon="2.83378">
        <ele>546</ele>
        <time>2024-07-16T06:20:28Z</time>
      </trkpt>
      <trkpt lat="42.45496" lon="2.83386">
        <ele>546</ele>
        <time>2024-07-16T06:20:36Z</time>
      </trkpt>
      <trkpt lat="42.45501" lon="2.83391">
        <ele>545.2</ele>
        <time>2024-07-16T06:20:41Z</time>
      </trkpt>
      <trkpt lat="42.45509" lon="2.83402">
        <ele>546</ele>
        <time>2024-07-16T06:20:48Z</time>
      </trkpt>
      <trkpt lat="42.45511" lon="2.83411">
        <ele>546.4</ele>
        <time>2024-07-16T06:20:54Z</time>
      </trkpt>
      <trkpt lat="42.4552" lon="2.83424">
        <ele>543.2</ele>
        <time>2024-07-16T06:21:03Z</time>
      </trkpt>
      <trkpt lat="42.45524" lon="2.8343">
        <ele>542.2</ele>
        <time>2024-07-16T06:21:07Z</time>
      </trkpt>
      <trkpt lat="42.45524" lon="2.83431">
        <ele>541.8</ele>
        <time>2024-07-16T06:21:11Z</time>
      </trkpt>
      <trkpt lat="42.45531" lon="2.83442">
        <ele>543.4</ele>
        <time>2024-07-16T06:21:17Z</time>
      </trkpt>
      <trkpt lat="42.45539" lon="2.83449">
        <ele>544.2</ele>
        <time>2024-07-16T06:21:26Z</time>
      </trkpt>
      <trkpt lat="42.4555" lon="2.83454">
        <ele>541.4</ele>
        <time>2024-07-16T06:21:33Z</time>
      </trkpt>
      <trkpt lat="42.45552" lon="2.83452">
        <ele>540.8</ele>
        <time>2024-07-16T06:21:35Z</time>
      </trkpt>
      <trkpt lat="42.45558" lon="2.83449">
        <ele>541</ele>
        <time>2024-07-16T06:21:40Z</time>
      </trkpt>
      <trkpt lat="42.45559" lon="2.83449">
        <ele>541</ele>
        <time>2024-07-16T06:21:41Z</time>
      </trkpt>
      <trkpt lat="42.45561" lon="2.83448">
        <ele>540.6</ele>
        <time>2024-07-16T06:21:43Z</time>
      </trkpt>
      <trkpt lat="42.45566" lon="2.83441">
        <ele>539</ele>
        <time>2024-07-16T06:21:49Z</time>
      </trkpt>
      <trkpt lat="42.45577" lon="2.83434">
        <ele>533.4</ele>
        <time>2024-07-16T06:21:58Z</time>
      </trkpt>
      <trkpt lat="42.45588" lon="2.83437">
        <ele>527.6</ele>
        <time>2024-07-16T06:22:06Z</time>
      </trkpt>
      <trkpt lat="42.45599" lon="2.83437">
        <ele>526.2</ele>
        <time>2024-07-16T06:22:14Z</time>
      </trkpt>
      <trkpt lat="42.45609" lon="2.83436">
        <ele>526.4</ele>
        <time>2024-07-16T06:22:21Z</time>
      </trkpt>
      <trkpt lat="42.45618" lon="2.83433">
        <ele>526.4</ele>
        <time>2024-07-16T06:22:28Z</time>
      </trkpt>
      <trkpt lat="42.45628" lon="2.83433">
        <ele>526.4</ele>
        <time>2024-07-16T06:22:37Z</time>
      </trkpt>
      <trkpt lat="42.45637" lon="2.83431">
        <ele>524.4</ele>
        <time>2024-07-16T06:22:45Z</time>
      </trkpt>
      <trkpt lat="42.45648" lon="2.83425">
        <ele>523.6</ele>
        <time>2024-07-16T06:22:54Z</time>
      </trkpt>
      <trkpt lat="42.45662" lon="2.8342">
        <ele>521.6</ele>
        <time>2024-07-16T06:23:04Z</time>
      </trkpt>
      <trkpt lat="42.45663" lon="2.83419">
        <ele>521.6</ele>
        <time>2024-07-16T06:23:05Z</time>
      </trkpt>
      <trkpt lat="42.4567" lon="2.83413">
        <ele>520.8</ele>
        <time>2024-07-16T06:23:10Z</time>
      </trkpt>
      <trkpt lat="42.45676" lon="2.83405">
        <ele>518.8</ele>
        <time>2024-07-16T06:23:17Z</time>
      </trkpt>
      <trkpt lat="42.4568" lon="2.834">
        <ele>517.6</ele>
        <time>2024-07-16T06:23:21Z</time>
      </trkpt>
      <trkpt lat="42.45684" lon="2.83396">
        <ele>517</ele>
        <time>2024-07-16T06:23:24Z</time>
      </trkpt>
      <trkpt lat="42.45691" lon="2.83384">
        <ele>516.4</ele>
        <time>2024-07-16T06:23:33Z</time>
      </trkpt>
      <trkpt lat="42.45692" lon="2.83383">
        <ele>516.4</ele>
        <time>2024-07-16T06:23:34Z</time>
      </trkpt>
      <trkpt lat="42.45696" lon="2.83379">
        <ele>516</ele>
        <time>2024-07-16T06:23:38Z</time>
      </trkpt>
      <trkpt lat="42.45697" lon="2.83377">
        <ele>516</ele>
        <time>2024-07-16T06:23:39Z</time>
      </trkpt>
      <trkpt lat="42.45704" lon="2.83368">
        <ele>515.6</ele>
        <time>2024-07-16T06:23:47Z</time>
      </trkpt>
      <trkpt lat="42.4571" lon="2.83354">
        <ele>513.2</ele>
        <time>2024-07-16T06:23:55Z</time>
      </trkpt>
      <trkpt lat="42.45722" lon="2.83345">
        <ele>511.8</ele>
        <time>2024-07-16T06:24:02Z</time>
      </trkpt>
      <trkpt lat="42.4573" lon="2.83334">
        <ele>507.6</ele>
        <time>2024-07-16T06:24:11Z</time>
      </trkpt>
      <trkpt lat="42.45739" lon="2.83323">
        <ele>506</ele>
        <time>2024-07-16T06:24:19Z</time>
      </trkpt>
      <trkpt lat="42.45747" lon="2.83314">
        <ele>504.8</ele>
        <time>2024-07-16T06:24:27Z</time>
      </trkpt>
      <trkpt lat="42.45755" lon="2.83308">
        <ele>503</ele>
        <time>2024-07-16T06:24:35Z</time>
      </trkpt>
      <trkpt lat="42.45762" lon="2.83302">
        <ele>502.8</ele>
        <time>2024-07-16T06:24:42Z</time>
      </trkpt>
      <trkpt lat="42.45764" lon="2.83298">
        <ele>502.8</ele>
        <time>2024-07-16T06:24:44Z</time>
      </trkpt>
      <trkpt lat="42.45773" lon="2.83292">
        <ele>502.4</ele>
        <time>2024-07-16T06:24:51Z</time>
      </trkpt>
      <trkpt lat="42.45784" lon="2.83291">
        <ele>502.2</ele>
        <time>2024-07-16T06:24:59Z</time>
      </trkpt>
      <trkpt lat="42.45793" lon="2.83292">
        <ele>501.8</ele>
        <time>2024-07-16T06:25:07Z</time>
      </trkpt>
      <trkpt lat="42.45803" lon="2.833">
        <ele>503</ele>
        <time>2024-07-16T06:25:16Z</time>
      </trkpt>
      <trkpt lat="42.4581" lon="2.83313">
        <ele>502.8</ele>
        <time>2024-07-16T06:25:24Z</time>
      </trkpt>
      <trkpt lat="42.45818" lon="2.83325">
        <ele>502.8</ele>
        <time>2024-07-16T06:25:32Z</time>
      </trkpt>
      <trkpt lat="42.45822" lon="2.83342">
        <ele>504.2</ele>
        <time>2024-07-16T06:25:41Z</time>
      </trkpt>
      <trkpt lat="42.45825" lon="2.83355">
        <ele>505.4</ele>
        <time>2024-07-16T06:25:46Z</time>
      </trkpt>
      <trkpt lat="42.45825" lon="2.83361">
        <ele>505.8</ele>
        <time>2024-07-16T06:25:49Z</time>
      </trkpt>
      <trkpt lat="42.45825" lon="2.83367">
        <ele>506</ele>
        <time>2024-07-16T06:25:52Z</time>
      </trkpt>
      <trkpt lat="42.45824" lon="2.83368">
        <ele>506</ele>
        <time>2024-07-16T06:25:53Z</time>
      </trkpt>
      <trkpt lat="42.45822" lon="2.8337">
        <ele>505.8</ele>
        <time>2024-07-16T06:25:55Z</time>
      </trkpt>
      <trkpt lat="42.45821" lon="2.83375">
        <ele>505.2</ele>
        <time>2024-07-16T06:25:58Z</time>
      </trkpt>
      <trkpt lat="42.4582" lon="2.83384">
        <ele>505</ele>
        <time>2024-07-16T06:26:03Z</time>
      </trkpt>
      <trkpt lat="42.45819" lon="2.83386">
        <ele>505</ele>
        <time>2024-07-16T06:26:05Z</time>
      </trkpt>
      <trkpt lat="42.45819" lon="2.83409">
        <ele>504</ele>
        <time>2024-07-16T06:26:16Z</time>
      </trkpt>
      <trkpt lat="42.45817" lon="2.83421">
        <ele>504</ele>
        <time>2024-07-16T06:26:22Z</time>
      </trkpt>
      <trkpt lat="42.45816" lon="2.83425">
        <ele>504</ele>
        <time>2024-07-16T06:26:24Z</time>
      </trkpt>
      <trkpt lat="42.45813" lon="2.83441">
        <ele>502.8</ele>
        <time>2024-07-16T06:26:33Z</time>
      </trkpt>
      <trkpt lat="42.45814" lon="2.83445">
        <ele>502.8</ele>
        <time>2024-07-16T06:26:34Z</time>
      </trkpt>
      <trkpt lat="42.45813" lon="2.83454">
        <ele>502.2</ele>
        <time>2024-07-16T06:26:39Z</time>
      </trkpt>
      <trkpt lat="42.45813" lon="2.8347">
        <ele>499.4</ele>
        <time>2024-07-16T06:26:48Z</time>
      </trkpt>
      <trkpt lat="42.45812" lon="2.83488">
        <ele>499</ele>
        <time>2024-07-16T06:26:58Z</time>
      </trkpt>
      <trkpt lat="42.45809" lon="2.83507">
        <ele>499.6</ele>
        <time>2024-07-16T06:27:08Z</time>
      </trkpt>
      <trkpt lat="42.45808" lon="2.83519">
        <ele>498.8</ele>
        <time>2024-07-16T06:27:14Z</time>
      </trkpt>
      <trkpt lat="42.45808" lon="2.83536">
        <ele>500</ele>
        <time>2024-07-16T06:27:23Z</time>
      </trkpt>
      <trkpt lat="42.45808" lon="2.83548">
        <ele>499.6</ele>
        <time>2024-07-16T06:27:30Z</time>
      </trkpt>
      <trkpt lat="42.45807" lon="2.83555">
        <ele>498.8</ele>
        <time>2024-07-16T06:27:34Z</time>
      </trkpt>
      <trkpt lat="42.45806" lon="2.83559">
        <ele>498.2</ele>
        <time>2024-07-16T06:27:37Z</time>
      </trkpt>
      <trkpt lat="42.45806" lon="2.83566">
        <ele>497.4</ele>
        <time>2024-07-16T06:27:43Z</time>
      </trkpt>
      <trkpt lat="42.45806" lon="2.83571">
        <ele>497.6</ele>
        <time>2024-07-16T06:27:47Z</time>
      </trkpt>
      <trkpt lat="42.45807" lon="2.83573">
        <ele>497.6</ele>
        <time>2024-07-16T06:27:48Z</time>
      </trkpt>
      <trkpt lat="42.45808" lon="2.83577">
        <ele>497.8</ele>
        <time>2024-07-16T06:27:50Z</time>
      </trkpt>
      <trkpt lat="42.45809" lon="2.83585">
        <ele>498</ele>
        <time>2024-07-16T06:27:54Z</time>
      </trkpt>
      <trkpt lat="42.45813" lon="2.83601">
        <ele>495</ele>
        <time>2024-07-16T06:28:03Z</time>
      </trkpt>
      <trkpt lat="42.45814" lon="2.8361">
        <ele>494</ele>
        <time>2024-07-16T06:28:09Z</time>
      </trkpt>
      <trkpt lat="42.45817" lon="2.83628">
        <ele>494.6</ele>
        <time>2024-07-16T06:28:18Z</time>
      </trkpt>
      <trkpt lat="42.45817" lon="2.83629">
        <ele>494.8</ele>
        <time>2024-07-16T06:28:19Z</time>
      </trkpt>
      <trkpt lat="42.45816" lon="2.83644">
        <ele>494.4</ele>
        <time>2024-07-16T06:28:27Z</time>
      </trkpt>
      <trkpt lat="42.45812" lon="2.83661">
        <ele>491.2</ele>
        <time>2024-07-16T06:28:35Z</time>
      </trkpt>
      <trkpt lat="42.45807" lon="2.83673">
        <ele>488</ele>
        <time>2024-07-16T06:28:42Z</time>
      </trkpt>
      <trkpt lat="42.45807" lon="2.83674">
        <ele>487.6</ele>
        <time>2024-07-16T06:28:43Z</time>
      </trkpt>
      <trkpt lat="42.45804" lon="2.83677">
        <ele>487.2</ele>
        <time>2024-07-16T06:28:45Z</time>
      </trkpt>
      <trkpt lat="42.45801" lon="2.83684">
        <ele>486.4</ele>
        <time>2024-07-16T06:28:49Z</time>
      </trkpt>
      <trkpt lat="42.45798" lon="2.83688">
        <ele>485.8</ele>
        <time>2024-07-16T06:28:53Z</time>
      </trkpt>
      <trkpt lat="42.45797" lon="2.83692">
        <ele>484.8</ele>
        <time>2024-07-16T06:28:55Z</time>
      </trkpt>
      <trkpt lat="42.45791" lon="2.83703">
        <ele>480.2</ele>
        <time>2024-07-16T06:29:04Z</time>
      </trkpt>
      <trkpt lat="42.45791" lon="2.83706">
        <ele>479.6</ele>
        <time>2024-07-16T06:29:06Z</time>
      </trkpt>
      <trkpt lat="42.45793" lon="2.83713">
        <ele>478.6</ele>
        <time>2024-07-16T06:29:10Z</time>
      </trkpt>
      <trkpt lat="42.45799" lon="2.83721">
        <ele>478.2</ele>
        <time>2024-07-16T06:29:17Z</time>
      </trkpt>
      <trkpt lat="42.458" lon="2.83725">
        <ele>478</ele>
        <time>2024-07-16T06:29:21Z</time>
      </trkpt>
      <trkpt lat="42.45806" lon="2.83735">
        <ele>478.2</ele>
        <time>2024-07-16T06:29:28Z</time>
      </trkpt>
      <trkpt lat="42.45806" lon="2.83738">
        <ele>478.2</ele>
        <time>2024-07-16T06:29:30Z</time>
      </trkpt>
      <trkpt lat="42.45806" lon="2.83742">
        <ele>478</ele>
        <time>2024-07-16T06:29:32Z</time>
      </trkpt>
      <trkpt lat="42.45807" lon="2.83744">
        <ele>478</ele>
        <time>2024-07-16T06:29:33Z</time>
      </trkpt>
      <trkpt lat="42.45807" lon="2.83757">
        <ele>477.2</ele>
        <time>2024-07-16T06:29:39Z</time>
      </trkpt>
      <trkpt lat="42.45808" lon="2.83759">
        <ele>477.2</ele>
        <time>2024-07-16T06:29:40Z</time>
      </trkpt>
      <trkpt lat="42.45808" lon="2.8376">
        <ele>477.2</ele>
        <time>2024-07-16T06:29:41Z</time>
      </trkpt>
      <trkpt lat="42.45808" lon="2.83764">
        <ele>477.2</ele>
        <time>2024-07-16T06:29:44Z</time>
      </trkpt>
      <trkpt lat="42.45808" lon="2.83766">
        <ele>477.2</ele>
        <time>2024-07-16T06:29:45Z</time>
      </trkpt>
      <trkpt lat="42.45809" lon="2.83769">
        <ele>477.2</ele>
        <time>2024-07-16T06:29:47Z</time>
      </trkpt>
      <trkpt lat="42.4581" lon="2.83773">
        <ele>477</ele>
        <time>2024-07-16T06:29:49Z</time>
      </trkpt>
      <trkpt lat="42.4581" lon="2.83774">
        <ele>476.8</ele>
        <time>2024-07-16T06:29:50Z</time>
      </trkpt>
      <trkpt lat="42.45817" lon="2.83783">
        <ele>474.8</ele>
        <time>2024-07-16T06:29:58Z</time>
      </trkpt>
      <trkpt lat="42.45817" lon="2.83783">
        <ele>474.6</ele>
        <time>2024-07-16T06:29:59Z</time>
      </trkpt>
      <trkpt lat="42.4582" lon="2.83784">
        <ele>473</ele>
        <time>2024-07-16T06:30:05Z</time>
      </trkpt>
      <trkpt lat="42.45824" lon="2.8379">
        <ele>475</ele>
        <time>2024-07-16T06:30:13Z</time>
      </trkpt>
      <trkpt lat="42.45825" lon="2.83791">
        <ele>477</ele>
        <time>2024-07-16T06:30:18Z</time>
      </trkpt>
      <trkpt lat="42.45825" lon="2.83792">
        <ele>477.6</ele>
        <time>2024-07-16T06:30:26Z</time>
      </trkpt>
      <trkpt lat="42.45824" lon="2.83794">
        <ele>482.2</ele>
        <time>2024-07-16T06:31:11Z</time>
      </trkpt>
      <trkpt lat="42.45829" lon="2.83799">
        <ele>484.8</ele>
        <time>2024-07-16T06:32:24Z</time>
      </trkpt>
      <trkpt lat="42.45833" lon="2.83802">
        <ele>483</ele>
        <time>2024-07-16T06:32:30Z</time>
      </trkpt>
      <trkpt lat="42.45833" lon="2.83807">
        <ele>480.8</ele>
        <time>2024-07-16T06:32:36Z</time>
      </trkpt>
      <trkpt lat="42.45835" lon="2.83812">
        <ele>479.6</ele>
        <time>2024-07-16T06:32:42Z</time>
      </trkpt>
      <trkpt lat="42.45839" lon="2.83814">
        <ele>477.2</ele>
        <time>2024-07-16T06:32:50Z</time>
      </trkpt>
      <trkpt lat="42.45842" lon="2.83816">
        <ele>475.8</ele>
        <time>2024-07-16T06:32:57Z</time>
      </trkpt>
      <trkpt lat="42.45844" lon="2.83815">
        <ele>475.6</ele>
        <time>2024-07-16T06:33:03Z</time>
      </trkpt>
      <trkpt lat="42.45846" lon="2.83818">
        <ele>475.2</ele>
        <time>2024-07-16T06:33:09Z</time>
      </trkpt>
      <trkpt lat="42.45848" lon="2.83822">
        <ele>475.4</ele>
        <time>2024-07-16T06:33:17Z</time>
      </trkpt>
      <trkpt lat="42.45848" lon="2.83829">
        <ele>475</ele>
        <time>2024-07-16T06:33:23Z</time>
      </trkpt>
      <trkpt lat="42.45851" lon="2.83838">
        <ele>475.8</ele>
        <time>2024-07-16T06:33:31Z</time>
      </trkpt>
      <trkpt lat="42.45853" lon="2.83843">
        <ele>478.4</ele>
        <time>2024-07-16T06:33:37Z</time>
      </trkpt>
      <trkpt lat="42.45857" lon="2.83848">
        <ele>480.4</ele>
        <time>2024-07-16T06:33:43Z</time>
      </trkpt>
      <trkpt lat="42.45859" lon="2.83851">
        <ele>482.2</ele>
        <time>2024-07-16T06:33:52Z</time>
      </trkpt>
      <trkpt lat="42.45861" lon="2.83862">
        <ele>484</ele>
        <time>2024-07-16T06:34:04Z</time>
      </trkpt>
      <trkpt lat="42.45861" lon="2.83871">
        <ele>484.6</ele>
        <time>2024-07-16T06:34:13Z</time>
      </trkpt>
      <trkpt lat="42.45857" lon="2.8388">
        <ele>487</ele>
        <time>2024-07-16T06:34:21Z</time>
      </trkpt>
      <trkpt lat="42.45857" lon="2.8389">
        <ele>487.8</ele>
        <time>2024-07-16T06:34:28Z</time>
      </trkpt>
      <trkpt lat="42.45857" lon="2.83892">
        <ele>488</ele>
        <time>2024-07-16T06:34:30Z</time>
      </trkpt>
      <trkpt lat="42.45856" lon="2.83903">
        <ele>488.8</ele>
        <time>2024-07-16T06:34:38Z</time>
      </trkpt>
      <trkpt lat="42.45855" lon="2.83903">
        <ele>490.8</ele>
        <time>2024-07-16T06:34:45Z</time>
      </trkpt>
      <trkpt lat="42.45858" lon="2.83908">
        <ele>492</ele>
        <time>2024-07-16T06:34:53Z</time>
      </trkpt>
      <trkpt lat="42.45863" lon="2.83913">
        <ele>491.2</ele>
        <time>2024-07-16T06:35:00Z</time>
      </trkpt>
      <trkpt lat="42.45867" lon="2.83923">
        <ele>489.6</ele>
        <time>2024-07-16T06:35:10Z</time>
      </trkpt>
      <trkpt lat="42.45872" lon="2.83929">
        <ele>488.4</ele>
        <time>2024-07-16T06:35:19Z</time>
      </trkpt>
      <trkpt lat="42.45873" lon="2.83934">
        <ele>488</ele>
        <time>2024-07-16T06:35:25Z</time>
      </trkpt>
      <trkpt lat="42.45876" lon="2.83941">
        <ele>488.8</ele>
        <time>2024-07-16T06:35:32Z</time>
      </trkpt>
      <trkpt lat="42.4588" lon="2.83948">
        <ele>490.2</ele>
        <time>2024-07-16T06:35:38Z</time>
      </trkpt>
      <trkpt lat="42.4588" lon="2.83948">
        <ele>490.4</ele>
        <time>2024-07-16T06:35:39Z</time>
      </trkpt>
      <trkpt lat="42.45885" lon="2.83954">
        <ele>492.8</ele>
        <time>2024-07-16T06:35:48Z</time>
      </trkpt>
      <trkpt lat="42.45892" lon="2.83956">
        <ele>492.8</ele>
        <time>2024-07-16T06:35:58Z</time>
      </trkpt>
      <trkpt lat="42.45897" lon="2.83961">
        <ele>493.6</ele>
        <time>2024-07-16T06:36:07Z</time>
      </trkpt>
      <trkpt lat="42.45902" lon="2.83964">
        <ele>493.8</ele>
        <time>2024-07-16T06:36:13Z</time>
      </trkpt>
      <trkpt lat="42.45907" lon="2.83968">
        <ele>495</ele>
        <time>2024-07-16T06:36:21Z</time>
      </trkpt>
      <trkpt lat="42.45912" lon="2.83973">
        <ele>496.4</ele>
        <time>2024-07-16T06:36:28Z</time>
      </trkpt>
      <trkpt lat="42.45916" lon="2.83976">
        <ele>496.6</ele>
        <time>2024-07-16T06:36:34Z</time>
      </trkpt>
      <trkpt lat="42.45919" lon="2.83975">
        <ele>496.8</ele>
        <time>2024-07-16T06:36:41Z</time>
      </trkpt>
      <trkpt lat="42.4592" lon="2.8398">
        <ele>496.2</ele>
        <time>2024-07-16T06:36:48Z</time>
      </trkpt>
      <trkpt lat="42.45918" lon="2.83987">
        <ele>497</ele>
        <time>2024-07-16T06:36:54Z</time>
      </trkpt>
      <trkpt lat="42.45919" lon="2.83994">
        <ele>498.2</ele>
        <time>2024-07-16T06:37:00Z</time>
      </trkpt>
      <trkpt lat="42.45916" lon="2.84005">
        <ele>499</ele>
        <time>2024-07-16T06:37:06Z</time>
      </trkpt>
      <trkpt lat="42.4591" lon="2.84014">
        <ele>497.8</ele>
        <time>2024-07-16T06:37:15Z</time>
      </trkpt>
      <trkpt lat="42.45903" lon="2.84025">
        <ele>494</ele>
        <time>2024-07-16T06:37:23Z</time>
      </trkpt>
      <trkpt lat="42.45902" lon="2.84025">
        <ele>493.8</ele>
        <time>2024-07-16T06:37:24Z</time>
      </trkpt>
      <trkpt lat="42.45897" lon="2.84028">
        <ele>493.4</ele>
        <time>2024-07-16T06:37:29Z</time>
      </trkpt>
      <trkpt lat="42.45897" lon="2.84029">
        <ele>493.4</ele>
        <time>2024-07-16T06:37:30Z</time>
      </trkpt>
      <trkpt lat="42.45897" lon="2.84036">
        <ele>493.2</ele>
        <time>2024-07-16T06:37:34Z</time>
      </trkpt>
      <trkpt lat="42.45892" lon="2.84049">
        <ele>493.4</ele>
        <time>2024-07-16T06:37:44Z</time>
      </trkpt>
      <trkpt lat="42.45889" lon="2.84061">
        <ele>493</ele>
        <time>2024-07-16T06:37:54Z</time>
      </trkpt>
      <trkpt lat="42.45889" lon="2.84073">
        <ele>493.4</ele>
        <time>2024-07-16T06:38:05Z</time>
      </trkpt>
      <trkpt lat="42.45888" lon="2.84083">
        <ele>495</ele>
        <time>2024-07-16T06:38:13Z</time>
      </trkpt>
      <trkpt lat="42.45887" lon="2.84092">
        <ele>493.4</ele>
        <time>2024-07-16T06:38:19Z</time>
      </trkpt>
      <trkpt lat="42.45887" lon="2.84095">
        <ele>492.8</ele>
        <time>2024-07-16T06:38:21Z</time>
      </trkpt>
      <trkpt lat="42.45886" lon="2.84099">
        <ele>491.8</ele>
        <time>2024-07-16T06:38:23Z</time>
      </trkpt>
      <trkpt lat="42.45882" lon="2.84105">
        <ele>490</ele>
        <time>2024-07-16T06:38:27Z</time>
      </trkpt>
      <trkpt lat="42.45877" lon="2.84121">
        <ele>488.2</ele>
        <time>2024-07-16T06:38:37Z</time>
      </trkpt>
      <trkpt lat="42.45874" lon="2.84136">
        <ele>488.2</ele>
        <time>2024-07-16T06:38:46Z</time>
      </trkpt>
      <trkpt lat="42.45869" lon="2.84148">
        <ele>489.6</ele>
        <time>2024-07-16T06:38:55Z</time>
      </trkpt>
      <trkpt lat="42.45866" lon="2.84166">
        <ele>486</ele>
        <time>2024-07-16T06:39:07Z</time>
      </trkpt>
      <trkpt lat="42.45865" lon="2.84175">
        <ele>483.8</ele>
        <time>2024-07-16T06:39:15Z</time>
      </trkpt>
      <trkpt lat="42.45868" lon="2.84184">
        <ele>482.6</ele>
        <time>2024-07-16T06:39:21Z</time>
      </trkpt>
      <trkpt lat="42.45868" lon="2.84188">
        <ele>482.6</ele>
        <time>2024-07-16T06:39:23Z</time>
      </trkpt>
      <trkpt lat="42.45867" lon="2.84198">
        <ele>482.8</ele>
        <time>2024-07-16T06:39:31Z</time>
      </trkpt>
      <trkpt lat="42.45862" lon="2.84214">
        <ele>482.8</ele>
        <time>2024-07-16T06:39:41Z</time>
      </trkpt>
      <trkpt lat="42.45862" lon="2.84216">
        <ele>483</ele>
        <time>2024-07-16T06:39:44Z</time>
      </trkpt>
      <trkpt lat="42.45862" lon="2.84218">
        <ele>483</ele>
        <time>2024-07-16T06:39:46Z</time>
      </trkpt>
      <trkpt lat="42.45863" lon="2.8422">
        <ele>483</ele>
        <time>2024-07-16T06:39:48Z</time>
      </trkpt>
      <trkpt lat="42.4586" lon="2.84226">
        <ele>483</ele>
        <time>2024-07-16T06:39:52Z</time>
      </trkpt>
      <trkpt lat="42.45853" lon="2.84232">
        <ele>483</ele>
        <time>2024-07-16T06:40:00Z</time>
      </trkpt>
      <trkpt lat="42.45846" lon="2.84247">
        <ele>480.2</ele>
        <time>2024-07-16T06:40:10Z</time>
      </trkpt>
      <trkpt lat="42.4584" lon="2.84261">
        <ele>480.2</ele>
        <time>2024-07-16T06:40:19Z</time>
      </trkpt>
      <trkpt lat="42.45839" lon="2.8427">
        <ele>479.2</ele>
        <time>2024-07-16T06:40:26Z</time>
      </trkpt>
      <trkpt lat="42.45839" lon="2.84272">
        <ele>479</ele>
        <time>2024-07-16T06:40:27Z</time>
      </trkpt>
      <trkpt lat="42.45838" lon="2.84273">
        <ele>478.8</ele>
        <time>2024-07-16T06:40:28Z</time>
      </trkpt>
      <trkpt lat="42.45835" lon="2.84277">
        <ele>478.2</ele>
        <time>2024-07-16T06:40:32Z</time>
      </trkpt>
      <trkpt lat="42.45834" lon="2.8428">
        <ele>478</ele>
        <time>2024-07-16T06:40:34Z</time>
      </trkpt>
      <trkpt lat="42.45832" lon="2.84288">
        <ele>477.2</ele>
        <time>2024-07-16T06:40:42Z</time>
      </trkpt>
      <trkpt lat="42.45832" lon="2.84292">
        <ele>476.8</ele>
        <time>2024-07-16T06:40:45Z</time>
      </trkpt>
      <trkpt lat="42.45835" lon="2.84302">
        <ele>477</ele>
        <time>2024-07-16T06:40:51Z</time>
      </trkpt>
      <trkpt lat="42.45835" lon="2.84316">
        <ele>476.2</ele>
        <time>2024-07-16T06:41:01Z</time>
      </trkpt>
      <trkpt lat="42.45832" lon="2.84329">
        <ele>472.8</ele>
        <time>2024-07-16T06:41:10Z</time>
      </trkpt>
      <trkpt lat="42.45834" lon="2.84344">
        <ele>473</ele>
        <time>2024-07-16T06:41:19Z</time>
      </trkpt>
      <trkpt lat="42.4583" lon="2.84354">
        <ele>472.2</ele>
        <time>2024-07-16T06:41:27Z</time>
      </trkpt>
      <trkpt lat="42.4583" lon="2.84364">
        <ele>471.8</ele>
        <time>2024-07-16T06:41:33Z</time>
      </trkpt>
      <trkpt lat="42.45827" lon="2.84376">
        <ele>470.4</ele>
        <time>2024-07-16T06:41:42Z</time>
      </trkpt>
      <trkpt lat="42.45824" lon="2.84386">
        <ele>466.4</ele>
        <time>2024-07-16T06:41:50Z</time>
      </trkpt>
      <trkpt lat="42.45824" lon="2.84389">
        <ele>465.6</ele>
        <time>2024-07-16T06:41:52Z</time>
      </trkpt>
      <trkpt lat="42.45824" lon="2.84401">
        <ele>464.2</ele>
        <time>2024-07-16T06:41:58Z</time>
      </trkpt>
      <trkpt lat="42.45827" lon="2.84418">
        <ele>464.2</ele>
        <time>2024-07-16T06:42:09Z</time>
      </trkpt>
      <trkpt lat="42.45825" lon="2.84433">
        <ele>462.8</ele>
        <time>2024-07-16T06:42:19Z</time>
      </trkpt>
      <trkpt lat="42.4582" lon="2.84448">
        <ele>462.6</ele>
        <time>2024-07-16T06:42:29Z</time>
      </trkpt>
      <trkpt lat="42.45816" lon="2.84458">
        <ele>460.2</ele>
        <time>2024-07-16T06:42:37Z</time>
      </trkpt>
      <trkpt lat="42.45813" lon="2.84472">
        <ele>457.6</ele>
        <time>2024-07-16T06:42:48Z</time>
      </trkpt>
      <trkpt lat="42.4581" lon="2.84481">
        <ele>456</ele>
        <time>2024-07-16T06:42:56Z</time>
      </trkpt>
      <trkpt lat="42.45807" lon="2.84492">
        <ele>454.6</ele>
        <time>2024-07-16T06:43:03Z</time>
      </trkpt>
      <trkpt lat="42.45805" lon="2.84495">
        <ele>454.6</ele>
        <time>2024-07-16T06:43:06Z</time>
      </trkpt>
      <trkpt lat="42.45801" lon="2.84496">
        <ele>454.8</ele>
        <time>2024-07-16T06:43:09Z</time>
      </trkpt>
      <trkpt lat="42.45791" lon="2.84496">
        <ele>455.4</ele>
        <time>2024-07-16T06:43:18Z</time>
      </trkpt>
      <trkpt lat="42.45782" lon="2.84495">
        <ele>455.2</ele>
        <time>2024-07-16T06:43:25Z</time>
      </trkpt>
      <trkpt lat="42.4578" lon="2.84495">
        <ele>454.8</ele>
        <time>2024-07-16T06:43:27Z</time>
      </trkpt>
      <trkpt lat="42.45769" lon="2.84498">
        <ele>453.6</ele>
        <time>2024-07-16T06:43:37Z</time>
      </trkpt>
      <trkpt lat="42.45765" lon="2.84509">
        <ele>450.6</ele>
        <time>2024-07-16T06:43:44Z</time>
      </trkpt>
      <trkpt lat="42.45758" lon="2.84523">
        <ele>447.6</ele>
        <time>2024-07-16T06:43:54Z</time>
      </trkpt>
      <trkpt lat="42.45753" lon="2.8453">
        <ele>448</ele>
        <time>2024-07-16T06:44:02Z</time>
      </trkpt>
      <trkpt lat="42.45753" lon="2.84541">
        <ele>447.6</ele>
        <time>2024-07-16T06:44:11Z</time>
      </trkpt>
      <trkpt lat="42.45747" lon="2.84546">
        <ele>446</ele>
        <time>2024-07-16T06:44:18Z</time>
      </trkpt>
      <trkpt lat="42.45743" lon="2.84553">
        <ele>441.8</ele>
        <time>2024-07-16T06:44:27Z</time>
      </trkpt>
      <trkpt lat="42.45739" lon="2.84555">
        <ele>441.8</ele>
        <time>2024-07-16T06:44:32Z</time>
      </trkpt>
      <trkpt lat="42.45737" lon="2.84556">
        <ele>441.6</ele>
        <time>2024-07-16T06:44:33Z</time>
      </trkpt>
      <trkpt lat="42.45733" lon="2.84562">
        <ele>440.8</ele>
        <time>2024-07-16T06:44:39Z</time>
      </trkpt>
      <trkpt lat="42.45731" lon="2.84568">
        <ele>439</ele>
        <time>2024-07-16T06:44:45Z</time>
      </trkpt>
      <trkpt lat="42.45731" lon="2.84569">
        <ele>438.6</ele>
        <time>2024-07-16T06:44:46Z</time>
      </trkpt>
      <trkpt lat="42.45731" lon="2.84572">
        <ele>437.8</ele>
        <time>2024-07-16T06:44:48Z</time>
      </trkpt>
      <trkpt lat="42.4573" lon="2.84577">
        <ele>436.4</ele>
        <time>2024-07-16T06:44:53Z</time>
      </trkpt>
      <trkpt lat="42.45729" lon="2.84583">
        <ele>435.2</ele>
        <time>2024-07-16T06:44:58Z</time>
      </trkpt>
      <trkpt lat="42.45726" lon="2.84591">
        <ele>432.6</ele>
        <time>2024-07-16T06:45:04Z</time>
      </trkpt>
      <trkpt lat="42.45723" lon="2.84596">
        <ele>430</ele>
        <time>2024-07-16T06:45:11Z</time>
      </trkpt>
      <trkpt lat="42.45717" lon="2.84604">
        <ele>425.6</ele>
        <time>2024-07-16T06:45:22Z</time>
      </trkpt>
      <trkpt lat="42.45714" lon="2.84611">
        <ele>423.4</ele>
        <time>2024-07-16T06:45:30Z</time>
      </trkpt>
      <trkpt lat="42.4571" lon="2.84618">
        <ele>422.8</ele>
        <time>2024-07-16T06:45:38Z</time>
      </trkpt>
      <trkpt lat="42.45708" lon="2.84626">
        <ele>421.4</ele>
        <time>2024-07-16T06:45:46Z</time>
      </trkpt>
      <trkpt lat="42.45708" lon="2.84635">
        <ele>421.2</ele>
        <time>2024-07-16T06:45:54Z</time>
      </trkpt>
      <trkpt lat="42.45709" lon="2.84646">
        <ele>416.2</ele>
        <time>2024-07-16T06:46:03Z</time>
      </trkpt>
      <trkpt lat="42.45708" lon="2.84658">
        <ele>414.6</ele>
        <time>2024-07-16T06:46:13Z</time>
      </trkpt>
      <trkpt lat="42.45705" lon="2.8467">
        <ele>410.2</ele>
        <time>2024-07-16T06:46:22Z</time>
      </trkpt>
      <trkpt lat="42.45703" lon="2.84689">
        <ele>407.4</ele>
        <time>2024-07-16T06:46:33Z</time>
      </trkpt>
      <trkpt lat="42.45701" lon="2.84701">
        <ele>407.2</ele>
        <time>2024-07-16T06:46:41Z</time>
      </trkpt>
      <trkpt lat="42.457" lon="2.84716">
        <ele>407</ele>
        <time>2024-07-16T06:46:49Z</time>
      </trkpt>
      <trkpt lat="42.457" lon="2.84732">
        <ele>407.6</ele>
        <time>2024-07-16T06:47:01Z</time>
      </trkpt>
      <trkpt lat="42.45705" lon="2.84745">
        <ele>405.8</ele>
        <time>2024-07-16T06:47:11Z</time>
      </trkpt>
      <trkpt lat="42.45707" lon="2.84754">
        <ele>405</ele>
        <time>2024-07-16T06:47:18Z</time>
      </trkpt>
      <trkpt lat="42.45713" lon="2.84764">
        <ele>405.4</ele>
        <time>2024-07-16T06:47:25Z</time>
      </trkpt>
      <trkpt lat="42.45711" lon="2.84772">
        <ele>407</ele>
        <time>2024-07-16T06:47:31Z</time>
      </trkpt>
      <trkpt lat="42.45707" lon="2.84787">
        <ele>409.6</ele>
        <time>2024-07-16T06:47:41Z</time>
      </trkpt>
      <trkpt lat="42.45706" lon="2.84799">
        <ele>411.8</ele>
        <time>2024-07-16T06:47:49Z</time>
      </trkpt>
      <trkpt lat="42.45708" lon="2.84805">
        <ele>413.6</ele>
        <time>2024-07-16T06:47:56Z</time>
      </trkpt>
      <trkpt lat="42.45704" lon="2.84813">
        <ele>412.2</ele>
        <time>2024-07-16T06:48:04Z</time>
      </trkpt>
      <trkpt lat="42.45704" lon="2.84814">
        <ele>411.6</ele>
        <time>2024-07-16T06:48:05Z</time>
      </trkpt>
      <trkpt lat="42.45705" lon="2.84817">
        <ele>408.6</ele>
        <time>2024-07-16T06:48:10Z</time>
      </trkpt>
      <trkpt lat="42.45705" lon="2.84818">
        <ele>405.2</ele>
        <time>2024-07-16T06:48:18Z</time>
      </trkpt>
      <trkpt lat="42.45704" lon="2.84818">
        <ele>404.4</ele>
        <time>2024-07-16T06:48:29Z</time>
      </trkpt>
      <trkpt lat="42.45708" lon="2.84819">
        <ele>404.4</ele>
        <time>2024-07-16T06:53:16Z</time>
      </trkpt>
      <trkpt lat="42.45702" lon="2.84828">
        <ele>404.6</ele>
        <time>2024-07-16T06:53:22Z</time>
      </trkpt>
      <trkpt lat="42.457" lon="2.84834">
        <ele>403.4</ele>
        <time>2024-07-16T06:53:30Z</time>
      </trkpt>
      <trkpt lat="42.45702" lon="2.84836">
        <ele>402.4</ele>
        <time>2024-07-16T06:53:35Z</time>
      </trkpt>
      <trkpt lat="42.45702" lon="2.84842">
        <ele>401.2</ele>
        <time>2024-07-16T06:53:42Z</time>
      </trkpt>
      <trkpt lat="42.45701" lon="2.84851">
        <ele>399.4</ele>
        <time>2024-07-16T06:53:52Z</time>
      </trkpt>
      <trkpt lat="42.45698" lon="2.84861">
        <ele>396.2</ele>
        <time>2024-07-16T06:54:00Z</time>
      </trkpt>
      <trkpt lat="42.45693" lon="2.84873">
        <ele>394.2</ele>
        <time>2024-07-16T06:54:08Z</time>
      </trkpt>
      <trkpt lat="42.45686" lon="2.84882">
        <ele>392.6</ele>
        <time>2024-07-16T06:54:16Z</time>
      </trkpt>
      <trkpt lat="42.45681" lon="2.84885">
        <ele>392.4</ele>
        <time>2024-07-16T06:54:21Z</time>
      </trkpt>
      <trkpt lat="42.4568" lon="2.84886">
        <ele>392.4</ele>
        <time>2024-07-16T06:54:23Z</time>
      </trkpt>
      <trkpt lat="42.45677" lon="2.84894">
        <ele>390.8</ele>
        <time>2024-07-16T06:54:30Z</time>
      </trkpt>
      <trkpt lat="42.45671" lon="2.84904">
        <ele>388.2</ele>
        <time>2024-07-16T06:54:38Z</time>
      </trkpt>
      <trkpt lat="42.45663" lon="2.84914">
        <ele>387</ele>
        <time>2024-07-16T06:54:47Z</time>
      </trkpt>
      <trkpt lat="42.45655" lon="2.84922">
        <ele>389</ele>
        <time>2024-07-16T06:54:56Z</time>
      </trkpt>
      <trkpt lat="42.45652" lon="2.84923">
        <ele>389.2</ele>
        <time>2024-07-16T06:54:58Z</time>
      </trkpt>
      <trkpt lat="42.45648" lon="2.84927">
        <ele>389.2</ele>
        <time>2024-07-16T06:55:02Z</time>
      </trkpt>
      <trkpt lat="42.45645" lon="2.8493">
        <ele>388.6</ele>
        <time>2024-07-16T06:55:06Z</time>
      </trkpt>
      <trkpt lat="42.45646" lon="2.84935">
        <ele>387.8</ele>
        <time>2024-07-16T06:55:09Z</time>
      </trkpt>
      <trkpt lat="42.45645" lon="2.84948">
        <ele>385.6</ele>
        <time>2024-07-16T06:55:20Z</time>
      </trkpt>
      <trkpt lat="42.45641" lon="2.84958">
        <ele>382.4</ele>
        <time>2024-07-16T06:55:27Z</time>
      </trkpt>
      <trkpt lat="42.45635" lon="2.84969">
        <ele>379</ele>
        <time>2024-07-16T06:55:35Z</time>
      </trkpt>
      <trkpt lat="42.45627" lon="2.8498">
        <ele>375.8</ele>
        <time>2024-07-16T06:55:45Z</time>
      </trkpt>
      <trkpt lat="42.4562" lon="2.84993">
        <ele>376.2</ele>
        <time>2024-07-16T06:55:54Z</time>
      </trkpt>
      <trkpt lat="42.45616" lon="2.85009">
        <ele>375.8</ele>
        <time>2024-07-16T06:56:04Z</time>
      </trkpt>
      <trkpt lat="42.45612" lon="2.85019">
        <ele>377.8</ele>
        <time>2024-07-16T06:56:11Z</time>
      </trkpt>
      <trkpt lat="42.45609" lon="2.85025">
        <ele>378.4</ele>
        <time>2024-07-16T06:56:17Z</time>
      </trkpt>
      <trkpt lat="42.45609" lon="2.85027">
        <ele>378.2</ele>
        <time>2024-07-16T06:56:19Z</time>
      </trkpt>
      <trkpt lat="42.45603" lon="2.85035">
        <ele>376.6</ele>
        <time>2024-07-16T06:56:28Z</time>
      </trkpt>
      <trkpt lat="42.45596" lon="2.8505">
        <ele>376.4</ele>
        <time>2024-07-16T06:56:39Z</time>
      </trkpt>
      <trkpt lat="42.45589" lon="2.85064">
        <ele>377</ele>
        <time>2024-07-16T06:56:49Z</time>
      </trkpt>
      <trkpt lat="42.45582" lon="2.85077">
        <ele>376.4</ele>
        <time>2024-07-16T06:57:00Z</time>
      </trkpt>
      <trkpt lat="42.4558" lon="2.85081">
        <ele>374.8</ele>
        <time>2024-07-16T06:57:06Z</time>
      </trkpt>
      <trkpt lat="42.45577" lon="2.8509">
        <ele>371.6</ele>
        <time>2024-07-16T06:57:14Z</time>
      </trkpt>
      <trkpt lat="42.45576" lon="2.85092">
        <ele>371</ele>
        <time>2024-07-16T06:57:15Z</time>
      </trkpt>
      <trkpt lat="42.45574" lon="2.85105">
        <ele>369.2</ele>
        <time>2024-07-16T06:57:23Z</time>
      </trkpt>
      <trkpt lat="42.45571" lon="2.8512">
        <ele>369</ele>
        <time>2024-07-16T06:57:31Z</time>
      </trkpt>
      <trkpt lat="42.45562" lon="2.85132">
        <ele>368.8</ele>
        <time>2024-07-16T06:57:40Z</time>
      </trkpt>
      <trkpt lat="42.45557" lon="2.85148">
        <ele>369.2</ele>
        <time>2024-07-16T06:57:51Z</time>
      </trkpt>
      <trkpt lat="42.45555" lon="2.85164">
        <ele>367</ele>
        <time>2024-07-16T06:58:00Z</time>
      </trkpt>
      <trkpt lat="42.45549" lon="2.85178">
        <ele>365.2</ele>
        <time>2024-07-16T06:58:09Z</time>
      </trkpt>
      <trkpt lat="42.45544" lon="2.8519">
        <ele>364.4</ele>
        <time>2024-07-16T06:58:18Z</time>
      </trkpt>
      <trkpt lat="42.45537" lon="2.85207">
        <ele>362.4</ele>
        <time>2024-07-16T06:58:30Z</time>
      </trkpt>
      <trkpt lat="42.45531" lon="2.85214">
        <ele>358.2</ele>
        <time>2024-07-16T06:58:38Z</time>
      </trkpt>
      <trkpt lat="42.45522" lon="2.8523">
        <ele>355.2</ele>
        <time>2024-07-16T06:58:49Z</time>
      </trkpt>
      <trkpt lat="42.45519" lon="2.85238">
        <ele>354.4</ele>
        <time>2024-07-16T06:58:54Z</time>
      </trkpt>
      <trkpt lat="42.45519" lon="2.85242">
        <ele>354.2</ele>
        <time>2024-07-16T06:58:56Z</time>
      </trkpt>
      <trkpt lat="42.45514" lon="2.85258">
        <ele>353.8</ele>
        <time>2024-07-16T06:59:06Z</time>
      </trkpt>
      <trkpt lat="42.45508" lon="2.85264">
        <ele>353.8</ele>
        <time>2024-07-16T06:59:13Z</time>
      </trkpt>
      <trkpt lat="42.45508" lon="2.85265">
        <ele>353.8</ele>
        <time>2024-07-16T06:59:14Z</time>
      </trkpt>
      <trkpt lat="42.45508" lon="2.85268">
        <ele>354</ele>
        <time>2024-07-16T06:59:18Z</time>
      </trkpt>
      <trkpt lat="42.45507" lon="2.85269">
        <ele>354.6</ele>
        <time>2024-07-16T06:59:23Z</time>
      </trkpt>
      <trkpt lat="42.45507" lon="2.85269">
        <ele>354.6</ele>
        <time>2024-07-16T06:59:37Z</time>
      </trkpt>
      <trkpt lat="42.45506" lon="2.85269">
        <ele>354.6</ele>
        <time>2024-07-16T06:59:43Z</time>
      </trkpt>
      <trkpt lat="42.45505" lon="2.85271">
        <ele>354.4</ele>
        <time>2024-07-16T06:59:47Z</time>
      </trkpt>
      <trkpt lat="42.45505" lon="2.85273">
        <ele>353</ele>
        <time>2024-07-16T06:59:58Z</time>
      </trkpt>
      <trkpt lat="42.45507" lon="2.85276">
        <ele>360.4</ele>
        <time>2024-07-16T07:04:30Z</time>
      </trkpt>
      <trkpt lat="42.45507" lon="2.85283">
        <ele>358.6</ele>
        <time>2024-07-16T07:04:35Z</time>
      </trkpt>
      <trkpt lat="42.45509" lon="2.85286">
        <ele>357.2</ele>
        <time>2024-07-16T07:04:37Z</time>
      </trkpt>
      <trkpt lat="42.4551" lon="2.85289">
        <ele>355.8</ele>
        <time>2024-07-16T07:04:39Z</time>
      </trkpt>
      <trkpt lat="42.45511" lon="2.85293">
        <ele>354.2</ele>
        <time>2024-07-16T07:04:42Z</time>
      </trkpt>
      <trkpt lat="42.4551" lon="2.85294">
        <ele>353.8</ele>
        <time>2024-07-16T07:04:43Z</time>
      </trkpt>
      <trkpt lat="42.4551" lon="2.85297">
        <ele>352.8</ele>
        <time>2024-07-16T07:04:45Z</time>
      </trkpt>
      <trkpt lat="42.45509" lon="2.85303">
        <ele>351</ele>
        <time>2024-07-16T07:04:49Z</time>
      </trkpt>
      <trkpt lat="42.45508" lon="2.85309">
        <ele>350.2</ele>
        <time>2024-07-16T07:04:53Z</time>
      </trkpt>
      <trkpt lat="42.45507" lon="2.85316">
        <ele>349.8</ele>
        <time>2024-07-16T07:04:58Z</time>
      </trkpt>
      <trkpt lat="42.45504" lon="2.85331">
        <ele>349.2</ele>
        <time>2024-07-16T07:05:07Z</time>
      </trkpt>
      <trkpt lat="42.45499" lon="2.85343">
        <ele>348.8</ele>
        <time>2024-07-16T07:05:15Z</time>
      </trkpt>
      <trkpt lat="42.45493" lon="2.85353">
        <ele>347.2</ele>
        <time>2024-07-16T07:05:23Z</time>
      </trkpt>
      <trkpt lat="42.45491" lon="2.85366">
        <ele>345.4</ele>
        <time>2024-07-16T07:05:31Z</time>
      </trkpt>
      <trkpt lat="42.45492" lon="2.85383">
        <ele>342.6</ele>
        <time>2024-07-16T07:05:41Z</time>
      </trkpt>
      <trkpt lat="42.4549" lon="2.85399">
        <ele>340.6</ele>
        <time>2024-07-16T07:05:50Z</time>
      </trkpt>
      <trkpt lat="42.45487" lon="2.8541">
        <ele>339.6</ele>
        <time>2024-07-16T07:05:57Z</time>
      </trkpt>
      <trkpt lat="42.45485" lon="2.85422">
        <ele>339</ele>
        <time>2024-07-16T07:06:05Z</time>
      </trkpt>
      <trkpt lat="42.45486" lon="2.85437">
        <ele>337</ele>
        <time>2024-07-16T07:06:15Z</time>
      </trkpt>
      <trkpt lat="42.45488" lon="2.85447">
        <ele>335.8</ele>
        <time>2024-07-16T07:06:23Z</time>
      </trkpt>
      <trkpt lat="42.45491" lon="2.85459">
        <ele>335.2</ele>
        <time>2024-07-16T07:06:32Z</time>
      </trkpt>
      <trkpt lat="42.45493" lon="2.85468">
        <ele>335.2</ele>
        <time>2024-07-16T07:06:40Z</time>
      </trkpt>
      <trkpt lat="42.45493" lon="2.8548">
        <ele>335.6</ele>
        <time>2024-07-16T07:06:49Z</time>
      </trkpt>
      <trkpt lat="42.45492" lon="2.85489">
        <ele>336.8</ele>
        <time>2024-07-16T07:06:57Z</time>
      </trkpt>
      <trkpt lat="42.45491" lon="2.855">
        <ele>339.4</ele>
        <time>2024-07-16T07:07:05Z</time>
      </trkpt>
      <trkpt lat="42.45489" lon="2.85509">
        <ele>341.8</ele>
        <time>2024-07-16T07:07:13Z</time>
      </trkpt>
      <trkpt lat="42.45485" lon="2.85519">
        <ele>342.6</ele>
        <time>2024-07-16T07:07:21Z</time>
      </trkpt>
      <trkpt lat="42.45485" lon="2.85521">
        <ele>342.6</ele>
        <time>2024-07-16T07:07:22Z</time>
      </trkpt>
      <trkpt lat="42.45479" lon="2.85534">
        <ele>342.4</ele>
        <time>2024-07-16T07:07:31Z</time>
      </trkpt>
      <trkpt lat="42.45478" lon="2.85546">
        <ele>341.6</ele>
        <time>2024-07-16T07:07:39Z</time>
      </trkpt>
      <trkpt lat="42.45474" lon="2.85557">
        <ele>341.6</ele>
        <time>2024-07-16T07:07:47Z</time>
      </trkpt>
      <trkpt lat="42.45468" lon="2.85571">
        <ele>341.8</ele>
        <time>2024-07-16T07:07:57Z</time>
      </trkpt>
      <trkpt lat="42.45466" lon="2.85584">
        <ele>340.6</ele>
        <time>2024-07-16T07:08:05Z</time>
      </trkpt>
      <trkpt lat="42.45463" lon="2.85603">
        <ele>338</ele>
        <time>2024-07-16T07:08:15Z</time>
      </trkpt>
      <trkpt lat="42.45461" lon="2.85617">
        <ele>338.4</ele>
        <time>2024-07-16T07:08:23Z</time>
      </trkpt>
      <trkpt lat="42.45456" lon="2.85635">
        <ele>337.8</ele>
        <time>2024-07-16T07:08:34Z</time>
      </trkpt>
      <trkpt lat="42.45453" lon="2.85648">
        <ele>337.2</ele>
        <time>2024-07-16T07:08:43Z</time>
      </trkpt>
      <trkpt lat="42.45451" lon="2.85654">
        <ele>337.6</ele>
        <time>2024-07-16T07:08:48Z</time>
      </trkpt>
      <trkpt lat="42.4545" lon="2.85658">
        <ele>338.4</ele>
        <time>2024-07-16T07:08:51Z</time>
      </trkpt>
      <trkpt lat="42.45447" lon="2.85668">
        <ele>338.8</ele>
        <time>2024-07-16T07:08:58Z</time>
      </trkpt>
      <trkpt lat="42.45444" lon="2.85681">
        <ele>337.8</ele>
        <time>2024-07-16T07:09:09Z</time>
      </trkpt>
      <trkpt lat="42.45441" lon="2.85682">
        <ele>337.6</ele>
        <time>2024-07-16T07:09:20Z</time>
      </trkpt>
      <trkpt lat="42.45435" lon="2.85687">
        <ele>335.6</ele>
        <time>2024-07-16T07:09:28Z</time>
      </trkpt>
      <trkpt lat="42.45434" lon="2.85697">
        <ele>333.6</ele>
        <time>2024-07-16T07:09:36Z</time>
      </trkpt>
      <trkpt lat="42.45438" lon="2.85703">
        <ele>334.2</ele>
        <time>2024-07-16T07:09:44Z</time>
      </trkpt>
      <trkpt lat="42.45439" lon="2.85709">
        <ele>335</ele>
        <time>2024-07-16T07:09:51Z</time>
      </trkpt>
      <trkpt lat="42.4544" lon="2.85717">
        <ele>334.4</ele>
        <time>2024-07-16T07:09:58Z</time>
      </trkpt>
      <trkpt lat="42.4544" lon="2.85735">
        <ele>332.4</ele>
        <time>2024-07-16T07:10:08Z</time>
      </trkpt>
      <trkpt lat="42.4544" lon="2.85739">
        <ele>331.8</ele>
        <time>2024-07-16T07:10:12Z</time>
      </trkpt>
      <trkpt lat="42.45442" lon="2.85744">
        <ele>331.2</ele>
        <time>2024-07-16T07:10:15Z</time>
      </trkpt>
      <trkpt lat="42.45443" lon="2.85746">
        <ele>331</ele>
        <time>2024-07-16T07:10:16Z</time>
      </trkpt>
      <trkpt lat="42.4545" lon="2.85757">
        <ele>328.4</ele>
        <time>2024-07-16T07:10:24Z</time>
      </trkpt>
      <trkpt lat="42.45457" lon="2.85769">
        <ele>327.8</ele>
        <time>2024-07-16T07:10:33Z</time>
      </trkpt>
      <trkpt lat="42.45466" lon="2.85781">
        <ele>328.4</ele>
        <time>2024-07-16T07:10:43Z</time>
      </trkpt>
      <trkpt lat="42.45477" lon="2.85791">
        <ele>327.8</ele>
        <time>2024-07-16T07:10:55Z</time>
      </trkpt>
      <trkpt lat="42.45486" lon="2.85792">
        <ele>327.4</ele>
        <time>2024-07-16T07:11:03Z</time>
      </trkpt>
      <trkpt lat="42.45497" lon="2.85787">
        <ele>327.2</ele>
        <time>2024-07-16T07:11:14Z</time>
      </trkpt>
      <trkpt lat="42.45504" lon="2.85779">
        <ele>328.6</ele>
        <time>2024-07-16T07:11:23Z</time>
      </trkpt>
      <trkpt lat="42.4551" lon="2.85774">
        <ele>329.6</ele>
        <time>2024-07-16T07:11:30Z</time>
      </trkpt>
      <trkpt lat="42.45511" lon="2.85773">
        <ele>329.6</ele>
        <time>2024-07-16T07:11:31Z</time>
      </trkpt>
      <trkpt lat="42.4552" lon="2.8577">
        <ele>331.6</ele>
        <time>2024-07-16T07:11:39Z</time>
      </trkpt>
      <trkpt lat="42.45531" lon="2.85776">
        <ele>333.2</ele>
        <time>2024-07-16T07:11:50Z</time>
      </trkpt>
      <trkpt lat="42.45543" lon="2.8579">
        <ele>334</ele>
        <time>2024-07-16T07:12:03Z</time>
      </trkpt>
      <trkpt lat="42.45552" lon="2.858">
        <ele>335</ele>
        <time>2024-07-16T07:12:14Z</time>
      </trkpt>
      <trkpt lat="42.45563" lon="2.85808">
        <ele>336.4</ele>
        <time>2024-07-16T07:12:26Z</time>
      </trkpt>
      <trkpt lat="42.45575" lon="2.85811">
        <ele>338.2</ele>
        <time>2024-07-16T07:12:37Z</time>
      </trkpt>
      <trkpt lat="42.45582" lon="2.85805">
        <ele>339.2</ele>
        <time>2024-07-16T07:12:46Z</time>
      </trkpt>
      <trkpt lat="42.45586" lon="2.8579">
        <ele>338.8</ele>
        <time>2024-07-16T07:12:57Z</time>
      </trkpt>
      <trkpt lat="42.45595" lon="2.85779">
        <ele>338.8</ele>
        <time>2024-07-16T07:13:08Z</time>
      </trkpt>
      <trkpt lat="42.45604" lon="2.85776">
        <ele>339.4</ele>
        <time>2024-07-16T07:13:18Z</time>
      </trkpt>
      <trkpt lat="42.45619" lon="2.85771">
        <ele>344</ele>
        <time>2024-07-16T07:13:32Z</time>
      </trkpt>
      <trkpt lat="42.45623" lon="2.85762">
        <ele>344.6</ele>
        <time>2024-07-16T07:13:40Z</time>
      </trkpt>
      <trkpt lat="42.45627" lon="2.85746">
        <ele>344.8</ele>
        <time>2024-07-16T07:13:52Z</time>
      </trkpt>
      <trkpt lat="42.4563" lon="2.85736">
        <ele>346.2</ele>
        <time>2024-07-16T07:14:00Z</time>
      </trkpt>
      <trkpt lat="42.45632" lon="2.85733">
        <ele>346.8</ele>
        <time>2024-07-16T07:14:03Z</time>
      </trkpt>
      <trkpt lat="42.45633" lon="2.85729">
        <ele>347.2</ele>
        <time>2024-07-16T07:14:06Z</time>
      </trkpt>
      <trkpt lat="42.45634" lon="2.85728">
        <ele>347.4</ele>
        <time>2024-07-16T07:14:07Z</time>
      </trkpt>
      <trkpt lat="42.45638" lon="2.85719">
        <ele>349</ele>
        <time>2024-07-16T07:14:14Z</time>
      </trkpt>
      <trkpt lat="42.45639" lon="2.85719">
        <ele>349.4</ele>
        <time>2024-07-16T07:14:15Z</time>
      </trkpt>
      <trkpt lat="42.45644" lon="2.85712">
        <ele>350.4</ele>
        <time>2024-07-16T07:14:21Z</time>
      </trkpt>
      <trkpt lat="42.45651" lon="2.85702">
        <ele>350.8</ele>
        <time>2024-07-16T07:14:30Z</time>
      </trkpt>
      <trkpt lat="42.45663" lon="2.8569">
        <ele>352.2</ele>
        <time>2024-07-16T07:14:42Z</time>
      </trkpt>
      <trkpt lat="42.45674" lon="2.85684">
        <ele>352.6</ele>
        <time>2024-07-16T07:14:53Z</time>
      </trkpt>
      <trkpt lat="42.45676" lon="2.85684">
        <ele>352.2</ele>
        <time>2024-07-16T07:14:55Z</time>
      </trkpt>
      <trkpt lat="42.45682" lon="2.85682">
        <ele>352.2</ele>
        <time>2024-07-16T07:15:01Z</time>
      </trkpt>
      <trkpt lat="42.45686" lon="2.85682">
        <ele>352.6</ele>
        <time>2024-07-16T07:15:05Z</time>
      </trkpt>
      <trkpt lat="42.4569" lon="2.85681">
        <ele>352.8</ele>
        <time>2024-07-16T07:15:09Z</time>
      </trkpt>
      <trkpt lat="42.45692" lon="2.85681">
        <ele>353.2</ele>
        <time>2024-07-16T07:15:11Z</time>
      </trkpt>
      <trkpt lat="42.45694" lon="2.85681">
        <ele>353.8</ele>
        <time>2024-07-16T07:15:13Z</time>
      </trkpt>
      <trkpt lat="42.45698" lon="2.85681">
        <ele>354</ele>
        <time>2024-07-16T07:15:16Z</time>
      </trkpt>
      <trkpt lat="42.4571" lon="2.85684">
        <ele>354.2</ele>
        <time>2024-07-16T07:15:26Z</time>
      </trkpt>
      <trkpt lat="42.45722" lon="2.85689">
        <ele>357</ele>
        <time>2024-07-16T07:15:37Z</time>
      </trkpt>
      <trkpt lat="42.45729" lon="2.85693">
        <ele>357.6</ele>
        <time>2024-07-16T07:15:45Z</time>
      </trkpt>
      <trkpt lat="42.4574" lon="2.85694">
        <ele>357.8</ele>
        <time>2024-07-16T07:15:55Z</time>
      </trkpt>
      <trkpt lat="42.45747" lon="2.85689">
        <ele>358</ele>
        <time>2024-07-16T07:16:03Z</time>
      </trkpt>
      <trkpt lat="42.45756" lon="2.85677">
        <ele>358.4</ele>
        <time>2024-07-16T07:16:14Z</time>
      </trkpt>
      <trkpt lat="42.45761" lon="2.85673">
        <ele>359.4</ele>
        <time>2024-07-16T07:16:23Z</time>
      </trkpt>
      <trkpt lat="42.45765" lon="2.85667">
        <ele>360</ele>
        <time>2024-07-16T07:16:30Z</time>
      </trkpt>
      <trkpt lat="42.45771" lon="2.85659">
        <ele>361</ele>
        <time>2024-07-16T07:16:38Z</time>
      </trkpt>
      <trkpt lat="42.45776" lon="2.85647">
        <ele>361</ele>
        <time>2024-07-16T07:16:47Z</time>
      </trkpt>
      <trkpt lat="42.45784" lon="2.85634">
        <ele>361.2</ele>
        <time>2024-07-16T07:16:59Z</time>
      </trkpt>
      <trkpt lat="42.45794" lon="2.85625">
        <ele>362.2</ele>
        <time>2024-07-16T07:17:10Z</time>
      </trkpt>
      <trkpt lat="42.45803" lon="2.85621">
        <ele>363.6</ele>
        <time>2024-07-16T07:17:18Z</time>
      </trkpt>
      <trkpt lat="42.45813" lon="2.85617">
        <ele>363.6</ele>
        <time>2024-07-16T07:17:28Z</time>
      </trkpt>
      <trkpt lat="42.45823" lon="2.85615">
        <ele>365.4</ele>
        <time>2024-07-16T07:17:37Z</time>
      </trkpt>
      <trkpt lat="42.45835" lon="2.85622">
        <ele>369.2</ele>
        <time>2024-07-16T07:17:49Z</time>
      </trkpt>
      <trkpt lat="42.45847" lon="2.85631">
        <ele>368.6</ele>
        <time>2024-07-16T07:18:02Z</time>
      </trkpt>
      <trkpt lat="42.45858" lon="2.8564">
        <ele>367.6</ele>
        <time>2024-07-16T07:18:13Z</time>
      </trkpt>
      <trkpt lat="42.45865" lon="2.85643">
        <ele>369.6</ele>
        <time>2024-07-16T07:18:21Z</time>
      </trkpt>
      <trkpt lat="42.4588" lon="2.8565">
        <ele>371.6</ele>
        <time>2024-07-16T07:18:33Z</time>
      </trkpt>
      <trkpt lat="42.45893" lon="2.85655">
        <ele>375.8</ele>
        <time>2024-07-16T07:18:46Z</time>
      </trkpt>
      <trkpt lat="42.45905" lon="2.85663">
        <ele>375.6</ele>
        <time>2024-07-16T07:18:58Z</time>
      </trkpt>
      <trkpt lat="42.45916" lon="2.85672">
        <ele>375.8</ele>
        <time>2024-07-16T07:19:08Z</time>
      </trkpt>
      <trkpt lat="42.45926" lon="2.85676">
        <ele>377.6</ele>
        <time>2024-07-16T07:19:18Z</time>
      </trkpt>
      <trkpt lat="42.45931" lon="2.85676">
        <ele>378.8</ele>
        <time>2024-07-16T07:19:22Z</time>
      </trkpt>
      <trkpt lat="42.45936" lon="2.85676">
        <ele>379.2</ele>
        <time>2024-07-16T07:19:27Z</time>
      </trkpt>
      <trkpt lat="42.4594" lon="2.85676">
        <ele>379</ele>
        <time>2024-07-16T07:19:31Z</time>
      </trkpt>
      <trkpt lat="42.45944" lon="2.85675">
        <ele>379.4</ele>
        <time>2024-07-16T07:19:35Z</time>
      </trkpt>
      <trkpt lat="42.45956" lon="2.85678">
        <ele>380</ele>
        <time>2024-07-16T07:19:45Z</time>
      </trkpt>
      <trkpt lat="42.45969" lon="2.85688">
        <ele>379.2</ele>
        <time>2024-07-16T07:19:57Z</time>
      </trkpt>
      <trkpt lat="42.45974" lon="2.857">
        <ele>380.2</ele>
        <time>2024-07-16T07:20:06Z</time>
      </trkpt>
      <trkpt lat="42.45978" lon="2.85719">
        <ele>382.2</ele>
        <time>2024-07-16T07:20:17Z</time>
      </trkpt>
      <trkpt lat="42.45981" lon="2.85735">
        <ele>382.4</ele>
        <time>2024-07-16T07:20:27Z</time>
      </trkpt>
      <trkpt lat="42.45981" lon="2.85739">
        <ele>382.6</ele>
        <time>2024-07-16T07:20:29Z</time>
      </trkpt>
      <trkpt lat="42.45979" lon="2.8575">
        <ele>383.4</ele>
        <time>2024-07-16T07:20:36Z</time>
      </trkpt>
      <trkpt lat="42.45978" lon="2.85763">
        <ele>383.6</ele>
        <time>2024-07-16T07:20:44Z</time>
      </trkpt>
      <trkpt lat="42.45982" lon="2.85785">
        <ele>383.6</ele>
        <time>2024-07-16T07:20:58Z</time>
      </trkpt>
      <trkpt lat="42.45995" lon="2.85788">
        <ele>382.6</ele>
        <time>2024-07-16T07:21:09Z</time>
      </trkpt>
      <trkpt lat="42.46005" lon="2.85783">
        <ele>381.2</ele>
        <time>2024-07-16T07:21:18Z</time>
      </trkpt>
      <trkpt lat="42.46011" lon="2.85777">
        <ele>380.6</ele>
        <time>2024-07-16T07:21:25Z</time>
      </trkpt>
      <trkpt lat="42.46014" lon="2.85776">
        <ele>380.4</ele>
        <time>2024-07-16T07:21:27Z</time>
      </trkpt>
      <trkpt lat="42.46028" lon="2.85771">
        <ele>378.6</ele>
        <time>2024-07-16T07:21:39Z</time>
      </trkpt>
      <trkpt lat="42.46037" lon="2.85775">
        <ele>377.8</ele>
        <time>2024-07-16T07:21:48Z</time>
      </trkpt>
      <trkpt lat="42.46044" lon="2.85788">
        <ele>377</ele>
        <time>2024-07-16T07:21:58Z</time>
      </trkpt>
      <trkpt lat="42.46045" lon="2.858">
        <ele>375.8</ele>
        <time>2024-07-16T07:22:06Z</time>
      </trkpt>
      <trkpt lat="42.46045" lon="2.85818">
        <ele>372.8</ele>
        <time>2024-07-16T07:22:18Z</time>
      </trkpt>
      <trkpt lat="42.46047" lon="2.85832">
        <ele>370.4</ele>
        <time>2024-07-16T07:22:28Z</time>
      </trkpt>
      <trkpt lat="42.46055" lon="2.85843">
        <ele>368.2</ele>
        <time>2024-07-16T07:22:38Z</time>
      </trkpt>
      <trkpt lat="42.46065" lon="2.85852">
        <ele>367.8</ele>
        <time>2024-07-16T07:22:48Z</time>
      </trkpt>
      <trkpt lat="42.46074" lon="2.8586">
        <ele>365</ele>
        <time>2024-07-16T07:22:57Z</time>
      </trkpt>
      <trkpt lat="42.46084" lon="2.85871">
        <ele>363.6</ele>
        <time>2024-07-16T07:23:07Z</time>
      </trkpt>
      <trkpt lat="42.46091" lon="2.85883">
        <ele>362.8</ele>
        <time>2024-07-16T07:23:15Z</time>
      </trkpt>
      <trkpt lat="42.46097" lon="2.85892">
        <ele>362</ele>
        <time>2024-07-16T07:23:24Z</time>
      </trkpt>
      <trkpt lat="42.46107" lon="2.85898">
        <ele>359.4</ele>
        <time>2024-07-16T07:23:33Z</time>
      </trkpt>
      <trkpt lat="42.46117" lon="2.85902">
        <ele>359.4</ele>
        <time>2024-07-16T07:23:41Z</time>
      </trkpt>
      <trkpt lat="42.46127" lon="2.85909">
        <ele>360.4</ele>
        <time>2024-07-16T07:23:50Z</time>
      </trkpt>
      <trkpt lat="42.46131" lon="2.85923">
        <ele>361</ele>
        <time>2024-07-16T07:23:59Z</time>
      </trkpt>
      <trkpt lat="42.46129" lon="2.85936">
        <ele>360.8</ele>
        <time>2024-07-16T07:24:08Z</time>
      </trkpt>
      <trkpt lat="42.46126" lon="2.8594">
        <ele>360.8</ele>
        <time>2024-07-16T07:24:12Z</time>
      </trkpt>
      <trkpt lat="42.46122" lon="2.85945">
        <ele>360.8</ele>
        <time>2024-07-16T07:24:16Z</time>
      </trkpt>
      <trkpt lat="42.46113" lon="2.85955">
        <ele>358.2</ele>
        <time>2024-07-16T07:24:25Z</time>
      </trkpt>
      <trkpt lat="42.46108" lon="2.85967">
        <ele>354.2</ele>
        <time>2024-07-16T07:24:34Z</time>
      </trkpt>
      <trkpt lat="42.46109" lon="2.8598">
        <ele>352.4</ele>
        <time>2024-07-16T07:24:41Z</time>
      </trkpt>
      <trkpt lat="42.4611" lon="2.85981">
        <ele>352.2</ele>
        <time>2024-07-16T07:24:42Z</time>
      </trkpt>
      <trkpt lat="42.46114" lon="2.85994">
        <ele>350.4</ele>
        <time>2024-07-16T07:24:50Z</time>
      </trkpt>
      <trkpt lat="42.46124" lon="2.86007">
        <ele>350.4</ele>
        <time>2024-07-16T07:25:01Z</time>
      </trkpt>
      <trkpt lat="42.46136" lon="2.86017">
        <ele>349</ele>
        <time>2024-07-16T07:25:13Z</time>
      </trkpt>
      <trkpt lat="42.46146" lon="2.86026">
        <ele>346.4</ele>
        <time>2024-07-16T07:25:23Z</time>
      </trkpt>
      <trkpt lat="42.46149" lon="2.86033">
        <ele>345.8</ele>
        <time>2024-07-16T07:25:28Z</time>
      </trkpt>
      <trkpt lat="42.46151" lon="2.86037">
        <ele>345.8</ele>
        <time>2024-07-16T07:25:31Z</time>
      </trkpt>
      <trkpt lat="42.46155" lon="2.8605">
        <ele>345</ele>
        <time>2024-07-16T07:25:39Z</time>
      </trkpt>
      <trkpt lat="42.46157" lon="2.86054">
        <ele>344</ele>
        <time>2024-07-16T07:25:42Z</time>
      </trkpt>
      <trkpt lat="42.46159" lon="2.86062">
        <ele>342.8</ele>
        <time>2024-07-16T07:25:47Z</time>
      </trkpt>
      <trkpt lat="42.46163" lon="2.86076">
        <ele>340.4</ele>
        <time>2024-07-16T07:25:56Z</time>
      </trkpt>
      <trkpt lat="42.46169" lon="2.86084">
        <ele>340</ele>
        <time>2024-07-16T07:26:03Z</time>
      </trkpt>
      <trkpt lat="42.46171" lon="2.86086">
        <ele>340</ele>
        <time>2024-07-16T07:26:05Z</time>
      </trkpt>
      <trkpt lat="42.46173" lon="2.86091">
        <ele>340.4</ele>
        <time>2024-07-16T07:26:09Z</time>
      </trkpt>
      <trkpt lat="42.46178" lon="2.86099">
        <ele>342.8</ele>
        <time>2024-07-16T07:26:16Z</time>
      </trkpt>
      <trkpt lat="42.46178" lon="2.861">
        <ele>343</ele>
        <time>2024-07-16T07:26:17Z</time>
      </trkpt>
      <trkpt lat="42.46183" lon="2.8611">
        <ele>344</ele>
        <time>2024-07-16T07:26:25Z</time>
      </trkpt>
      <trkpt lat="42.46189" lon="2.8612">
        <ele>346</ele>
        <time>2024-07-16T07:26:34Z</time>
      </trkpt>
      <trkpt lat="42.46195" lon="2.86131">
        <ele>348.2</ele>
        <time>2024-07-16T07:26:43Z</time>
      </trkpt>
      <trkpt lat="42.46201" lon="2.86135">
        <ele>348.8</ele>
        <time>2024-07-16T07:26:50Z</time>
      </trkpt>
      <trkpt lat="42.46203" lon="2.86134">
        <ele>348.8</ele>
        <time>2024-07-16T07:26:51Z</time>
      </trkpt>
      <trkpt lat="42.46212" lon="2.86133">
        <ele>348.8</ele>
        <time>2024-07-16T07:26:59Z</time>
      </trkpt>
      <trkpt lat="42.46222" lon="2.86133">
        <ele>347.8</ele>
        <time>2024-07-16T07:27:08Z</time>
      </trkpt>
      <trkpt lat="42.46231" lon="2.86133">
        <ele>347.2</ele>
        <time>2024-07-16T07:27:14Z</time>
      </trkpt>
      <trkpt lat="42.46234" lon="2.86133">
        <ele>347.6</ele>
        <time>2024-07-16T07:27:16Z</time>
      </trkpt>
      <trkpt lat="42.46245" lon="2.86128">
        <ele>348</ele>
        <time>2024-07-16T07:27:26Z</time>
      </trkpt>
      <trkpt lat="42.46255" lon="2.86124">
        <ele>345.6</ele>
        <time>2024-07-16T07:27:35Z</time>
      </trkpt>
      <trkpt lat="42.46262" lon="2.86122">
        <ele>343.8</ele>
        <time>2024-07-16T07:27:41Z</time>
      </trkpt>
      <trkpt lat="42.46271" lon="2.86119">
        <ele>342</ele>
        <time>2024-07-16T07:27:50Z</time>
      </trkpt>
      <trkpt lat="42.46272" lon="2.86118">
        <ele>342</ele>
        <time>2024-07-16T07:27:51Z</time>
      </trkpt>
      <trkpt lat="42.46279" lon="2.86118">
        <ele>340.8</ele>
        <time>2024-07-16T07:27:57Z</time>
      </trkpt>
      <trkpt lat="42.4628" lon="2.86118">
        <ele>340.4</ele>
        <time>2024-07-16T07:27:58Z</time>
      </trkpt>
      <trkpt lat="42.46286" lon="2.86117">
        <ele>338.4</ele>
        <time>2024-07-16T07:28:04Z</time>
      </trkpt>
      <trkpt lat="42.46287" lon="2.86116">
        <ele>338</ele>
        <time>2024-07-16T07:28:05Z</time>
      </trkpt>
      <trkpt lat="42.46289" lon="2.86111">
        <ele>337.2</ele>
        <time>2024-07-16T07:28:08Z</time>
      </trkpt>
      <trkpt lat="42.46291" lon="2.86107">
        <ele>336.8</ele>
        <time>2024-07-16T07:28:11Z</time>
      </trkpt>
      <trkpt lat="42.46293" lon="2.86106">
        <ele>336.8</ele>
        <time>2024-07-16T07:28:13Z</time>
      </trkpt>
      <trkpt lat="42.46295" lon="2.86105">
        <ele>336.6</ele>
        <time>2024-07-16T07:28:15Z</time>
      </trkpt>
      <trkpt lat="42.46298" lon="2.86103">
        <ele>336.6</ele>
        <time>2024-07-16T07:28:17Z</time>
      </trkpt>
      <trkpt lat="42.46306" lon="2.86092">
        <ele>335.8</ele>
        <time>2024-07-16T07:28:26Z</time>
      </trkpt>
      <trkpt lat="42.46308" lon="2.86088">
        <ele>335.4</ele>
        <time>2024-07-16T07:28:30Z</time>
      </trkpt>
      <trkpt lat="42.4631" lon="2.86086">
        <ele>335</ele>
        <time>2024-07-16T07:28:32Z</time>
      </trkpt>
      <trkpt lat="42.46315" lon="2.86079">
        <ele>333.8</ele>
        <time>2024-07-16T07:28:38Z</time>
      </trkpt>
      <trkpt lat="42.46316" lon="2.86078">
        <ele>333.4</ele>
        <time>2024-07-16T07:28:39Z</time>
      </trkpt>
      <trkpt lat="42.46321" lon="2.86069">
        <ele>328.6</ele>
        <time>2024-07-16T07:28:47Z</time>
      </trkpt>
      <trkpt lat="42.46326" lon="2.86058">
        <ele>326.2</ele>
        <time>2024-07-16T07:28:54Z</time>
      </trkpt>
      <trkpt lat="42.46333" lon="2.86047">
        <ele>326</ele>
        <time>2024-07-16T07:29:03Z</time>
      </trkpt>
      <trkpt lat="42.46334" lon="2.86046">
        <ele>326</ele>
        <time>2024-07-16T07:29:04Z</time>
      </trkpt>
      <trkpt lat="42.46337" lon="2.86042">
        <ele>326.4</ele>
        <time>2024-07-16T07:29:08Z</time>
      </trkpt>
      <trkpt lat="42.46338" lon="2.86041">
        <ele>326.4</ele>
        <time>2024-07-16T07:29:09Z</time>
      </trkpt>
      <trkpt lat="42.46341" lon="2.86029">
        <ele>324.4</ele>
        <time>2024-07-16T07:29:18Z</time>
      </trkpt>
      <trkpt lat="42.46344" lon="2.86019">
        <ele>321.8</ele>
        <time>2024-07-16T07:29:25Z</time>
      </trkpt>
      <trkpt lat="42.46352" lon="2.86012">
        <ele>321.2</ele>
        <time>2024-07-16T07:29:33Z</time>
      </trkpt>
      <trkpt lat="42.46358" lon="2.86006">
        <ele>319.4</ele>
        <time>2024-07-16T07:29:39Z</time>
      </trkpt>
      <trkpt lat="42.46361" lon="2.85999">
        <ele>317.4</ele>
        <time>2024-07-16T07:29:45Z</time>
      </trkpt>
      <trkpt lat="42.46364" lon="2.85998">
        <ele>316.2</ele>
        <time>2024-07-16T07:29:48Z</time>
      </trkpt>
      <trkpt lat="42.46367" lon="2.85997">
        <ele>315.6</ele>
        <time>2024-07-16T07:29:50Z</time>
      </trkpt>
      <trkpt lat="42.46368" lon="2.85995">
        <ele>315.4</ele>
        <time>2024-07-16T07:29:51Z</time>
      </trkpt>
      <trkpt lat="42.46368" lon="2.85993">
        <ele>315.2</ele>
        <time>2024-07-16T07:29:52Z</time>
      </trkpt>
      <trkpt lat="42.4637" lon="2.85989">
        <ele>314.8</ele>
        <time>2024-07-16T07:29:55Z</time>
      </trkpt>
      <trkpt lat="42.46372" lon="2.85987">
        <ele>314.2</ele>
        <time>2024-07-16T07:29:57Z</time>
      </trkpt>
      <trkpt lat="42.46378" lon="2.85978">
        <ele>312.8</ele>
        <time>2024-07-16T07:30:04Z</time>
      </trkpt>
      <trkpt lat="42.46379" lon="2.85974">
        <ele>312.4</ele>
        <time>2024-07-16T07:30:08Z</time>
      </trkpt>
      <trkpt lat="42.46382" lon="2.85975">
        <ele>312.2</ele>
        <time>2024-07-16T07:30:10Z</time>
      </trkpt>
      <trkpt lat="42.46389" lon="2.85981">
        <ele>311.6</ele>
        <time>2024-07-16T07:30:16Z</time>
      </trkpt>
      <trkpt lat="42.4639" lon="2.85983">
        <ele>311.4</ele>
        <time>2024-07-16T07:30:17Z</time>
      </trkpt>
      <trkpt lat="42.46389" lon="2.85985">
        <ele>311</ele>
        <time>2024-07-16T07:30:22Z</time>
      </trkpt>
      <trkpt lat="42.46388" lon="2.85986">
        <ele>309.4</ele>
        <time>2024-07-16T07:30:28Z</time>
      </trkpt>
      <trkpt lat="42.46387" lon="2.85986">
        <ele>307.2</ele>
        <time>2024-07-16T07:30:35Z</time>
      </trkpt>
      <trkpt lat="42.46386" lon="2.85987">
        <ele>305</ele>
        <time>2024-07-16T07:30:53Z</time>
      </trkpt>
      <trkpt lat="42.46389" lon="2.85997">
        <ele>310.2</ele>
        <time>2024-07-16T07:32:16Z</time>
      </trkpt>
      <trkpt lat="42.46397" lon="2.8601">
        <ele>309.8</ele>
        <time>2024-07-16T07:32:25Z</time>
      </trkpt>
      <trkpt lat="42.464" lon="2.86022">
        <ele>307.4</ele>
        <time>2024-07-16T07:32:34Z</time>
      </trkpt>
      <trkpt lat="42.46402" lon="2.86038">
        <ele>306.8</ele>
        <time>2024-07-16T07:32:44Z</time>
      </trkpt>
      <trkpt lat="42.46404" lon="2.86049">
        <ele>306.6</ele>
        <time>2024-07-16T07:32:52Z</time>
      </trkpt>
      <trkpt lat="42.46406" lon="2.86062">
        <ele>305.6</ele>
        <time>2024-07-16T07:33:01Z</time>
      </trkpt>
      <trkpt lat="42.4641" lon="2.86078">
        <ele>303.4</ele>
        <time>2024-07-16T07:33:12Z</time>
      </trkpt>
      <trkpt lat="42.46415" lon="2.86087">
        <ele>302.2</ele>
        <time>2024-07-16T07:33:19Z</time>
      </trkpt>
      <trkpt lat="42.46426" lon="2.861">
        <ele>302.2</ele>
        <time>2024-07-16T07:33:30Z</time>
      </trkpt>
      <trkpt lat="42.46431" lon="2.86115">
        <ele>302.2</ele>
        <time>2024-07-16T07:33:40Z</time>
      </trkpt>
      <trkpt lat="42.46436" lon="2.86131">
        <ele>303.8</ele>
        <time>2024-07-16T07:33:50Z</time>
      </trkpt>
      <trkpt lat="42.46438" lon="2.8614">
        <ele>303.8</ele>
        <time>2024-07-16T07:33:56Z</time>
      </trkpt>
      <trkpt lat="42.46441" lon="2.8615">
        <ele>303.2</ele>
        <time>2024-07-16T07:34:03Z</time>
      </trkpt>
      <trkpt lat="42.46442" lon="2.86151">
        <ele>303</ele>
        <time>2024-07-16T07:34:04Z</time>
      </trkpt>
      <trkpt lat="42.46445" lon="2.86166">
        <ele>302.6</ele>
        <time>2024-07-16T07:34:13Z</time>
      </trkpt>
      <trkpt lat="42.46446" lon="2.86183">
        <ele>303.4</ele>
        <time>2024-07-16T07:34:23Z</time>
      </trkpt>
      <trkpt lat="42.46448" lon="2.86188">
        <ele>304.2</ele>
        <time>2024-07-16T07:34:26Z</time>
      </trkpt>
      <trkpt lat="42.46449" lon="2.86191">
        <ele>304.4</ele>
        <time>2024-07-16T07:34:28Z</time>
      </trkpt>
      <trkpt lat="42.46449" lon="2.86192">
        <ele>304.4</ele>
        <time>2024-07-16T07:34:29Z</time>
      </trkpt>
      <trkpt lat="42.46449" lon="2.86195">
        <ele>304.8</ele>
        <time>2024-07-16T07:34:31Z</time>
      </trkpt>
      <trkpt lat="42.4645" lon="2.86202">
        <ele>305.4</ele>
        <time>2024-07-16T07:34:35Z</time>
      </trkpt>
      <trkpt lat="42.4645" lon="2.86213">
        <ele>306.8</ele>
        <time>2024-07-16T07:34:42Z</time>
      </trkpt>
      <trkpt lat="42.4645" lon="2.86227">
        <ele>306.6</ele>
        <time>2024-07-16T07:34:52Z</time>
      </trkpt>
      <trkpt lat="42.46451" lon="2.8623">
        <ele>306.4</ele>
        <time>2024-07-16T07:34:55Z</time>
      </trkpt>
      <trkpt lat="42.46454" lon="2.86235">
        <ele>305.8</ele>
        <time>2024-07-16T07:35:01Z</time>
      </trkpt>
      <trkpt lat="42.46454" lon="2.86238">
        <ele>304.8</ele>
        <time>2024-07-16T07:35:10Z</time>
      </trkpt>
      <trkpt lat="42.46454" lon="2.86244">
        <ele>304.6</ele>
        <time>2024-07-16T07:35:17Z</time>
      </trkpt>
      <trkpt lat="42.46453" lon="2.86249">
        <ele>302.4</ele>
        <time>2024-07-16T07:35:24Z</time>
      </trkpt>
      <trkpt lat="42.46452" lon="2.86254">
        <ele>299.2</ele>
        <time>2024-07-16T07:35:31Z</time>
      </trkpt>
      <trkpt lat="42.46453" lon="2.86256">
        <ele>298.4</ele>
        <time>2024-07-16T07:35:34Z</time>
      </trkpt>
      <trkpt lat="42.46454" lon="2.86258">
        <ele>297.2</ele>
        <time>2024-07-16T07:35:38Z</time>
      </trkpt>
      <trkpt lat="42.46455" lon="2.86261">
        <ele>295</ele>
        <time>2024-07-16T07:35:43Z</time>
      </trkpt>
      <trkpt lat="42.46456" lon="2.86263">
        <ele>293.6</ele>
        <time>2024-07-16T07:35:50Z</time>
      </trkpt>
      <trkpt lat="42.46455" lon="2.86269">
        <ele>291.4</ele>
        <time>2024-07-16T07:35:54Z</time>
      </trkpt>
      <trkpt lat="42.46456" lon="2.8627">
        <ele>290.8</ele>
        <time>2024-07-16T07:35:55Z</time>
      </trkpt>
      <trkpt lat="42.46458" lon="2.86278">
        <ele>289.8</ele>
        <time>2024-07-16T07:36:00Z</time>
      </trkpt>
      <trkpt lat="42.4646" lon="2.86283">
        <ele>290</ele>
        <time>2024-07-16T07:36:03Z</time>
      </trkpt>
      <trkpt lat="42.46461" lon="2.86287">
        <ele>290.2</ele>
        <time>2024-07-16T07:36:06Z</time>
      </trkpt>
      <trkpt lat="42.46462" lon="2.86288">
        <ele>290.4</ele>
        <time>2024-07-16T07:36:07Z</time>
      </trkpt>
      <trkpt lat="42.46462" lon="2.8629">
        <ele>290.4</ele>
        <time>2024-07-16T07:36:09Z</time>
      </trkpt>
      <trkpt lat="42.46463" lon="2.86291">
        <ele>290.4</ele>
        <time>2024-07-16T07:36:10Z</time>
      </trkpt>
      <trkpt lat="42.46464" lon="2.86296">
        <ele>290.6</ele>
        <time>2024-07-16T07:36:13Z</time>
      </trkpt>
      <trkpt lat="42.46464" lon="2.86298">
        <ele>290.6</ele>
        <time>2024-07-16T07:36:14Z</time>
      </trkpt>
      <trkpt lat="42.46463" lon="2.86304">
        <ele>290.6</ele>
        <time>2024-07-16T07:36:20Z</time>
      </trkpt>
      <trkpt lat="42.46459" lon="2.86303">
        <ele>290.4</ele>
        <time>2024-07-16T07:36:27Z</time>
      </trkpt>
      <trkpt lat="42.46448" lon="2.86304">
        <ele>288.6</ele>
        <time>2024-07-16T07:36:34Z</time>
      </trkpt>
      <trkpt lat="42.46448" lon="2.86303">
        <ele>288.2</ele>
        <time>2024-07-16T07:36:35Z</time>
      </trkpt>
      <trkpt lat="42.46442" lon="2.86302">
        <ele>287</ele>
        <time>2024-07-16T07:36:39Z</time>
      </trkpt>
      <trkpt lat="42.46433" lon="2.86307">
        <ele>288.8</ele>
        <time>2024-07-16T07:36:47Z</time>
      </trkpt>
      <trkpt lat="42.4643" lon="2.8631">
        <ele>290.8</ele>
        <time>2024-07-16T07:36:50Z</time>
      </trkpt>
      <trkpt lat="42.46428" lon="2.86311">
        <ele>292.4</ele>
        <time>2024-07-16T07:36:52Z</time>
      </trkpt>
      <trkpt lat="42.46427" lon="2.86311">
        <ele>293.2</ele>
        <time>2024-07-16T07:36:53Z</time>
      </trkpt>
      <trkpt lat="42.46415" lon="2.86314">
        <ele>299.8</ele>
        <time>2024-07-16T07:37:02Z</time>
      </trkpt>
      <trkpt lat="42.46404" lon="2.86317">
        <ele>297.8</ele>
        <time>2024-07-16T07:37:11Z</time>
      </trkpt>
      <trkpt lat="42.46394" lon="2.86318">
        <ele>295.4</ele>
        <time>2024-07-16T07:37:19Z</time>
      </trkpt>
      <trkpt lat="42.46385" lon="2.86321">
        <ele>291.6</ele>
        <time>2024-07-16T07:37:28Z</time>
      </trkpt>
      <trkpt lat="42.46385" lon="2.86322">
        <ele>289.8</ele>
        <time>2024-07-16T07:37:34Z</time>
      </trkpt>
      <trkpt lat="42.46384" lon="2.86329">
        <ele>289.2</ele>
        <time>2024-07-16T07:37:40Z</time>
      </trkpt>
      <trkpt lat="42.46383" lon="2.86335">
        <ele>288.6</ele>
        <time>2024-07-16T07:37:45Z</time>
      </trkpt>
      <trkpt lat="42.46381" lon="2.86335">
        <ele>287.8</ele>
        <time>2024-07-16T07:37:47Z</time>
      </trkpt>
      <trkpt lat="42.46374" lon="2.86334">
        <ele>286.2</ele>
        <time>2024-07-16T07:37:56Z</time>
      </trkpt>
      <trkpt lat="42.4637" lon="2.86334">
        <ele>288</ele>
        <time>2024-07-16T07:38:03Z</time>
      </trkpt>
      <trkpt lat="42.46372" lon="2.86333">
        <ele>291</ele>
        <time>2024-07-16T07:38:08Z</time>
      </trkpt>
      <trkpt lat="42.46373" lon="2.86332">
        <ele>294</ele>
        <time>2024-07-16T07:38:15Z</time>
      </trkpt>
      <trkpt lat="42.46374" lon="2.86332">
        <ele>294.6</ele>
        <time>2024-07-16T07:38:24Z</time>
      </trkpt>
      <trkpt lat="42.46375" lon="2.86332">
        <ele>293.2</ele>
        <time>2024-07-16T07:38:29Z</time>
      </trkpt>
      <trkpt lat="42.46375" lon="2.86332">
        <ele>292</ele>
        <time>2024-07-16T07:38:35Z</time>
      </trkpt>
      <trkpt lat="42.46375" lon="2.86332">
        <ele>290.8</ele>
        <time>2024-07-16T07:38:43Z</time>
      </trkpt>
      <trkpt lat="42.46374" lon="2.86346">
        <ele>280.4</ele>
        <time>2024-07-16T07:40:12Z</time>
      </trkpt>
      <trkpt lat="42.46374" lon="2.8635">
        <ele>281.2</ele>
        <time>2024-07-16T07:40:16Z</time>
      </trkpt>
      <trkpt lat="42.46376" lon="2.86353">
        <ele>282.8</ele>
        <time>2024-07-16T07:40:21Z</time>
      </trkpt>
      <trkpt lat="42.46376" lon="2.86352">
        <ele>284</ele>
        <time>2024-07-16T07:40:26Z</time>
      </trkpt>
      <trkpt lat="42.46374" lon="2.8635">
        <ele>285.2</ele>
        <time>2024-07-16T07:40:31Z</time>
      </trkpt>
      <trkpt lat="42.46373" lon="2.86347">
        <ele>285.6</ele>
        <time>2024-07-16T07:40:36Z</time>
      </trkpt>
      <trkpt lat="42.46375" lon="2.86347">
        <ele>285.4</ele>
        <time>2024-07-16T07:40:40Z</time>
      </trkpt>
      <trkpt lat="42.46379" lon="2.86348">
        <ele>284.6</ele>
        <time>2024-07-16T07:40:48Z</time>
      </trkpt>
      <trkpt lat="42.4638" lon="2.86349">
        <ele>284.6</ele>
        <time>2024-07-16T07:40:54Z</time>
      </trkpt>
      <trkpt lat="42.46379" lon="2.86348">
        <ele>286.8</ele>
        <time>2024-07-16T07:41:01Z</time>
      </trkpt>
      <trkpt lat="42.46379" lon="2.86345">
        <ele>287.4</ele>
        <time>2024-07-16T07:41:09Z</time>
      </trkpt>
      <trkpt lat="42.46379" lon="2.86345">
        <ele>287</ele>
        <time>2024-07-16T07:41:14Z</time>
      </trkpt>
      <trkpt lat="42.46379" lon="2.86343">
        <ele>287.8</ele>
        <time>2024-07-16T07:41:25Z</time>
      </trkpt>
      <trkpt lat="42.46385" lon="2.86312">
        <ele>278.6</ele>
        <time>2024-07-16T09:06:29Z</time>
      </trkpt>
      <trkpt lat="42.46381" lon="2.8631">
        <ele>278.6</ele>
        <time>2024-07-16T09:06:32Z</time>
      </trkpt>
      <trkpt lat="42.46394" lon="2.86313">
        <ele>278.6</ele>
        <time>2024-07-16T09:06:38Z</time>
      </trkpt>
      <trkpt lat="42.46404" lon="2.86314">
        <ele>278.6</ele>
        <time>2024-07-16T09:06:46Z</time>
      </trkpt>
      <trkpt lat="42.46408" lon="2.86313">
        <ele>278.8</ele>
        <time>2024-07-16T09:06:49Z</time>
      </trkpt>
      <trkpt lat="42.46413" lon="2.86311">
        <ele>278.8</ele>
        <time>2024-07-16T09:06:53Z</time>
      </trkpt>
      <trkpt lat="42.46422" lon="2.86311">
        <ele>278.6</ele>
        <time>2024-07-16T09:07:02Z</time>
      </trkpt>
      <trkpt lat="42.46427" lon="2.86305">
        <ele>278.2</ele>
        <time>2024-07-16T09:07:11Z</time>
      </trkpt>
      <trkpt lat="42.46434" lon="2.86304">
        <ele>278.2</ele>
        <time>2024-07-16T09:07:18Z</time>
      </trkpt>
      <trkpt lat="42.46442" lon="2.86305">
        <ele>280.2</ele>
        <time>2024-07-16T09:07:25Z</time>
      </trkpt>
      <trkpt lat="42.46454" lon="2.86306">
        <ele>283</ele>
        <time>2024-07-16T09:07:34Z</time>
      </trkpt>
      <trkpt lat="42.46462" lon="2.86308">
        <ele>284.2</ele>
        <time>2024-07-16T09:07:42Z</time>
      </trkpt>
      <trkpt lat="42.46476" lon="2.86311">
        <ele>286.8</ele>
        <time>2024-07-16T09:07:50Z</time>
      </trkpt>
      <trkpt lat="42.4649" lon="2.86316">
        <ele>289.8</ele>
        <time>2024-07-16T09:07:58Z</time>
      </trkpt>
      <trkpt lat="42.465" lon="2.86318">
        <ele>290.8</ele>
        <time>2024-07-16T09:08:06Z</time>
      </trkpt>
      <trkpt lat="42.46514" lon="2.86318">
        <ele>292.2</ele>
        <time>2024-07-16T09:08:18Z</time>
      </trkpt>
      <trkpt lat="42.46519" lon="2.8632">
        <ele>292.8</ele>
        <time>2024-07-16T09:08:24Z</time>
      </trkpt>
      <trkpt lat="42.46521" lon="2.86318">
        <ele>293</ele>
        <time>2024-07-16T09:08:26Z</time>
      </trkpt>
      <trkpt lat="42.46532" lon="2.8632">
        <ele>295.6</ele>
        <time>2024-07-16T09:08:34Z</time>
      </trkpt>
      <trkpt lat="42.46535" lon="2.86321">
        <ele>296.4</ele>
        <time>2024-07-16T09:08:36Z</time>
      </trkpt>
      <trkpt lat="42.4654" lon="2.86321">
        <ele>297.6</ele>
        <time>2024-07-16T09:08:40Z</time>
      </trkpt>
      <trkpt lat="42.46553" lon="2.8632">
        <ele>299.8</ele>
        <time>2024-07-16T09:08:51Z</time>
      </trkpt>
      <trkpt lat="42.46558" lon="2.8632">
        <ele>301.4</ele>
        <time>2024-07-16T09:08:58Z</time>
      </trkpt>
      <trkpt lat="42.46562" lon="2.86318">
        <ele>300.8</ele>
        <time>2024-07-16T09:09:04Z</time>
      </trkpt>
      <trkpt lat="42.46563" lon="2.86318">
        <ele>300.6</ele>
        <time>2024-07-16T09:09:05Z</time>
      </trkpt>
      <trkpt lat="42.46572" lon="2.86317">
        <ele>299.6</ele>
        <time>2024-07-16T09:09:11Z</time>
      </trkpt>
      <trkpt lat="42.46576" lon="2.86313">
        <ele>299.4</ele>
        <time>2024-07-16T09:09:16Z</time>
      </trkpt>
      <trkpt lat="42.46577" lon="2.86312">
        <ele>299.2</ele>
        <time>2024-07-16T09:09:18Z</time>
      </trkpt>
      <trkpt lat="42.46586" lon="2.86308">
        <ele>294.6</ele>
        <time>2024-07-16T09:09:26Z</time>
      </trkpt>
      <trkpt lat="42.46599" lon="2.86304">
        <ele>291.8</ele>
        <time>2024-07-16T09:09:38Z</time>
      </trkpt>
      <trkpt lat="42.46609" lon="2.86299">
        <ele>289.2</ele>
        <time>2024-07-16T09:09:47Z</time>
      </trkpt>
      <trkpt lat="42.46625" lon="2.86292">
        <ele>288.4</ele>
        <time>2024-07-16T09:09:59Z</time>
      </trkpt>
      <trkpt lat="42.46629" lon="2.86293">
        <ele>288</ele>
        <time>2024-07-16T09:10:04Z</time>
      </trkpt>
      <trkpt lat="42.46631" lon="2.86297">
        <ele>287.2</ele>
        <time>2024-07-16T09:10:06Z</time>
      </trkpt>
      <trkpt lat="42.46631" lon="2.86298">
        <ele>286.6</ele>
        <time>2024-07-16T09:10:07Z</time>
      </trkpt>
      <trkpt lat="42.46636" lon="2.86304">
        <ele>282.6</ele>
        <time>2024-07-16T09:10:12Z</time>
      </trkpt>
      <trkpt lat="42.46638" lon="2.86306">
        <ele>282</ele>
        <time>2024-07-16T09:10:14Z</time>
      </trkpt>
      <trkpt lat="42.46639" lon="2.86307">
        <ele>281.8</ele>
        <time>2024-07-16T09:10:15Z</time>
      </trkpt>
      <trkpt lat="42.46645" lon="2.86313">
        <ele>281.4</ele>
        <time>2024-07-16T09:10:22Z</time>
      </trkpt>
      <trkpt lat="42.46655" lon="2.86322">
        <ele>281.8</ele>
        <time>2024-07-16T09:10:31Z</time>
      </trkpt>
      <trkpt lat="42.46666" lon="2.86329">
        <ele>282.8</ele>
        <time>2024-07-16T09:10:40Z</time>
      </trkpt>
      <trkpt lat="42.46676" lon="2.86337">
        <ele>284.6</ele>
        <time>2024-07-16T09:10:50Z</time>
      </trkpt>
      <trkpt lat="42.46685" lon="2.86345">
        <ele>285</ele>
        <time>2024-07-16T09:10:58Z</time>
      </trkpt>
      <trkpt lat="42.46693" lon="2.86354">
        <ele>286.2</ele>
        <time>2024-07-16T09:11:07Z</time>
      </trkpt>
      <trkpt lat="42.46699" lon="2.86368">
        <ele>288</ele>
        <time>2024-07-16T09:11:18Z</time>
      </trkpt>
      <trkpt lat="42.46696" lon="2.86382">
        <ele>288</ele>
        <time>2024-07-16T09:11:27Z</time>
      </trkpt>
      <trkpt lat="42.46692" lon="2.86391">
        <ele>286.6</ele>
        <time>2024-07-16T09:11:34Z</time>
      </trkpt>
      <trkpt lat="42.46691" lon="2.86395">
        <ele>286.2</ele>
        <time>2024-07-16T09:11:36Z</time>
      </trkpt>
      <trkpt lat="42.46688" lon="2.86404">
        <ele>285.4</ele>
        <time>2024-07-16T09:11:42Z</time>
      </trkpt>
      <trkpt lat="42.46688" lon="2.86416">
        <ele>285.6</ele>
        <time>2024-07-16T09:11:50Z</time>
      </trkpt>
      <trkpt lat="42.46684" lon="2.86434">
        <ele>285.8</ele>
        <time>2024-07-16T09:12:02Z</time>
      </trkpt>
      <trkpt lat="42.46682" lon="2.8644">
        <ele>286.2</ele>
        <time>2024-07-16T09:12:06Z</time>
      </trkpt>
      <trkpt lat="42.46683" lon="2.86446">
        <ele>286.8</ele>
        <time>2024-07-16T09:12:10Z</time>
      </trkpt>
      <trkpt lat="42.46683" lon="2.86455">
        <ele>287.6</ele>
        <time>2024-07-16T09:12:15Z</time>
      </trkpt>
      <trkpt lat="42.46685" lon="2.86461">
        <ele>289.6</ele>
        <time>2024-07-16T09:12:19Z</time>
      </trkpt>
      <trkpt lat="42.46683" lon="2.86465">
        <ele>291</ele>
        <time>2024-07-16T09:12:22Z</time>
      </trkpt>
      <trkpt lat="42.46682" lon="2.86472">
        <ele>292.8</ele>
        <time>2024-07-16T09:12:27Z</time>
      </trkpt>
      <trkpt lat="42.46683" lon="2.86474">
        <ele>293.2</ele>
        <time>2024-07-16T09:12:30Z</time>
      </trkpt>
      <trkpt lat="42.46684" lon="2.86474">
        <ele>293.4</ele>
        <time>2024-07-16T09:12:32Z</time>
      </trkpt>
      <trkpt lat="42.46683" lon="2.86475">
        <ele>293.8</ele>
        <time>2024-07-16T09:12:39Z</time>
      </trkpt>
      <trkpt lat="42.46681" lon="2.86478">
        <ele>294.4</ele>
        <time>2024-07-16T09:12:53Z</time>
      </trkpt>
      <trkpt lat="42.46676" lon="2.86489">
        <ele>292</ele>
        <time>2024-07-16T09:13:01Z</time>
      </trkpt>
      <trkpt lat="42.4667" lon="2.86496">
        <ele>287</ele>
        <time>2024-07-16T09:13:07Z</time>
      </trkpt>
      <trkpt lat="42.4667" lon="2.86496">
        <ele>286</ele>
        <time>2024-07-16T09:13:08Z</time>
      </trkpt>
      <trkpt lat="42.4667" lon="2.86497">
        <ele>284.2</ele>
        <time>2024-07-16T09:13:10Z</time>
      </trkpt>
      <trkpt lat="42.4667" lon="2.86497">
        <ele>282.8</ele>
        <time>2024-07-16T09:13:12Z</time>
      </trkpt>
      <trkpt lat="42.46669" lon="2.86497">
        <ele>281.8</ele>
        <time>2024-07-16T09:13:17Z</time>
      </trkpt>
      <trkpt lat="42.46667" lon="2.86498">
        <ele>281.2</ele>
        <time>2024-07-16T09:13:25Z</time>
      </trkpt>
      <trkpt lat="42.46664" lon="2.86498">
        <ele>283.4</ele>
        <time>2024-07-16T09:13:31Z</time>
      </trkpt>
      <trkpt lat="42.46668" lon="2.8651">
        <ele>284.4</ele>
        <time>2024-07-16T09:13:36Z</time>
      </trkpt>
      <trkpt lat="42.46666" lon="2.86522">
        <ele>283.4</ele>
        <time>2024-07-16T09:13:42Z</time>
      </trkpt>
      <trkpt lat="42.46662" lon="2.8653">
        <ele>283.8</ele>
        <time>2024-07-16T09:13:49Z</time>
      </trkpt>
      <trkpt lat="42.46658" lon="2.86538">
        <ele>285.6</ele>
        <time>2024-07-16T09:13:56Z</time>
      </trkpt>
      <trkpt lat="42.46657" lon="2.86538">
        <ele>286.4</ele>
        <time>2024-07-16T09:13:57Z</time>
      </trkpt>
      <trkpt lat="42.46657" lon="2.86539">
        <ele>288.4</ele>
        <time>2024-07-16T09:14:00Z</time>
      </trkpt>
      <trkpt lat="42.46656" lon="2.8654">
        <ele>289.4</ele>
        <time>2024-07-16T09:14:03Z</time>
      </trkpt>
      <trkpt lat="42.46653" lon="2.86547">
        <ele>290.6</ele>
        <time>2024-07-16T09:14:12Z</time>
      </trkpt>
      <trkpt lat="42.46651" lon="2.86551">
        <ele>294.4</ele>
        <time>2024-07-16T09:14:20Z</time>
      </trkpt>
      <trkpt lat="42.46648" lon="2.86557">
        <ele>295.6</ele>
        <time>2024-07-16T09:14:26Z</time>
      </trkpt>
      <trkpt lat="42.46648" lon="2.86558">
        <ele>297</ele>
        <time>2024-07-16T09:14:32Z</time>
      </trkpt>
      <trkpt lat="42.46649" lon="2.86559">
        <ele>296.4</ele>
        <time>2024-07-16T09:14:41Z</time>
      </trkpt>
      <trkpt lat="42.46649" lon="2.86559">
        <ele>295.6</ele>
        <time>2024-07-16T09:14:57Z</time>
      </trkpt>
      <trkpt lat="42.46647" lon="2.86565">
        <ele>298.4</ele>
        <time>2024-07-16T09:15:23Z</time>
      </trkpt>
      <trkpt lat="42.46645" lon="2.86571">
        <ele>298.8</ele>
        <time>2024-07-16T09:15:27Z</time>
      </trkpt>
      <trkpt lat="42.46644" lon="2.86574">
        <ele>299</ele>
        <time>2024-07-16T09:15:30Z</time>
      </trkpt>
      <trkpt lat="42.4664" lon="2.86584">
        <ele>300.4</ele>
        <time>2024-07-16T09:15:39Z</time>
      </trkpt>
      <trkpt lat="42.46634" lon="2.86592">
        <ele>300.6</ele>
        <time>2024-07-16T09:15:47Z</time>
      </trkpt>
      <trkpt lat="42.46625" lon="2.86598">
        <ele>301.8</ele>
        <time>2024-07-16T09:15:57Z</time>
      </trkpt>
      <trkpt lat="42.4662" lon="2.86605">
        <ele>303</ele>
        <time>2024-07-16T09:16:05Z</time>
      </trkpt>
      <trkpt lat="42.46617" lon="2.86617">
        <ele>304.6</ele>
        <time>2024-07-16T09:16:13Z</time>
      </trkpt>
      <trkpt lat="42.46619" lon="2.86625">
        <ele>306.4</ele>
        <time>2024-07-16T09:16:19Z</time>
      </trkpt>
      <trkpt lat="42.46619" lon="2.86629">
        <ele>307</ele>
        <time>2024-07-16T09:16:22Z</time>
      </trkpt>
      <trkpt lat="42.46623" lon="2.86638">
        <ele>309.2</ele>
        <time>2024-07-16T09:16:30Z</time>
      </trkpt>
      <trkpt lat="42.46623" lon="2.8664">
        <ele>309.4</ele>
        <time>2024-07-16T09:16:31Z</time>
      </trkpt>
      <trkpt lat="42.46624" lon="2.86643">
        <ele>310.4</ele>
        <time>2024-07-16T09:16:34Z</time>
      </trkpt>
      <trkpt lat="42.46622" lon="2.86653">
        <ele>312.6</ele>
        <time>2024-07-16T09:16:41Z</time>
      </trkpt>
      <trkpt lat="42.46614" lon="2.86656">
        <ele>314.2</ele>
        <time>2024-07-16T09:16:49Z</time>
      </trkpt>
      <trkpt lat="42.4661" lon="2.86649">
        <ele>314.2</ele>
        <time>2024-07-16T09:16:55Z</time>
      </trkpt>
      <trkpt lat="42.46609" lon="2.86646">
        <ele>314.4</ele>
        <time>2024-07-16T09:16:57Z</time>
      </trkpt>
      <trkpt lat="42.46603" lon="2.86633">
        <ele>314.4</ele>
        <time>2024-07-16T09:17:06Z</time>
      </trkpt>
      <trkpt lat="42.46598" lon="2.86615">
        <ele>313.8</ele>
        <time>2024-07-16T09:17:17Z</time>
      </trkpt>
      <trkpt lat="42.46595" lon="2.86602">
        <ele>315.6</ele>
        <time>2024-07-16T09:17:26Z</time>
      </trkpt>
      <trkpt lat="42.46592" lon="2.86599">
        <ele>315.8</ele>
        <time>2024-07-16T09:17:29Z</time>
      </trkpt>
      <trkpt lat="42.46589" lon="2.86597">
        <ele>315.6</ele>
        <time>2024-07-16T09:17:32Z</time>
      </trkpt>
      <trkpt lat="42.46587" lon="2.86597">
        <ele>315.6</ele>
        <time>2024-07-16T09:17:34Z</time>
      </trkpt>
      <trkpt lat="42.4658" lon="2.86604">
        <ele>317</ele>
        <time>2024-07-16T09:17:43Z</time>
      </trkpt>
      <trkpt lat="42.46576" lon="2.86614">
        <ele>317.6</ele>
        <time>2024-07-16T09:17:51Z</time>
      </trkpt>
      <trkpt lat="42.46576" lon="2.86615">
        <ele>317.6</ele>
        <time>2024-07-16T09:17:52Z</time>
      </trkpt>
      <trkpt lat="42.46576" lon="2.86635">
        <ele>318.6</ele>
        <time>2024-07-16T09:18:05Z</time>
      </trkpt>
      <trkpt lat="42.46576" lon="2.86652">
        <ele>321</ele>
        <time>2024-07-16T09:18:16Z</time>
      </trkpt>
      <trkpt lat="42.46576" lon="2.86665">
        <ele>323.2</ele>
        <time>2024-07-16T09:18:25Z</time>
      </trkpt>
      <trkpt lat="42.46576" lon="2.86677">
        <ele>324</ele>
        <time>2024-07-16T09:18:34Z</time>
      </trkpt>
      <trkpt lat="42.46581" lon="2.86684">
        <ele>324.8</ele>
        <time>2024-07-16T09:18:42Z</time>
      </trkpt>
      <trkpt lat="42.46586" lon="2.86689">
        <ele>326.4</ele>
        <time>2024-07-16T09:18:48Z</time>
      </trkpt>
      <trkpt lat="42.46586" lon="2.86689">
        <ele>326.6</ele>
        <time>2024-07-16T09:18:49Z</time>
      </trkpt>
      <trkpt lat="42.46591" lon="2.86694">
        <ele>328.8</ele>
        <time>2024-07-16T09:18:57Z</time>
      </trkpt>
      <trkpt lat="42.46594" lon="2.86698">
        <ele>329.2</ele>
        <time>2024-07-16T09:19:02Z</time>
      </trkpt>
      <trkpt lat="42.46595" lon="2.867">
        <ele>329.4</ele>
        <time>2024-07-16T09:19:05Z</time>
      </trkpt>
      <trkpt lat="42.46594" lon="2.86704">
        <ele>331</ele>
        <time>2024-07-16T09:19:12Z</time>
      </trkpt>
      <trkpt lat="42.46594" lon="2.86707">
        <ele>332</ele>
        <time>2024-07-16T09:19:18Z</time>
      </trkpt>
      <trkpt lat="42.46599" lon="2.86712">
        <ele>332.2</ele>
        <time>2024-07-16T09:19:26Z</time>
      </trkpt>
      <trkpt lat="42.466" lon="2.86717">
        <ele>333.6</ele>
        <time>2024-07-16T09:19:32Z</time>
      </trkpt>
      <trkpt lat="42.46599" lon="2.86725">
        <ele>336.2</ele>
        <time>2024-07-16T09:19:41Z</time>
      </trkpt>
      <trkpt lat="42.466" lon="2.8673">
        <ele>337.6</ele>
        <time>2024-07-16T09:19:48Z</time>
      </trkpt>
      <trkpt lat="42.46601" lon="2.8673">
        <ele>339.6</ele>
        <time>2024-07-16T09:19:58Z</time>
      </trkpt>
      <trkpt lat="42.46604" lon="2.86733">
        <ele>340.4</ele>
        <time>2024-07-16T09:20:05Z</time>
      </trkpt>
      <trkpt lat="42.46606" lon="2.86737">
        <ele>342.8</ele>
        <time>2024-07-16T09:20:12Z</time>
      </trkpt>
      <trkpt lat="42.46608" lon="2.86746">
        <ele>345</ele>
        <time>2024-07-16T09:20:21Z</time>
      </trkpt>
      <trkpt lat="42.4661" lon="2.8675">
        <ele>348</ele>
        <time>2024-07-16T09:20:29Z</time>
      </trkpt>
      <trkpt lat="42.46612" lon="2.86756">
        <ele>352.2</ele>
        <time>2024-07-16T09:20:37Z</time>
      </trkpt>
      <trkpt lat="42.4661" lon="2.86766">
        <ele>353.6</ele>
        <time>2024-07-16T09:20:46Z</time>
      </trkpt>
      <trkpt lat="42.4661" lon="2.86778">
        <ele>354.6</ele>
        <time>2024-07-16T09:20:56Z</time>
      </trkpt>
      <trkpt lat="42.46611" lon="2.86788">
        <ele>354.2</ele>
        <time>2024-07-16T09:21:06Z</time>
      </trkpt>
      <trkpt lat="42.46611" lon="2.86796">
        <ele>354.4</ele>
        <time>2024-07-16T09:21:12Z</time>
      </trkpt>
      <trkpt lat="42.4661" lon="2.86812">
        <ele>356.6</ele>
        <time>2024-07-16T09:21:22Z</time>
      </trkpt>
      <trkpt lat="42.46608" lon="2.86828">
        <ele>356.6</ele>
        <time>2024-07-16T09:21:32Z</time>
      </trkpt>
      <trkpt lat="42.46608" lon="2.86844">
        <ele>357.2</ele>
        <time>2024-07-16T09:21:42Z</time>
      </trkpt>
      <trkpt lat="42.46607" lon="2.86858">
        <ele>358.2</ele>
        <time>2024-07-16T09:21:53Z</time>
      </trkpt>
      <trkpt lat="42.46606" lon="2.86859">
        <ele>358.2</ele>
        <time>2024-07-16T09:21:54Z</time>
      </trkpt>
      <trkpt lat="42.46605" lon="2.86867">
        <ele>359.8</ele>
        <time>2024-07-16T09:22:00Z</time>
      </trkpt>
      <trkpt lat="42.46605" lon="2.86874">
        <ele>361.2</ele>
        <time>2024-07-16T09:22:05Z</time>
      </trkpt>
      <trkpt lat="42.46605" lon="2.86883">
        <ele>362.6</ele>
        <time>2024-07-16T09:22:13Z</time>
      </trkpt>
      <trkpt lat="42.46605" lon="2.86893">
        <ele>363.8</ele>
        <time>2024-07-16T09:22:22Z</time>
      </trkpt>
      <trkpt lat="42.46603" lon="2.86902">
        <ele>366</ele>
        <time>2024-07-16T09:22:30Z</time>
      </trkpt>
      <trkpt lat="42.466" lon="2.86914">
        <ele>369.2</ele>
        <time>2024-07-16T09:22:41Z</time>
      </trkpt>
      <trkpt lat="42.46599" lon="2.86927">
        <ele>369.4</ele>
        <time>2024-07-16T09:22:49Z</time>
      </trkpt>
      <trkpt lat="42.46602" lon="2.86941">
        <ele>369.8</ele>
        <time>2024-07-16T09:22:59Z</time>
      </trkpt>
      <trkpt lat="42.46604" lon="2.86956">
        <ele>371.4</ele>
        <time>2024-07-16T09:23:10Z</time>
      </trkpt>
      <trkpt lat="42.46606" lon="2.86963">
        <ele>371.8</ele>
        <time>2024-07-16T09:23:15Z</time>
      </trkpt>
      <trkpt lat="42.46606" lon="2.86964">
        <ele>372</ele>
        <time>2024-07-16T09:23:16Z</time>
      </trkpt>
      <trkpt lat="42.46606" lon="2.86967">
        <ele>372.6</ele>
        <time>2024-07-16T09:23:18Z</time>
      </trkpt>
      <trkpt lat="42.46606" lon="2.86972">
        <ele>373.8</ele>
        <time>2024-07-16T09:23:23Z</time>
      </trkpt>
      <trkpt lat="42.46605" lon="2.86981">
        <ele>374.2</ele>
        <time>2024-07-16T09:23:32Z</time>
      </trkpt>
      <trkpt lat="42.46606" lon="2.86989">
        <ele>372.2</ele>
        <time>2024-07-16T09:23:40Z</time>
      </trkpt>
      <trkpt lat="42.46609" lon="2.86996">
        <ele>373</ele>
        <time>2024-07-16T09:23:50Z</time>
      </trkpt>
      <trkpt lat="42.46612" lon="2.87003">
        <ele>376</ele>
        <time>2024-07-16T09:23:57Z</time>
      </trkpt>
      <trkpt lat="42.46615" lon="2.87008">
        <ele>379.2</ele>
        <time>2024-07-16T09:24:03Z</time>
      </trkpt>
      <trkpt lat="42.4662" lon="2.87018">
        <ele>383</ele>
        <time>2024-07-16T09:24:12Z</time>
      </trkpt>
      <trkpt lat="42.46624" lon="2.87034">
        <ele>386.8</ele>
        <time>2024-07-16T09:24:23Z</time>
      </trkpt>
      <trkpt lat="42.46627" lon="2.87039">
        <ele>388</ele>
        <time>2024-07-16T09:24:27Z</time>
      </trkpt>
      <trkpt lat="42.46628" lon="2.87043">
        <ele>389.2</ele>
        <time>2024-07-16T09:24:30Z</time>
      </trkpt>
      <trkpt lat="42.46629" lon="2.87047">
        <ele>390.8</ele>
        <time>2024-07-16T09:24:33Z</time>
      </trkpt>
      <trkpt lat="42.46629" lon="2.87049">
        <ele>391.4</ele>
        <time>2024-07-16T09:24:36Z</time>
      </trkpt>
      <trkpt lat="42.46629" lon="2.87059">
        <ele>390.4</ele>
        <time>2024-07-16T09:24:44Z</time>
      </trkpt>
      <trkpt lat="42.46627" lon="2.87073">
        <ele>391</ele>
        <time>2024-07-16T09:24:54Z</time>
      </trkpt>
      <trkpt lat="42.46626" lon="2.87089">
        <ele>393.4</ele>
        <time>2024-07-16T09:25:05Z</time>
      </trkpt>
      <trkpt lat="42.46625" lon="2.87095">
        <ele>393.8</ele>
        <time>2024-07-16T09:25:09Z</time>
      </trkpt>
      <trkpt lat="42.46625" lon="2.87097">
        <ele>394.2</ele>
        <time>2024-07-16T09:25:13Z</time>
      </trkpt>
      <trkpt lat="42.46625" lon="2.87099">
        <ele>394.4</ele>
        <time>2024-07-16T09:25:15Z</time>
      </trkpt>
      <trkpt lat="42.46625" lon="2.87103">
        <ele>395.2</ele>
        <time>2024-07-16T09:25:19Z</time>
      </trkpt>
      <trkpt lat="42.46629" lon="2.87102">
        <ele>396.8</ele>
        <time>2024-07-16T09:25:25Z</time>
      </trkpt>
      <trkpt lat="42.46632" lon="2.87088">
        <ele>397.6</ele>
        <time>2024-07-16T09:25:35Z</time>
      </trkpt>
      <trkpt lat="42.46634" lon="2.87072">
        <ele>395.8</ele>
        <time>2024-07-16T09:25:44Z</time>
      </trkpt>
      <trkpt lat="42.46636" lon="2.87056">
        <ele>393</ele>
        <time>2024-07-16T09:25:55Z</time>
      </trkpt>
      <trkpt lat="42.46641" lon="2.87042">
        <ele>392.2</ele>
        <time>2024-07-16T09:26:04Z</time>
      </trkpt>
      <trkpt lat="42.46643" lon="2.87029">
        <ele>393.4</ele>
        <time>2024-07-16T09:26:13Z</time>
      </trkpt>
      <trkpt lat="42.46648" lon="2.87017">
        <ele>394.2</ele>
        <time>2024-07-16T09:26:22Z</time>
      </trkpt>
      <trkpt lat="42.46655" lon="2.87006">
        <ele>393.8</ele>
        <time>2024-07-16T09:26:32Z</time>
      </trkpt>
      <trkpt lat="42.46663" lon="2.86995">
        <ele>396</ele>
        <time>2024-07-16T09:26:43Z</time>
      </trkpt>
      <trkpt lat="42.46673" lon="2.86983">
        <ele>398.4</ele>
        <time>2024-07-16T09:26:55Z</time>
      </trkpt>
      <trkpt lat="42.46681" lon="2.86972">
        <ele>399.6</ele>
        <time>2024-07-16T09:27:05Z</time>
      </trkpt>
      <trkpt lat="42.46689" lon="2.86964">
        <ele>400</ele>
        <time>2024-07-16T09:27:15Z</time>
      </trkpt>
      <trkpt lat="42.46693" lon="2.86958">
        <ele>400</ele>
        <time>2024-07-16T09:27:24Z</time>
      </trkpt>
      <trkpt lat="42.46699" lon="2.86957">
        <ele>399.2</ele>
        <time>2024-07-16T09:27:31Z</time>
      </trkpt>
      <trkpt lat="42.46713" lon="2.86951">
        <ele>401.2</ele>
        <time>2024-07-16T09:27:44Z</time>
      </trkpt>
      <trkpt lat="42.46724" lon="2.86946">
        <ele>402.2</ele>
        <time>2024-07-16T09:27:55Z</time>
      </trkpt>
      <trkpt lat="42.46735" lon="2.86944">
        <ele>402.6</ele>
        <time>2024-07-16T09:28:05Z</time>
      </trkpt>
      <trkpt lat="42.4674" lon="2.86948">
        <ele>403.4</ele>
        <time>2024-07-16T09:28:10Z</time>
      </trkpt>
      <trkpt lat="42.4674" lon="2.8695">
        <ele>404</ele>
        <time>2024-07-16T09:28:12Z</time>
      </trkpt>
      <trkpt lat="42.46737" lon="2.86955">
        <ele>405.2</ele>
        <time>2024-07-16T09:28:16Z</time>
      </trkpt>
      <trkpt lat="42.46733" lon="2.86959">
        <ele>406</ele>
        <time>2024-07-16T09:28:19Z</time>
      </trkpt>
      <trkpt lat="42.46727" lon="2.86967">
        <ele>409.6</ele>
        <time>2024-07-16T09:28:28Z</time>
      </trkpt>
      <trkpt lat="42.46721" lon="2.8698">
        <ele>410.6</ele>
        <time>2024-07-16T09:28:38Z</time>
      </trkpt>
      <trkpt lat="42.46715" lon="2.86995">
        <ele>414.4</ele>
        <time>2024-07-16T09:28:50Z</time>
      </trkpt>
      <trkpt lat="42.46713" lon="2.87006">
        <ele>414.6</ele>
        <time>2024-07-16T09:28:58Z</time>
      </trkpt>
      <trkpt lat="42.46709" lon="2.87017">
        <ele>412.6</ele>
        <time>2024-07-16T09:29:07Z</time>
      </trkpt>
      <trkpt lat="42.46705" lon="2.87032">
        <ele>409.4</ele>
        <time>2024-07-16T09:29:17Z</time>
      </trkpt>
      <trkpt lat="42.46705" lon="2.87045">
        <ele>411</ele>
        <time>2024-07-16T09:29:27Z</time>
      </trkpt>
      <trkpt lat="42.46703" lon="2.87061">
        <ele>413</ele>
        <time>2024-07-16T09:29:37Z</time>
      </trkpt>
      <trkpt lat="42.46702" lon="2.87077">
        <ele>413.8</ele>
        <time>2024-07-16T09:29:47Z</time>
      </trkpt>
      <trkpt lat="42.46701" lon="2.87093">
        <ele>414.8</ele>
        <time>2024-07-16T09:29:56Z</time>
      </trkpt>
      <trkpt lat="42.46699" lon="2.87112">
        <ele>416.6</ele>
        <time>2024-07-16T09:30:07Z</time>
      </trkpt>
      <trkpt lat="42.46698" lon="2.87117">
        <ele>417</ele>
        <time>2024-07-16T09:30:10Z</time>
      </trkpt>
      <trkpt lat="42.46695" lon="2.87121">
        <ele>417.6</ele>
        <time>2024-07-16T09:30:13Z</time>
      </trkpt>
      <trkpt lat="42.46683" lon="2.87135">
        <ele>420</ele>
        <time>2024-07-16T09:30:24Z</time>
      </trkpt>
      <trkpt lat="42.46675" lon="2.87145">
        <ele>421.2</ele>
        <time>2024-07-16T09:30:32Z</time>
      </trkpt>
      <trkpt lat="42.4667" lon="2.87155">
        <ele>422.4</ele>
        <time>2024-07-16T09:30:38Z</time>
      </trkpt>
      <trkpt lat="42.46667" lon="2.87169">
        <ele>423.4</ele>
        <time>2024-07-16T09:30:46Z</time>
      </trkpt>
      <trkpt lat="42.46661" lon="2.87185">
        <ele>422.8</ele>
        <time>2024-07-16T09:30:56Z</time>
      </trkpt>
      <trkpt lat="42.46659" lon="2.87196">
        <ele>422.4</ele>
        <time>2024-07-16T09:31:03Z</time>
      </trkpt>
      <trkpt lat="42.46657" lon="2.87208">
        <ele>423</ele>
        <time>2024-07-16T09:31:10Z</time>
      </trkpt>
      <trkpt lat="42.46653" lon="2.87221">
        <ele>423.4</ele>
        <time>2024-07-16T09:31:19Z</time>
      </trkpt>
      <trkpt lat="42.46648" lon="2.87236">
        <ele>424.4</ele>
        <time>2024-07-16T09:31:29Z</time>
      </trkpt>
      <trkpt lat="42.46642" lon="2.8725">
        <ele>425.4</ele>
        <time>2024-07-16T09:31:38Z</time>
      </trkpt>
      <trkpt lat="42.46637" lon="2.87262">
        <ele>427.2</ele>
        <time>2024-07-16T09:31:47Z</time>
      </trkpt>
      <trkpt lat="42.46632" lon="2.87273">
        <ele>429</ele>
        <time>2024-07-16T09:31:56Z</time>
      </trkpt>
      <trkpt lat="42.46629" lon="2.87286">
        <ele>430.4</ele>
        <time>2024-07-16T09:32:06Z</time>
      </trkpt>
      <trkpt lat="42.46628" lon="2.87296">
        <ele>430.6</ele>
        <time>2024-07-16T09:32:13Z</time>
      </trkpt>
      <trkpt lat="42.46627" lon="2.87302">
        <ele>430.6</ele>
        <time>2024-07-16T09:32:17Z</time>
      </trkpt>
      <trkpt lat="42.46626" lon="2.87306">
        <ele>431</ele>
        <time>2024-07-16T09:32:20Z</time>
      </trkpt>
      <trkpt lat="42.46624" lon="2.87317">
        <ele>433</ele>
        <time>2024-07-16T09:32:28Z</time>
      </trkpt>
      <trkpt lat="42.46623" lon="2.87329">
        <ele>435.2</ele>
        <time>2024-07-16T09:32:37Z</time>
      </trkpt>
      <trkpt lat="42.46621" lon="2.87336">
        <ele>435.6</ele>
        <time>2024-07-16T09:32:43Z</time>
      </trkpt>
      <trkpt lat="42.46621" lon="2.87339">
        <ele>435.6</ele>
        <time>2024-07-16T09:32:45Z</time>
      </trkpt>
      <trkpt lat="42.46619" lon="2.87348">
        <ele>435.8</ele>
        <time>2024-07-16T09:32:53Z</time>
      </trkpt>
      <trkpt lat="42.46617" lon="2.8736">
        <ele>437</ele>
        <time>2024-07-16T09:33:04Z</time>
      </trkpt>
      <trkpt lat="42.46614" lon="2.87372">
        <ele>439.2</ele>
        <time>2024-07-16T09:33:14Z</time>
      </trkpt>
      <trkpt lat="42.46612" lon="2.87383">
        <ele>441</ele>
        <time>2024-07-16T09:33:24Z</time>
      </trkpt>
      <trkpt lat="42.46611" lon="2.87395">
        <ele>445</ele>
        <time>2024-07-16T09:33:34Z</time>
      </trkpt>
      <trkpt lat="42.46608" lon="2.87406">
        <ele>446.2</ele>
        <time>2024-07-16T09:33:42Z</time>
      </trkpt>
      <trkpt lat="42.46602" lon="2.87419">
        <ele>449.6</ele>
        <time>2024-07-16T09:33:53Z</time>
      </trkpt>
      <trkpt lat="42.46596" lon="2.87432">
        <ele>449.8</ele>
        <time>2024-07-16T09:34:03Z</time>
      </trkpt>
      <trkpt lat="42.46591" lon="2.8744">
        <ele>450.8</ele>
        <time>2024-07-16T09:34:11Z</time>
      </trkpt>
      <trkpt lat="42.46591" lon="2.87441">
        <ele>451</ele>
        <time>2024-07-16T09:34:12Z</time>
      </trkpt>
      <trkpt lat="42.46587" lon="2.87454">
        <ele>452.2</ele>
        <time>2024-07-16T09:34:22Z</time>
      </trkpt>
      <trkpt lat="42.46578" lon="2.87465">
        <ele>455</ele>
        <time>2024-07-16T09:34:34Z</time>
      </trkpt>
      <trkpt lat="42.46572" lon="2.87478">
        <ele>458.8</ele>
        <time>2024-07-16T09:34:45Z</time>
      </trkpt>
      <trkpt lat="42.46567" lon="2.87486">
        <ele>460.2</ele>
        <time>2024-07-16T09:34:52Z</time>
      </trkpt>
      <trkpt lat="42.46564" lon="2.87492">
        <ele>461.8</ele>
        <time>2024-07-16T09:34:58Z</time>
      </trkpt>
      <trkpt lat="42.46557" lon="2.875">
        <ele>463.2</ele>
        <time>2024-07-16T09:35:06Z</time>
      </trkpt>
      <trkpt lat="42.46556" lon="2.87501">
        <ele>463</ele>
        <time>2024-07-16T09:35:07Z</time>
      </trkpt>
      <trkpt lat="42.46551" lon="2.87507">
        <ele>462.4</ele>
        <time>2024-07-16T09:35:13Z</time>
      </trkpt>
      <trkpt lat="42.46546" lon="2.87511">
        <ele>462.6</ele>
        <time>2024-07-16T09:35:19Z</time>
      </trkpt>
      <trkpt lat="42.46546" lon="2.87512">
        <ele>462.6</ele>
        <time>2024-07-16T09:35:20Z</time>
      </trkpt>
      <trkpt lat="42.46545" lon="2.87514">
        <ele>462.6</ele>
        <time>2024-07-16T09:35:21Z</time>
      </trkpt>
      <trkpt lat="42.46541" lon="2.87517">
        <ele>462.8</ele>
        <time>2024-07-16T09:35:26Z</time>
      </trkpt>
      <trkpt lat="42.4653" lon="2.87524">
        <ele>463</ele>
        <time>2024-07-16T09:35:37Z</time>
      </trkpt>
      <trkpt lat="42.46521" lon="2.87533">
        <ele>466</ele>
        <time>2024-07-16T09:35:47Z</time>
      </trkpt>
      <trkpt lat="42.46513" lon="2.87539">
        <ele>469.4</ele>
        <time>2024-07-16T09:35:57Z</time>
      </trkpt>
      <trkpt lat="42.46505" lon="2.87545">
        <ele>473</ele>
        <time>2024-07-16T09:36:08Z</time>
      </trkpt>
      <trkpt lat="42.46499" lon="2.87549">
        <ele>473.4</ele>
        <time>2024-07-16T09:36:14Z</time>
      </trkpt>
      <trkpt lat="42.46488" lon="2.87556">
        <ele>475</ele>
        <time>2024-07-16T09:36:27Z</time>
      </trkpt>
      <trkpt lat="42.46482" lon="2.8756">
        <ele>477.2</ele>
        <time>2024-07-16T09:36:37Z</time>
      </trkpt>
      <trkpt lat="42.46481" lon="2.87561">
        <ele>478.4</ele>
        <time>2024-07-16T09:36:44Z</time>
      </trkpt>
      <trkpt lat="42.46481" lon="2.87562">
        <ele>480</ele>
        <time>2024-07-16T09:36:55Z</time>
      </trkpt>
      <trkpt lat="42.46475" lon="2.87564">
        <ele>483.8</ele>
        <time>2024-07-16T09:38:25Z</time>
      </trkpt>
      <trkpt lat="42.46471" lon="2.87565">
        <ele>483.8</ele>
        <time>2024-07-16T09:38:28Z</time>
      </trkpt>
      <trkpt lat="42.4647" lon="2.87567">
        <ele>483.8</ele>
        <time>2024-07-16T09:38:31Z</time>
      </trkpt>
      <trkpt lat="42.4647" lon="2.87568">
        <ele>483.8</ele>
        <time>2024-07-16T09:38:32Z</time>
      </trkpt>
      <trkpt lat="42.46476" lon="2.87574">
        <ele>483</ele>
        <time>2024-07-16T09:38:40Z</time>
      </trkpt>
      <trkpt lat="42.46489" lon="2.87577">
        <ele>480.4</ele>
        <time>2024-07-16T09:38:51Z</time>
      </trkpt>
      <trkpt lat="42.46496" lon="2.87581">
        <ele>479.6</ele>
        <time>2024-07-16T09:38:59Z</time>
      </trkpt>
      <trkpt lat="42.46498" lon="2.87585">
        <ele>479.8</ele>
        <time>2024-07-16T09:39:02Z</time>
      </trkpt>
      <trkpt lat="42.46496" lon="2.8759">
        <ele>480.2</ele>
        <time>2024-07-16T09:39:06Z</time>
      </trkpt>
      <trkpt lat="42.46486" lon="2.87598">
        <ele>483</ele>
        <time>2024-07-16T09:39:16Z</time>
      </trkpt>
      <trkpt lat="42.4648" lon="2.87601">
        <ele>484.2</ele>
        <time>2024-07-16T09:39:22Z</time>
      </trkpt>
      <trkpt lat="42.46477" lon="2.87603">
        <ele>484.2</ele>
        <time>2024-07-16T09:39:25Z</time>
      </trkpt>
      <trkpt lat="42.46466" lon="2.87612">
        <ele>485.4</ele>
        <time>2024-07-16T09:39:36Z</time>
      </trkpt>
      <trkpt lat="42.46459" lon="2.87617">
        <ele>488.6</ele>
        <time>2024-07-16T09:39:44Z</time>
      </trkpt>
      <trkpt lat="42.46455" lon="2.87619">
        <ele>489.2</ele>
        <time>2024-07-16T09:39:52Z</time>
      </trkpt>
      <trkpt lat="42.46454" lon="2.87625">
        <ele>489.4</ele>
        <time>2024-07-16T09:40:00Z</time>
      </trkpt>
      <trkpt lat="42.46453" lon="2.87631">
        <ele>489.8</ele>
        <time>2024-07-16T09:40:07Z</time>
      </trkpt>
      <trkpt lat="42.46454" lon="2.87636">
        <ele>490.2</ele>
        <time>2024-07-16T09:40:12Z</time>
      </trkpt>
      <trkpt lat="42.46452" lon="2.87642">
        <ele>490.4</ele>
        <time>2024-07-16T09:40:18Z</time>
      </trkpt>
      <trkpt lat="42.46454" lon="2.87651">
        <ele>491.2</ele>
        <time>2024-07-16T09:40:26Z</time>
      </trkpt>
      <trkpt lat="42.46452" lon="2.87658">
        <ele>492.4</ele>
        <time>2024-07-16T09:40:33Z</time>
      </trkpt>
      <trkpt lat="42.46448" lon="2.87664">
        <ele>494.4</ele>
        <time>2024-07-16T09:40:40Z</time>
      </trkpt>
      <trkpt lat="42.46449" lon="2.87671">
        <ele>496.2</ele>
        <time>2024-07-16T09:40:46Z</time>
      </trkpt>
      <trkpt lat="42.46447" lon="2.87676">
        <ele>497</ele>
        <time>2024-07-16T09:40:50Z</time>
      </trkpt>
      <trkpt lat="42.46446" lon="2.8768">
        <ele>498</ele>
        <time>2024-07-16T09:40:53Z</time>
      </trkpt>
      <trkpt lat="42.46444" lon="2.87686">
        <ele>498.8</ele>
        <time>2024-07-16T09:40:58Z</time>
      </trkpt>
      <trkpt lat="42.46444" lon="2.8769">
        <ele>499</ele>
        <time>2024-07-16T09:41:01Z</time>
      </trkpt>
      <trkpt lat="42.46444" lon="2.87695">
        <ele>500</ele>
        <time>2024-07-16T09:41:06Z</time>
      </trkpt>
      <trkpt lat="42.46444" lon="2.877">
        <ele>501.4</ele>
        <time>2024-07-16T09:41:10Z</time>
      </trkpt>
      <trkpt lat="42.46445" lon="2.87712">
        <ele>504</ele>
        <time>2024-07-16T09:41:20Z</time>
      </trkpt>
      <trkpt lat="42.46444" lon="2.87719">
        <ele>505.8</ele>
        <time>2024-07-16T09:41:27Z</time>
      </trkpt>
      <trkpt lat="42.46446" lon="2.87719">
        <ele>506.8</ele>
        <time>2024-07-16T09:41:34Z</time>
      </trkpt>
      <trkpt lat="42.46446" lon="2.87719">
        <ele>509.4</ele>
        <time>2024-07-16T09:41:44Z</time>
      </trkpt>
      <trkpt lat="42.46447" lon="2.87718">
        <ele>510.4</ele>
        <time>2024-07-16T09:42:03Z</time>
      </trkpt>
      <trkpt lat="42.4645" lon="2.87725">
        <ele>512.8</ele>
        <time>2024-07-16T09:43:10Z</time>
      </trkpt>
      <trkpt lat="42.46447" lon="2.87735">
        <ele>511.2</ele>
        <time>2024-07-16T09:43:17Z</time>
      </trkpt>
      <trkpt lat="42.46446" lon="2.87739">
        <ele>510.6</ele>
        <time>2024-07-16T09:43:21Z</time>
      </trkpt>
      <trkpt lat="42.46446" lon="2.8774">
        <ele>510.4</ele>
        <time>2024-07-16T09:43:22Z</time>
      </trkpt>
      <trkpt lat="42.46445" lon="2.87748">
        <ele>510.8</ele>
        <time>2024-07-16T09:43:28Z</time>
      </trkpt>
      <trkpt lat="42.46442" lon="2.87758">
        <ele>513</ele>
        <time>2024-07-16T09:43:37Z</time>
      </trkpt>
      <trkpt lat="42.46442" lon="2.87764">
        <ele>513.6</ele>
        <time>2024-07-16T09:43:42Z</time>
      </trkpt>
      <trkpt lat="42.46442" lon="2.87767">
        <ele>514</ele>
        <time>2024-07-16T09:43:45Z</time>
      </trkpt>
      <trkpt lat="42.46442" lon="2.87769">
        <ele>514.2</ele>
        <time>2024-07-16T09:43:46Z</time>
      </trkpt>
      <trkpt lat="42.46442" lon="2.87775">
        <ele>516</ele>
        <time>2024-07-16T09:43:53Z</time>
      </trkpt>
      <trkpt lat="42.46441" lon="2.87785">
        <ele>519.4</ele>
        <time>2024-07-16T09:44:03Z</time>
      </trkpt>
      <trkpt lat="42.46438" lon="2.87791">
        <ele>520.2</ele>
        <time>2024-07-16T09:44:10Z</time>
      </trkpt>
      <trkpt lat="42.46437" lon="2.87795">
        <ele>519.2</ele>
        <time>2024-07-16T09:44:15Z</time>
      </trkpt>
      <trkpt lat="42.46436" lon="2.87802">
        <ele>520</ele>
        <time>2024-07-16T09:44:22Z</time>
      </trkpt>
      <trkpt lat="42.46437" lon="2.8781">
        <ele>522</ele>
        <time>2024-07-16T09:44:28Z</time>
      </trkpt>
      <trkpt lat="42.46439" lon="2.87813">
        <ele>523.4</ele>
        <time>2024-07-16T09:44:31Z</time>
      </trkpt>
      <trkpt lat="42.4644" lon="2.87817">
        <ele>524.2</ele>
        <time>2024-07-16T09:44:33Z</time>
      </trkpt>
      <trkpt lat="42.4644" lon="2.87829">
        <ele>526.2</ele>
        <time>2024-07-16T09:44:40Z</time>
      </trkpt>
      <trkpt lat="42.4644" lon="2.87832">
        <ele>526.2</ele>
        <time>2024-07-16T09:44:42Z</time>
      </trkpt>
      <trkpt lat="42.46438" lon="2.87841">
        <ele>526</ele>
        <time>2024-07-16T09:44:47Z</time>
      </trkpt>
      <trkpt lat="42.46432" lon="2.87851">
        <ele>526.4</ele>
        <time>2024-07-16T09:44:55Z</time>
      </trkpt>
      <trkpt lat="42.46428" lon="2.87863">
        <ele>526.2</ele>
        <time>2024-07-16T09:45:03Z</time>
      </trkpt>
      <trkpt lat="42.46425" lon="2.87884">
        <ele>523.8</ele>
        <time>2024-07-16T09:45:13Z</time>
      </trkpt>
      <trkpt lat="42.46419" lon="2.87897">
        <ele>524.2</ele>
        <time>2024-07-16T09:45:21Z</time>
      </trkpt>
      <trkpt lat="42.46412" lon="2.87906">
        <ele>523.4</ele>
        <time>2024-07-16T09:45:28Z</time>
      </trkpt>
      <trkpt lat="42.46409" lon="2.87918">
        <ele>523</ele>
        <time>2024-07-16T09:45:35Z</time>
      </trkpt>
      <trkpt lat="42.46407" lon="2.87922">
        <ele>523</ele>
        <time>2024-07-16T09:45:38Z</time>
      </trkpt>
      <trkpt lat="42.46405" lon="2.87924">
        <ele>523.2</ele>
        <time>2024-07-16T09:45:40Z</time>
      </trkpt>
      <trkpt lat="42.464" lon="2.87937">
        <ele>525</ele>
        <time>2024-07-16T09:45:48Z</time>
      </trkpt>
      <trkpt lat="42.46399" lon="2.87947">
        <ele>526</ele>
        <time>2024-07-16T09:45:54Z</time>
      </trkpt>
      <trkpt lat="42.46397" lon="2.87958">
        <ele>524.6</ele>
        <time>2024-07-16T09:46:00Z</time>
      </trkpt>
      <trkpt lat="42.46398" lon="2.87961">
        <ele>524.4</ele>
        <time>2024-07-16T09:46:01Z</time>
      </trkpt>
      <trkpt lat="42.46396" lon="2.87981">
        <ele>524.8</ele>
        <time>2024-07-16T09:46:10Z</time>
      </trkpt>
      <trkpt lat="42.46396" lon="2.87988">
        <ele>525.2</ele>
        <time>2024-07-16T09:46:15Z</time>
      </trkpt>
      <trkpt lat="42.46395" lon="2.87991">
        <ele>525.2</ele>
        <time>2024-07-16T09:46:17Z</time>
      </trkpt>
      <trkpt lat="42.46395" lon="2.87994">
        <ele>525</ele>
        <time>2024-07-16T09:46:19Z</time>
      </trkpt>
      <trkpt lat="42.46393" lon="2.87999">
        <ele>524.6</ele>
        <time>2024-07-16T09:46:23Z</time>
      </trkpt>
      <trkpt lat="42.4639" lon="2.88005">
        <ele>523.4</ele>
        <time>2024-07-16T09:46:28Z</time>
      </trkpt>
      <trkpt lat="42.46388" lon="2.88007">
        <ele>523.2</ele>
        <time>2024-07-16T09:46:30Z</time>
      </trkpt>
      <trkpt lat="42.46388" lon="2.88008">
        <ele>523.2</ele>
        <time>2024-07-16T09:46:31Z</time>
      </trkpt>
      <trkpt lat="42.46387" lon="2.88009">
        <ele>523.2</ele>
        <time>2024-07-16T09:46:32Z</time>
      </trkpt>
      <trkpt lat="42.46384" lon="2.88017">
        <ele>523.8</ele>
        <time>2024-07-16T09:46:37Z</time>
      </trkpt>
      <trkpt lat="42.4638" lon="2.88025">
        <ele>525.2</ele>
        <time>2024-07-16T09:46:44Z</time>
      </trkpt>
      <trkpt lat="42.46379" lon="2.88026">
        <ele>525.2</ele>
        <time>2024-07-16T09:46:45Z</time>
      </trkpt>
      <trkpt lat="42.46375" lon="2.88033">
        <ele>526.6</ele>
        <time>2024-07-16T09:46:51Z</time>
      </trkpt>
      <trkpt lat="42.46374" lon="2.88036">
        <ele>526.8</ele>
        <time>2024-07-16T09:46:53Z</time>
      </trkpt>
      <trkpt lat="42.46371" lon="2.8804">
        <ele>527.8</ele>
        <time>2024-07-16T09:46:57Z</time>
      </trkpt>
      <trkpt lat="42.46369" lon="2.88046">
        <ele>529.6</ele>
        <time>2024-07-16T09:47:03Z</time>
      </trkpt>
      <trkpt lat="42.46365" lon="2.88055">
        <ele>531.6</ele>
        <time>2024-07-16T09:47:09Z</time>
      </trkpt>
      <trkpt lat="42.46363" lon="2.88064">
        <ele>534</ele>
        <time>2024-07-16T09:47:15Z</time>
      </trkpt>
      <trkpt lat="42.46363" lon="2.88067">
        <ele>534.8</ele>
        <time>2024-07-16T09:47:17Z</time>
      </trkpt>
      <trkpt lat="42.46362" lon="2.88068">
        <ele>535</ele>
        <time>2024-07-16T09:47:18Z</time>
      </trkpt>
      <trkpt lat="42.46361" lon="2.88078">
        <ele>536.6</ele>
        <time>2024-07-16T09:47:24Z</time>
      </trkpt>
      <trkpt lat="42.46358" lon="2.88087">
        <ele>537.4</ele>
        <time>2024-07-16T09:47:30Z</time>
      </trkpt>
      <trkpt lat="42.46356" lon="2.88092">
        <ele>537.8</ele>
        <time>2024-07-16T09:47:33Z</time>
      </trkpt>
      <trkpt lat="42.46354" lon="2.88093">
        <ele>537.8</ele>
        <time>2024-07-16T09:47:34Z</time>
      </trkpt>
      <trkpt lat="42.4635" lon="2.88098">
        <ele>539.2</ele>
        <time>2024-07-16T09:47:39Z</time>
      </trkpt>
      <trkpt lat="42.4635" lon="2.881">
        <ele>539.4</ele>
        <time>2024-07-16T09:47:40Z</time>
      </trkpt>
      <trkpt lat="42.46342" lon="2.88107">
        <ele>542.8</ele>
        <time>2024-07-16T09:47:48Z</time>
      </trkpt>
      <trkpt lat="42.46339" lon="2.88108">
        <ele>543.6</ele>
        <time>2024-07-16T09:47:51Z</time>
      </trkpt>
      <trkpt lat="42.46335" lon="2.88111">
        <ele>544.4</ele>
        <time>2024-07-16T09:47:54Z</time>
      </trkpt>
      <trkpt lat="42.46329" lon="2.88116">
        <ele>545.6</ele>
        <time>2024-07-16T09:48:01Z</time>
      </trkpt>
      <trkpt lat="42.46324" lon="2.88121">
        <ele>548.2</ele>
        <time>2024-07-16T09:48:07Z</time>
      </trkpt>
      <trkpt lat="42.46318" lon="2.88129">
        <ele>550.2</ele>
        <time>2024-07-16T09:48:15Z</time>
      </trkpt>
      <trkpt lat="42.46314" lon="2.88134">
        <ele>550.8</ele>
        <time>2024-07-16T09:48:21Z</time>
      </trkpt>
      <trkpt lat="42.46313" lon="2.88135">
        <ele>551</ele>
        <time>2024-07-16T09:48:23Z</time>
      </trkpt>
      <trkpt lat="42.46307" lon="2.88139">
        <ele>551.8</ele>
        <time>2024-07-16T09:48:30Z</time>
      </trkpt>
      <trkpt lat="42.46301" lon="2.88146">
        <ele>554.2</ele>
        <time>2024-07-16T09:48:39Z</time>
      </trkpt>
      <trkpt lat="42.46297" lon="2.8815">
        <ele>556.6</ele>
        <time>2024-07-16T09:48:46Z</time>
      </trkpt>
      <trkpt lat="42.46295" lon="2.88155">
        <ele>558</ele>
        <time>2024-07-16T09:48:50Z</time>
      </trkpt>
      <trkpt lat="42.46293" lon="2.88159">
        <ele>558.8</ele>
        <time>2024-07-16T09:48:53Z</time>
      </trkpt>
      <trkpt lat="42.46289" lon="2.88177">
        <ele>558.6</ele>
        <time>2024-07-16T09:49:03Z</time>
      </trkpt>
      <trkpt lat="42.46286" lon="2.88192">
        <ele>557.8</ele>
        <time>2024-07-16T09:49:12Z</time>
      </trkpt>
      <trkpt lat="42.46282" lon="2.88208">
        <ele>557.6</ele>
        <time>2024-07-16T09:49:22Z</time>
      </trkpt>
      <trkpt lat="42.46272" lon="2.88224">
        <ele>557.6</ele>
        <time>2024-07-16T09:49:34Z</time>
      </trkpt>
      <trkpt lat="42.46266" lon="2.88234">
        <ele>557.2</ele>
        <time>2024-07-16T09:49:42Z</time>
      </trkpt>
      <trkpt lat="42.4626" lon="2.88243">
        <ele>558</ele>
        <time>2024-07-16T09:49:50Z</time>
      </trkpt>
      <trkpt lat="42.46252" lon="2.88257">
        <ele>559.6</ele>
        <time>2024-07-16T09:50:01Z</time>
      </trkpt>
      <trkpt lat="42.46246" lon="2.88268">
        <ele>559.2</ele>
        <time>2024-07-16T09:50:09Z</time>
      </trkpt>
      <trkpt lat="42.46241" lon="2.88278">
        <ele>558</ele>
        <time>2024-07-16T09:50:17Z</time>
      </trkpt>
      <trkpt lat="42.4624" lon="2.88288">
        <ele>556.8</ele>
        <time>2024-07-16T09:50:23Z</time>
      </trkpt>
      <trkpt lat="42.46234" lon="2.883">
        <ele>560.2</ele>
        <time>2024-07-16T09:50:31Z</time>
      </trkpt>
      <trkpt lat="42.46229" lon="2.88317">
        <ele>563.2</ele>
        <time>2024-07-16T09:50:41Z</time>
      </trkpt>
      <trkpt lat="42.46228" lon="2.88329">
        <ele>565</ele>
        <time>2024-07-16T09:50:48Z</time>
      </trkpt>
      <trkpt lat="42.46231" lon="2.8834">
        <ele>565.4</ele>
        <time>2024-07-16T09:50:55Z</time>
      </trkpt>
      <trkpt lat="42.46234" lon="2.88353">
        <ele>566.6</ele>
        <time>2024-07-16T09:51:03Z</time>
      </trkpt>
      <trkpt lat="42.46236" lon="2.8837">
        <ele>567</ele>
        <time>2024-07-16T09:51:13Z</time>
      </trkpt>
      <trkpt lat="42.46235" lon="2.88383">
        <ele>570.4</ele>
        <time>2024-07-16T09:51:21Z</time>
      </trkpt>
      <trkpt lat="42.46235" lon="2.88397">
        <ele>572.6</ele>
        <time>2024-07-16T09:51:29Z</time>
      </trkpt>
      <trkpt lat="42.46233" lon="2.88411">
        <ele>573</ele>
        <time>2024-07-16T09:51:38Z</time>
      </trkpt>
      <trkpt lat="42.46233" lon="2.88427">
        <ele>574</ele>
        <time>2024-07-16T09:51:47Z</time>
      </trkpt>
      <trkpt lat="42.46232" lon="2.88441">
        <ele>576.2</ele>
        <time>2024-07-16T09:51:56Z</time>
      </trkpt>
      <trkpt lat="42.46228" lon="2.88456">
        <ele>577.6</ele>
        <time>2024-07-16T09:52:06Z</time>
      </trkpt>
      <trkpt lat="42.46219" lon="2.88468">
        <ele>577.8</ele>
        <time>2024-07-16T09:52:17Z</time>
      </trkpt>
      <trkpt lat="42.46211" lon="2.88477">
        <ele>577.4</ele>
        <time>2024-07-16T09:52:26Z</time>
      </trkpt>
      <trkpt lat="42.462" lon="2.88487">
        <ele>578.6</ele>
        <time>2024-07-16T09:52:37Z</time>
      </trkpt>
      <trkpt lat="42.46193" lon="2.88495">
        <ele>580</ele>
        <time>2024-07-16T09:52:45Z</time>
      </trkpt>
      <trkpt lat="42.46191" lon="2.88496">
        <ele>580.2</ele>
        <time>2024-07-16T09:52:46Z</time>
      </trkpt>
      <trkpt lat="42.46186" lon="2.88502">
        <ele>579</ele>
        <time>2024-07-16T09:52:52Z</time>
      </trkpt>
      <trkpt lat="42.46182" lon="2.88507">
        <ele>578.6</ele>
        <time>2024-07-16T09:52:56Z</time>
      </trkpt>
      <trkpt lat="42.46179" lon="2.88511">
        <ele>578.6</ele>
        <time>2024-07-16T09:53:00Z</time>
      </trkpt>
      <trkpt lat="42.46172" lon="2.88518">
        <ele>580.2</ele>
        <time>2024-07-16T09:53:08Z</time>
      </trkpt>
      <trkpt lat="42.46166" lon="2.88526">
        <ele>582.6</ele>
        <time>2024-07-16T09:53:16Z</time>
      </trkpt>
      <trkpt lat="42.4616" lon="2.88535">
        <ele>583.8</ele>
        <time>2024-07-16T09:53:23Z</time>
      </trkpt>
      <trkpt lat="42.4616" lon="2.88536">
        <ele>584</ele>
        <time>2024-07-16T09:53:24Z</time>
      </trkpt>
      <trkpt lat="42.46153" lon="2.88547">
        <ele>586.4</ele>
        <time>2024-07-16T09:53:32Z</time>
      </trkpt>
      <trkpt lat="42.46149" lon="2.88559">
        <ele>589.6</ele>
        <time>2024-07-16T09:53:40Z</time>
      </trkpt>
      <trkpt lat="42.46146" lon="2.8857">
        <ele>592</ele>
        <time>2024-07-16T09:53:47Z</time>
      </trkpt>
      <trkpt lat="42.46143" lon="2.88587">
        <ele>592</ele>
        <time>2024-07-16T09:53:56Z</time>
      </trkpt>
      <trkpt lat="42.4614" lon="2.88598">
        <ele>594.2</ele>
        <time>2024-07-16T09:54:03Z</time>
      </trkpt>
      <trkpt lat="42.46138" lon="2.88604">
        <ele>595.2</ele>
        <time>2024-07-16T09:54:07Z</time>
      </trkpt>
      <trkpt lat="42.46136" lon="2.88608">
        <ele>595.8</ele>
        <time>2024-07-16T09:54:09Z</time>
      </trkpt>
      <trkpt lat="42.4613" lon="2.88619">
        <ele>597.6</ele>
        <time>2024-07-16T09:54:18Z</time>
      </trkpt>
      <trkpt lat="42.46127" lon="2.88632">
        <ele>597.6</ele>
        <time>2024-07-16T09:54:27Z</time>
      </trkpt>
      <trkpt lat="42.46124" lon="2.8864">
        <ele>597.8</ele>
        <time>2024-07-16T09:54:33Z</time>
      </trkpt>
      <trkpt lat="42.4612" lon="2.88661">
        <ele>598.6</ele>
        <time>2024-07-16T09:54:46Z</time>
      </trkpt>
      <trkpt lat="42.46117" lon="2.88679">
        <ele>598.6</ele>
        <time>2024-07-16T09:54:56Z</time>
      </trkpt>
      <trkpt lat="42.46114" lon="2.88693">
        <ele>597.8</ele>
        <time>2024-07-16T09:55:04Z</time>
      </trkpt>
      <trkpt lat="42.46109" lon="2.88708">
        <ele>600.6</ele>
        <time>2024-07-16T09:55:13Z</time>
      </trkpt>
      <trkpt lat="42.46105" lon="2.88725">
        <ele>601</ele>
        <time>2024-07-16T09:55:23Z</time>
      </trkpt>
      <trkpt lat="42.461" lon="2.88743">
        <ele>602.6</ele>
        <time>2024-07-16T09:55:33Z</time>
      </trkpt>
      <trkpt lat="42.46096" lon="2.88761">
        <ele>603</ele>
        <time>2024-07-16T09:55:44Z</time>
      </trkpt>
      <trkpt lat="42.46092" lon="2.88786">
        <ele>603.8</ele>
        <time>2024-07-16T09:55:58Z</time>
      </trkpt>
      <trkpt lat="42.46092" lon="2.88789">
        <ele>603.8</ele>
        <time>2024-07-16T09:55:59Z</time>
      </trkpt>
      <trkpt lat="42.46098" lon="2.88804">
        <ele>604.6</ele>
        <time>2024-07-16T09:56:09Z</time>
      </trkpt>
      <trkpt lat="42.46109" lon="2.88807">
        <ele>604.8</ele>
        <time>2024-07-16T09:56:18Z</time>
      </trkpt>
      <trkpt lat="42.46114" lon="2.88804">
        <ele>605.2</ele>
        <time>2024-07-16T09:56:23Z</time>
      </trkpt>
      <trkpt lat="42.46117" lon="2.88804">
        <ele>605.4</ele>
        <time>2024-07-16T09:56:25Z</time>
      </trkpt>
      <trkpt lat="42.4613" lon="2.88799">
        <ele>607</ele>
        <time>2024-07-16T09:56:35Z</time>
      </trkpt>
      <trkpt lat="42.46141" lon="2.88795">
        <ele>607.6</ele>
        <time>2024-07-16T09:56:43Z</time>
      </trkpt>
      <trkpt lat="42.46156" lon="2.8879">
        <ele>608.6</ele>
        <time>2024-07-16T09:56:53Z</time>
      </trkpt>
      <trkpt lat="42.4616" lon="2.8879">
        <ele>608.6</ele>
        <time>2024-07-16T09:56:56Z</time>
      </trkpt>
      <trkpt lat="42.46163" lon="2.8879">
        <ele>608.2</ele>
        <time>2024-07-16T09:56:58Z</time>
      </trkpt>
      <trkpt lat="42.46172" lon="2.88781">
        <ele>606.8</ele>
        <time>2024-07-16T09:57:06Z</time>
      </trkpt>
      <trkpt lat="42.46185" lon="2.88776">
        <ele>608.2</ele>
        <time>2024-07-16T09:57:15Z</time>
      </trkpt>
      <trkpt lat="42.46196" lon="2.88771">
        <ele>608.4</ele>
        <time>2024-07-16T09:57:23Z</time>
      </trkpt>
      <trkpt lat="42.46199" lon="2.88771">
        <ele>608.4</ele>
        <time>2024-07-16T09:57:25Z</time>
      </trkpt>
      <trkpt lat="42.46205" lon="2.88771">
        <ele>608.6</ele>
        <time>2024-07-16T09:57:29Z</time>
      </trkpt>
      <trkpt lat="42.46222" lon="2.88778">
        <ele>609.2</ele>
        <time>2024-07-16T09:57:38Z</time>
      </trkpt>
      <trkpt lat="42.46232" lon="2.88784">
        <ele>610</ele>
        <time>2024-07-16T09:57:46Z</time>
      </trkpt>
      <trkpt lat="42.46241" lon="2.88787">
        <ele>610</ele>
        <time>2024-07-16T09:57:53Z</time>
      </trkpt>
      <trkpt lat="42.46251" lon="2.88794">
        <ele>611</ele>
        <time>2024-07-16T09:58:02Z</time>
      </trkpt>
      <trkpt lat="42.46263" lon="2.88803">
        <ele>612</ele>
        <time>2024-07-16T09:58:10Z</time>
      </trkpt>
      <trkpt lat="42.46274" lon="2.88813">
        <ele>613</ele>
        <time>2024-07-16T09:58:18Z</time>
      </trkpt>
      <trkpt lat="42.46278" lon="2.88822">
        <ele>612.6</ele>
        <time>2024-07-16T09:58:24Z</time>
      </trkpt>
      <trkpt lat="42.46288" lon="2.88833">
        <ele>609.8</ele>
        <time>2024-07-16T09:58:32Z</time>
      </trkpt>
      <trkpt lat="42.46293" lon="2.88841">
        <ele>610.8</ele>
        <time>2024-07-16T09:58:37Z</time>
      </trkpt>
      <trkpt lat="42.46293" lon="2.88842">
        <ele>611</ele>
        <time>2024-07-16T09:58:38Z</time>
      </trkpt>
      <trkpt lat="42.46299" lon="2.88855">
        <ele>612.2</ele>
        <time>2024-07-16T09:58:46Z</time>
      </trkpt>
      <trkpt lat="42.46299" lon="2.88872">
        <ele>612.2</ele>
        <time>2024-07-16T09:58:55Z</time>
      </trkpt>
      <trkpt lat="42.46295" lon="2.88886">
        <ele>611.2</ele>
        <time>2024-07-16T09:59:03Z</time>
      </trkpt>
      <trkpt lat="42.46289" lon="2.88901">
        <ele>610.8</ele>
        <time>2024-07-16T09:59:13Z</time>
      </trkpt>
      <trkpt lat="42.46284" lon="2.88914">
        <ele>608.8</ele>
        <time>2024-07-16T09:59:21Z</time>
      </trkpt>
      <trkpt lat="42.46277" lon="2.88929">
        <ele>607.8</ele>
        <time>2024-07-16T09:59:30Z</time>
      </trkpt>
      <trkpt lat="42.46269" lon="2.88943">
        <ele>606.8</ele>
        <time>2024-07-16T09:59:39Z</time>
      </trkpt>
      <trkpt lat="42.46261" lon="2.88959">
        <ele>605.8</ele>
        <time>2024-07-16T09:59:50Z</time>
      </trkpt>
      <trkpt lat="42.46254" lon="2.88973">
        <ele>605.4</ele>
        <time>2024-07-16T09:59:59Z</time>
      </trkpt>
      <trkpt lat="42.46251" lon="2.88987">
        <ele>605.6</ele>
        <time>2024-07-16T10:00:07Z</time>
      </trkpt>
      <trkpt lat="42.46251" lon="2.89006">
        <ele>608.2</ele>
        <time>2024-07-16T10:00:16Z</time>
      </trkpt>
      <trkpt lat="42.46254" lon="2.89017">
        <ele>608.8</ele>
        <time>2024-07-16T10:00:22Z</time>
      </trkpt>
      <trkpt lat="42.46259" lon="2.89027">
        <ele>610</ele>
        <time>2024-07-16T10:00:29Z</time>
      </trkpt>
      <trkpt lat="42.46265" lon="2.89043">
        <ele>609.6</ele>
        <time>2024-07-16T10:00:37Z</time>
      </trkpt>
      <trkpt lat="42.46269" lon="2.89056">
        <ele>609.4</ele>
        <time>2024-07-16T10:00:44Z</time>
      </trkpt>
      <trkpt lat="42.46272" lon="2.89073">
        <ele>608.8</ele>
        <time>2024-07-16T10:00:54Z</time>
      </trkpt>
      <trkpt lat="42.46272" lon="2.89089">
        <ele>606.6</ele>
        <time>2024-07-16T10:01:02Z</time>
      </trkpt>
      <trkpt lat="42.46273" lon="2.8911">
        <ele>607.4</ele>
        <time>2024-07-16T10:01:13Z</time>
      </trkpt>
      <trkpt lat="42.46273" lon="2.89123">
        <ele>608</ele>
        <time>2024-07-16T10:01:21Z</time>
      </trkpt>
      <trkpt lat="42.46273" lon="2.89127">
        <ele>608</ele>
        <time>2024-07-16T10:01:23Z</time>
      </trkpt>
      <trkpt lat="42.46274" lon="2.89138">
        <ele>608.2</ele>
        <time>2024-07-16T10:01:28Z</time>
      </trkpt>
      <trkpt lat="42.46273" lon="2.89146">
        <ele>608.8</ele>
        <time>2024-07-16T10:01:32Z</time>
      </trkpt>
      <trkpt lat="42.46274" lon="2.8915">
        <ele>609.8</ele>
        <time>2024-07-16T10:01:34Z</time>
      </trkpt>
      <trkpt lat="42.46273" lon="2.8917">
        <ele>612</ele>
        <time>2024-07-16T10:01:44Z</time>
      </trkpt>
      <trkpt lat="42.46273" lon="2.89181">
        <ele>612.8</ele>
        <time>2024-07-16T10:01:50Z</time>
      </trkpt>
      <trkpt lat="42.46274" lon="2.89198">
        <ele>612.4</ele>
        <time>2024-07-16T10:01:59Z</time>
      </trkpt>
      <trkpt lat="42.46275" lon="2.892">
        <ele>612.2</ele>
        <time>2024-07-16T10:02:00Z</time>
      </trkpt>
      <trkpt lat="42.46273" lon="2.89209">
        <ele>612.2</ele>
        <time>2024-07-16T10:02:05Z</time>
      </trkpt>
      <trkpt lat="42.46272" lon="2.89213">
        <ele>612.4</ele>
        <time>2024-07-16T10:02:07Z</time>
      </trkpt>
      <trkpt lat="42.46272" lon="2.89218">
        <ele>612.6</ele>
        <time>2024-07-16T10:02:10Z</time>
      </trkpt>
      <trkpt lat="42.46271" lon="2.8922">
        <ele>612.6</ele>
        <time>2024-07-16T10:02:11Z</time>
      </trkpt>
      <trkpt lat="42.46269" lon="2.89236">
        <ele>612.8</ele>
        <time>2024-07-16T10:02:20Z</time>
      </trkpt>
      <trkpt lat="42.46268" lon="2.89251">
        <ele>612.4</ele>
        <time>2024-07-16T10:02:28Z</time>
      </trkpt>
      <trkpt lat="42.46267" lon="2.89252">
        <ele>612.4</ele>
        <time>2024-07-16T10:02:29Z</time>
      </trkpt>
      <trkpt lat="42.46267" lon="2.89256">
        <ele>612.4</ele>
        <time>2024-07-16T10:02:31Z</time>
      </trkpt>
      <trkpt lat="42.46267" lon="2.89257">
        <ele>612.4</ele>
        <time>2024-07-16T10:02:32Z</time>
      </trkpt>
      <trkpt lat="42.46268" lon="2.89271">
        <ele>611.2</ele>
        <time>2024-07-16T10:02:39Z</time>
      </trkpt>
      <trkpt lat="42.46271" lon="2.89285">
        <ele>610</ele>
        <time>2024-07-16T10:02:47Z</time>
      </trkpt>
      <trkpt lat="42.46274" lon="2.89302">
        <ele>610.4</ele>
        <time>2024-07-16T10:02:56Z</time>
      </trkpt>
      <trkpt lat="42.46277" lon="2.89319">
        <ele>610</ele>
        <time>2024-07-16T10:03:05Z</time>
      </trkpt>
      <trkpt lat="42.46277" lon="2.89342">
        <ele>612.4</ele>
        <time>2024-07-16T10:03:17Z</time>
      </trkpt>
      <trkpt lat="42.46273" lon="2.89356">
        <ele>612</ele>
        <time>2024-07-16T10:03:25Z</time>
      </trkpt>
      <trkpt lat="42.46263" lon="2.8937">
        <ele>611.4</ele>
        <time>2024-07-16T10:03:36Z</time>
      </trkpt>
      <trkpt lat="42.46254" lon="2.89384">
        <ele>611.8</ele>
        <time>2024-07-16T10:03:46Z</time>
      </trkpt>
      <trkpt lat="42.46247" lon="2.89393">
        <ele>612</ele>
        <time>2024-07-16T10:03:53Z</time>
      </trkpt>
      <trkpt lat="42.4624" lon="2.89406">
        <ele>612.4</ele>
        <time>2024-07-16T10:04:02Z</time>
      </trkpt>
      <trkpt lat="42.46234" lon="2.8942">
        <ele>612.8</ele>
        <time>2024-07-16T10:04:11Z</time>
      </trkpt>
      <trkpt lat="42.4623" lon="2.89437">
        <ele>613</ele>
        <time>2024-07-16T10:04:20Z</time>
      </trkpt>
      <trkpt lat="42.46229" lon="2.89453">
        <ele>613.6</ele>
        <time>2024-07-16T10:04:29Z</time>
      </trkpt>
      <trkpt lat="42.46228" lon="2.89471">
        <ele>613.6</ele>
        <time>2024-07-16T10:04:39Z</time>
      </trkpt>
      <trkpt lat="42.4623" lon="2.89486">
        <ele>611.6</ele>
        <time>2024-07-16T10:04:46Z</time>
      </trkpt>
      <trkpt lat="42.46233" lon="2.895">
        <ele>611.4</ele>
        <time>2024-07-16T10:04:53Z</time>
      </trkpt>
      <trkpt lat="42.46237" lon="2.89513">
        <ele>612.8</ele>
        <time>2024-07-16T10:04:59Z</time>
      </trkpt>
      <trkpt lat="42.46239" lon="2.89528">
        <ele>615</ele>
        <time>2024-07-16T10:05:07Z</time>
      </trkpt>
      <trkpt lat="42.46241" lon="2.8955">
        <ele>616.8</ele>
        <time>2024-07-16T10:05:18Z</time>
      </trkpt>
      <trkpt lat="42.46238" lon="2.89566">
        <ele>616.6</ele>
        <time>2024-07-16T10:05:27Z</time>
      </trkpt>
      <trkpt lat="42.46229" lon="2.89578">
        <ele>614.8</ele>
        <time>2024-07-16T10:05:36Z</time>
      </trkpt>
      <trkpt lat="42.46214" lon="2.89588">
        <ele>615.8</ele>
        <time>2024-07-16T10:05:47Z</time>
      </trkpt>
      <trkpt lat="42.46205" lon="2.89594">
        <ele>616.2</ele>
        <time>2024-07-16T10:05:54Z</time>
      </trkpt>
      <trkpt lat="42.46204" lon="2.89595">
        <ele>616.2</ele>
        <time>2024-07-16T10:05:55Z</time>
      </trkpt>
      <trkpt lat="42.46194" lon="2.89606">
        <ele>615.6</ele>
        <time>2024-07-16T10:06:04Z</time>
      </trkpt>
      <trkpt lat="42.46189" lon="2.89619">
        <ele>616.6</ele>
        <time>2024-07-16T10:06:13Z</time>
      </trkpt>
      <trkpt lat="42.46181" lon="2.89638">
        <ele>617.4</ele>
        <time>2024-07-16T10:06:25Z</time>
      </trkpt>
      <trkpt lat="42.46178" lon="2.89648">
        <ele>617.8</ele>
        <time>2024-07-16T10:06:31Z</time>
      </trkpt>
      <trkpt lat="42.46172" lon="2.89663">
        <ele>619</ele>
        <time>2024-07-16T10:06:40Z</time>
      </trkpt>
      <trkpt lat="42.46161" lon="2.89679">
        <ele>618.4</ele>
        <time>2024-07-16T10:06:51Z</time>
      </trkpt>
      <trkpt lat="42.46151" lon="2.89694">
        <ele>618.2</ele>
        <time>2024-07-16T10:07:02Z</time>
      </trkpt>
      <trkpt lat="42.46143" lon="2.8971">
        <ele>618.4</ele>
        <time>2024-07-16T10:07:12Z</time>
      </trkpt>
      <trkpt lat="42.46142" lon="2.89713">
        <ele>618.6</ele>
        <time>2024-07-16T10:07:14Z</time>
      </trkpt>
      <trkpt lat="42.46139" lon="2.89719">
        <ele>618.4</ele>
        <time>2024-07-16T10:07:18Z</time>
      </trkpt>
      <trkpt lat="42.46135" lon="2.89735">
        <ele>618.4</ele>
        <time>2024-07-16T10:07:27Z</time>
      </trkpt>
      <trkpt lat="42.46133" lon="2.89749">
        <ele>619.4</ele>
        <time>2024-07-16T10:07:35Z</time>
      </trkpt>
      <trkpt lat="42.46129" lon="2.89763">
        <ele>619.6</ele>
        <time>2024-07-16T10:07:43Z</time>
      </trkpt>
      <trkpt lat="42.46126" lon="2.89776">
        <ele>620.4</ele>
        <time>2024-07-16T10:07:50Z</time>
      </trkpt>
      <trkpt lat="42.46119" lon="2.8979">
        <ele>621</ele>
        <time>2024-07-16T10:07:59Z</time>
      </trkpt>
      <trkpt lat="42.46114" lon="2.89808">
        <ele>619.6</ele>
        <time>2024-07-16T10:08:10Z</time>
      </trkpt>
      <trkpt lat="42.46109" lon="2.8982">
        <ele>619</ele>
        <time>2024-07-16T10:08:18Z</time>
      </trkpt>
      <trkpt lat="42.46104" lon="2.89833">
        <ele>618.2</ele>
        <time>2024-07-16T10:08:26Z</time>
      </trkpt>
      <trkpt lat="42.46097" lon="2.89851">
        <ele>617.4</ele>
        <time>2024-07-16T10:08:36Z</time>
      </trkpt>
      <trkpt lat="42.46097" lon="2.89853">
        <ele>617.2</ele>
        <time>2024-07-16T10:08:37Z</time>
      </trkpt>
      <trkpt lat="42.46097" lon="2.89862">
        <ele>617.2</ele>
        <time>2024-07-16T10:08:42Z</time>
      </trkpt>
      <trkpt lat="42.46096" lon="2.89873">
        <ele>617.8</ele>
        <time>2024-07-16T10:08:48Z</time>
      </trkpt>
      <trkpt lat="42.46097" lon="2.89886">
        <ele>617.8</ele>
        <time>2024-07-16T10:08:55Z</time>
      </trkpt>
      <trkpt lat="42.46099" lon="2.89901">
        <ele>617.8</ele>
        <time>2024-07-16T10:09:02Z</time>
      </trkpt>
      <trkpt lat="42.46102" lon="2.89919">
        <ele>619.4</ele>
        <time>2024-07-16T10:09:11Z</time>
      </trkpt>
      <trkpt lat="42.46101" lon="2.89937">
        <ele>620.4</ele>
        <time>2024-07-16T10:09:20Z</time>
      </trkpt>
      <trkpt lat="42.46099" lon="2.89952">
        <ele>620.6</ele>
        <time>2024-07-16T10:09:28Z</time>
      </trkpt>
      <trkpt lat="42.46095" lon="2.89964">
        <ele>620.4</ele>
        <time>2024-07-16T10:09:35Z</time>
      </trkpt>
      <trkpt lat="42.46091" lon="2.89974">
        <ele>620</ele>
        <time>2024-07-16T10:09:41Z</time>
      </trkpt>
      <trkpt lat="42.4608" lon="2.8999">
        <ele>620.2</ele>
        <time>2024-07-16T10:09:53Z</time>
      </trkpt>
      <trkpt lat="42.46071" lon="2.89999">
        <ele>620.4</ele>
        <time>2024-07-16T10:10:01Z</time>
      </trkpt>
      <trkpt lat="42.46061" lon="2.90007">
        <ele>621.8</ele>
        <time>2024-07-16T10:10:10Z</time>
      </trkpt>
      <trkpt lat="42.46051" lon="2.90014">
        <ele>620.8</ele>
        <time>2024-07-16T10:10:18Z</time>
      </trkpt>
      <trkpt lat="42.46042" lon="2.90018">
        <ele>620.6</ele>
        <time>2024-07-16T10:10:25Z</time>
      </trkpt>
      <trkpt lat="42.46041" lon="2.9002">
        <ele>620.6</ele>
        <time>2024-07-16T10:10:26Z</time>
      </trkpt>
      <trkpt lat="42.46037" lon="2.90028">
        <ele>619.2</ele>
        <time>2024-07-16T10:10:31Z</time>
      </trkpt>
      <trkpt lat="42.46035" lon="2.9003">
        <ele>618.8</ele>
        <time>2024-07-16T10:10:33Z</time>
      </trkpt>
      <trkpt lat="42.46031" lon="2.90034">
        <ele>618.4</ele>
        <time>2024-07-16T10:10:36Z</time>
      </trkpt>
      <trkpt lat="42.4603" lon="2.90052">
        <ele>619.6</ele>
        <time>2024-07-16T10:10:44Z</time>
      </trkpt>
      <trkpt lat="42.46027" lon="2.9007">
        <ele>625</ele>
        <time>2024-07-16T10:10:53Z</time>
      </trkpt>
      <trkpt lat="42.46019" lon="2.90082">
        <ele>625</ele>
        <time>2024-07-16T10:11:02Z</time>
      </trkpt>
      <trkpt lat="42.4601" lon="2.90087">
        <ele>625.2</ele>
        <time>2024-07-16T10:11:10Z</time>
      </trkpt>
      <trkpt lat="42.46008" lon="2.90088">
        <ele>625.2</ele>
        <time>2024-07-16T10:11:11Z</time>
      </trkpt>
      <trkpt lat="42.46005" lon="2.90089">
        <ele>625.4</ele>
        <time>2024-07-16T10:11:14Z</time>
      </trkpt>
      <trkpt lat="42.45993" lon="2.90092">
        <ele>626.8</ele>
        <time>2024-07-16T10:11:22Z</time>
      </trkpt>
      <trkpt lat="42.4598" lon="2.90097">
        <ele>627</ele>
        <time>2024-07-16T10:11:32Z</time>
      </trkpt>
      <trkpt lat="42.45963" lon="2.90107">
        <ele>625.8</ele>
        <time>2024-07-16T10:11:45Z</time>
      </trkpt>
      <trkpt lat="42.45952" lon="2.90116">
        <ele>625.2</ele>
        <time>2024-07-16T10:11:54Z</time>
      </trkpt>
      <trkpt lat="42.45944" lon="2.90125">
        <ele>625.4</ele>
        <time>2024-07-16T10:12:02Z</time>
      </trkpt>
      <trkpt lat="42.45942" lon="2.90131">
        <ele>625.4</ele>
        <time>2024-07-16T10:12:09Z</time>
      </trkpt>
      <trkpt lat="42.45942" lon="2.90132">
        <ele>625.8</ele>
        <time>2024-07-16T10:12:17Z</time>
      </trkpt>
      <trkpt lat="42.45937" lon="2.90137">
        <ele>624.8</ele>
        <time>2024-07-16T10:14:00Z</time>
      </trkpt>
      <trkpt lat="42.45932" lon="2.90153">
        <ele>625.4</ele>
        <time>2024-07-16T10:14:12Z</time>
      </trkpt>
      <trkpt lat="42.45929" lon="2.90163">
        <ele>625.2</ele>
        <time>2024-07-16T10:14:18Z</time>
      </trkpt>
      <trkpt lat="42.45928" lon="2.90179">
        <ele>624.4</ele>
        <time>2024-07-16T10:14:26Z</time>
      </trkpt>
      <trkpt lat="42.45927" lon="2.90195">
        <ele>624.2</ele>
        <time>2024-07-16T10:14:35Z</time>
      </trkpt>
      <trkpt lat="42.45927" lon="2.90207">
        <ele>623.8</ele>
        <time>2024-07-16T10:14:42Z</time>
      </trkpt>
      <trkpt lat="42.45929" lon="2.90221">
        <ele>623.2</ele>
        <time>2024-07-16T10:14:51Z</time>
      </trkpt>
      <trkpt lat="42.45931" lon="2.9023">
        <ele>622.4</ele>
        <time>2024-07-16T10:14:56Z</time>
      </trkpt>
      <trkpt lat="42.45932" lon="2.90232">
        <ele>622</ele>
        <time>2024-07-16T10:14:58Z</time>
      </trkpt>
      <trkpt lat="42.45934" lon="2.90235">
        <ele>622</ele>
        <time>2024-07-16T10:15:00Z</time>
      </trkpt>
      <trkpt lat="42.45944" lon="2.9025">
        <ele>622.8</ele>
        <time>2024-07-16T10:15:10Z</time>
      </trkpt>
      <trkpt lat="42.45945" lon="2.90253">
        <ele>623.4</ele>
        <time>2024-07-16T10:15:12Z</time>
      </trkpt>
      <trkpt lat="42.45949" lon="2.90262">
        <ele>624.2</ele>
        <time>2024-07-16T10:15:17Z</time>
      </trkpt>
      <trkpt lat="42.45957" lon="2.90272">
        <ele>624</ele>
        <time>2024-07-16T10:15:24Z</time>
      </trkpt>
      <trkpt lat="42.45959" lon="2.90277">
        <ele>624.8</ele>
        <time>2024-07-16T10:15:27Z</time>
      </trkpt>
      <trkpt lat="42.45962" lon="2.90283">
        <ele>625.2</ele>
        <time>2024-07-16T10:15:31Z</time>
      </trkpt>
      <trkpt lat="42.45966" lon="2.90289">
        <ele>625.4</ele>
        <time>2024-07-16T10:15:34Z</time>
      </trkpt>
      <trkpt lat="42.4597" lon="2.90295">
        <ele>626</ele>
        <time>2024-07-16T10:15:38Z</time>
      </trkpt>
      <trkpt lat="42.45972" lon="2.90302">
        <ele>626.4</ele>
        <time>2024-07-16T10:15:42Z</time>
      </trkpt>
      <trkpt lat="42.45972" lon="2.90305">
        <ele>626.2</ele>
        <time>2024-07-16T10:15:44Z</time>
      </trkpt>
      <trkpt lat="42.45973" lon="2.90308">
        <ele>625.6</ele>
        <time>2024-07-16T10:15:46Z</time>
      </trkpt>
      <trkpt lat="42.45973" lon="2.90314">
        <ele>624.2</ele>
        <time>2024-07-16T10:15:49Z</time>
      </trkpt>
      <trkpt lat="42.45974" lon="2.90318">
        <ele>623.8</ele>
        <time>2024-07-16T10:15:51Z</time>
      </trkpt>
      <trkpt lat="42.45974" lon="2.90325">
        <ele>623.4</ele>
        <time>2024-07-16T10:15:54Z</time>
      </trkpt>
      <trkpt lat="42.45971" lon="2.90344">
        <ele>624.8</ele>
        <time>2024-07-16T10:16:04Z</time>
      </trkpt>
      <trkpt lat="42.45968" lon="2.90359">
        <ele>625</ele>
        <time>2024-07-16T10:16:12Z</time>
      </trkpt>
      <trkpt lat="42.45963" lon="2.90378">
        <ele>625.4</ele>
        <time>2024-07-16T10:16:23Z</time>
      </trkpt>
      <trkpt lat="42.45954" lon="2.90387">
        <ele>624.8</ele>
        <time>2024-07-16T10:16:31Z</time>
      </trkpt>
      <trkpt lat="42.45946" lon="2.90392">
        <ele>622.6</ele>
        <time>2024-07-16T10:16:38Z</time>
      </trkpt>
      <trkpt lat="42.45935" lon="2.90396">
        <ele>623.2</ele>
        <time>2024-07-16T10:16:46Z</time>
      </trkpt>
      <trkpt lat="42.45923" lon="2.90401">
        <ele>625.6</ele>
        <time>2024-07-16T10:16:55Z</time>
      </trkpt>
      <trkpt lat="42.45922" lon="2.90401">
        <ele>626</ele>
        <time>2024-07-16T10:16:56Z</time>
      </trkpt>
      <trkpt lat="42.45916" lon="2.90407">
        <ele>627.8</ele>
        <time>2024-07-16T10:17:01Z</time>
      </trkpt>
      <trkpt lat="42.45907" lon="2.90419">
        <ele>629.8</ele>
        <time>2024-07-16T10:17:10Z</time>
      </trkpt>
      <trkpt lat="42.45901" lon="2.90431">
        <ele>631.4</ele>
        <time>2024-07-16T10:17:17Z</time>
      </trkpt>
      <trkpt lat="42.45898" lon="2.9044">
        <ele>631.2</ele>
        <time>2024-07-16T10:17:22Z</time>
      </trkpt>
      <trkpt lat="42.45899" lon="2.90444">
        <ele>630.6</ele>
        <time>2024-07-16T10:17:24Z</time>
      </trkpt>
      <trkpt lat="42.45899" lon="2.90446">
        <ele>630.4</ele>
        <time>2024-07-16T10:17:25Z</time>
      </trkpt>
      <trkpt lat="42.45906" lon="2.90463">
        <ele>628.6</ele>
        <time>2024-07-16T10:17:35Z</time>
      </trkpt>
      <trkpt lat="42.45907" lon="2.90464">
        <ele>628.4</ele>
        <time>2024-07-16T10:17:36Z</time>
      </trkpt>
      <trkpt lat="42.45908" lon="2.90468">
        <ele>628</ele>
        <time>2024-07-16T10:17:38Z</time>
      </trkpt>
      <trkpt lat="42.45911" lon="2.90472">
        <ele>627.8</ele>
        <time>2024-07-16T10:17:41Z</time>
      </trkpt>
      <trkpt lat="42.45914" lon="2.90478">
        <ele>628.2</ele>
        <time>2024-07-16T10:17:44Z</time>
      </trkpt>
      <trkpt lat="42.45917" lon="2.90482">
        <ele>628.8</ele>
        <time>2024-07-16T10:17:47Z</time>
      </trkpt>
      <trkpt lat="42.45924" lon="2.90497">
        <ele>630.4</ele>
        <time>2024-07-16T10:17:56Z</time>
      </trkpt>
      <trkpt lat="42.45925" lon="2.90506">
        <ele>629.8</ele>
        <time>2024-07-16T10:18:00Z</time>
      </trkpt>
      <trkpt lat="42.45927" lon="2.90519">
        <ele>627.6</ele>
        <time>2024-07-16T10:18:07Z</time>
      </trkpt>
      <trkpt lat="42.45928" lon="2.90521">
        <ele>627.4</ele>
        <time>2024-07-16T10:18:08Z</time>
      </trkpt>
      <trkpt lat="42.45928" lon="2.90534">
        <ele>626.8</ele>
        <time>2024-07-16T10:18:15Z</time>
      </trkpt>
      <trkpt lat="42.45927" lon="2.90552">
        <ele>627.4</ele>
        <time>2024-07-16T10:18:24Z</time>
      </trkpt>
      <trkpt lat="42.45926" lon="2.90563">
        <ele>627.4</ele>
        <time>2024-07-16T10:18:30Z</time>
      </trkpt>
      <trkpt lat="42.45924" lon="2.90581">
        <ele>626.4</ele>
        <time>2024-07-16T10:18:39Z</time>
      </trkpt>
      <trkpt lat="42.45924" lon="2.90601">
        <ele>626.6</ele>
        <time>2024-07-16T10:18:49Z</time>
      </trkpt>
      <trkpt lat="42.45925" lon="2.90619">
        <ele>628.8</ele>
        <time>2024-07-16T10:18:58Z</time>
      </trkpt>
      <trkpt lat="42.45927" lon="2.90632">
        <ele>629</ele>
        <time>2024-07-16T10:19:04Z</time>
      </trkpt>
      <trkpt lat="42.45934" lon="2.90644">
        <ele>630.2</ele>
        <time>2024-07-16T10:19:12Z</time>
      </trkpt>
      <trkpt lat="42.45945" lon="2.9065">
        <ele>631.8</ele>
        <time>2024-07-16T10:19:20Z</time>
      </trkpt>
      <trkpt lat="42.45953" lon="2.90651">
        <ele>634</ele>
        <time>2024-07-16T10:19:26Z</time>
      </trkpt>
      <trkpt lat="42.45963" lon="2.90652">
        <ele>635.2</ele>
        <time>2024-07-16T10:19:33Z</time>
      </trkpt>
      <trkpt lat="42.45971" lon="2.90651">
        <ele>635.2</ele>
        <time>2024-07-16T10:19:39Z</time>
      </trkpt>
      <trkpt lat="42.45975" lon="2.90651">
        <ele>635.2</ele>
        <time>2024-07-16T10:19:42Z</time>
      </trkpt>
      <trkpt lat="42.45978" lon="2.90652">
        <ele>635.2</ele>
        <time>2024-07-16T10:19:45Z</time>
      </trkpt>
      <trkpt lat="42.4598" lon="2.90653">
        <ele>635.2</ele>
        <time>2024-07-16T10:19:46Z</time>
      </trkpt>
      <trkpt lat="42.45991" lon="2.90659">
        <ele>635.2</ele>
        <time>2024-07-16T10:19:50Z</time>
      </trkpt>
      <trkpt lat="42.45995" lon="2.90667">
        <ele>636</ele>
        <time>2024-07-16T10:19:57Z</time>
      </trkpt>
      <trkpt lat="42.46002" lon="2.90676">
        <ele>633.4</ele>
        <time>2024-07-16T10:20:04Z</time>
      </trkpt>
      <trkpt lat="42.46015" lon="2.90689">
        <ele>632.4</ele>
        <time>2024-07-16T10:20:13Z</time>
      </trkpt>
      <trkpt lat="42.46026" lon="2.907">
        <ele>635.8</ele>
        <time>2024-07-16T10:20:22Z</time>
      </trkpt>
      <trkpt lat="42.46038" lon="2.90707">
        <ele>636.4</ele>
        <time>2024-07-16T10:20:29Z</time>
      </trkpt>
      <trkpt lat="42.46044" lon="2.90713">
        <ele>637.2</ele>
        <time>2024-07-16T10:20:35Z</time>
      </trkpt>
      <trkpt lat="42.46055" lon="2.90722">
        <ele>637.4</ele>
        <time>2024-07-16T10:20:44Z</time>
      </trkpt>
      <trkpt lat="42.46067" lon="2.90733">
        <ele>637.4</ele>
        <time>2024-07-16T10:20:55Z</time>
      </trkpt>
      <trkpt lat="42.46068" lon="2.90735">
        <ele>637.4</ele>
        <time>2024-07-16T10:20:56Z</time>
      </trkpt>
      <trkpt lat="42.46071" lon="2.9074">
        <ele>637</ele>
        <time>2024-07-16T10:21:00Z</time>
      </trkpt>
      <trkpt lat="42.46073" lon="2.90744">
        <ele>637.2</ele>
        <time>2024-07-16T10:21:02Z</time>
      </trkpt>
      <trkpt lat="42.46074" lon="2.90746">
        <ele>637.2</ele>
        <time>2024-07-16T10:21:03Z</time>
      </trkpt>
      <trkpt lat="42.46076" lon="2.90752">
        <ele>637.4</ele>
        <time>2024-07-16T10:21:07Z</time>
      </trkpt>
      <trkpt lat="42.46076" lon="2.90754">
        <ele>637.4</ele>
        <time>2024-07-16T10:21:08Z</time>
      </trkpt>
      <trkpt lat="42.46077" lon="2.90762">
        <ele>636.8</ele>
        <time>2024-07-16T10:21:12Z</time>
      </trkpt>
      <trkpt lat="42.46078" lon="2.90775">
        <ele>634.8</ele>
        <time>2024-07-16T10:21:19Z</time>
      </trkpt>
      <trkpt lat="42.46078" lon="2.90776">
        <ele>634.6</ele>
        <time>2024-07-16T10:21:20Z</time>
      </trkpt>
      <trkpt lat="42.46079" lon="2.90786">
        <ele>633.4</ele>
        <time>2024-07-16T10:21:25Z</time>
      </trkpt>
      <trkpt lat="42.46078" lon="2.90795">
        <ele>632.6</ele>
        <time>2024-07-16T10:21:29Z</time>
      </trkpt>
      <trkpt lat="42.46079" lon="2.90798">
        <ele>632.4</ele>
        <time>2024-07-16T10:21:31Z</time>
      </trkpt>
      <trkpt lat="42.46084" lon="2.90811">
        <ele>632.4</ele>
        <time>2024-07-16T10:21:38Z</time>
      </trkpt>
      <trkpt lat="42.46088" lon="2.90823">
        <ele>632.8</ele>
        <time>2024-07-16T10:21:44Z</time>
      </trkpt>
      <trkpt lat="42.46089" lon="2.90824">
        <ele>632.8</ele>
        <time>2024-07-16T10:21:45Z</time>
      </trkpt>
      <trkpt lat="42.46095" lon="2.90838">
        <ele>633.4</ele>
        <time>2024-07-16T10:21:53Z</time>
      </trkpt>
      <trkpt lat="42.46101" lon="2.90851">
        <ele>633.6</ele>
        <time>2024-07-16T10:22:01Z</time>
      </trkpt>
      <trkpt lat="42.46107" lon="2.90864">
        <ele>633.2</ele>
        <time>2024-07-16T10:22:09Z</time>
      </trkpt>
      <trkpt lat="42.46114" lon="2.90873">
        <ele>633.2</ele>
        <time>2024-07-16T10:22:16Z</time>
      </trkpt>
      <trkpt lat="42.4612" lon="2.90885">
        <ele>633.2</ele>
        <time>2024-07-16T10:22:23Z</time>
      </trkpt>
      <trkpt lat="42.4612" lon="2.90887">
        <ele>633.2</ele>
        <time>2024-07-16T10:22:24Z</time>
      </trkpt>
      <trkpt lat="42.46124" lon="2.90902">
        <ele>632.6</ele>
        <time>2024-07-16T10:22:32Z</time>
      </trkpt>
      <trkpt lat="42.46127" lon="2.90914">
        <ele>633.8</ele>
        <time>2024-07-16T10:22:38Z</time>
      </trkpt>
      <trkpt lat="42.46126" lon="2.90918">
        <ele>634.2</ele>
        <time>2024-07-16T10:22:40Z</time>
      </trkpt>
      <trkpt lat="42.46123" lon="2.90936">
        <ele>637.2</ele>
        <time>2024-07-16T10:22:50Z</time>
      </trkpt>
      <trkpt lat="42.46119" lon="2.90944">
        <ele>637.8</ele>
        <time>2024-07-16T10:22:55Z</time>
      </trkpt>
      <trkpt lat="42.46118" lon="2.90947">
        <ele>637.8</ele>
        <time>2024-07-16T10:22:56Z</time>
      </trkpt>
      <trkpt lat="42.46113" lon="2.90962">
        <ele>638.4</ele>
        <time>2024-07-16T10:23:04Z</time>
      </trkpt>
      <trkpt lat="42.46105" lon="2.90977">
        <ele>635.4</ele>
        <time>2024-07-16T10:23:14Z</time>
      </trkpt>
      <trkpt lat="42.46097" lon="2.90992">
        <ele>633.8</ele>
        <time>2024-07-16T10:23:24Z</time>
      </trkpt>
      <trkpt lat="42.46097" lon="2.91007">
        <ele>634.4</ele>
        <time>2024-07-16T10:23:31Z</time>
      </trkpt>
      <trkpt lat="42.46098" lon="2.91009">
        <ele>634.6</ele>
        <time>2024-07-16T10:23:32Z</time>
      </trkpt>
      <trkpt lat="42.461" lon="2.91017">
        <ele>636.2</ele>
        <time>2024-07-16T10:23:37Z</time>
      </trkpt>
      <trkpt lat="42.46103" lon="2.9102">
        <ele>638</ele>
        <time>2024-07-16T10:23:40Z</time>
      </trkpt>
      <trkpt lat="42.46108" lon="2.91021">
        <ele>639.8</ele>
        <time>2024-07-16T10:23:44Z</time>
      </trkpt>
      <trkpt lat="42.46112" lon="2.91018">
        <ele>641</ele>
        <time>2024-07-16T10:23:48Z</time>
      </trkpt>
      <trkpt lat="42.46118" lon="2.9102">
        <ele>642</ele>
        <time>2024-07-16T10:23:51Z</time>
      </trkpt>
      <trkpt lat="42.46128" lon="2.91021">
        <ele>644</ele>
        <time>2024-07-16T10:23:58Z</time>
      </trkpt>
      <trkpt lat="42.46135" lon="2.91017">
        <ele>644.4</ele>
        <time>2024-07-16T10:24:04Z</time>
      </trkpt>
      <trkpt lat="42.46138" lon="2.91016">
        <ele>644.6</ele>
        <time>2024-07-16T10:24:06Z</time>
      </trkpt>
      <trkpt lat="42.46145" lon="2.91016">
        <ele>646.4</ele>
        <time>2024-07-16T10:24:10Z</time>
      </trkpt>
      <trkpt lat="42.46157" lon="2.91017">
        <ele>646</ele>
        <time>2024-07-16T10:24:17Z</time>
      </trkpt>
      <trkpt lat="42.46167" lon="2.91017">
        <ele>644.6</ele>
        <time>2024-07-16T10:24:23Z</time>
      </trkpt>
      <trkpt lat="42.46176" lon="2.91014">
        <ele>644.8</ele>
        <time>2024-07-16T10:24:30Z</time>
      </trkpt>
      <trkpt lat="42.46185" lon="2.91014">
        <ele>645</ele>
        <time>2024-07-16T10:24:36Z</time>
      </trkpt>
      <trkpt lat="42.46189" lon="2.91017">
        <ele>642.8</ele>
        <time>2024-07-16T10:24:44Z</time>
      </trkpt>
      <trkpt lat="42.46191" lon="2.91026">
        <ele>641.4</ele>
        <time>2024-07-16T10:24:50Z</time>
      </trkpt>
      <trkpt lat="42.4619" lon="2.91037">
        <ele>640</ele>
        <time>2024-07-16T10:24:56Z</time>
      </trkpt>
      <trkpt lat="42.46188" lon="2.91052">
        <ele>637.8</ele>
        <time>2024-07-16T10:25:04Z</time>
      </trkpt>
      <trkpt lat="42.46188" lon="2.91075">
        <ele>637.8</ele>
        <time>2024-07-16T10:25:13Z</time>
      </trkpt>
      <trkpt lat="42.46192" lon="2.91091">
        <ele>640.4</ele>
        <time>2024-07-16T10:25:22Z</time>
      </trkpt>
      <trkpt lat="42.46197" lon="2.91096">
        <ele>640.2</ele>
        <time>2024-07-16T10:25:28Z</time>
      </trkpt>
      <trkpt lat="42.462" lon="2.91099">
        <ele>640.2</ele>
        <time>2024-07-16T10:25:30Z</time>
      </trkpt>
      <trkpt lat="42.46209" lon="2.91107">
        <ele>640.6</ele>
        <time>2024-07-16T10:25:37Z</time>
      </trkpt>
      <trkpt lat="42.46213" lon="2.91117">
        <ele>639.6</ele>
        <time>2024-07-16T10:25:44Z</time>
      </trkpt>
      <trkpt lat="42.46217" lon="2.9112">
        <ele>639.4</ele>
        <time>2024-07-16T10:25:46Z</time>
      </trkpt>
      <trkpt lat="42.46222" lon="2.91125">
        <ele>639.4</ele>
        <time>2024-07-16T10:25:50Z</time>
      </trkpt>
      <trkpt lat="42.46225" lon="2.91128">
        <ele>640</ele>
        <time>2024-07-16T10:25:52Z</time>
      </trkpt>
      <trkpt lat="42.46228" lon="2.91128">
        <ele>640.4</ele>
        <time>2024-07-16T10:25:53Z</time>
      </trkpt>
      <trkpt lat="42.4624" lon="2.91137">
        <ele>643.8</ele>
        <time>2024-07-16T10:25:59Z</time>
      </trkpt>
      <trkpt lat="42.46247" lon="2.91141">
        <ele>645.8</ele>
        <time>2024-07-16T10:26:04Z</time>
      </trkpt>
      <trkpt lat="42.46248" lon="2.91143">
        <ele>646.6</ele>
        <time>2024-07-16T10:26:05Z</time>
      </trkpt>
      <trkpt lat="42.46252" lon="2.91151">
        <ele>648.8</ele>
        <time>2024-07-16T10:26:11Z</time>
      </trkpt>
      <trkpt lat="42.46257" lon="2.9116">
        <ele>647</ele>
        <time>2024-07-16T10:26:17Z</time>
      </trkpt>
      <trkpt lat="42.4626" lon="2.91164">
        <ele>646</ele>
        <time>2024-07-16T10:26:19Z</time>
      </trkpt>
      <trkpt lat="42.46263" lon="2.91176">
        <ele>642.6</ele>
        <time>2024-07-16T10:26:25Z</time>
      </trkpt>
      <trkpt lat="42.46264" lon="2.91192">
        <ele>638.8</ele>
        <time>2024-07-16T10:26:33Z</time>
      </trkpt>
      <trkpt lat="42.46264" lon="2.91196">
        <ele>638.2</ele>
        <time>2024-07-16T10:26:35Z</time>
      </trkpt>
      <trkpt lat="42.46265" lon="2.91199">
        <ele>637.8</ele>
        <time>2024-07-16T10:26:37Z</time>
      </trkpt>
      <trkpt lat="42.46268" lon="2.91211">
        <ele>638</ele>
        <time>2024-07-16T10:26:44Z</time>
      </trkpt>
      <trkpt lat="42.46275" lon="2.91221">
        <ele>639.6</ele>
        <time>2024-07-16T10:26:50Z</time>
      </trkpt>
      <trkpt lat="42.46282" lon="2.91237">
        <ele>641</ele>
        <time>2024-07-16T10:27:00Z</time>
      </trkpt>
      <trkpt lat="42.46282" lon="2.91248">
        <ele>641.2</ele>
        <time>2024-07-16T10:27:06Z</time>
      </trkpt>
      <trkpt lat="42.46282" lon="2.91263">
        <ele>640.8</ele>
        <time>2024-07-16T10:27:15Z</time>
      </trkpt>
      <trkpt lat="42.46278" lon="2.91276">
        <ele>642.2</ele>
        <time>2024-07-16T10:27:22Z</time>
      </trkpt>
      <trkpt lat="42.46275" lon="2.91288">
        <ele>643.6</ele>
        <time>2024-07-16T10:27:30Z</time>
      </trkpt>
      <trkpt lat="42.46273" lon="2.91308">
        <ele>644</ele>
        <time>2024-07-16T10:27:40Z</time>
      </trkpt>
      <trkpt lat="42.46268" lon="2.91322">
        <ele>644.2</ele>
        <time>2024-07-16T10:27:49Z</time>
      </trkpt>
      <trkpt lat="42.46267" lon="2.91325">
        <ele>644.6</ele>
        <time>2024-07-16T10:27:51Z</time>
      </trkpt>
      <trkpt lat="42.46264" lon="2.91331">
        <ele>645.6</ele>
        <time>2024-07-16T10:27:55Z</time>
      </trkpt>
      <trkpt lat="42.46264" lon="2.91335">
        <ele>646</ele>
        <time>2024-07-16T10:27:58Z</time>
      </trkpt>
      <trkpt lat="42.46262" lon="2.91342">
        <ele>646.4</ele>
        <time>2024-07-16T10:28:02Z</time>
      </trkpt>
      <trkpt lat="42.46259" lon="2.91354">
        <ele>647</ele>
        <time>2024-07-16T10:28:09Z</time>
      </trkpt>
      <trkpt lat="42.46255" lon="2.91372">
        <ele>647</ele>
        <time>2024-07-16T10:28:19Z</time>
      </trkpt>
      <trkpt lat="42.46254" lon="2.9138">
        <ele>646.2</ele>
        <time>2024-07-16T10:28:24Z</time>
      </trkpt>
      <trkpt lat="42.46253" lon="2.91383">
        <ele>645.6</ele>
        <time>2024-07-16T10:28:26Z</time>
      </trkpt>
      <trkpt lat="42.46252" lon="2.91401">
        <ele>645.4</ele>
        <time>2024-07-16T10:28:34Z</time>
      </trkpt>
      <trkpt lat="42.46251" lon="2.91415">
        <ele>646.2</ele>
        <time>2024-07-16T10:28:42Z</time>
      </trkpt>
      <trkpt lat="42.46249" lon="2.91419">
        <ele>646.8</ele>
        <time>2024-07-16T10:28:45Z</time>
      </trkpt>
      <trkpt lat="42.46249" lon="2.91426">
        <ele>648.2</ele>
        <time>2024-07-16T10:28:48Z</time>
      </trkpt>
      <trkpt lat="42.4625" lon="2.91443">
        <ele>653</ele>
        <time>2024-07-16T10:28:57Z</time>
      </trkpt>
      <trkpt lat="42.4625" lon="2.91455">
        <ele>654.2</ele>
        <time>2024-07-16T10:29:03Z</time>
      </trkpt>
      <trkpt lat="42.4625" lon="2.91458">
        <ele>654.2</ele>
        <time>2024-07-16T10:29:05Z</time>
      </trkpt>
      <trkpt lat="42.46251" lon="2.91476">
        <ele>654.6</ele>
        <time>2024-07-16T10:29:13Z</time>
      </trkpt>
      <trkpt lat="42.46251" lon="2.91481">
        <ele>655.6</ele>
        <time>2024-07-16T10:29:16Z</time>
      </trkpt>
      <trkpt lat="42.46251" lon="2.91485">
        <ele>656.8</ele>
        <time>2024-07-16T10:29:19Z</time>
      </trkpt>
      <trkpt lat="42.46251" lon="2.91503">
        <ele>659</ele>
        <time>2024-07-16T10:29:27Z</time>
      </trkpt>
      <trkpt lat="42.46252" lon="2.91507">
        <ele>659.4</ele>
        <time>2024-07-16T10:29:30Z</time>
      </trkpt>
      <trkpt lat="42.46252" lon="2.91506">
        <ele>660.2</ele>
        <time>2024-07-16T10:29:33Z</time>
      </trkpt>
      <trkpt lat="42.46252" lon="2.91505">
        <ele>660.6</ele>
        <time>2024-07-16T10:29:34Z</time>
      </trkpt>
      <trkpt lat="42.46254" lon="2.91505">
        <ele>662.2</ele>
        <time>2024-07-16T10:29:36Z</time>
      </trkpt>
      <trkpt lat="42.46253" lon="2.91503">
        <ele>663.4</ele>
        <time>2024-07-16T10:29:37Z</time>
      </trkpt>
      <trkpt lat="42.46255" lon="2.91499">
        <ele>665.8</ele>
        <time>2024-07-16T10:29:40Z</time>
      </trkpt>
      <trkpt lat="42.46257" lon="2.91496">
        <ele>666.6</ele>
        <time>2024-07-16T10:29:42Z</time>
      </trkpt>
      <trkpt lat="42.46258" lon="2.91496">
        <ele>666.6</ele>
        <time>2024-07-16T10:29:43Z</time>
      </trkpt>
      <trkpt lat="42.46261" lon="2.91494">
        <ele>666.4</ele>
        <time>2024-07-16T10:29:45Z</time>
      </trkpt>
      <trkpt lat="42.46267" lon="2.9149">
        <ele>666</ele>
        <time>2024-07-16T10:29:48Z</time>
      </trkpt>
      <trkpt lat="42.46277" lon="2.91487">
        <ele>664.8</ele>
        <time>2024-07-16T10:29:55Z</time>
      </trkpt>
      <trkpt lat="42.46286" lon="2.91478">
        <ele>661</ele>
        <time>2024-07-16T10:30:03Z</time>
      </trkpt>
      <trkpt lat="42.46291" lon="2.91471">
        <ele>660</ele>
        <time>2024-07-16T10:30:08Z</time>
      </trkpt>
      <trkpt lat="42.46293" lon="2.91468">
        <ele>659.8</ele>
        <time>2024-07-16T10:30:10Z</time>
      </trkpt>
      <trkpt lat="42.46294" lon="2.91467">
        <ele>659.6</ele>
        <time>2024-07-16T10:30:11Z</time>
      </trkpt>
      <trkpt lat="42.46297" lon="2.91461">
        <ele>659.4</ele>
        <time>2024-07-16T10:30:14Z</time>
      </trkpt>
      <trkpt lat="42.46298" lon="2.91461">
        <ele>659.4</ele>
        <time>2024-07-16T10:30:15Z</time>
      </trkpt>
      <trkpt lat="42.46299" lon="2.9146">
        <ele>659.2</ele>
        <time>2024-07-16T10:30:16Z</time>
      </trkpt>
      <trkpt lat="42.46302" lon="2.91459">
        <ele>658.8</ele>
        <time>2024-07-16T10:30:19Z</time>
      </trkpt>
      <trkpt lat="42.46302" lon="2.9146">
        <ele>657.4</ele>
        <time>2024-07-16T10:30:24Z</time>
      </trkpt>
      <trkpt lat="42.46301" lon="2.91454">
        <ele>661.6</ele>
        <time>2024-07-16T10:30:34Z</time>
      </trkpt>
      <trkpt lat="42.463" lon="2.91451">
        <ele>666.4</ele>
        <time>2024-07-16T10:30:56Z</time>
      </trkpt>
      <trkpt lat="42.46301" lon="2.91444">
        <ele>667.6</ele>
        <time>2024-07-16T10:31:00Z</time>
      </trkpt>
      <trkpt lat="42.46315" lon="2.91431">
        <ele>668</ele>
        <time>2024-07-16T10:31:11Z</time>
      </trkpt>
      <trkpt lat="42.46328" lon="2.91424">
        <ele>666.4</ele>
        <time>2024-07-16T10:31:19Z</time>
      </trkpt>
      <trkpt lat="42.46344" lon="2.91412">
        <ele>666.4</ele>
        <time>2024-07-16T10:31:30Z</time>
      </trkpt>
      <trkpt lat="42.46355" lon="2.91406">
        <ele>664.6</ele>
        <time>2024-07-16T10:31:38Z</time>
      </trkpt>
      <trkpt lat="42.46361" lon="2.91404">
        <ele>662.6</ele>
        <time>2024-07-16T10:31:42Z</time>
      </trkpt>
      <trkpt lat="42.46363" lon="2.91402">
        <ele>662</ele>
        <time>2024-07-16T10:31:44Z</time>
      </trkpt>
      <trkpt lat="42.46365" lon="2.91402">
        <ele>661.6</ele>
        <time>2024-07-16T10:31:45Z</time>
      </trkpt>
      <trkpt lat="42.46374" lon="2.91398">
        <ele>659.2</ele>
        <time>2024-07-16T10:31:51Z</time>
      </trkpt>
      <trkpt lat="42.46387" lon="2.91393">
        <ele>658.2</ele>
        <time>2024-07-16T10:32:00Z</time>
      </trkpt>
      <trkpt lat="42.46404" lon="2.91389">
        <ele>657.8</ele>
        <time>2024-07-16T10:32:12Z</time>
      </trkpt>
      <trkpt lat="42.46412" lon="2.9139">
        <ele>657.6</ele>
        <time>2024-07-16T10:32:17Z</time>
      </trkpt>
      <trkpt lat="42.46416" lon="2.91389">
        <ele>657.6</ele>
        <time>2024-07-16T10:32:19Z</time>
      </trkpt>
      <trkpt lat="42.46429" lon="2.91394">
        <ele>659</ele>
        <time>2024-07-16T10:32:27Z</time>
      </trkpt>
      <trkpt lat="42.46439" lon="2.91404">
        <ele>659.8</ele>
        <time>2024-07-16T10:32:34Z</time>
      </trkpt>
      <trkpt lat="42.4645" lon="2.91413">
        <ele>658.4</ele>
        <time>2024-07-16T10:32:43Z</time>
      </trkpt>
      <trkpt lat="42.46461" lon="2.91422">
        <ele>657.6</ele>
        <time>2024-07-16T10:32:51Z</time>
      </trkpt>
      <trkpt lat="42.46474" lon="2.9143">
        <ele>653.8</ele>
        <time>2024-07-16T10:33:00Z</time>
      </trkpt>
      <trkpt lat="42.46477" lon="2.91432">
        <ele>653.2</ele>
        <time>2024-07-16T10:33:03Z</time>
      </trkpt>
      <trkpt lat="42.46478" lon="2.91432">
        <ele>652.8</ele>
        <time>2024-07-16T10:33:05Z</time>
      </trkpt>
      <trkpt lat="42.4649" lon="2.91432">
        <ele>652.8</ele>
        <time>2024-07-16T10:33:13Z</time>
      </trkpt>
      <trkpt lat="42.46503" lon="2.91436">
        <ele>653</ele>
        <time>2024-07-16T10:33:22Z</time>
      </trkpt>
      <trkpt lat="42.4651" lon="2.91441">
        <ele>651.2</ele>
        <time>2024-07-16T10:33:28Z</time>
      </trkpt>
      <trkpt lat="42.46512" lon="2.91446">
        <ele>649.8</ele>
        <time>2024-07-16T10:33:34Z</time>
      </trkpt>
      <trkpt lat="42.46515" lon="2.91452">
        <ele>650.2</ele>
        <time>2024-07-16T10:33:39Z</time>
      </trkpt>
      <trkpt lat="42.46519" lon="2.91459">
        <ele>650.6</ele>
        <time>2024-07-16T10:33:43Z</time>
      </trkpt>
      <trkpt lat="42.46522" lon="2.91458">
        <ele>649.8</ele>
        <time>2024-07-16T10:33:45Z</time>
      </trkpt>
      <trkpt lat="42.46522" lon="2.91459">
        <ele>649.2</ele>
        <time>2024-07-16T10:33:46Z</time>
      </trkpt>
      <trkpt lat="42.46522" lon="2.91461">
        <ele>648.8</ele>
        <time>2024-07-16T10:33:47Z</time>
      </trkpt>
      <trkpt lat="42.46526" lon="2.91471">
        <ele>647.6</ele>
        <time>2024-07-16T10:33:52Z</time>
      </trkpt>
      <trkpt lat="42.4653" lon="2.9148">
        <ele>648.6</ele>
        <time>2024-07-16T10:34:00Z</time>
      </trkpt>
      <trkpt lat="42.46533" lon="2.91489">
        <ele>648</ele>
        <time>2024-07-16T10:34:08Z</time>
      </trkpt>
      <trkpt lat="42.46535" lon="2.91497">
        <ele>648</ele>
        <time>2024-07-16T10:34:15Z</time>
      </trkpt>
      <trkpt lat="42.46537" lon="2.91501">
        <ele>648.2</ele>
        <time>2024-07-16T10:34:18Z</time>
      </trkpt>
      <trkpt lat="42.46539" lon="2.91505">
        <ele>648.8</ele>
        <time>2024-07-16T10:34:22Z</time>
      </trkpt>
      <trkpt lat="42.46542" lon="2.91517">
        <ele>651.2</ele>
        <time>2024-07-16T10:34:28Z</time>
      </trkpt>
      <trkpt lat="42.46542" lon="2.91518">
        <ele>652</ele>
        <time>2024-07-16T10:34:29Z</time>
      </trkpt>
      <trkpt lat="42.46543" lon="2.91518">
        <ele>660.2</ele>
        <time>2024-07-16T10:34:37Z</time>
      </trkpt>
      <trkpt lat="42.46545" lon="2.91522">
        <ele>664.4</ele>
        <time>2024-07-16T10:34:43Z</time>
      </trkpt>
      <trkpt lat="42.4655" lon="2.91519">
        <ele>667</ele>
        <time>2024-07-16T10:34:49Z</time>
      </trkpt>
      <trkpt lat="42.46554" lon="2.91514">
        <ele>669.6</ele>
        <time>2024-07-16T10:34:56Z</time>
      </trkpt>
      <trkpt lat="42.46557" lon="2.91505">
        <ele>671.2</ele>
        <time>2024-07-16T10:35:04Z</time>
      </trkpt>
      <trkpt lat="42.46558" lon="2.91504">
        <ele>671.4</ele>
        <time>2024-07-16T10:35:05Z</time>
      </trkpt>
      <trkpt lat="42.46559" lon="2.91499">
        <ele>671.4</ele>
        <time>2024-07-16T10:35:09Z</time>
      </trkpt>
      <trkpt lat="42.46559" lon="2.91493">
        <ele>670.2</ele>
        <time>2024-07-16T10:35:16Z</time>
      </trkpt>
      <trkpt lat="42.4656" lon="2.91492">
        <ele>669.8</ele>
        <time>2024-07-16T10:35:17Z</time>
      </trkpt>
      <trkpt lat="42.46559" lon="2.91486">
        <ele>668.8</ele>
        <time>2024-07-16T10:35:22Z</time>
      </trkpt>
      <trkpt lat="42.46559" lon="2.91478">
        <ele>667.8</ele>
        <time>2024-07-16T10:35:28Z</time>
      </trkpt>
      <trkpt lat="42.46561" lon="2.9147">
        <ele>667.2</ele>
        <time>2024-07-16T10:35:33Z</time>
      </trkpt>
      <trkpt lat="42.4656" lon="2.91468">
        <ele>667</ele>
        <time>2024-07-16T10:35:36Z</time>
      </trkpt>
      <trkpt lat="42.46564" lon="2.91458">
        <ele>667.4</ele>
        <time>2024-07-16T10:35:44Z</time>
      </trkpt>
      <trkpt lat="42.4657" lon="2.91452">
        <ele>669.4</ele>
        <time>2024-07-16T10:35:49Z</time>
      </trkpt>
      <trkpt lat="42.46571" lon="2.9145">
        <ele>670.6</ele>
        <time>2024-07-16T10:35:52Z</time>
      </trkpt>
      <trkpt lat="42.46574" lon="2.91449">
        <ele>671.6</ele>
        <time>2024-07-16T10:35:55Z</time>
      </trkpt>
      <trkpt lat="42.46577" lon="2.91449">
        <ele>672.4</ele>
        <time>2024-07-16T10:35:58Z</time>
      </trkpt>
      <trkpt lat="42.4658" lon="2.91453">
        <ele>673.4</ele>
        <time>2024-07-16T10:36:06Z</time>
      </trkpt>
      <trkpt lat="42.46584" lon="2.9146">
        <ele>675.2</ele>
        <time>2024-07-16T10:36:14Z</time>
      </trkpt>
      <trkpt lat="42.46587" lon="2.91464">
        <ele>674</ele>
        <time>2024-07-16T10:36:21Z</time>
      </trkpt>
      <trkpt lat="42.46591" lon="2.91461">
        <ele>675.4</ele>
        <time>2024-07-16T10:36:28Z</time>
      </trkpt>
      <trkpt lat="42.46593" lon="2.91452">
        <ele>677</ele>
        <time>2024-07-16T10:36:35Z</time>
      </trkpt>
      <trkpt lat="42.46599" lon="2.91445">
        <ele>677.8</ele>
        <time>2024-07-16T10:36:42Z</time>
      </trkpt>
      <trkpt lat="42.46604" lon="2.91439">
        <ele>682</ele>
        <time>2024-07-16T10:36:49Z</time>
      </trkpt>
      <trkpt lat="42.46605" lon="2.91439">
        <ele>683.4</ele>
        <time>2024-07-16T10:36:50Z</time>
      </trkpt>
      <trkpt lat="42.46606" lon="2.91445">
        <ele>687.2</ele>
        <time>2024-07-16T10:36:55Z</time>
      </trkpt>
      <trkpt lat="42.46603" lon="2.91457">
        <ele>687</ele>
        <time>2024-07-16T10:37:03Z</time>
      </trkpt>
      <trkpt lat="42.466" lon="2.91466">
        <ele>685</ele>
        <time>2024-07-16T10:37:09Z</time>
      </trkpt>
      <trkpt lat="42.46599" lon="2.91474">
        <ele>683.6</ele>
        <time>2024-07-16T10:37:12Z</time>
      </trkpt>
      <trkpt lat="42.466" lon="2.91475">
        <ele>683.2</ele>
        <time>2024-07-16T10:37:13Z</time>
      </trkpt>
      <trkpt lat="42.466" lon="2.91478">
        <ele>682.8</ele>
        <time>2024-07-16T10:37:15Z</time>
      </trkpt>
      <trkpt lat="42.466" lon="2.91484">
        <ele>682.6</ele>
        <time>2024-07-16T10:37:18Z</time>
      </trkpt>
      <trkpt lat="42.46603" lon="2.91494">
        <ele>682.4</ele>
        <time>2024-07-16T10:37:25Z</time>
      </trkpt>
      <trkpt lat="42.46604" lon="2.91508">
        <ele>686.6</ele>
        <time>2024-07-16T10:37:32Z</time>
      </trkpt>
      <trkpt lat="42.46607" lon="2.91521">
        <ele>688</ele>
        <time>2024-07-16T10:37:40Z</time>
      </trkpt>
      <trkpt lat="42.46608" lon="2.91522">
        <ele>688</ele>
        <time>2024-07-16T10:37:41Z</time>
      </trkpt>
      <trkpt lat="42.46612" lon="2.91526">
        <ele>687.6</ele>
        <time>2024-07-16T10:37:47Z</time>
      </trkpt>
      <trkpt lat="42.46612" lon="2.91529">
        <ele>687.8</ele>
        <time>2024-07-16T10:37:49Z</time>
      </trkpt>
      <trkpt lat="42.46613" lon="2.91536">
        <ele>690</ele>
        <time>2024-07-16T10:37:57Z</time>
      </trkpt>
      <trkpt lat="42.46618" lon="2.91535">
        <ele>691.2</ele>
        <time>2024-07-16T10:38:04Z</time>
      </trkpt>
      <trkpt lat="42.46621" lon="2.91539">
        <ele>693</ele>
        <time>2024-07-16T10:38:11Z</time>
      </trkpt>
      <trkpt lat="42.46624" lon="2.91537">
        <ele>696.6</ele>
        <time>2024-07-16T10:38:18Z</time>
      </trkpt>
      <trkpt lat="42.46628" lon="2.91533">
        <ele>697.8</ele>
        <time>2024-07-16T10:38:26Z</time>
      </trkpt>
      <trkpt lat="42.46629" lon="2.91526">
        <ele>697.8</ele>
        <time>2024-07-16T10:38:32Z</time>
      </trkpt>
      <trkpt lat="42.46628" lon="2.9152">
        <ele>697.6</ele>
        <time>2024-07-16T10:38:36Z</time>
      </trkpt>
      <trkpt lat="42.46629" lon="2.91512">
        <ele>697.6</ele>
        <time>2024-07-16T10:38:41Z</time>
      </trkpt>
      <trkpt lat="42.46631" lon="2.91505">
        <ele>697.8</ele>
        <time>2024-07-16T10:38:49Z</time>
      </trkpt>
      <trkpt lat="42.46636" lon="2.91499">
        <ele>698.6</ele>
        <time>2024-07-16T10:38:57Z</time>
      </trkpt>
      <trkpt lat="42.46635" lon="2.91492">
        <ele>700.4</ele>
        <time>2024-07-16T10:39:03Z</time>
      </trkpt>
      <trkpt lat="42.46638" lon="2.91479">
        <ele>702</ele>
        <time>2024-07-16T10:39:10Z</time>
      </trkpt>
      <trkpt lat="42.46641" lon="2.91473">
        <ele>703.2</ele>
        <time>2024-07-16T10:39:15Z</time>
      </trkpt>
      <trkpt lat="42.46643" lon="2.91471">
        <ele>703.4</ele>
        <time>2024-07-16T10:39:17Z</time>
      </trkpt>
      <trkpt lat="42.46645" lon="2.91468">
        <ele>703.4</ele>
        <time>2024-07-16T10:39:20Z</time>
      </trkpt>
      <trkpt lat="42.46649" lon="2.91464">
        <ele>703</ele>
        <time>2024-07-16T10:39:24Z</time>
      </trkpt>
      <trkpt lat="42.46653" lon="2.91464">
        <ele>705.2</ele>
        <time>2024-07-16T10:39:32Z</time>
      </trkpt>
      <trkpt lat="42.46657" lon="2.91464">
        <ele>706.8</ele>
        <time>2024-07-16T10:39:39Z</time>
      </trkpt>
      <trkpt lat="42.46661" lon="2.91465">
        <ele>708.8</ele>
        <time>2024-07-16T10:39:46Z</time>
      </trkpt>
      <trkpt lat="42.46665" lon="2.91465">
        <ele>711.6</ele>
        <time>2024-07-16T10:39:53Z</time>
      </trkpt>
      <trkpt lat="42.46667" lon="2.91464">
        <ele>713.4</ele>
        <time>2024-07-16T10:39:59Z</time>
      </trkpt>
      <trkpt lat="42.46669" lon="2.91466">
        <ele>714</ele>
        <time>2024-07-16T10:40:05Z</time>
      </trkpt>
      <trkpt lat="42.46675" lon="2.91464">
        <ele>714</ele>
        <time>2024-07-16T10:40:12Z</time>
      </trkpt>
      <trkpt lat="42.46679" lon="2.91462">
        <ele>716.2</ele>
        <time>2024-07-16T10:40:19Z</time>
      </trkpt>
      <trkpt lat="42.46683" lon="2.9146">
        <ele>718.2</ele>
        <time>2024-07-16T10:40:24Z</time>
      </trkpt>
      <trkpt lat="42.46688" lon="2.91453">
        <ele>719.8</ele>
        <time>2024-07-16T10:40:34Z</time>
      </trkpt>
      <trkpt lat="42.46691" lon="2.91449">
        <ele>724</ele>
        <time>2024-07-16T10:40:42Z</time>
      </trkpt>
      <trkpt lat="42.4669" lon="2.91451">
        <ele>725</ele>
        <time>2024-07-16T10:40:47Z</time>
      </trkpt>
      <trkpt lat="42.46691" lon="2.91449">
        <ele>727.2</ele>
        <time>2024-07-16T10:40:57Z</time>
      </trkpt>
      <trkpt lat="42.46696" lon="2.91438">
        <ele>728</ele>
        <time>2024-07-16T10:41:03Z</time>
      </trkpt>
      <trkpt lat="42.46697" lon="2.91435">
        <ele>728.4</ele>
        <time>2024-07-16T10:41:05Z</time>
      </trkpt>
      <trkpt lat="42.46702" lon="2.91431">
        <ele>728.8</ele>
        <time>2024-07-16T10:41:09Z</time>
      </trkpt>
      <trkpt lat="42.46702" lon="2.9143">
        <ele>728.8</ele>
        <time>2024-07-16T10:41:10Z</time>
      </trkpt>
      <trkpt lat="42.46715" lon="2.91419">
        <ele>727</ele>
        <time>2024-07-16T10:41:20Z</time>
      </trkpt>
      <trkpt lat="42.46718" lon="2.91417">
        <ele>725.8</ele>
        <time>2024-07-16T10:41:23Z</time>
      </trkpt>
      <trkpt lat="42.46723" lon="2.91411">
        <ele>724.6</ele>
        <time>2024-07-16T10:41:28Z</time>
      </trkpt>
      <trkpt lat="42.46732" lon="2.91401">
        <ele>725.4</ele>
        <time>2024-07-16T10:41:36Z</time>
      </trkpt>
      <trkpt lat="42.46733" lon="2.914">
        <ele>725.6</ele>
        <time>2024-07-16T10:41:37Z</time>
      </trkpt>
      <trkpt lat="42.46739" lon="2.91392">
        <ele>728.2</ele>
        <time>2024-07-16T10:41:43Z</time>
      </trkpt>
      <trkpt lat="42.46751" lon="2.91377">
        <ele>729.8</ele>
        <time>2024-07-16T10:41:54Z</time>
      </trkpt>
      <trkpt lat="42.46763" lon="2.91371">
        <ele>731</ele>
        <time>2024-07-16T10:42:02Z</time>
      </trkpt>
      <trkpt lat="42.46774" lon="2.91361">
        <ele>731.8</ele>
        <time>2024-07-16T10:42:12Z</time>
      </trkpt>
      <trkpt lat="42.46776" lon="2.9136">
        <ele>731.2</ele>
        <time>2024-07-16T10:42:14Z</time>
      </trkpt>
      <trkpt lat="42.46776" lon="2.91359">
        <ele>730.2</ele>
        <time>2024-07-16T10:42:17Z</time>
      </trkpt>
      <trkpt lat="42.46776" lon="2.91361">
        <ele>729</ele>
        <time>2024-07-16T10:42:23Z</time>
      </trkpt>
      <trkpt lat="42.46776" lon="2.91362">
        <ele>728.2</ele>
        <time>2024-07-16T10:42:33Z</time>
      </trkpt>
      <trkpt lat="42.4678" lon="2.91356">
        <ele>725.2</ele>
        <time>2024-07-16T10:43:19Z</time>
      </trkpt>
      <trkpt lat="42.46792" lon="2.9134">
        <ele>725.4</ele>
        <time>2024-07-16T10:43:30Z</time>
      </trkpt>
      <trkpt lat="42.46803" lon="2.9133">
        <ele>725.2</ele>
        <time>2024-07-16T10:43:38Z</time>
      </trkpt>
      <trkpt lat="42.46814" lon="2.9132">
        <ele>724.4</ele>
        <time>2024-07-16T10:43:46Z</time>
      </trkpt>
      <trkpt lat="42.46822" lon="2.91317">
        <ele>723.8</ele>
        <time>2024-07-16T10:43:52Z</time>
      </trkpt>
      <trkpt lat="42.46823" lon="2.91316">
        <ele>723.8</ele>
        <time>2024-07-16T10:43:53Z</time>
      </trkpt>
      <trkpt lat="42.4683" lon="2.91322">
        <ele>723.8</ele>
        <time>2024-07-16T10:44:01Z</time>
      </trkpt>
      <trkpt lat="42.46831" lon="2.91322">
        <ele>723.6</ele>
        <time>2024-07-16T10:44:02Z</time>
      </trkpt>
      <trkpt lat="42.46843" lon="2.91329">
        <ele>723.2</ele>
        <time>2024-07-16T10:44:10Z</time>
      </trkpt>
      <trkpt lat="42.46845" lon="2.91336">
        <ele>720.8</ele>
        <time>2024-07-16T10:44:15Z</time>
      </trkpt>
      <trkpt lat="42.46846" lon="2.91337">
        <ele>720.4</ele>
        <time>2024-07-16T10:44:16Z</time>
      </trkpt>
      <trkpt lat="42.46848" lon="2.91342">
        <ele>718.6</ele>
        <time>2024-07-16T10:44:22Z</time>
      </trkpt>
      <trkpt lat="42.46848" lon="2.91344">
        <ele>718.8</ele>
        <time>2024-07-16T10:44:23Z</time>
      </trkpt>
      <trkpt lat="42.46848" lon="2.91345">
        <ele>721</ele>
        <time>2024-07-16T10:44:28Z</time>
      </trkpt>
      <trkpt lat="42.46848" lon="2.91345">
        <ele>722.8</ele>
        <time>2024-07-16T10:44:35Z</time>
      </trkpt>
      <trkpt lat="42.46848" lon="2.91345">
        <ele>723</ele>
        <time>2024-07-16T10:45:01Z</time>
      </trkpt>
      <trkpt lat="42.46851" lon="2.91352">
        <ele>723.2</ele>
        <time>2024-07-16T10:45:08Z</time>
      </trkpt>
      <trkpt lat="42.46854" lon="2.91359">
        <ele>724.6</ele>
        <time>2024-07-16T10:45:15Z</time>
      </trkpt>
      <trkpt lat="42.46856" lon="2.91364">
        <ele>725.4</ele>
        <time>2024-07-16T10:45:21Z</time>
      </trkpt>
      <trkpt lat="42.46861" lon="2.9137">
        <ele>725.8</ele>
        <time>2024-07-16T10:45:29Z</time>
      </trkpt>
      <trkpt lat="42.46863" lon="2.91374">
        <ele>725.2</ele>
        <time>2024-07-16T10:45:35Z</time>
      </trkpt>
      <trkpt lat="42.46864" lon="2.91384">
        <ele>726.8</ele>
        <time>2024-07-16T10:45:44Z</time>
      </trkpt>
      <trkpt lat="42.46864" lon="2.91389">
        <ele>731.8</ele>
        <time>2024-07-16T10:45:51Z</time>
      </trkpt>
      <trkpt lat="42.46867" lon="2.91393">
        <ele>735.4</ele>
        <time>2024-07-16T10:45:59Z</time>
      </trkpt>
      <trkpt lat="42.46868" lon="2.91399">
        <ele>739.4</ele>
        <time>2024-07-16T10:46:06Z</time>
      </trkpt>
      <trkpt lat="42.4687" lon="2.91401">
        <ele>742.2</ele>
        <time>2024-07-16T10:46:13Z</time>
      </trkpt>
      <trkpt lat="42.46872" lon="2.91411">
        <ele>747.4</ele>
        <time>2024-07-16T10:46:20Z</time>
      </trkpt>
      <trkpt lat="42.46872" lon="2.91419">
        <ele>747.8</ele>
        <time>2024-07-16T10:46:27Z</time>
      </trkpt>
      <trkpt lat="42.46875" lon="2.91425">
        <ele>747.6</ele>
        <time>2024-07-16T10:46:33Z</time>
      </trkpt>
      <trkpt lat="42.46877" lon="2.9143">
        <ele>748.4</ele>
        <time>2024-07-16T10:46:38Z</time>
      </trkpt>
      <trkpt lat="42.46881" lon="2.91434">
        <ele>748.2</ele>
        <time>2024-07-16T10:46:45Z</time>
      </trkpt>
      <trkpt lat="42.46881" lon="2.91446">
        <ele>747</ele>
        <time>2024-07-16T10:46:49Z</time>
      </trkpt>
      <trkpt lat="42.46882" lon="2.91449">
        <ele>746.8</ele>
        <time>2024-07-16T10:46:51Z</time>
      </trkpt>
      <trkpt lat="42.46882" lon="2.91451">
        <ele>746.8</ele>
        <time>2024-07-16T10:46:52Z</time>
      </trkpt>
      <trkpt lat="42.46882" lon="2.91454">
        <ele>747.6</ele>
        <time>2024-07-16T10:46:56Z</time>
      </trkpt>
      <trkpt lat="42.46883" lon="2.91464">
        <ele>750</ele>
        <time>2024-07-16T10:47:02Z</time>
      </trkpt>
      <trkpt lat="42.46884" lon="2.91471">
        <ele>751.2</ele>
        <time>2024-07-16T10:47:07Z</time>
      </trkpt>
      <trkpt lat="42.46884" lon="2.91472">
        <ele>751.4</ele>
        <time>2024-07-16T10:47:08Z</time>
      </trkpt>
      <trkpt lat="42.46885" lon="2.91473">
        <ele>751.6</ele>
        <time>2024-07-16T10:47:10Z</time>
      </trkpt>
      <trkpt lat="42.46886" lon="2.91474">
        <ele>751.8</ele>
        <time>2024-07-16T10:47:12Z</time>
      </trkpt>
      <trkpt lat="42.46887" lon="2.91479">
        <ele>752.8</ele>
        <time>2024-07-16T10:47:18Z</time>
      </trkpt>
      <trkpt lat="42.46887" lon="2.91488">
        <ele>753.2</ele>
        <time>2024-07-16T10:47:26Z</time>
      </trkpt>
      <trkpt lat="42.46887" lon="2.91492">
        <ele>753.4</ele>
        <time>2024-07-16T10:47:32Z</time>
      </trkpt>
      <trkpt lat="42.46888" lon="2.91499">
        <ele>754.6</ele>
        <time>2024-07-16T10:47:39Z</time>
      </trkpt>
      <trkpt lat="42.46887" lon="2.91503">
        <ele>755.2</ele>
        <time>2024-07-16T10:47:47Z</time>
      </trkpt>
      <trkpt lat="42.46888" lon="2.91511">
        <ele>757.2</ele>
        <time>2024-07-16T10:47:54Z</time>
      </trkpt>
      <trkpt lat="42.46886" lon="2.91519">
        <ele>758.4</ele>
        <time>2024-07-16T10:48:00Z</time>
      </trkpt>
      <trkpt lat="42.46884" lon="2.91531">
        <ele>760.8</ele>
        <time>2024-07-16T10:48:08Z</time>
      </trkpt>
      <trkpt lat="42.46883" lon="2.9154">
        <ele>763.4</ele>
        <time>2024-07-16T10:48:17Z</time>
      </trkpt>
      <trkpt lat="42.4688" lon="2.91546">
        <ele>765</ele>
        <time>2024-07-16T10:48:23Z</time>
      </trkpt>
      <trkpt lat="42.46879" lon="2.91547">
        <ele>765.2</ele>
        <time>2024-07-16T10:48:24Z</time>
      </trkpt>
      <trkpt lat="42.4688" lon="2.91555">
        <ele>766</ele>
        <time>2024-07-16T10:48:30Z</time>
      </trkpt>
      <trkpt lat="42.46879" lon="2.91563">
        <ele>766.4</ele>
        <time>2024-07-16T10:48:35Z</time>
      </trkpt>
      <trkpt lat="42.46878" lon="2.91569">
        <ele>766.2</ele>
        <time>2024-07-16T10:48:41Z</time>
      </trkpt>
      <trkpt lat="42.46876" lon="2.91573">
        <ele>766.2</ele>
        <time>2024-07-16T10:48:46Z</time>
      </trkpt>
      <trkpt lat="42.46876" lon="2.91575">
        <ele>766.6</ele>
        <time>2024-07-16T10:48:47Z</time>
      </trkpt>
      <trkpt lat="42.46873" lon="2.91578">
        <ele>768</ele>
        <time>2024-07-16T10:48:52Z</time>
      </trkpt>
      <trkpt lat="42.46875" lon="2.9158">
        <ele>770</ele>
        <time>2024-07-16T10:49:00Z</time>
      </trkpt>
      <trkpt lat="42.46876" lon="2.91583">
        <ele>771.8</ele>
        <time>2024-07-16T10:49:04Z</time>
      </trkpt>
      <trkpt lat="42.46874" lon="2.91588">
        <ele>773.8</ele>
        <time>2024-07-16T10:49:09Z</time>
      </trkpt>
      <trkpt lat="42.46874" lon="2.91598">
        <ele>775</ele>
        <time>2024-07-16T10:49:16Z</time>
      </trkpt>
      <trkpt lat="42.46876" lon="2.91611">
        <ele>773.6</ele>
        <time>2024-07-16T10:49:26Z</time>
      </trkpt>
      <trkpt lat="42.46877" lon="2.91625">
        <ele>776.6</ele>
        <time>2024-07-16T10:49:36Z</time>
      </trkpt>
      <trkpt lat="42.4688" lon="2.91635">
        <ele>780</ele>
        <time>2024-07-16T10:49:46Z</time>
      </trkpt>
      <trkpt lat="42.46881" lon="2.9164">
        <ele>780.6</ele>
        <time>2024-07-16T10:49:50Z</time>
      </trkpt>
      <trkpt lat="42.46883" lon="2.91644">
        <ele>781</ele>
        <time>2024-07-16T10:49:55Z</time>
      </trkpt>
      <trkpt lat="42.46884" lon="2.91647">
        <ele>781.4</ele>
        <time>2024-07-16T10:50:00Z</time>
      </trkpt>
      <trkpt lat="42.46885" lon="2.91649">
        <ele>781.6</ele>
        <time>2024-07-16T10:50:02Z</time>
      </trkpt>
      <trkpt lat="42.46888" lon="2.91653">
        <ele>782.6</ele>
        <time>2024-07-16T10:50:06Z</time>
      </trkpt>
      <trkpt lat="42.46889" lon="2.91655">
        <ele>782.8</ele>
        <time>2024-07-16T10:50:08Z</time>
      </trkpt>
      <trkpt lat="42.4689" lon="2.91656">
        <ele>783</ele>
        <time>2024-07-16T10:50:09Z</time>
      </trkpt>
      <trkpt lat="42.4689" lon="2.91657">
        <ele>783.2</ele>
        <time>2024-07-16T10:50:10Z</time>
      </trkpt>
      <trkpt lat="42.46892" lon="2.91666">
        <ele>784</ele>
        <time>2024-07-16T10:50:16Z</time>
      </trkpt>
      <trkpt lat="42.46893" lon="2.91674">
        <ele>784</ele>
        <time>2024-07-16T10:50:24Z</time>
      </trkpt>
      <trkpt lat="42.46893" lon="2.91675">
        <ele>783.8</ele>
        <time>2024-07-16T10:50:25Z</time>
      </trkpt>
      <trkpt lat="42.46896" lon="2.91679">
        <ele>784</ele>
        <time>2024-07-16T10:50:29Z</time>
      </trkpt>
      <trkpt lat="42.469" lon="2.91686">
        <ele>785.8</ele>
        <time>2024-07-16T10:50:36Z</time>
      </trkpt>
      <trkpt lat="42.46901" lon="2.91688">
        <ele>786.4</ele>
        <time>2024-07-16T10:50:38Z</time>
      </trkpt>
      <trkpt lat="42.46902" lon="2.91691">
        <ele>787</ele>
        <time>2024-07-16T10:50:40Z</time>
      </trkpt>
      <trkpt lat="42.46903" lon="2.91692">
        <ele>787.2</ele>
        <time>2024-07-16T10:50:41Z</time>
      </trkpt>
      <trkpt lat="42.46905" lon="2.91696">
        <ele>789</ele>
        <time>2024-07-16T10:50:45Z</time>
      </trkpt>
      <trkpt lat="42.46906" lon="2.91698">
        <ele>789.6</ele>
        <time>2024-07-16T10:50:47Z</time>
      </trkpt>
      <trkpt lat="42.46906" lon="2.91699">
        <ele>789.8</ele>
        <time>2024-07-16T10:50:48Z</time>
      </trkpt>
      <trkpt lat="42.4691" lon="2.91705">
        <ele>790.6</ele>
        <time>2024-07-16T10:50:55Z</time>
      </trkpt>
      <trkpt lat="42.46914" lon="2.91712">
        <ele>792.6</ele>
        <time>2024-07-16T10:51:03Z</time>
      </trkpt>
      <trkpt lat="42.46923" lon="2.91723">
        <ele>795.4</ele>
        <time>2024-07-16T10:51:15Z</time>
      </trkpt>
      <trkpt lat="42.46927" lon="2.91734">
        <ele>798</ele>
        <time>2024-07-16T10:51:24Z</time>
      </trkpt>
      <trkpt lat="42.46929" lon="2.91741">
        <ele>798.6</ele>
        <time>2024-07-16T10:51:30Z</time>
      </trkpt>
      <trkpt lat="42.4693" lon="2.91742">
        <ele>798.6</ele>
        <time>2024-07-16T10:51:31Z</time>
      </trkpt>
      <trkpt lat="42.46934" lon="2.91752">
        <ele>800</ele>
        <time>2024-07-16T10:51:41Z</time>
      </trkpt>
      <trkpt lat="42.46937" lon="2.9176">
        <ele>801.6</ele>
        <time>2024-07-16T10:51:49Z</time>
      </trkpt>
      <trkpt lat="42.4694" lon="2.91764">
        <ele>802.8</ele>
        <time>2024-07-16T10:51:56Z</time>
      </trkpt>
      <trkpt lat="42.46944" lon="2.9177">
        <ele>803.8</ele>
        <time>2024-07-16T10:52:03Z</time>
      </trkpt>
      <trkpt lat="42.46948" lon="2.91776">
        <ele>805.4</ele>
        <time>2024-07-16T10:52:10Z</time>
      </trkpt>
      <trkpt lat="42.46949" lon="2.91783">
        <ele>808.4</ele>
        <time>2024-07-16T10:52:17Z</time>
      </trkpt>
      <trkpt lat="42.46951" lon="2.91792">
        <ele>811.2</ele>
        <time>2024-07-16T10:52:25Z</time>
      </trkpt>
      <trkpt lat="42.46951" lon="2.91796">
        <ele>813</ele>
        <time>2024-07-16T10:52:32Z</time>
      </trkpt>
      <trkpt lat="42.4695" lon="2.91795">
        <ele>814</ele>
        <time>2024-07-16T10:52:39Z</time>
      </trkpt>
      <trkpt lat="42.46951" lon="2.91799">
        <ele>815.4</ele>
        <time>2024-07-16T10:52:50Z</time>
      </trkpt>
      <trkpt lat="42.46955" lon="2.91807">
        <ele>816.6</ele>
        <time>2024-07-16T10:52:56Z</time>
      </trkpt>
      <trkpt lat="42.46957" lon="2.91818">
        <ele>819.8</ele>
        <time>2024-07-16T10:53:05Z</time>
      </trkpt>
      <trkpt lat="42.46957" lon="2.9182">
        <ele>820.4</ele>
        <time>2024-07-16T10:53:07Z</time>
      </trkpt>
      <trkpt lat="42.46959" lon="2.91826">
        <ele>821.6</ele>
        <time>2024-07-16T10:53:12Z</time>
      </trkpt>
      <trkpt lat="42.46961" lon="2.91827">
        <ele>821.8</ele>
        <time>2024-07-16T10:53:18Z</time>
      </trkpt>
      <trkpt lat="42.46963" lon="2.9183">
        <ele>822</ele>
        <time>2024-07-16T10:53:24Z</time>
      </trkpt>
      <trkpt lat="42.46966" lon="2.9184">
        <ele>821.8</ele>
        <time>2024-07-16T10:53:33Z</time>
      </trkpt>
      <trkpt lat="42.46968" lon="2.91851">
        <ele>823.2</ele>
        <time>2024-07-16T10:53:42Z</time>
      </trkpt>
      <trkpt lat="42.46969" lon="2.91856">
        <ele>824.2</ele>
        <time>2024-07-16T10:53:47Z</time>
      </trkpt>
      <trkpt lat="42.46969" lon="2.9186">
        <ele>824.6</ele>
        <time>2024-07-16T10:53:50Z</time>
      </trkpt>
      <trkpt lat="42.46972" lon="2.91871">
        <ele>825.2</ele>
        <time>2024-07-16T10:53:59Z</time>
      </trkpt>
      <trkpt lat="42.46976" lon="2.91884">
        <ele>826.8</ele>
        <time>2024-07-16T10:54:09Z</time>
      </trkpt>
      <trkpt lat="42.4698" lon="2.91897">
        <ele>829.4</ele>
        <time>2024-07-16T10:54:19Z</time>
      </trkpt>
      <trkpt lat="42.46984" lon="2.91911">
        <ele>831.8</ele>
        <time>2024-07-16T10:54:29Z</time>
      </trkpt>
      <trkpt lat="42.46989" lon="2.91926">
        <ele>833.8</ele>
        <time>2024-07-16T10:54:40Z</time>
      </trkpt>
      <trkpt lat="42.46995" lon="2.91934">
        <ele>834.6</ele>
        <time>2024-07-16T10:54:49Z</time>
      </trkpt>
      <trkpt lat="42.47" lon="2.91941">
        <ele>835.4</ele>
        <time>2024-07-16T10:54:56Z</time>
      </trkpt>
      <trkpt lat="42.47004" lon="2.91949">
        <ele>837</ele>
        <time>2024-07-16T10:55:03Z</time>
      </trkpt>
      <trkpt lat="42.47005" lon="2.9195">
        <ele>837.2</ele>
        <time>2024-07-16T10:55:04Z</time>
      </trkpt>
      <trkpt lat="42.4701" lon="2.91959">
        <ele>840.4</ele>
        <time>2024-07-16T10:55:12Z</time>
      </trkpt>
      <trkpt lat="42.47012" lon="2.91967">
        <ele>841.6</ele>
        <time>2024-07-16T10:55:18Z</time>
      </trkpt>
      <trkpt lat="42.47016" lon="2.91977">
        <ele>842.4</ele>
        <time>2024-07-16T10:55:26Z</time>
      </trkpt>
      <trkpt lat="42.47016" lon="2.91978">
        <ele>842.6</ele>
        <time>2024-07-16T10:55:27Z</time>
      </trkpt>
      <trkpt lat="42.47018" lon="2.91984">
        <ele>843.4</ele>
        <time>2024-07-16T10:55:32Z</time>
      </trkpt>
      <trkpt lat="42.47024" lon="2.91995">
        <ele>845.2</ele>
        <time>2024-07-16T10:55:41Z</time>
      </trkpt>
      <trkpt lat="42.47032" lon="2.92002">
        <ele>847.2</ele>
        <time>2024-07-16T10:55:50Z</time>
      </trkpt>
      <trkpt lat="42.47035" lon="2.92006">
        <ele>847.6</ele>
        <time>2024-07-16T10:55:54Z</time>
      </trkpt>
      <trkpt lat="42.47039" lon="2.92009">
        <ele>848</ele>
        <time>2024-07-16T10:55:58Z</time>
      </trkpt>
      <trkpt lat="42.47043" lon="2.9202">
        <ele>848.4</ele>
        <time>2024-07-16T10:56:07Z</time>
      </trkpt>
      <trkpt lat="42.47043" lon="2.92022">
        <ele>848.6</ele>
        <time>2024-07-16T10:56:08Z</time>
      </trkpt>
      <trkpt lat="42.47045" lon="2.92027">
        <ele>849.6</ele>
        <time>2024-07-16T10:56:13Z</time>
      </trkpt>
      <trkpt lat="42.47046" lon="2.9203">
        <ele>850.2</ele>
        <time>2024-07-16T10:56:16Z</time>
      </trkpt>
      <trkpt lat="42.47046" lon="2.92031">
        <ele>850.6</ele>
        <time>2024-07-16T10:56:17Z</time>
      </trkpt>
      <trkpt lat="42.47047" lon="2.92036">
        <ele>852.6</ele>
        <time>2024-07-16T10:56:22Z</time>
      </trkpt>
      <trkpt lat="42.47049" lon="2.92041">
        <ele>853.6</ele>
        <time>2024-07-16T10:56:26Z</time>
      </trkpt>
      <trkpt lat="42.4705" lon="2.92042">
        <ele>854.2</ele>
        <time>2024-07-16T10:56:28Z</time>
      </trkpt>
      <trkpt lat="42.47057" lon="2.92049">
        <ele>857.6</ele>
        <time>2024-07-16T10:56:38Z</time>
      </trkpt>
      <trkpt lat="42.4706" lon="2.92051">
        <ele>858</ele>
        <time>2024-07-16T10:56:41Z</time>
      </trkpt>
      <trkpt lat="42.47061" lon="2.92054">
        <ele>858.2</ele>
        <time>2024-07-16T10:56:44Z</time>
      </trkpt>
      <trkpt lat="42.47062" lon="2.92059">
        <ele>858.2</ele>
        <time>2024-07-16T10:56:50Z</time>
      </trkpt>
      <trkpt lat="42.47061" lon="2.92063">
        <ele>858.6</ele>
        <time>2024-07-16T10:56:58Z</time>
      </trkpt>
      <trkpt lat="42.47061" lon="2.92063">
        <ele>860</ele>
        <time>2024-07-16T10:57:08Z</time>
      </trkpt>
      <trkpt lat="42.47063" lon="2.92069">
        <ele>860.4</ele>
        <time>2024-07-16T10:57:41Z</time>
      </trkpt>
      <trkpt lat="42.47069" lon="2.92081">
        <ele>863.4</ele>
        <time>2024-07-16T10:57:50Z</time>
      </trkpt>
      <trkpt lat="42.47073" lon="2.92085">
        <ele>864.4</ele>
        <time>2024-07-16T10:57:55Z</time>
      </trkpt>
      <trkpt lat="42.47075" lon="2.92088">
        <ele>866.2</ele>
        <time>2024-07-16T10:57:59Z</time>
      </trkpt>
      <trkpt lat="42.47077" lon="2.921">
        <ele>868.6</ele>
        <time>2024-07-16T10:58:08Z</time>
      </trkpt>
      <trkpt lat="42.47077" lon="2.92113">
        <ele>869.6</ele>
        <time>2024-07-16T10:58:18Z</time>
      </trkpt>
      <trkpt lat="42.47078" lon="2.92115">
        <ele>869.6</ele>
        <time>2024-07-16T10:58:19Z</time>
      </trkpt>
      <trkpt lat="42.47079" lon="2.92124">
        <ele>870.6</ele>
        <time>2024-07-16T10:58:27Z</time>
      </trkpt>
      <trkpt lat="42.47079" lon="2.92126">
        <ele>870.6</ele>
        <time>2024-07-16T10:58:28Z</time>
      </trkpt>
      <trkpt lat="42.47079" lon="2.92133">
        <ele>871.6</ele>
        <time>2024-07-16T10:58:33Z</time>
      </trkpt>
      <trkpt lat="42.47081" lon="2.92147">
        <ele>872.2</ele>
        <time>2024-07-16T10:58:43Z</time>
      </trkpt>
      <trkpt lat="42.47088" lon="2.92157">
        <ele>872</ele>
        <time>2024-07-16T10:58:52Z</time>
      </trkpt>
      <trkpt lat="42.47093" lon="2.92168">
        <ele>872.8</ele>
        <time>2024-07-16T10:59:00Z</time>
      </trkpt>
      <trkpt lat="42.47095" lon="2.92183">
        <ele>874.8</ele>
        <time>2024-07-16T10:59:11Z</time>
      </trkpt>
      <trkpt lat="42.47095" lon="2.92184">
        <ele>875.8</ele>
        <time>2024-07-16T10:59:18Z</time>
      </trkpt>
      <trkpt lat="42.47093" lon="2.92188">
        <ele>876.8</ele>
        <time>2024-07-16T11:10:37Z</time>
      </trkpt>
      <trkpt lat="42.47095" lon="2.92204">
        <ele>877.2</ele>
        <time>2024-07-16T11:10:47Z</time>
      </trkpt>
      <trkpt lat="42.47099" lon="2.92215">
        <ele>877.8</ele>
        <time>2024-07-16T11:10:57Z</time>
      </trkpt>
      <trkpt lat="42.47101" lon="2.92226">
        <ele>879.8</ele>
        <time>2024-07-16T11:11:06Z</time>
      </trkpt>
      <trkpt lat="42.47104" lon="2.92239">
        <ele>881.8</ele>
        <time>2024-07-16T11:11:17Z</time>
      </trkpt>
      <trkpt lat="42.47106" lon="2.92249">
        <ele>883.6</ele>
        <time>2024-07-16T11:11:26Z</time>
      </trkpt>
      <trkpt lat="42.47109" lon="2.92263">
        <ele>886</ele>
        <time>2024-07-16T11:11:39Z</time>
      </trkpt>
      <trkpt lat="42.47112" lon="2.92271">
        <ele>887</ele>
        <time>2024-07-16T11:11:46Z</time>
      </trkpt>
      <trkpt lat="42.47115" lon="2.92282">
        <ele>890.2</ele>
        <time>2024-07-16T11:11:57Z</time>
      </trkpt>
      <trkpt lat="42.47117" lon="2.9229">
        <ele>891.6</ele>
        <time>2024-07-16T11:12:04Z</time>
      </trkpt>
      <trkpt lat="42.47119" lon="2.92299">
        <ele>892</ele>
        <time>2024-07-16T11:12:12Z</time>
      </trkpt>
      <trkpt lat="42.47121" lon="2.92307">
        <ele>892.4</ele>
        <time>2024-07-16T11:12:19Z</time>
      </trkpt>
      <trkpt lat="42.47122" lon="2.92308">
        <ele>892.6</ele>
        <time>2024-07-16T11:12:20Z</time>
      </trkpt>
      <trkpt lat="42.47125" lon="2.92315">
        <ele>897</ele>
        <time>2024-07-16T11:12:28Z</time>
      </trkpt>
      <trkpt lat="42.47125" lon="2.92323">
        <ele>899.6</ele>
        <time>2024-07-16T11:12:36Z</time>
      </trkpt>
      <trkpt lat="42.47128" lon="2.92327">
        <ele>901.2</ele>
        <time>2024-07-16T11:12:44Z</time>
      </trkpt>
      <trkpt lat="42.47129" lon="2.92327">
        <ele>901.2</ele>
        <time>2024-07-16T11:12:49Z</time>
      </trkpt>
      <trkpt lat="42.47129" lon="2.92325">
        <ele>902.4</ele>
        <time>2024-07-16T11:12:55Z</time>
      </trkpt>
      <trkpt lat="42.47131" lon="2.92327">
        <ele>905.2</ele>
        <time>2024-07-16T11:13:10Z</time>
      </trkpt>
      <trkpt lat="42.47136" lon="2.92332">
        <ele>905.4</ele>
        <time>2024-07-16T11:13:15Z</time>
      </trkpt>
      <trkpt lat="42.47146" lon="2.92338">
        <ele>907.6</ele>
        <time>2024-07-16T11:13:23Z</time>
      </trkpt>
      <trkpt lat="42.47157" lon="2.92342">
        <ele>907.6</ele>
        <time>2024-07-16T11:13:32Z</time>
      </trkpt>
      <trkpt lat="42.47165" lon="2.92348">
        <ele>907.4</ele>
        <time>2024-07-16T11:13:40Z</time>
      </trkpt>
      <trkpt lat="42.47174" lon="2.92351">
        <ele>907.6</ele>
        <time>2024-07-16T11:13:48Z</time>
      </trkpt>
      <trkpt lat="42.47185" lon="2.92359">
        <ele>910.2</ele>
        <time>2024-07-16T11:13:57Z</time>
      </trkpt>
      <trkpt lat="42.47193" lon="2.92367">
        <ele>912.6</ele>
        <time>2024-07-16T11:14:04Z</time>
      </trkpt>
      <trkpt lat="42.47196" lon="2.92372">
        <ele>914.4</ele>
        <time>2024-07-16T11:14:10Z</time>
      </trkpt>
      <trkpt lat="42.47196" lon="2.92369">
        <ele>915.4</ele>
        <time>2024-07-16T11:14:15Z</time>
      </trkpt>
      <trkpt lat="42.47197" lon="2.92368">
        <ele>917.4</ele>
        <time>2024-07-16T11:14:20Z</time>
      </trkpt>
      <trkpt lat="42.47197" lon="2.92368">
        <ele>920.6</ele>
        <time>2024-07-16T11:14:33Z</time>
      </trkpt>
      <trkpt lat="42.47195" lon="2.92372">
        <ele>919</ele>
        <time>2024-07-16T11:15:03Z</time>
      </trkpt>
      <trkpt lat="42.47197" lon="2.92376">
        <ele>919</ele>
        <time>2024-07-16T11:15:07Z</time>
      </trkpt>
      <trkpt lat="42.47197" lon="2.92377">
        <ele>919</ele>
        <time>2024-07-16T11:15:11Z</time>
      </trkpt>
      <trkpt lat="42.47197" lon="2.92378">
        <ele>919.2</ele>
        <time>2024-07-16T11:15:15Z</time>
      </trkpt>
      <trkpt lat="42.47197" lon="2.92378">
        <ele>920</ele>
        <time>2024-07-16T11:15:21Z</time>
      </trkpt>
      <trkpt lat="42.47199" lon="2.9238">
        <ele>920.6</ele>
        <time>2024-07-16T11:15:26Z</time>
      </trkpt>
      <trkpt lat="42.472" lon="2.92377">
        <ele>922.6</ele>
        <time>2024-07-16T11:15:32Z</time>
      </trkpt>
      <trkpt lat="42.472" lon="2.92373">
        <ele>925.6</ele>
        <time>2024-07-16T11:15:37Z</time>
      </trkpt>
      <trkpt lat="42.47202" lon="2.92375">
        <ele>928.6</ele>
        <time>2024-07-16T11:15:43Z</time>
      </trkpt>
      <trkpt lat="42.47202" lon="2.92381">
        <ele>930</ele>
        <time>2024-07-16T11:15:50Z</time>
      </trkpt>
      <trkpt lat="42.47202" lon="2.92383">
        <ele>929.4</ele>
        <time>2024-07-16T11:15:56Z</time>
      </trkpt>
      <trkpt lat="42.47204" lon="2.9239">
        <ele>930.8</ele>
        <time>2024-07-16T11:16:03Z</time>
      </trkpt>
      <trkpt lat="42.47205" lon="2.92394">
        <ele>930.6</ele>
        <time>2024-07-16T11:16:08Z</time>
      </trkpt>
      <trkpt lat="42.47205" lon="2.92398">
        <ele>930.6</ele>
        <time>2024-07-16T11:16:13Z</time>
      </trkpt>
      <trkpt lat="42.47207" lon="2.92397">
        <ele>930.8</ele>
        <time>2024-07-16T11:16:18Z</time>
      </trkpt>
      <trkpt lat="42.47216" lon="2.92399">
        <ele>930.6</ele>
        <time>2024-07-16T11:16:25Z</time>
      </trkpt>
      <trkpt lat="42.47218" lon="2.92405">
        <ele>932.4</ele>
        <time>2024-07-16T11:16:31Z</time>
      </trkpt>
      <trkpt lat="42.47219" lon="2.92404">
        <ele>932.6</ele>
        <time>2024-07-16T11:16:32Z</time>
      </trkpt>
      <trkpt lat="42.47222" lon="2.92406">
        <ele>933.6</ele>
        <time>2024-07-16T11:16:35Z</time>
      </trkpt>
      <trkpt lat="42.47221" lon="2.92409">
        <ele>935.2</ele>
        <time>2024-07-16T11:16:40Z</time>
      </trkpt>
      <trkpt lat="42.47225" lon="2.92412">
        <ele>938.2</ele>
        <time>2024-07-16T11:16:46Z</time>
      </trkpt>
      <trkpt lat="42.47227" lon="2.92415">
        <ele>940.6</ele>
        <time>2024-07-16T11:16:51Z</time>
      </trkpt>
      <trkpt lat="42.47231" lon="2.92417">
        <ele>940.4</ele>
        <time>2024-07-16T11:16:58Z</time>
      </trkpt>
      <trkpt lat="42.47233" lon="2.92426">
        <ele>940.6</ele>
        <time>2024-07-16T11:17:07Z</time>
      </trkpt>
      <trkpt lat="42.47234" lon="2.92436">
        <ele>939.2</ele>
        <time>2024-07-16T11:17:14Z</time>
      </trkpt>
      <trkpt lat="42.47234" lon="2.9244">
        <ele>936.2</ele>
        <time>2024-07-16T11:17:20Z</time>
      </trkpt>
      <trkpt lat="42.47233" lon="2.92446">
        <ele>934.4</ele>
        <time>2024-07-16T11:17:27Z</time>
      </trkpt>
      <trkpt lat="42.47234" lon="2.92446">
        <ele>934.6</ele>
        <time>2024-07-16T11:17:32Z</time>
      </trkpt>
      <trkpt lat="42.47236" lon="2.92447">
        <ele>936.2</ele>
        <time>2024-07-16T11:17:37Z</time>
      </trkpt>
      <trkpt lat="42.47239" lon="2.9245">
        <ele>941.8</ele>
        <time>2024-07-16T11:17:44Z</time>
      </trkpt>
      <trkpt lat="42.4724" lon="2.92457">
        <ele>946.6</ele>
        <time>2024-07-16T11:17:51Z</time>
      </trkpt>
      <trkpt lat="42.47239" lon="2.92466">
        <ele>947.4</ele>
        <time>2024-07-16T11:17:56Z</time>
      </trkpt>
      <trkpt lat="42.47237" lon="2.92468">
        <ele>945.4</ele>
        <time>2024-07-16T11:18:01Z</time>
      </trkpt>
      <trkpt lat="42.47236" lon="2.9247">
        <ele>945</ele>
        <time>2024-07-16T11:18:06Z</time>
      </trkpt>
      <trkpt lat="42.47234" lon="2.92474">
        <ele>945.8</ele>
        <time>2024-07-16T11:18:13Z</time>
      </trkpt>
      <trkpt lat="42.47234" lon="2.92475">
        <ele>946.6</ele>
        <time>2024-07-16T11:18:19Z</time>
      </trkpt>
      <trkpt lat="42.47236" lon="2.92479">
        <ele>949.6</ele>
        <time>2024-07-16T11:18:24Z</time>
      </trkpt>
      <trkpt lat="42.47237" lon="2.92481">
        <ele>952.4</ele>
        <time>2024-07-16T11:18:29Z</time>
      </trkpt>
      <trkpt lat="42.47239" lon="2.92483">
        <ele>954.8</ele>
        <time>2024-07-16T11:18:36Z</time>
      </trkpt>
      <trkpt lat="42.47242" lon="2.92487">
        <ele>958.2</ele>
        <time>2024-07-16T11:18:42Z</time>
      </trkpt>
      <trkpt lat="42.47242" lon="2.92492">
        <ele>961.4</ele>
        <time>2024-07-16T11:18:48Z</time>
      </trkpt>
      <trkpt lat="42.47245" lon="2.92498">
        <ele>963.4</ele>
        <time>2024-07-16T11:18:56Z</time>
      </trkpt>
      <trkpt lat="42.47247" lon="2.925">
        <ele>964.2</ele>
        <time>2024-07-16T11:19:01Z</time>
      </trkpt>
      <trkpt lat="42.47249" lon="2.92507">
        <ele>964.8</ele>
        <time>2024-07-16T11:19:08Z</time>
      </trkpt>
      <trkpt lat="42.47246" lon="2.92509">
        <ele>964.4</ele>
        <time>2024-07-16T11:19:16Z</time>
      </trkpt>
      <trkpt lat="42.47245" lon="2.92512">
        <ele>963.6</ele>
        <time>2024-07-16T11:19:22Z</time>
      </trkpt>
      <trkpt lat="42.47244" lon="2.92514">
        <ele>963.6</ele>
        <time>2024-07-16T11:19:27Z</time>
      </trkpt>
      <trkpt lat="42.47246" lon="2.92518">
        <ele>963.6</ele>
        <time>2024-07-16T11:19:32Z</time>
      </trkpt>
      <trkpt lat="42.47247" lon="2.92523">
        <ele>965</ele>
        <time>2024-07-16T11:19:38Z</time>
      </trkpt>
      <trkpt lat="42.47248" lon="2.92526">
        <ele>965.4</ele>
        <time>2024-07-16T11:19:43Z</time>
      </trkpt>
      <trkpt lat="42.47251" lon="2.9253">
        <ele>965.4</ele>
        <time>2024-07-16T11:19:50Z</time>
      </trkpt>
      <trkpt lat="42.47254" lon="2.92533">
        <ele>966.6</ele>
        <time>2024-07-16T11:19:55Z</time>
      </trkpt>
      <trkpt lat="42.47257" lon="2.9254">
        <ele>968</ele>
        <time>2024-07-16T11:20:00Z</time>
      </trkpt>
      <trkpt lat="42.47258" lon="2.92543">
        <ele>968.4</ele>
        <time>2024-07-16T11:20:06Z</time>
      </trkpt>
      <trkpt lat="42.47259" lon="2.92547">
        <ele>968.8</ele>
        <time>2024-07-16T11:20:12Z</time>
      </trkpt>
      <trkpt lat="42.47265" lon="2.9255">
        <ele>969.4</ele>
        <time>2024-07-16T11:20:19Z</time>
      </trkpt>
      <trkpt lat="42.47265" lon="2.9255">
        <ele>970.2</ele>
        <time>2024-07-16T11:20:30Z</time>
      </trkpt>
      <trkpt lat="42.47265" lon="2.92551">
        <ele>970</ele>
        <time>2024-07-16T11:20:39Z</time>
      </trkpt>
      <trkpt lat="42.47264" lon="2.92558">
        <ele>970.2</ele>
        <time>2024-07-16T11:20:48Z</time>
      </trkpt>
      <trkpt lat="42.47262" lon="2.92563">
        <ele>969</ele>
        <time>2024-07-16T11:20:53Z</time>
      </trkpt>
      <trkpt lat="42.4726" lon="2.92566">
        <ele>966.8</ele>
        <time>2024-07-16T11:20:58Z</time>
      </trkpt>
      <trkpt lat="42.47259" lon="2.92569">
        <ele>966</ele>
        <time>2024-07-16T11:21:04Z</time>
      </trkpt>
      <trkpt lat="42.47256" lon="2.92573">
        <ele>967.4</ele>
        <time>2024-07-16T11:21:13Z</time>
      </trkpt>
      <trkpt lat="42.47255" lon="2.92575">
        <ele>968.8</ele>
        <time>2024-07-16T11:21:18Z</time>
      </trkpt>
      <trkpt lat="42.47255" lon="2.92578">
        <ele>969.6</ele>
        <time>2024-07-16T11:21:25Z</time>
      </trkpt>
      <trkpt lat="42.47255" lon="2.9258">
        <ele>971.6</ele>
        <time>2024-07-16T11:21:30Z</time>
      </trkpt>
      <trkpt lat="42.47253" lon="2.92587">
        <ele>975.6</ele>
        <time>2024-07-16T11:21:39Z</time>
      </trkpt>
      <trkpt lat="42.47251" lon="2.92592">
        <ele>975.6</ele>
        <time>2024-07-16T11:21:45Z</time>
      </trkpt>
      <trkpt lat="42.4725" lon="2.92593">
        <ele>975.6</ele>
        <time>2024-07-16T11:21:50Z</time>
      </trkpt>
      <trkpt lat="42.47251" lon="2.92594">
        <ele>976.2</ele>
        <time>2024-07-16T11:21:55Z</time>
      </trkpt>
      <trkpt lat="42.47248" lon="2.92596">
        <ele>978.4</ele>
        <time>2024-07-16T11:22:00Z</time>
      </trkpt>
      <trkpt lat="42.47248" lon="2.92596">
        <ele>981.8</ele>
        <time>2024-07-16T11:22:07Z</time>
      </trkpt>
      <trkpt lat="42.47246" lon="2.92601">
        <ele>982.4</ele>
        <time>2024-07-16T11:22:20Z</time>
      </trkpt>
      <trkpt lat="42.47245" lon="2.92603">
        <ele>983.4</ele>
        <time>2024-07-16T11:22:25Z</time>
      </trkpt>
      <trkpt lat="42.47249" lon="2.92606">
        <ele>986.6</ele>
        <time>2024-07-16T11:22:31Z</time>
      </trkpt>
      <trkpt lat="42.47253" lon="2.92609">
        <ele>988.4</ele>
        <time>2024-07-16T11:22:38Z</time>
      </trkpt>
      <trkpt lat="42.47253" lon="2.9261">
        <ele>990.6</ele>
        <time>2024-07-16T11:22:44Z</time>
      </trkpt>
      <trkpt lat="42.47253" lon="2.92609">
        <ele>992.8</ele>
        <time>2024-07-16T11:22:49Z</time>
      </trkpt>
      <trkpt lat="42.47254" lon="2.92608">
        <ele>994</ele>
        <time>2024-07-16T11:22:56Z</time>
      </trkpt>
      <trkpt lat="42.47253" lon="2.92612">
        <ele>996</ele>
        <time>2024-07-16T11:23:03Z</time>
      </trkpt>
      <trkpt lat="42.47253" lon="2.92617">
        <ele>996.6</ele>
        <time>2024-07-16T11:23:09Z</time>
      </trkpt>
      <trkpt lat="42.47253" lon="2.92617">
        <ele>996.6</ele>
        <time>2024-07-16T11:23:19Z</time>
      </trkpt>
      <trkpt lat="42.47254" lon="2.9262">
        <ele>996.6</ele>
        <time>2024-07-16T11:23:25Z</time>
      </trkpt>
      <trkpt lat="42.47254" lon="2.92629">
        <ele>998</ele>
        <time>2024-07-16T11:23:31Z</time>
      </trkpt>
      <trkpt lat="42.47255" lon="2.92636">
        <ele>999.8</ele>
        <time>2024-07-16T11:23:38Z</time>
      </trkpt>
      <trkpt lat="42.47254" lon="2.92642">
        <ele>1000.8</ele>
        <time>2024-07-16T11:23:43Z</time>
      </trkpt>
      <trkpt lat="42.47255" lon="2.92645">
        <ele>1003.2</ele>
        <time>2024-07-16T11:23:48Z</time>
      </trkpt>
      <trkpt lat="42.47258" lon="2.92647">
        <ele>1005.6</ele>
        <time>2024-07-16T11:23:52Z</time>
      </trkpt>
      <trkpt lat="42.47261" lon="2.92657">
        <ele>1008.8</ele>
        <time>2024-07-16T11:23:59Z</time>
      </trkpt>
      <trkpt lat="42.47258" lon="2.92662">
        <ele>1009.8</ele>
        <time>2024-07-16T11:24:06Z</time>
      </trkpt>
      <trkpt lat="42.47261" lon="2.92667">
        <ele>1010.4</ele>
        <time>2024-07-16T11:24:11Z</time>
      </trkpt>
      <trkpt lat="42.47261" lon="2.92671">
        <ele>1011.4</ele>
        <time>2024-07-16T11:24:15Z</time>
      </trkpt>
      <trkpt lat="42.47262" lon="2.92676">
        <ele>1012</ele>
        <time>2024-07-16T11:24:20Z</time>
      </trkpt>
      <trkpt lat="42.47265" lon="2.9268">
        <ele>1012.2</ele>
        <time>2024-07-16T11:24:26Z</time>
      </trkpt>
      <trkpt lat="42.4727" lon="2.92685">
        <ele>1015.6</ele>
        <time>2024-07-16T11:24:35Z</time>
      </trkpt>
      <trkpt lat="42.4727" lon="2.92688">
        <ele>1017</ele>
        <time>2024-07-16T11:24:39Z</time>
      </trkpt>
      <trkpt lat="42.47273" lon="2.92693">
        <ele>1017.8</ele>
        <time>2024-07-16T11:24:46Z</time>
      </trkpt>
      <trkpt lat="42.47274" lon="2.92692">
        <ele>1018.2</ele>
        <time>2024-07-16T11:24:53Z</time>
      </trkpt>
      <trkpt lat="42.47274" lon="2.92692">
        <ele>1018.6</ele>
        <time>2024-07-16T11:25:03Z</time>
      </trkpt>
      <trkpt lat="42.47274" lon="2.92712">
        <ele>1018.4</ele>
        <time>2024-07-16T11:25:42Z</time>
      </trkpt>
      <trkpt lat="42.47274" lon="2.9272">
        <ele>1020.4</ele>
        <time>2024-07-16T11:25:49Z</time>
      </trkpt>
      <trkpt lat="42.47275" lon="2.92723">
        <ele>1021.6</ele>
        <time>2024-07-16T11:25:55Z</time>
      </trkpt>
      <trkpt lat="42.47273" lon="2.92726">
        <ele>1022.8</ele>
        <time>2024-07-16T11:26:01Z</time>
      </trkpt>
      <trkpt lat="42.47273" lon="2.92729">
        <ele>1023.4</ele>
        <time>2024-07-16T11:26:07Z</time>
      </trkpt>
      <trkpt lat="42.47276" lon="2.92733">
        <ele>1025.2</ele>
        <time>2024-07-16T11:26:14Z</time>
      </trkpt>
      <trkpt lat="42.47275" lon="2.92734">
        <ele>1026.6</ele>
        <time>2024-07-16T11:26:20Z</time>
      </trkpt>
      <trkpt lat="42.47276" lon="2.92734">
        <ele>1026.2</ele>
        <time>2024-07-16T11:26:29Z</time>
      </trkpt>
      <trkpt lat="42.47276" lon="2.92734">
        <ele>1028.4</ele>
        <time>2024-07-16T11:26:35Z</time>
      </trkpt>
      <trkpt lat="42.47275" lon="2.9274">
        <ele>1029</ele>
        <time>2024-07-16T11:27:15Z</time>
      </trkpt>
      <trkpt lat="42.47274" lon="2.92739">
        <ele>1028.8</ele>
        <time>2024-07-16T11:27:20Z</time>
      </trkpt>
      <trkpt lat="42.47272" lon="2.92739">
        <ele>1030</ele>
        <time>2024-07-16T11:27:26Z</time>
      </trkpt>
      <trkpt lat="42.4727" lon="2.92741">
        <ele>1030.2</ele>
        <time>2024-07-16T11:27:34Z</time>
      </trkpt>
      <trkpt lat="42.4727" lon="2.92742">
        <ele>1031.2</ele>
        <time>2024-07-16T11:27:53Z</time>
      </trkpt>
      <trkpt lat="42.47257" lon="2.92756">
        <ele>1035</ele>
        <time>2024-07-16T11:28:29Z</time>
      </trkpt>
      <trkpt lat="42.47253" lon="2.92772">
        <ele>1036</ele>
        <time>2024-07-16T11:28:36Z</time>
      </trkpt>
      <trkpt lat="42.4725" lon="2.92781">
        <ele>1037.4</ele>
        <time>2024-07-16T11:28:44Z</time>
      </trkpt>
      <trkpt lat="42.47251" lon="2.92782">
        <ele>1037.6</ele>
        <time>2024-07-16T11:28:45Z</time>
      </trkpt>
      <trkpt lat="42.47252" lon="2.92783">
        <ele>1037.6</ele>
        <time>2024-07-16T11:28:47Z</time>
      </trkpt>
      <trkpt lat="42.47253" lon="2.92785">
        <ele>1038</ele>
        <time>2024-07-16T11:28:49Z</time>
      </trkpt>
      <trkpt lat="42.47255" lon="2.9279">
        <ele>1040.2</ele>
        <time>2024-07-16T11:28:56Z</time>
      </trkpt>
      <trkpt lat="42.47256" lon="2.92793">
        <ele>1041.4</ele>
        <time>2024-07-16T11:29:03Z</time>
      </trkpt>
      <trkpt lat="42.4726" lon="2.928">
        <ele>1041.6</ele>
        <time>2024-07-16T11:29:10Z</time>
      </trkpt>
      <trkpt lat="42.4726" lon="2.92807">
        <ele>1041.6</ele>
        <time>2024-07-16T11:29:15Z</time>
      </trkpt>
      <trkpt lat="42.47262" lon="2.92813">
        <ele>1041.6</ele>
        <time>2024-07-16T11:29:19Z</time>
      </trkpt>
      <trkpt lat="42.47262" lon="2.92819">
        <ele>1041.6</ele>
        <time>2024-07-16T11:29:22Z</time>
      </trkpt>
      <trkpt lat="42.47263" lon="2.92826">
        <ele>1041.6</ele>
        <time>2024-07-16T11:29:28Z</time>
      </trkpt>
      <trkpt lat="42.47265" lon="2.92834">
        <ele>1043</ele>
        <time>2024-07-16T11:29:33Z</time>
      </trkpt>
      <trkpt lat="42.47266" lon="2.92837">
        <ele>1043.6</ele>
        <time>2024-07-16T11:29:35Z</time>
      </trkpt>
      <trkpt lat="42.4727" lon="2.92848">
        <ele>1045.4</ele>
        <time>2024-07-16T11:29:43Z</time>
      </trkpt>
      <trkpt lat="42.4727" lon="2.92849">
        <ele>1045.8</ele>
        <time>2024-07-16T11:29:44Z</time>
      </trkpt>
      <trkpt lat="42.47271" lon="2.92852">
        <ele>1046.2</ele>
        <time>2024-07-16T11:29:46Z</time>
      </trkpt>
      <trkpt lat="42.47272" lon="2.92855">
        <ele>1046.8</ele>
        <time>2024-07-16T11:29:48Z</time>
      </trkpt>
      <trkpt lat="42.47275" lon="2.92859">
        <ele>1048.6</ele>
        <time>2024-07-16T11:29:53Z</time>
      </trkpt>
      <trkpt lat="42.47275" lon="2.92863">
        <ele>1053.2</ele>
        <time>2024-07-16T11:29:59Z</time>
      </trkpt>
      <trkpt lat="42.47278" lon="2.92874">
        <ele>1056.2</ele>
        <time>2024-07-16T11:30:05Z</time>
      </trkpt>
      <trkpt lat="42.47279" lon="2.92877">
        <ele>1056.8</ele>
        <time>2024-07-16T11:30:07Z</time>
      </trkpt>
      <trkpt lat="42.47278" lon="2.92881">
        <ele>1057.2</ele>
        <time>2024-07-16T11:30:10Z</time>
      </trkpt>
      <trkpt lat="42.47284" lon="2.92886">
        <ele>1055</ele>
        <time>2024-07-16T11:30:17Z</time>
      </trkpt>
      <trkpt lat="42.47282" lon="2.92892">
        <ele>1054.2</ele>
        <time>2024-07-16T11:30:22Z</time>
      </trkpt>
      <trkpt lat="42.47284" lon="2.92898">
        <ele>1053.6</ele>
        <time>2024-07-16T11:30:28Z</time>
      </trkpt>
      <trkpt lat="42.47288" lon="2.92901">
        <ele>1054</ele>
        <time>2024-07-16T11:30:34Z</time>
      </trkpt>
      <trkpt lat="42.47292" lon="2.92904">
        <ele>1055.6</ele>
        <time>2024-07-16T11:30:38Z</time>
      </trkpt>
      <trkpt lat="42.47298" lon="2.92902">
        <ele>1056.6</ele>
        <time>2024-07-16T11:30:42Z</time>
      </trkpt>
      <trkpt lat="42.47306" lon="2.92901">
        <ele>1058</ele>
        <time>2024-07-16T11:30:49Z</time>
      </trkpt>
      <trkpt lat="42.47307" lon="2.92901">
        <ele>1058</ele>
        <time>2024-07-16T11:30:50Z</time>
      </trkpt>
      <trkpt lat="42.47315" lon="2.92899">
        <ele>1060</ele>
        <time>2024-07-16T11:30:57Z</time>
      </trkpt>
      <trkpt lat="42.47322" lon="2.92902">
        <ele>1062.6</ele>
        <time>2024-07-16T11:31:03Z</time>
      </trkpt>
      <trkpt lat="42.47325" lon="2.9291">
        <ele>1062.2</ele>
        <time>2024-07-16T11:31:10Z</time>
      </trkpt>
      <trkpt lat="42.47328" lon="2.92915">
        <ele>1062.2</ele>
        <time>2024-07-16T11:31:13Z</time>
      </trkpt>
      <trkpt lat="42.47327" lon="2.92918">
        <ele>1063.4</ele>
        <time>2024-07-16T11:31:15Z</time>
      </trkpt>
      <trkpt lat="42.47327" lon="2.92919">
        <ele>1064</ele>
        <time>2024-07-16T11:31:16Z</time>
      </trkpt>
      <trkpt lat="42.47327" lon="2.92921">
        <ele>1064.4</ele>
        <time>2024-07-16T11:31:17Z</time>
      </trkpt>
      <trkpt lat="42.47326" lon="2.92925">
        <ele>1065.2</ele>
        <time>2024-07-16T11:31:19Z</time>
      </trkpt>
      <trkpt lat="42.47325" lon="2.92927">
        <ele>1065.4</ele>
        <time>2024-07-16T11:31:20Z</time>
      </trkpt>
      <trkpt lat="42.47327" lon="2.92934">
        <ele>1067.8</ele>
        <time>2024-07-16T11:31:27Z</time>
      </trkpt>
      <trkpt lat="42.47327" lon="2.92936">
        <ele>1068.2</ele>
        <time>2024-07-16T11:31:34Z</time>
      </trkpt>
      <trkpt lat="42.47328" lon="2.9294">
        <ele>1066.6</ele>
        <time>2024-07-16T11:31:40Z</time>
      </trkpt>
      <trkpt lat="42.47327" lon="2.92941">
        <ele>1066.4</ele>
        <time>2024-07-16T11:31:44Z</time>
      </trkpt>
      <trkpt lat="42.47328" lon="2.92943">
        <ele>1068</ele>
        <time>2024-07-16T11:31:49Z</time>
      </trkpt>
      <trkpt lat="42.4733" lon="2.92947">
        <ele>1075.4</ele>
        <time>2024-07-16T11:31:56Z</time>
      </trkpt>
      <trkpt lat="42.47332" lon="2.92954">
        <ele>1077.8</ele>
        <time>2024-07-16T11:32:03Z</time>
      </trkpt>
      <trkpt lat="42.47335" lon="2.9296">
        <ele>1077.2</ele>
        <time>2024-07-16T11:32:09Z</time>
      </trkpt>
      <trkpt lat="42.47338" lon="2.92966">
        <ele>1076.4</ele>
        <time>2024-07-16T11:32:16Z</time>
      </trkpt>
      <trkpt lat="42.47342" lon="2.9297">
        <ele>1076</ele>
        <time>2024-07-16T11:32:23Z</time>
      </trkpt>
      <trkpt lat="42.47345" lon="2.92973">
        <ele>1076</ele>
        <time>2024-07-16T11:32:28Z</time>
      </trkpt>
      <trkpt lat="42.47349" lon="2.92976">
        <ele>1076.8</ele>
        <time>2024-07-16T11:32:34Z</time>
      </trkpt>
      <trkpt lat="42.47353" lon="2.92979">
        <ele>1078.4</ele>
        <time>2024-07-16T11:32:40Z</time>
      </trkpt>
      <trkpt lat="42.47355" lon="2.92984">
        <ele>1080.2</ele>
        <time>2024-07-16T11:32:46Z</time>
      </trkpt>
      <trkpt lat="42.47357" lon="2.92988">
        <ele>1082.2</ele>
        <time>2024-07-16T11:32:52Z</time>
      </trkpt>
      <trkpt lat="42.47357" lon="2.92989">
        <ele>1083.8</ele>
        <time>2024-07-16T11:32:56Z</time>
      </trkpt>
      <trkpt lat="42.47357" lon="2.92988">
        <ele>1085.6</ele>
        <time>2024-07-16T11:33:02Z</time>
      </trkpt>
      <trkpt lat="42.47356" lon="2.9299">
        <ele>1086</ele>
        <time>2024-07-16T11:33:07Z</time>
      </trkpt>
      <trkpt lat="42.47357" lon="2.92993">
        <ele>1087.6</ele>
        <time>2024-07-16T11:33:13Z</time>
      </trkpt>
      <trkpt lat="42.47361" lon="2.92993">
        <ele>1088.2</ele>
        <time>2024-07-16T11:33:19Z</time>
      </trkpt>
      <trkpt lat="42.47364" lon="2.92996">
        <ele>1089.4</ele>
        <time>2024-07-16T11:33:25Z</time>
      </trkpt>
      <trkpt lat="42.47367" lon="2.92998">
        <ele>1090</ele>
        <time>2024-07-16T11:33:30Z</time>
      </trkpt>
      <trkpt lat="42.47368" lon="2.92995">
        <ele>1090.4</ele>
        <time>2024-07-16T11:33:38Z</time>
      </trkpt>
      <trkpt lat="42.47368" lon="2.92995">
        <ele>1090</ele>
        <time>2024-07-16T11:33:47Z</time>
      </trkpt>
      <trkpt lat="42.47366" lon="2.93021">
        <ele>1085.2</ele>
        <time>2024-07-16T11:35:05Z</time>
      </trkpt>
      <trkpt lat="42.47361" lon="2.93029">
        <ele>1085</ele>
        <time>2024-07-16T11:35:10Z</time>
      </trkpt>
      <trkpt lat="42.4736" lon="2.93033">
        <ele>1086</ele>
        <time>2024-07-16T11:35:17Z</time>
      </trkpt>
      <trkpt lat="42.4736" lon="2.93034">
        <ele>1086.4</ele>
        <time>2024-07-16T11:35:22Z</time>
      </trkpt>
      <trkpt lat="42.47358" lon="2.93038">
        <ele>1086.8</ele>
        <time>2024-07-16T11:35:28Z</time>
      </trkpt>
      <trkpt lat="42.47358" lon="2.93042">
        <ele>1087.2</ele>
        <time>2024-07-16T11:35:34Z</time>
      </trkpt>
      <trkpt lat="42.47359" lon="2.93047">
        <ele>1091.6</ele>
        <time>2024-07-16T11:35:42Z</time>
      </trkpt>
      <trkpt lat="42.47359" lon="2.93054">
        <ele>1095</ele>
        <time>2024-07-16T11:35:49Z</time>
      </trkpt>
      <trkpt lat="42.47359" lon="2.93056">
        <ele>1098</ele>
        <time>2024-07-16T11:35:55Z</time>
      </trkpt>
      <trkpt lat="42.47358" lon="2.93056">
        <ele>1099</ele>
        <time>2024-07-16T11:36:01Z</time>
      </trkpt>
      <trkpt lat="42.47359" lon="2.93068">
        <ele>1099.2</ele>
        <time>2024-07-16T11:36:29Z</time>
      </trkpt>
      <trkpt lat="42.4736" lon="2.93075">
        <ele>1099</ele>
        <time>2024-07-16T11:36:33Z</time>
      </trkpt>
      <trkpt lat="42.47359" lon="2.93082">
        <ele>1100.2</ele>
        <time>2024-07-16T11:36:40Z</time>
      </trkpt>
      <trkpt lat="42.47359" lon="2.93087">
        <ele>1103</ele>
        <time>2024-07-16T11:36:45Z</time>
      </trkpt>
      <trkpt lat="42.4736" lon="2.93091">
        <ele>1104.6</ele>
        <time>2024-07-16T11:36:50Z</time>
      </trkpt>
      <trkpt lat="42.47364" lon="2.93094">
        <ele>1105</ele>
        <time>2024-07-16T11:36:57Z</time>
      </trkpt>
      <trkpt lat="42.47364" lon="2.93101">
        <ele>1105.8</ele>
        <time>2024-07-16T11:37:05Z</time>
      </trkpt>
      <trkpt lat="42.47364" lon="2.93106">
        <ele>1106.4</ele>
        <time>2024-07-16T11:37:11Z</time>
      </trkpt>
      <trkpt lat="42.47366" lon="2.93111">
        <ele>1109.2</ele>
        <time>2024-07-16T11:37:18Z</time>
      </trkpt>
      <trkpt lat="42.47371" lon="2.93116">
        <ele>1111.2</ele>
        <time>2024-07-16T11:37:27Z</time>
      </trkpt>
      <trkpt lat="42.47373" lon="2.9312">
        <ele>1110.6</ele>
        <time>2024-07-16T11:37:33Z</time>
      </trkpt>
      <trkpt lat="42.47377" lon="2.93123">
        <ele>1110.2</ele>
        <time>2024-07-16T11:37:39Z</time>
      </trkpt>
      <trkpt lat="42.47382" lon="2.93125">
        <ele>1111.6</ele>
        <time>2024-07-16T11:37:46Z</time>
      </trkpt>
      <trkpt lat="42.47386" lon="2.93124">
        <ele>1112.2</ele>
        <time>2024-07-16T11:37:51Z</time>
      </trkpt>
      <trkpt lat="42.47391" lon="2.93128">
        <ele>1113.4</ele>
        <time>2024-07-16T11:37:58Z</time>
      </trkpt>
      <trkpt lat="42.47395" lon="2.93128">
        <ele>1113.6</ele>
        <time>2024-07-16T11:38:04Z</time>
      </trkpt>
      <trkpt lat="42.47397" lon="2.93131">
        <ele>1113</ele>
        <time>2024-07-16T11:38:08Z</time>
      </trkpt>
      <trkpt lat="42.47401" lon="2.93138">
        <ele>1113</ele>
        <time>2024-07-16T11:38:14Z</time>
      </trkpt>
      <trkpt lat="42.47402" lon="2.93137">
        <ele>1113</ele>
        <time>2024-07-16T11:38:17Z</time>
      </trkpt>
      <trkpt lat="42.47404" lon="2.93139">
        <ele>1113</ele>
        <time>2024-07-16T11:38:21Z</time>
      </trkpt>
      <trkpt lat="42.47407" lon="2.9314">
        <ele>1112.6</ele>
        <time>2024-07-16T11:38:25Z</time>
      </trkpt>
      <trkpt lat="42.4741" lon="2.93141">
        <ele>1112.6</ele>
        <time>2024-07-16T11:38:28Z</time>
      </trkpt>
      <trkpt lat="42.47412" lon="2.93141">
        <ele>1113</ele>
        <time>2024-07-16T11:38:30Z</time>
      </trkpt>
      <trkpt lat="42.4742" lon="2.93142">
        <ele>1116.2</ele>
        <time>2024-07-16T11:38:37Z</time>
      </trkpt>
      <trkpt lat="42.47424" lon="2.93143">
        <ele>1118</ele>
        <time>2024-07-16T11:38:43Z</time>
      </trkpt>
      <trkpt lat="42.47424" lon="2.93145">
        <ele>1119.2</ele>
        <time>2024-07-16T11:38:50Z</time>
      </trkpt>
      <trkpt lat="42.47424" lon="2.93156">
        <ele>1119.4</ele>
        <time>2024-07-16T11:38:57Z</time>
      </trkpt>
      <trkpt lat="42.47423" lon="2.93168">
        <ele>1118.6</ele>
        <time>2024-07-16T11:39:04Z</time>
      </trkpt>
      <trkpt lat="42.47424" lon="2.93169">
        <ele>1118.6</ele>
        <time>2024-07-16T11:39:05Z</time>
      </trkpt>
      <trkpt lat="42.47425" lon="2.93174">
        <ele>1118.2</ele>
        <time>2024-07-16T11:39:10Z</time>
      </trkpt>
      <trkpt lat="42.4743" lon="2.93183">
        <ele>1117.4</ele>
        <time>2024-07-16T11:39:17Z</time>
      </trkpt>
      <trkpt lat="42.47438" lon="2.93192">
        <ele>1117</ele>
        <time>2024-07-16T11:39:26Z</time>
      </trkpt>
      <trkpt lat="42.47447" lon="2.93198">
        <ele>1116.8</ele>
        <time>2024-07-16T11:39:35Z</time>
      </trkpt>
      <trkpt lat="42.47458" lon="2.93199">
        <ele>1115.8</ele>
        <time>2024-07-16T11:39:44Z</time>
      </trkpt>
      <trkpt lat="42.4747" lon="2.93203">
        <ele>1115.4</ele>
        <time>2024-07-16T11:39:54Z</time>
      </trkpt>
      <trkpt lat="42.47479" lon="2.93217">
        <ele>1114</ele>
        <time>2024-07-16T11:40:03Z</time>
      </trkpt>
      <trkpt lat="42.47482" lon="2.93225">
        <ele>1112.8</ele>
        <time>2024-07-16T11:40:08Z</time>
      </trkpt>
      <trkpt lat="42.47483" lon="2.93229">
        <ele>1112.6</ele>
        <time>2024-07-16T11:40:10Z</time>
      </trkpt>
      <trkpt lat="42.47488" lon="2.93244">
        <ele>1110</ele>
        <time>2024-07-16T11:40:18Z</time>
      </trkpt>
      <trkpt lat="42.47493" lon="2.9326">
        <ele>1109.4</ele>
        <time>2024-07-16T11:40:26Z</time>
      </trkpt>
      <trkpt lat="42.47492" lon="2.93264">
        <ele>1109.2</ele>
        <time>2024-07-16T11:40:28Z</time>
      </trkpt>
      <trkpt lat="42.47493" lon="2.9327">
        <ele>1109.2</ele>
        <time>2024-07-16T11:40:31Z</time>
      </trkpt>
      <trkpt lat="42.47493" lon="2.93273">
        <ele>1109.2</ele>
        <time>2024-07-16T11:40:33Z</time>
      </trkpt>
      <trkpt lat="42.47494" lon="2.93276">
        <ele>1109</ele>
        <time>2024-07-16T11:40:35Z</time>
      </trkpt>
      <trkpt lat="42.47494" lon="2.93278">
        <ele>1109</ele>
        <time>2024-07-16T11:40:36Z</time>
      </trkpt>
      <trkpt lat="42.47494" lon="2.93281">
        <ele>1108.8</ele>
        <time>2024-07-16T11:40:37Z</time>
      </trkpt>
      <trkpt lat="42.47496" lon="2.93287">
        <ele>1107.8</ele>
        <time>2024-07-16T11:40:40Z</time>
      </trkpt>
      <trkpt lat="42.47498" lon="2.9329">
        <ele>1107.4</ele>
        <time>2024-07-16T11:40:42Z</time>
      </trkpt>
      <trkpt lat="42.47499" lon="2.93296">
        <ele>1107.2</ele>
        <time>2024-07-16T11:40:45Z</time>
      </trkpt>
      <trkpt lat="42.475" lon="2.93302">
        <ele>1105.8</ele>
        <time>2024-07-16T11:40:49Z</time>
      </trkpt>
      <trkpt lat="42.47501" lon="2.93307">
        <ele>1105</ele>
        <time>2024-07-16T11:40:51Z</time>
      </trkpt>
      <trkpt lat="42.47501" lon="2.9331">
        <ele>1104.8</ele>
        <time>2024-07-16T11:40:52Z</time>
      </trkpt>
      <trkpt lat="42.47505" lon="2.93321">
        <ele>1104.2</ele>
        <time>2024-07-16T11:40:58Z</time>
      </trkpt>
      <trkpt lat="42.47505" lon="2.9333">
        <ele>1104</ele>
        <time>2024-07-16T11:41:03Z</time>
      </trkpt>
      <trkpt lat="42.47505" lon="2.93332">
        <ele>1104</ele>
        <time>2024-07-16T11:41:04Z</time>
      </trkpt>
      <trkpt lat="42.47505" lon="2.93334">
        <ele>1103.8</ele>
        <time>2024-07-16T11:41:06Z</time>
      </trkpt>
      <trkpt lat="42.47505" lon="2.93338">
        <ele>1103.6</ele>
        <time>2024-07-16T11:41:09Z</time>
      </trkpt>
      <trkpt lat="42.47507" lon="2.93354">
        <ele>1100.2</ele>
        <time>2024-07-16T11:41:18Z</time>
      </trkpt>
      <trkpt lat="42.47508" lon="2.93367">
        <ele>1097.4</ele>
        <time>2024-07-16T11:41:25Z</time>
      </trkpt>
      <trkpt lat="42.47508" lon="2.9337">
        <ele>1097.2</ele>
        <time>2024-07-16T11:41:26Z</time>
      </trkpt>
      <trkpt lat="42.47508" lon="2.93372">
        <ele>1097</ele>
        <time>2024-07-16T11:41:27Z</time>
      </trkpt>
      <trkpt lat="42.47507" lon="2.93377">
        <ele>1097</ele>
        <time>2024-07-16T11:41:31Z</time>
      </trkpt>
      <trkpt lat="42.47506" lon="2.93377">
        <ele>1097</ele>
        <time>2024-07-16T11:41:32Z</time>
      </trkpt>
      <trkpt lat="42.47507" lon="2.93377">
        <ele>1098.4</ele>
        <time>2024-07-16T11:41:43Z</time>
      </trkpt>
      <trkpt lat="42.47506" lon="2.93386">
        <ele>1102.8</ele>
        <time>2024-07-16T11:48:10Z</time>
      </trkpt>
      <trkpt lat="42.47505" lon="2.93396">
        <ele>1103</ele>
        <time>2024-07-16T11:48:16Z</time>
      </trkpt>
      <trkpt lat="42.47503" lon="2.93399">
        <ele>1104</ele>
        <time>2024-07-16T11:48:22Z</time>
      </trkpt>
      <trkpt lat="42.47504" lon="2.934">
        <ele>1105.4</ele>
        <time>2024-07-16T11:48:38Z</time>
      </trkpt>
      <trkpt lat="42.475" lon="2.93405">
        <ele>1105.2</ele>
        <time>2024-07-16T11:49:19Z</time>
      </trkpt>
      <trkpt lat="42.47495" lon="2.93415">
        <ele>1105</ele>
        <time>2024-07-16T11:49:25Z</time>
      </trkpt>
      <trkpt lat="42.4749" lon="2.9343">
        <ele>1104.6</ele>
        <time>2024-07-16T11:49:35Z</time>
      </trkpt>
      <trkpt lat="42.47489" lon="2.93431">
        <ele>1104.4</ele>
        <time>2024-07-16T11:49:36Z</time>
      </trkpt>
      <trkpt lat="42.47487" lon="2.93439">
        <ele>1104.4</ele>
        <time>2024-07-16T11:49:41Z</time>
      </trkpt>
      <trkpt lat="42.47484" lon="2.93452">
        <ele>1104.6</ele>
        <time>2024-07-16T11:49:49Z</time>
      </trkpt>
      <trkpt lat="42.47483" lon="2.93465">
        <ele>1104.2</ele>
        <time>2024-07-16T11:49:58Z</time>
      </trkpt>
      <trkpt lat="42.47485" lon="2.9348">
        <ele>1104.6</ele>
        <time>2024-07-16T11:50:07Z</time>
      </trkpt>
      <trkpt lat="42.47486" lon="2.93494">
        <ele>1105.4</ele>
        <time>2024-07-16T11:50:15Z</time>
      </trkpt>
      <trkpt lat="42.47491" lon="2.93508">
        <ele>1105.8</ele>
        <time>2024-07-16T11:50:23Z</time>
      </trkpt>
      <trkpt lat="42.47499" lon="2.93531">
        <ele>1106.8</ele>
        <time>2024-07-16T11:50:36Z</time>
      </trkpt>
      <trkpt lat="42.47506" lon="2.9355">
        <ele>1107.6</ele>
        <time>2024-07-16T11:50:48Z</time>
      </trkpt>
      <trkpt lat="42.47513" lon="2.93567">
        <ele>1109.4</ele>
        <time>2024-07-16T11:50:59Z</time>
      </trkpt>
      <trkpt lat="42.47521" lon="2.93579">
        <ele>1110.8</ele>
        <time>2024-07-16T11:51:09Z</time>
      </trkpt>
      <trkpt lat="42.47527" lon="2.93593">
        <ele>1111.8</ele>
        <time>2024-07-16T11:51:18Z</time>
      </trkpt>
      <trkpt lat="42.47538" lon="2.93613">
        <ele>1111.8</ele>
        <time>2024-07-16T11:51:32Z</time>
      </trkpt>
      <trkpt lat="42.47539" lon="2.93614">
        <ele>1111.8</ele>
        <time>2024-07-16T11:51:33Z</time>
      </trkpt>
      <trkpt lat="42.47539" lon="2.93616">
        <ele>1112.2</ele>
        <time>2024-07-16T11:51:38Z</time>
      </trkpt>
      <trkpt lat="42.47539" lon="2.93616">
        <ele>1112.4</ele>
        <time>2024-07-16T11:51:51Z</time>
      </trkpt>
      <trkpt lat="42.47541" lon="2.93623">
        <ele>1113</ele>
        <time>2024-07-16T11:52:30Z</time>
      </trkpt>
      <trkpt lat="42.47548" lon="2.93639">
        <ele>1113.8</ele>
        <time>2024-07-16T11:52:41Z</time>
      </trkpt>
      <trkpt lat="42.47554" lon="2.93646">
        <ele>1113.4</ele>
        <time>2024-07-16T11:52:49Z</time>
      </trkpt>
      <trkpt lat="42.4756" lon="2.93653">
        <ele>1113.6</ele>
        <time>2024-07-16T11:52:57Z</time>
      </trkpt>
      <trkpt lat="42.4757" lon="2.93664">
        <ele>1113.8</ele>
        <time>2024-07-16T11:53:08Z</time>
      </trkpt>
      <trkpt lat="42.47576" lon="2.93674">
        <ele>1113.4</ele>
        <time>2024-07-16T11:53:16Z</time>
      </trkpt>
      <trkpt lat="42.47587" lon="2.93691">
        <ele>1113.2</ele>
        <time>2024-07-16T11:53:30Z</time>
      </trkpt>
      <trkpt lat="42.47597" lon="2.93702">
        <ele>1115</ele>
        <time>2024-07-16T11:53:40Z</time>
      </trkpt>
      <trkpt lat="42.47606" lon="2.93712">
        <ele>1117</ele>
        <time>2024-07-16T11:53:51Z</time>
      </trkpt>
      <trkpt lat="42.47614" lon="2.93721">
        <ele>1119.4</ele>
        <time>2024-07-16T11:54:03Z</time>
      </trkpt>
      <trkpt lat="42.4762" lon="2.93723">
        <ele>1121</ele>
        <time>2024-07-16T11:54:10Z</time>
      </trkpt>
      <trkpt lat="42.4763" lon="2.93723">
        <ele>1123</ele>
        <time>2024-07-16T11:54:20Z</time>
      </trkpt>
      <trkpt lat="42.47639" lon="2.93728">
        <ele>1124.2</ele>
        <time>2024-07-16T11:54:29Z</time>
      </trkpt>
      <trkpt lat="42.47648" lon="2.93737">
        <ele>1125.8</ele>
        <time>2024-07-16T11:54:39Z</time>
      </trkpt>
      <trkpt lat="42.47657" lon="2.93744">
        <ele>1126.6</ele>
        <time>2024-07-16T11:54:48Z</time>
      </trkpt>
      <trkpt lat="42.47664" lon="2.93751">
        <ele>1127.2</ele>
        <time>2024-07-16T11:54:55Z</time>
      </trkpt>
      <trkpt lat="42.47669" lon="2.93755">
        <ele>1128.6</ele>
        <time>2024-07-16T11:55:01Z</time>
      </trkpt>
      <trkpt lat="42.47673" lon="2.9376">
        <ele>1129.8</ele>
        <time>2024-07-16T11:55:07Z</time>
      </trkpt>
      <trkpt lat="42.47681" lon="2.93766">
        <ele>1130.6</ele>
        <time>2024-07-16T11:55:16Z</time>
      </trkpt>
      <trkpt lat="42.47691" lon="2.93776">
        <ele>1131.4</ele>
        <time>2024-07-16T11:55:26Z</time>
      </trkpt>
      <trkpt lat="42.47699" lon="2.93783">
        <ele>1131.6</ele>
        <time>2024-07-16T11:55:34Z</time>
      </trkpt>
      <trkpt lat="42.47706" lon="2.93788">
        <ele>1133.2</ele>
        <time>2024-07-16T11:55:41Z</time>
      </trkpt>
      <trkpt lat="42.47712" lon="2.93792">
        <ele>1134.4</ele>
        <time>2024-07-16T11:55:47Z</time>
      </trkpt>
      <trkpt lat="42.4772" lon="2.93797">
        <ele>1135.8</ele>
        <time>2024-07-16T11:55:56Z</time>
      </trkpt>
      <trkpt lat="42.47727" lon="2.93804">
        <ele>1137</ele>
        <time>2024-07-16T11:56:06Z</time>
      </trkpt>
      <trkpt lat="42.47734" lon="2.93809">
        <ele>1139.2</ele>
        <time>2024-07-16T11:56:14Z</time>
      </trkpt>
      <trkpt lat="42.47734" lon="2.9381">
        <ele>1139.4</ele>
        <time>2024-07-16T11:56:15Z</time>
      </trkpt>
      <trkpt lat="42.47741" lon="2.93822">
        <ele>1141.6</ele>
        <time>2024-07-16T11:56:26Z</time>
      </trkpt>
      <trkpt lat="42.47751" lon="2.93836">
        <ele>1143.8</ele>
        <time>2024-07-16T11:56:38Z</time>
      </trkpt>
      <trkpt lat="42.47755" lon="2.93847">
        <ele>1144.8</ele>
        <time>2024-07-16T11:56:47Z</time>
      </trkpt>
      <trkpt lat="42.47758" lon="2.93862">
        <ele>1147.2</ele>
        <time>2024-07-16T11:56:58Z</time>
      </trkpt>
      <trkpt lat="42.47763" lon="2.93874">
        <ele>1148.8</ele>
        <time>2024-07-16T11:57:07Z</time>
      </trkpt>
      <trkpt lat="42.47769" lon="2.93888">
        <ele>1150.2</ele>
        <time>2024-07-16T11:57:18Z</time>
      </trkpt>
      <trkpt lat="42.4777" lon="2.93892">
        <ele>1151</ele>
        <time>2024-07-16T11:57:25Z</time>
      </trkpt>
      <trkpt lat="42.47771" lon="2.93893">
        <ele>1151</ele>
        <time>2024-07-16T11:57:26Z</time>
      </trkpt>
      <trkpt lat="42.47774" lon="2.939">
        <ele>1151.2</ele>
        <time>2024-07-16T11:57:31Z</time>
      </trkpt>
      <trkpt lat="42.4778" lon="2.93915">
        <ele>1153</ele>
        <time>2024-07-16T11:57:43Z</time>
      </trkpt>
      <trkpt lat="42.47784" lon="2.93928">
        <ele>1154.8</ele>
        <time>2024-07-16T11:57:53Z</time>
      </trkpt>
      <trkpt lat="42.47785" lon="2.93935">
        <ele>1156</ele>
        <time>2024-07-16T11:58:02Z</time>
      </trkpt>
      <trkpt lat="42.47788" lon="2.9394">
        <ele>1157.2</ele>
        <time>2024-07-16T11:58:10Z</time>
      </trkpt>
      <trkpt lat="42.47793" lon="2.93956">
        <ele>1159</ele>
        <time>2024-07-16T11:58:23Z</time>
      </trkpt>
      <trkpt lat="42.47798" lon="2.93972">
        <ele>1160.8</ele>
        <time>2024-07-16T11:58:35Z</time>
      </trkpt>
      <trkpt lat="42.47802" lon="2.93986">
        <ele>1162.2</ele>
        <time>2024-07-16T11:58:45Z</time>
      </trkpt>
      <trkpt lat="42.47809" lon="2.93995">
        <ele>1162.8</ele>
        <time>2024-07-16T11:58:53Z</time>
      </trkpt>
      <trkpt lat="42.47816" lon="2.94007">
        <ele>1163.6</ele>
        <time>2024-07-16T11:59:02Z</time>
      </trkpt>
      <trkpt lat="42.47822" lon="2.94021">
        <ele>1165.4</ele>
        <time>2024-07-16T11:59:11Z</time>
      </trkpt>
      <trkpt lat="42.47827" lon="2.94033">
        <ele>1167.8</ele>
        <time>2024-07-16T11:59:20Z</time>
      </trkpt>
      <trkpt lat="42.47832" lon="2.94044">
        <ele>1168.8</ele>
        <time>2024-07-16T11:59:28Z</time>
      </trkpt>
      <trkpt lat="42.4784" lon="2.94056">
        <ele>1168.8</ele>
        <time>2024-07-16T11:59:37Z</time>
      </trkpt>
      <trkpt lat="42.47848" lon="2.94068">
        <ele>1170.8</ele>
        <time>2024-07-16T11:59:47Z</time>
      </trkpt>
      <trkpt lat="42.47855" lon="2.94076">
        <ele>1172.6</ele>
        <time>2024-07-16T11:59:55Z</time>
      </trkpt>
      <trkpt lat="42.47861" lon="2.94082">
        <ele>1174.2</ele>
        <time>2024-07-16T12:00:03Z</time>
      </trkpt>
      <trkpt lat="42.47868" lon="2.94093">
        <ele>1177.6</ele>
        <time>2024-07-16T12:00:15Z</time>
      </trkpt>
      <trkpt lat="42.47873" lon="2.94101">
        <ele>1179.8</ele>
        <time>2024-07-16T12:00:23Z</time>
      </trkpt>
      <trkpt lat="42.47878" lon="2.94107">
        <ele>1181.6</ele>
        <time>2024-07-16T12:00:30Z</time>
      </trkpt>
      <trkpt lat="42.47885" lon="2.94118">
        <ele>1183.4</ele>
        <time>2024-07-16T12:00:39Z</time>
      </trkpt>
      <trkpt lat="42.47892" lon="2.94128">
        <ele>1184.6</ele>
        <time>2024-07-16T12:00:48Z</time>
      </trkpt>
      <trkpt lat="42.47899" lon="2.94139">
        <ele>1186.4</ele>
        <time>2024-07-16T12:00:57Z</time>
      </trkpt>
      <trkpt lat="42.47904" lon="2.94149">
        <ele>1187.4</ele>
        <time>2024-07-16T12:01:06Z</time>
      </trkpt>
      <trkpt lat="42.47906" lon="2.94155">
        <ele>1188.4</ele>
        <time>2024-07-16T12:01:12Z</time>
      </trkpt>
      <trkpt lat="42.47908" lon="2.94167">
        <ele>1189.8</ele>
        <time>2024-07-16T12:01:20Z</time>
      </trkpt>
      <trkpt lat="42.47912" lon="2.94179">
        <ele>1191.2</ele>
        <time>2024-07-16T12:01:28Z</time>
      </trkpt>
      <trkpt lat="42.47915" lon="2.9419">
        <ele>1192.6</ele>
        <time>2024-07-16T12:01:35Z</time>
      </trkpt>
      <trkpt lat="42.47916" lon="2.94194">
        <ele>1192.8</ele>
        <time>2024-07-16T12:01:37Z</time>
      </trkpt>
      <trkpt lat="42.47917" lon="2.94196">
        <ele>1193</ele>
        <time>2024-07-16T12:01:39Z</time>
      </trkpt>
      <trkpt lat="42.47918" lon="2.942">
        <ele>1193.2</ele>
        <time>2024-07-16T12:01:41Z</time>
      </trkpt>
      <trkpt lat="42.47922" lon="2.94216">
        <ele>1194.8</ele>
        <time>2024-07-16T12:01:51Z</time>
      </trkpt>
      <trkpt lat="42.47926" lon="2.94227">
        <ele>1196.6</ele>
        <time>2024-07-16T12:01:58Z</time>
      </trkpt>
      <trkpt lat="42.47929" lon="2.94237">
        <ele>1197.8</ele>
        <time>2024-07-16T12:02:05Z</time>
      </trkpt>
      <trkpt lat="42.47929" lon="2.94239">
        <ele>1198</ele>
        <time>2024-07-16T12:02:06Z</time>
      </trkpt>
      <trkpt lat="42.4793" lon="2.94248">
        <ele>1198.8</ele>
        <time>2024-07-16T12:02:13Z</time>
      </trkpt>
      <trkpt lat="42.47934" lon="2.94266">
        <ele>1199.4</ele>
        <time>2024-07-16T12:02:25Z</time>
      </trkpt>
      <trkpt lat="42.47938" lon="2.94282">
        <ele>1202.4</ele>
        <time>2024-07-16T12:02:37Z</time>
      </trkpt>
      <trkpt lat="42.47943" lon="2.94295">
        <ele>1203.6</ele>
        <time>2024-07-16T12:02:47Z</time>
      </trkpt>
      <trkpt lat="42.47947" lon="2.94307">
        <ele>1205</ele>
        <time>2024-07-16T12:02:56Z</time>
      </trkpt>
      <trkpt lat="42.4795" lon="2.94314">
        <ele>1206.4</ele>
        <time>2024-07-16T12:03:04Z</time>
      </trkpt>
      <trkpt lat="42.47955" lon="2.94322">
        <ele>1206.8</ele>
        <time>2024-07-16T12:03:10Z</time>
      </trkpt>
      <trkpt lat="42.47956" lon="2.94324">
        <ele>1207</ele>
        <time>2024-07-16T12:03:12Z</time>
      </trkpt>
      <trkpt lat="42.47957" lon="2.9433">
        <ele>1208</ele>
        <time>2024-07-16T12:03:16Z</time>
      </trkpt>
      <trkpt lat="42.47962" lon="2.94341">
        <ele>1208.8</ele>
        <time>2024-07-16T12:03:24Z</time>
      </trkpt>
      <trkpt lat="42.47966" lon="2.94357">
        <ele>1210.4</ele>
        <time>2024-07-16T12:03:34Z</time>
      </trkpt>
      <trkpt lat="42.47971" lon="2.94376">
        <ele>1212.4</ele>
        <time>2024-07-16T12:03:45Z</time>
      </trkpt>
      <trkpt lat="42.47973" lon="2.9439">
        <ele>1212.8</ele>
        <time>2024-07-16T12:03:54Z</time>
      </trkpt>
      <trkpt lat="42.47978" lon="2.9441">
        <ele>1213.6</ele>
        <time>2024-07-16T12:04:06Z</time>
      </trkpt>
      <trkpt lat="42.47983" lon="2.94422">
        <ele>1213.8</ele>
        <time>2024-07-16T12:04:15Z</time>
      </trkpt>
      <trkpt lat="42.47989" lon="2.94433">
        <ele>1215.8</ele>
        <time>2024-07-16T12:04:23Z</time>
      </trkpt>
      <trkpt lat="42.47994" lon="2.94445">
        <ele>1217.8</ele>
        <time>2024-07-16T12:04:32Z</time>
      </trkpt>
      <trkpt lat="42.47995" lon="2.94449">
        <ele>1218.4</ele>
        <time>2024-07-16T12:04:35Z</time>
      </trkpt>
      <trkpt lat="42.47995" lon="2.94457">
        <ele>1219</ele>
        <time>2024-07-16T12:04:40Z</time>
      </trkpt>
      <trkpt lat="42.48" lon="2.94465">
        <ele>1219.6</ele>
        <time>2024-07-16T12:04:47Z</time>
      </trkpt>
      <trkpt lat="42.4801" lon="2.94477">
        <ele>1221.2</ele>
        <time>2024-07-16T12:04:57Z</time>
      </trkpt>
      <trkpt lat="42.4801" lon="2.94479">
        <ele>1221.6</ele>
        <time>2024-07-16T12:04:59Z</time>
      </trkpt>
      <trkpt lat="42.48013" lon="2.94485">
        <ele>1222.4</ele>
        <time>2024-07-16T12:05:03Z</time>
      </trkpt>
      <trkpt lat="42.4802" lon="2.94499">
        <ele>1222.8</ele>
        <time>2024-07-16T12:05:13Z</time>
      </trkpt>
      <trkpt lat="42.48026" lon="2.94514">
        <ele>1224.2</ele>
        <time>2024-07-16T12:05:23Z</time>
      </trkpt>
      <trkpt lat="42.48029" lon="2.94532">
        <ele>1226</ele>
        <time>2024-07-16T12:05:34Z</time>
      </trkpt>
      <trkpt lat="42.48033" lon="2.94547">
        <ele>1226.8</ele>
        <time>2024-07-16T12:05:43Z</time>
      </trkpt>
      <trkpt lat="42.48044" lon="2.94567">
        <ele>1226.8</ele>
        <time>2024-07-16T12:05:56Z</time>
      </trkpt>
      <trkpt lat="42.48046" lon="2.9457">
        <ele>1226.8</ele>
        <time>2024-07-16T12:05:58Z</time>
      </trkpt>
      <trkpt lat="42.4806" lon="2.94585">
        <ele>1228.2</ele>
        <time>2024-07-16T12:06:11Z</time>
      </trkpt>
      <trkpt lat="42.48075" lon="2.94595">
        <ele>1230.4</ele>
        <time>2024-07-16T12:06:24Z</time>
      </trkpt>
      <trkpt lat="42.48085" lon="2.94604">
        <ele>1231.8</ele>
        <time>2024-07-16T12:06:33Z</time>
      </trkpt>
      <trkpt lat="42.48098" lon="2.94611">
        <ele>1233.8</ele>
        <time>2024-07-16T12:06:44Z</time>
      </trkpt>
      <trkpt lat="42.48112" lon="2.94618">
        <ele>1234.2</ele>
        <time>2024-07-16T12:06:55Z</time>
      </trkpt>
      <trkpt lat="42.48123" lon="2.94625">
        <ele>1234.6</ele>
        <time>2024-07-16T12:07:04Z</time>
      </trkpt>
      <trkpt lat="42.48134" lon="2.94631">
        <ele>1235.8</ele>
        <time>2024-07-16T12:07:14Z</time>
      </trkpt>
      <trkpt lat="42.48143" lon="2.94642">
        <ele>1237</ele>
        <time>2024-07-16T12:07:24Z</time>
      </trkpt>
      <trkpt lat="42.48156" lon="2.94653">
        <ele>1239.6</ele>
        <time>2024-07-16T12:07:36Z</time>
      </trkpt>
      <trkpt lat="42.48165" lon="2.94661">
        <ele>1241.6</ele>
        <time>2024-07-16T12:07:46Z</time>
      </trkpt>
      <trkpt lat="42.48174" lon="2.9467">
        <ele>1242.8</ele>
        <time>2024-07-16T12:07:56Z</time>
      </trkpt>
      <trkpt lat="42.48182" lon="2.94679">
        <ele>1243.6</ele>
        <time>2024-07-16T12:08:04Z</time>
      </trkpt>
      <trkpt lat="42.48192" lon="2.94689">
        <ele>1246.2</ele>
        <time>2024-07-16T12:08:15Z</time>
      </trkpt>
      <trkpt lat="42.48198" lon="2.94693">
        <ele>1248</ele>
        <time>2024-07-16T12:08:21Z</time>
      </trkpt>
      <trkpt lat="42.48199" lon="2.94693">
        <ele>1248.4</ele>
        <time>2024-07-16T12:08:22Z</time>
      </trkpt>
      <trkpt lat="42.48202" lon="2.94702">
        <ele>1251.2</ele>
        <time>2024-07-16T12:08:30Z</time>
      </trkpt>
      <trkpt lat="42.48205" lon="2.94705">
        <ele>1252.6</ele>
        <time>2024-07-16T12:08:37Z</time>
      </trkpt>
      <trkpt lat="42.48208" lon="2.94706">
        <ele>1253</ele>
        <time>2024-07-16T12:08:40Z</time>
      </trkpt>
      <trkpt lat="42.4821" lon="2.94707">
        <ele>1253.2</ele>
        <time>2024-07-16T12:08:43Z</time>
      </trkpt>
      <trkpt lat="42.48213" lon="2.94711">
        <ele>1254.2</ele>
        <time>2024-07-16T12:08:48Z</time>
      </trkpt>
      <trkpt lat="42.48214" lon="2.94712">
        <ele>1255.8</ele>
        <time>2024-07-16T12:08:54Z</time>
      </trkpt>
      <trkpt lat="42.48217" lon="2.94714">
        <ele>1256.8</ele>
        <time>2024-07-16T12:09:03Z</time>
      </trkpt>
      <trkpt lat="42.48219" lon="2.94716">
        <ele>1257.4</ele>
        <time>2024-07-16T12:09:12Z</time>
      </trkpt>
      <trkpt lat="42.48217" lon="2.94717">
        <ele>1262</ele>
        <time>2024-07-16T12:14:07Z</time>
      </trkpt>
      <trkpt lat="42.48218" lon="2.94714">
        <ele>1260</ele>
        <time>2024-07-16T12:15:46Z</time>
      </trkpt>
      <trkpt lat="42.48221" lon="2.94712">
        <ele>1259.4</ele>
        <time>2024-07-16T12:15:54Z</time>
      </trkpt>
      <trkpt lat="42.48221" lon="2.94708">
        <ele>1259.4</ele>
        <time>2024-07-16T12:16:00Z</time>
      </trkpt>
      <trkpt lat="42.4822" lon="2.94699">
        <ele>1258.4</ele>
        <time>2024-07-16T12:16:07Z</time>
      </trkpt>
      <trkpt lat="42.48216" lon="2.94686">
        <ele>1256.4</ele>
        <time>2024-07-16T12:16:15Z</time>
      </trkpt>
      <trkpt lat="42.48218" lon="2.94681">
        <ele>1254.6</ele>
        <time>2024-07-16T12:16:20Z</time>
      </trkpt>
      <trkpt lat="42.48219" lon="2.94676">
        <ele>1252.4</ele>
        <time>2024-07-16T12:16:25Z</time>
      </trkpt>
      <trkpt lat="42.4822" lon="2.94665">
        <ele>1250.4</ele>
        <time>2024-07-16T12:16:32Z</time>
      </trkpt>
      <trkpt lat="42.48226" lon="2.94662">
        <ele>1248.4</ele>
        <time>2024-07-16T12:16:38Z</time>
      </trkpt>
      <trkpt lat="42.48229" lon="2.94661">
        <ele>1246.8</ele>
        <time>2024-07-16T12:16:43Z</time>
      </trkpt>
      <trkpt lat="42.48233" lon="2.94658">
        <ele>1245</ele>
        <time>2024-07-16T12:16:49Z</time>
      </trkpt>
      <trkpt lat="42.48233" lon="2.94659">
        <ele>1244.4</ele>
        <time>2024-07-16T12:16:55Z</time>
      </trkpt>
      <trkpt lat="42.48235" lon="2.9466">
        <ele>1244.6</ele>
        <time>2024-07-16T12:17:11Z</time>
      </trkpt>
      <trkpt lat="42.4824" lon="2.94665">
        <ele>1244.6</ele>
        <time>2024-07-16T12:17:18Z</time>
      </trkpt>
      <trkpt lat="42.48249" lon="2.94676">
        <ele>1245.2</ele>
        <time>2024-07-16T12:17:26Z</time>
      </trkpt>
      <trkpt lat="42.48257" lon="2.94685">
        <ele>1243</ele>
        <time>2024-07-16T12:17:33Z</time>
      </trkpt>
      <trkpt lat="42.48258" lon="2.94685">
        <ele>1242.4</ele>
        <time>2024-07-16T12:17:34Z</time>
      </trkpt>
      <trkpt lat="42.48269" lon="2.94694">
        <ele>1240</ele>
        <time>2024-07-16T12:17:44Z</time>
      </trkpt>
      <trkpt lat="42.48284" lon="2.94702">
        <ele>1238.2</ele>
        <time>2024-07-16T12:17:55Z</time>
      </trkpt>
      <trkpt lat="42.48292" lon="2.94713">
        <ele>1236</ele>
        <time>2024-07-16T12:18:03Z</time>
      </trkpt>
      <trkpt lat="42.483" lon="2.94726">
        <ele>1235.2</ele>
        <time>2024-07-16T12:18:13Z</time>
      </trkpt>
      <trkpt lat="42.48304" lon="2.94732">
        <ele>1235</ele>
        <time>2024-07-16T12:18:19Z</time>
      </trkpt>
      <trkpt lat="42.48306" lon="2.94735">
        <ele>1234.8</ele>
        <time>2024-07-16T12:18:21Z</time>
      </trkpt>
      <trkpt lat="42.48307" lon="2.94738">
        <ele>1234.6</ele>
        <time>2024-07-16T12:18:23Z</time>
      </trkpt>
      <trkpt lat="42.4831" lon="2.94743">
        <ele>1234.6</ele>
        <time>2024-07-16T12:18:26Z</time>
      </trkpt>
      <trkpt lat="42.48316" lon="2.94753">
        <ele>1235.4</ele>
        <time>2024-07-16T12:18:33Z</time>
      </trkpt>
      <trkpt lat="42.48319" lon="2.94765">
        <ele>1235</ele>
        <time>2024-07-16T12:18:41Z</time>
      </trkpt>
      <trkpt lat="42.48316" lon="2.9478">
        <ele>1235.8</ele>
        <time>2024-07-16T12:18:50Z</time>
      </trkpt>
      <trkpt lat="42.48308" lon="2.94788">
        <ele>1235.4</ele>
        <time>2024-07-16T12:18:57Z</time>
      </trkpt>
      <trkpt lat="42.48301" lon="2.94793">
        <ele>1234.6</ele>
        <time>2024-07-16T12:19:05Z</time>
      </trkpt>
      <trkpt lat="42.48297" lon="2.94797">
        <ele>1234.6</ele>
        <time>2024-07-16T12:19:12Z</time>
      </trkpt>
      <trkpt lat="42.48291" lon="2.94799">
        <ele>1235.4</ele>
        <time>2024-07-16T12:19:18Z</time>
      </trkpt>
      <trkpt lat="42.4829" lon="2.94802">
        <ele>1235.6</ele>
        <time>2024-07-16T12:19:20Z</time>
      </trkpt>
      <trkpt lat="42.48289" lon="2.94807">
        <ele>1237</ele>
        <time>2024-07-16T12:19:24Z</time>
      </trkpt>
      <trkpt lat="42.48288" lon="2.94809">
        <ele>1237.2</ele>
        <time>2024-07-16T12:19:25Z</time>
      </trkpt>
      <trkpt lat="42.48284" lon="2.94813">
        <ele>1238.4</ele>
        <time>2024-07-16T12:19:29Z</time>
      </trkpt>
      <trkpt lat="42.48278" lon="2.94819">
        <ele>1240.8</ele>
        <time>2024-07-16T12:19:35Z</time>
      </trkpt>
      <trkpt lat="42.48275" lon="2.94821">
        <ele>1241</ele>
        <time>2024-07-16T12:19:37Z</time>
      </trkpt>
      <trkpt lat="42.48273" lon="2.94822">
        <ele>1241</ele>
        <time>2024-07-16T12:19:39Z</time>
      </trkpt>
      <trkpt lat="42.48271" lon="2.94826">
        <ele>1240.8</ele>
        <time>2024-07-16T12:19:42Z</time>
      </trkpt>
      <trkpt lat="42.48271" lon="2.94827">
        <ele>1240.8</ele>
        <time>2024-07-16T12:19:43Z</time>
      </trkpt>
      <trkpt lat="42.48268" lon="2.94828">
        <ele>1240.8</ele>
        <time>2024-07-16T12:19:46Z</time>
      </trkpt>
      <trkpt lat="42.48267" lon="2.94829">
        <ele>1240.8</ele>
        <time>2024-07-16T12:19:47Z</time>
      </trkpt>
      <trkpt lat="42.48262" lon="2.94835">
        <ele>1240.8</ele>
        <time>2024-07-16T12:19:53Z</time>
      </trkpt>
      <trkpt lat="42.48262" lon="2.94836">
        <ele>1240.8</ele>
        <time>2024-07-16T12:19:54Z</time>
      </trkpt>
      <trkpt lat="42.4826" lon="2.94838">
        <ele>1241.4</ele>
        <time>2024-07-16T12:19:57Z</time>
      </trkpt>
      <trkpt lat="42.48257" lon="2.94841">
        <ele>1242.2</ele>
        <time>2024-07-16T12:20:00Z</time>
      </trkpt>
      <trkpt lat="42.48257" lon="2.94845">
        <ele>1242.8</ele>
        <time>2024-07-16T12:20:02Z</time>
      </trkpt>
      <trkpt lat="42.48258" lon="2.94847">
        <ele>1243.2</ele>
        <time>2024-07-16T12:20:03Z</time>
      </trkpt>
      <trkpt lat="42.48253" lon="2.94852">
        <ele>1245.2</ele>
        <time>2024-07-16T12:20:08Z</time>
      </trkpt>
      <trkpt lat="42.48252" lon="2.94853">
        <ele>1245.6</ele>
        <time>2024-07-16T12:20:09Z</time>
      </trkpt>
      <trkpt lat="42.48249" lon="2.94858">
        <ele>1247</ele>
        <time>2024-07-16T12:20:15Z</time>
      </trkpt>
      <trkpt lat="42.48241" lon="2.9486">
        <ele>1246</ele>
        <time>2024-07-16T12:20:24Z</time>
      </trkpt>
      <trkpt lat="42.4824" lon="2.94859">
        <ele>1245.2</ele>
        <time>2024-07-16T12:20:30Z</time>
      </trkpt>
      <trkpt lat="42.48237" lon="2.94864">
        <ele>1244</ele>
        <time>2024-07-16T12:20:58Z</time>
      </trkpt>
      <trkpt lat="42.48235" lon="2.94871">
        <ele>1244</ele>
        <time>2024-07-16T12:21:03Z</time>
      </trkpt>
      <trkpt lat="42.48235" lon="2.94872">
        <ele>1244</ele>
        <time>2024-07-16T12:21:04Z</time>
      </trkpt>
      <trkpt lat="42.48234" lon="2.94875">
        <ele>1243.6</ele>
        <time>2024-07-16T12:21:11Z</time>
      </trkpt>
      <trkpt lat="42.48235" lon="2.94875">
        <ele>1243.6</ele>
        <time>2024-07-16T12:21:16Z</time>
      </trkpt>
      <trkpt lat="42.48234" lon="2.94875">
        <ele>1243.6</ele>
        <time>2024-07-16T12:21:32Z</time>
      </trkpt>
      <trkpt lat="42.48232" lon="2.94879">
        <ele>1244.4</ele>
        <time>2024-07-16T12:23:33Z</time>
      </trkpt>
      <trkpt lat="42.48232" lon="2.94885">
        <ele>1242</ele>
        <time>2024-07-16T12:23:40Z</time>
      </trkpt>
      <trkpt lat="42.48235" lon="2.94889">
        <ele>1240</ele>
        <time>2024-07-16T12:23:46Z</time>
      </trkpt>
      <trkpt lat="42.48235" lon="2.9489">
        <ele>1240</ele>
        <time>2024-07-16T12:23:47Z</time>
      </trkpt>
      <trkpt lat="42.48232" lon="2.9489">
        <ele>1239</ele>
        <time>2024-07-16T13:52:58Z</time>
      </trkpt>
      <trkpt lat="42.4823" lon="2.94889">
        <ele>1239.2</ele>
        <time>2024-07-16T13:53:02Z</time>
      </trkpt>
      <trkpt lat="42.48228" lon="2.94884">
        <ele>1239.6</ele>
        <time>2024-07-16T13:53:12Z</time>
      </trkpt>
      <trkpt lat="42.48225" lon="2.9488">
        <ele>1240.2</ele>
        <time>2024-07-16T13:53:21Z</time>
      </trkpt>
      <trkpt lat="42.48224" lon="2.9488">
        <ele>1240.6</ele>
        <time>2024-07-16T13:53:31Z</time>
      </trkpt>
      <trkpt lat="42.48225" lon="2.94873">
        <ele>1242.8</ele>
        <time>2024-07-16T13:54:11Z</time>
      </trkpt>
      <trkpt lat="42.48225" lon="2.94865">
        <ele>1243.8</ele>
        <time>2024-07-16T13:54:18Z</time>
      </trkpt>
      <trkpt lat="42.48221" lon="2.94865">
        <ele>1244.6</ele>
        <time>2024-07-16T13:54:25Z</time>
      </trkpt>
      <trkpt lat="42.48216" lon="2.94864">
        <ele>1243.6</ele>
        <time>2024-07-16T13:54:31Z</time>
      </trkpt>
      <trkpt lat="42.48212" lon="2.94863">
        <ele>1242.6</ele>
        <time>2024-07-16T13:54:37Z</time>
      </trkpt>
      <trkpt lat="42.48208" lon="2.94861">
        <ele>1241.2</ele>
        <time>2024-07-16T13:54:44Z</time>
      </trkpt>
      <trkpt lat="42.48202" lon="2.94854">
        <ele>1240.6</ele>
        <time>2024-07-16T13:54:54Z</time>
      </trkpt>
      <trkpt lat="42.48197" lon="2.94852">
        <ele>1238.6</ele>
        <time>2024-07-16T13:55:02Z</time>
      </trkpt>
      <trkpt lat="42.48191" lon="2.94851">
        <ele>1237.8</ele>
        <time>2024-07-16T13:55:09Z</time>
      </trkpt>
      <trkpt lat="42.48188" lon="2.94848">
        <ele>1239.4</ele>
        <time>2024-07-16T13:55:16Z</time>
      </trkpt>
      <trkpt lat="42.48185" lon="2.94851">
        <ele>1238.8</ele>
        <time>2024-07-16T13:55:23Z</time>
      </trkpt>
      <trkpt lat="42.48182" lon="2.94852">
        <ele>1237.6</ele>
        <time>2024-07-16T13:55:29Z</time>
      </trkpt>
      <trkpt lat="42.48176" lon="2.94851">
        <ele>1236.2</ele>
        <time>2024-07-16T13:55:38Z</time>
      </trkpt>
      <trkpt lat="42.4817" lon="2.94855">
        <ele>1236</ele>
        <time>2024-07-16T13:55:46Z</time>
      </trkpt>
      <trkpt lat="42.48164" lon="2.94857">
        <ele>1238.2</ele>
        <time>2024-07-16T13:55:54Z</time>
      </trkpt>
      <trkpt lat="42.48157" lon="2.94856">
        <ele>1236.8</ele>
        <time>2024-07-16T13:56:01Z</time>
      </trkpt>
      <trkpt lat="42.48153" lon="2.94854">
        <ele>1234.4</ele>
        <time>2024-07-16T13:56:08Z</time>
      </trkpt>
      <trkpt lat="42.48155" lon="2.94854">
        <ele>1231.6</ele>
        <time>2024-07-16T13:56:16Z</time>
      </trkpt>
      <trkpt lat="42.48148" lon="2.94856">
        <ele>1226.2</ele>
        <time>2024-07-16T13:56:22Z</time>
      </trkpt>
      <trkpt lat="42.48145" lon="2.94858">
        <ele>1223</ele>
        <time>2024-07-16T13:56:28Z</time>
      </trkpt>
      <trkpt lat="42.48142" lon="2.94862">
        <ele>1220.6</ele>
        <time>2024-07-16T13:56:35Z</time>
      </trkpt>
      <trkpt lat="42.4814" lon="2.94863">
        <ele>1218.4</ele>
        <time>2024-07-16T13:56:41Z</time>
      </trkpt>
      <trkpt lat="42.48134" lon="2.94866">
        <ele>1215.8</ele>
        <time>2024-07-16T13:56:48Z</time>
      </trkpt>
      <trkpt lat="42.48129" lon="2.94867">
        <ele>1213.6</ele>
        <time>2024-07-16T13:56:56Z</time>
      </trkpt>
      <trkpt lat="42.48124" lon="2.94872">
        <ele>1211.6</ele>
        <time>2024-07-16T13:57:04Z</time>
      </trkpt>
      <trkpt lat="42.48119" lon="2.94876">
        <ele>1210.2</ele>
        <time>2024-07-16T13:57:11Z</time>
      </trkpt>
      <trkpt lat="42.48116" lon="2.94878">
        <ele>1209.6</ele>
        <time>2024-07-16T13:57:15Z</time>
      </trkpt>
      <trkpt lat="42.48116" lon="2.94879">
        <ele>1209.2</ele>
        <time>2024-07-16T13:57:18Z</time>
      </trkpt>
      <trkpt lat="42.48114" lon="2.94883">
        <ele>1206.6</ele>
        <time>2024-07-16T13:57:25Z</time>
      </trkpt>
      <trkpt lat="42.48111" lon="2.94883">
        <ele>1203.2</ele>
        <time>2024-07-16T13:57:32Z</time>
      </trkpt>
      <trkpt lat="42.48108" lon="2.94887">
        <ele>1199.4</ele>
        <time>2024-07-16T13:57:40Z</time>
      </trkpt>
      <trkpt lat="42.48103" lon="2.94889">
        <ele>1198</ele>
        <time>2024-07-16T13:57:49Z</time>
      </trkpt>
      <trkpt lat="42.48104" lon="2.94893">
        <ele>1196.2</ele>
        <time>2024-07-16T13:57:55Z</time>
      </trkpt>
      <trkpt lat="42.48102" lon="2.94898">
        <ele>1193.6</ele>
        <time>2024-07-16T13:58:02Z</time>
      </trkpt>
      <trkpt lat="42.48098" lon="2.94903">
        <ele>1191</ele>
        <time>2024-07-16T13:58:11Z</time>
      </trkpt>
      <trkpt lat="42.48094" lon="2.94904">
        <ele>1190.8</ele>
        <time>2024-07-16T13:58:18Z</time>
      </trkpt>
      <trkpt lat="42.48092" lon="2.94907">
        <ele>1188.8</ele>
        <time>2024-07-16T13:58:25Z</time>
      </trkpt>
      <trkpt lat="42.48088" lon="2.94907">
        <ele>1186.8</ele>
        <time>2024-07-16T13:58:32Z</time>
      </trkpt>
      <trkpt lat="42.48084" lon="2.94911">
        <ele>1185.6</ele>
        <time>2024-07-16T13:58:39Z</time>
      </trkpt>
      <trkpt lat="42.48079" lon="2.94914">
        <ele>1182.4</ele>
        <time>2024-07-16T13:58:50Z</time>
      </trkpt>
      <trkpt lat="42.48074" lon="2.94918">
        <ele>1180</ele>
        <time>2024-07-16T13:58:59Z</time>
      </trkpt>
      <trkpt lat="42.48071" lon="2.9492">
        <ele>1179</ele>
        <time>2024-07-16T13:59:06Z</time>
      </trkpt>
      <trkpt lat="42.48071" lon="2.94926">
        <ele>1176.6</ele>
        <time>2024-07-16T13:59:14Z</time>
      </trkpt>
      <trkpt lat="42.48068" lon="2.94929">
        <ele>1175.2</ele>
        <time>2024-07-16T13:59:20Z</time>
      </trkpt>
      <trkpt lat="42.48064" lon="2.94932">
        <ele>1174.2</ele>
        <time>2024-07-16T13:59:27Z</time>
      </trkpt>
      <trkpt lat="42.48059" lon="2.94936">
        <ele>1173.2</ele>
        <time>2024-07-16T13:59:35Z</time>
      </trkpt>
      <trkpt lat="42.48058" lon="2.94941">
        <ele>1171</ele>
        <time>2024-07-16T13:59:42Z</time>
      </trkpt>
      <trkpt lat="42.48062" lon="2.94946">
        <ele>1169.6</ele>
        <time>2024-07-16T13:59:52Z</time>
      </trkpt>
      <trkpt lat="42.48063" lon="2.94951">
        <ele>1168</ele>
        <time>2024-07-16T13:59:59Z</time>
      </trkpt>
      <trkpt lat="42.48064" lon="2.94959">
        <ele>1165.2</ele>
        <time>2024-07-16T14:00:08Z</time>
      </trkpt>
      <trkpt lat="42.48063" lon="2.94965">
        <ele>1163.6</ele>
        <time>2024-07-16T14:00:15Z</time>
      </trkpt>
      <trkpt lat="42.4806" lon="2.94971">
        <ele>1162.6</ele>
        <time>2024-07-16T14:00:23Z</time>
      </trkpt>
      <trkpt lat="42.48056" lon="2.94973">
        <ele>1159.6</ele>
        <time>2024-07-16T14:00:33Z</time>
      </trkpt>
      <trkpt lat="42.48056" lon="2.94972">
        <ele>1157.8</ele>
        <time>2024-07-16T14:00:42Z</time>
      </trkpt>
      <trkpt lat="42.4806" lon="2.94982">
        <ele>1158.2</ele>
        <time>2024-07-16T14:01:23Z</time>
      </trkpt>
      <trkpt lat="42.48056" lon="2.94992">
        <ele>1159.4</ele>
        <time>2024-07-16T14:01:30Z</time>
      </trkpt>
      <trkpt lat="42.48056" lon="2.94999">
        <ele>1158.6</ele>
        <time>2024-07-16T14:01:38Z</time>
      </trkpt>
      <trkpt lat="42.48052" lon="2.95003">
        <ele>1156.4</ele>
        <time>2024-07-16T14:01:45Z</time>
      </trkpt>
      <trkpt lat="42.48047" lon="2.95004">
        <ele>1152.8</ele>
        <time>2024-07-16T14:01:54Z</time>
      </trkpt>
      <trkpt lat="42.48043" lon="2.95007">
        <ele>1150.2</ele>
        <time>2024-07-16T14:02:01Z</time>
      </trkpt>
      <trkpt lat="42.48038" lon="2.95008">
        <ele>1146.4</ele>
        <time>2024-07-16T14:02:10Z</time>
      </trkpt>
      <trkpt lat="42.48031" lon="2.95005">
        <ele>1142.6</ele>
        <time>2024-07-16T14:02:19Z</time>
      </trkpt>
      <trkpt lat="42.48025" lon="2.95002">
        <ele>1140.8</ele>
        <time>2024-07-16T14:02:26Z</time>
      </trkpt>
      <trkpt lat="42.48022" lon="2.95002">
        <ele>1139.4</ele>
        <time>2024-07-16T14:02:30Z</time>
      </trkpt>
      <trkpt lat="42.48019" lon="2.95">
        <ele>1137.8</ele>
        <time>2024-07-16T14:02:34Z</time>
      </trkpt>
      <trkpt lat="42.48012" lon="2.94998">
        <ele>1135.2</ele>
        <time>2024-07-16T14:02:41Z</time>
      </trkpt>
      <trkpt lat="42.48005" lon="2.95">
        <ele>1134.8</ele>
        <time>2024-07-16T14:02:49Z</time>
      </trkpt>
      <trkpt lat="42.48003" lon="2.95">
        <ele>1134.8</ele>
        <time>2024-07-16T14:02:51Z</time>
      </trkpt>
      <trkpt lat="42.47998" lon="2.95001">
        <ele>1134.4</ele>
        <time>2024-07-16T14:02:57Z</time>
      </trkpt>
      <trkpt lat="42.47997" lon="2.95001">
        <ele>1134.2</ele>
        <time>2024-07-16T14:02:58Z</time>
      </trkpt>
      <trkpt lat="42.4799" lon="2.95005">
        <ele>1132.6</ele>
        <time>2024-07-16T14:03:07Z</time>
      </trkpt>
      <trkpt lat="42.47985" lon="2.95009">
        <ele>1129.6</ele>
        <time>2024-07-16T14:03:16Z</time>
      </trkpt>
      <trkpt lat="42.47982" lon="2.95014">
        <ele>1126.6</ele>
        <time>2024-07-16T14:03:25Z</time>
      </trkpt>
      <trkpt lat="42.47977" lon="2.95015">
        <ele>1125.4</ele>
        <time>2024-07-16T14:03:34Z</time>
      </trkpt>
      <trkpt lat="42.47969" lon="2.95019">
        <ele>1123.6</ele>
        <time>2024-07-16T14:03:43Z</time>
      </trkpt>
      <trkpt lat="42.47958" lon="2.9502">
        <ele>1122.2</ele>
        <time>2024-07-16T14:03:55Z</time>
      </trkpt>
      <trkpt lat="42.47948" lon="2.95018">
        <ele>1120.6</ele>
        <time>2024-07-16T14:04:06Z</time>
      </trkpt>
      <trkpt lat="42.47938" lon="2.95019">
        <ele>1118.2</ele>
        <time>2024-07-16T14:04:17Z</time>
      </trkpt>
      <trkpt lat="42.47926" lon="2.95021">
        <ele>1115.6</ele>
        <time>2024-07-16T14:04:30Z</time>
      </trkpt>
      <trkpt lat="42.47916" lon="2.95021">
        <ele>1113.2</ele>
        <time>2024-07-16T14:04:41Z</time>
      </trkpt>
      <trkpt lat="42.47905" lon="2.9502">
        <ele>1111.4</ele>
        <time>2024-07-16T14:04:52Z</time>
      </trkpt>
      <trkpt lat="42.47902" lon="2.95021">
        <ele>1111.2</ele>
        <time>2024-07-16T14:04:55Z</time>
      </trkpt>
      <trkpt lat="42.47899" lon="2.95021">
        <ele>1111</ele>
        <time>2024-07-16T14:04:58Z</time>
      </trkpt>
      <trkpt lat="42.47898" lon="2.9502">
        <ele>1110.8</ele>
        <time>2024-07-16T14:04:59Z</time>
      </trkpt>
      <trkpt lat="42.47888" lon="2.9502">
        <ele>1109.4</ele>
        <time>2024-07-16T14:05:09Z</time>
      </trkpt>
      <trkpt lat="42.47877" lon="2.9502">
        <ele>1108.2</ele>
        <time>2024-07-16T14:05:20Z</time>
      </trkpt>
      <trkpt lat="42.47868" lon="2.95024">
        <ele>1105.6</ele>
        <time>2024-07-16T14:05:30Z</time>
      </trkpt>
      <trkpt lat="42.47863" lon="2.9503">
        <ele>1103</ele>
        <time>2024-07-16T14:05:38Z</time>
      </trkpt>
      <trkpt lat="42.47861" lon="2.95033">
        <ele>1102.8</ele>
        <time>2024-07-16T14:05:40Z</time>
      </trkpt>
      <trkpt lat="42.47858" lon="2.95041">
        <ele>1101.2</ele>
        <time>2024-07-16T14:05:47Z</time>
      </trkpt>
      <trkpt lat="42.47853" lon="2.95051">
        <ele>1098.6</ele>
        <time>2024-07-16T14:05:56Z</time>
      </trkpt>
      <trkpt lat="42.47851" lon="2.95061">
        <ele>1096.2</ele>
        <time>2024-07-16T14:06:05Z</time>
      </trkpt>
      <trkpt lat="42.47849" lon="2.95071">
        <ele>1094.4</ele>
        <time>2024-07-16T14:06:13Z</time>
      </trkpt>
      <trkpt lat="42.47849" lon="2.95074">
        <ele>1093.6</ele>
        <time>2024-07-16T14:06:16Z</time>
      </trkpt>
      <trkpt lat="42.47849" lon="2.95081">
        <ele>1091.6</ele>
        <time>2024-07-16T14:06:22Z</time>
      </trkpt>
      <trkpt lat="42.47852" lon="2.95091">
        <ele>1089.8</ele>
        <time>2024-07-16T14:06:31Z</time>
      </trkpt>
      <trkpt lat="42.47852" lon="2.95093">
        <ele>1089.2</ele>
        <time>2024-07-16T14:06:33Z</time>
      </trkpt>
      <trkpt lat="42.47852" lon="2.951">
        <ele>1087.6</ele>
        <time>2024-07-16T14:06:39Z</time>
      </trkpt>
      <trkpt lat="42.47853" lon="2.95108">
        <ele>1085.4</ele>
        <time>2024-07-16T14:06:48Z</time>
      </trkpt>
      <trkpt lat="42.47851" lon="2.95117">
        <ele>1082.2</ele>
        <time>2024-07-16T14:06:58Z</time>
      </trkpt>
      <trkpt lat="42.47847" lon="2.95126">
        <ele>1080</ele>
        <time>2024-07-16T14:07:08Z</time>
      </trkpt>
      <trkpt lat="42.4785" lon="2.95131">
        <ele>1078.6</ele>
        <time>2024-07-16T14:07:15Z</time>
      </trkpt>
      <trkpt lat="42.47852" lon="2.95139">
        <ele>1076.8</ele>
        <time>2024-07-16T14:07:23Z</time>
      </trkpt>
      <trkpt lat="42.47856" lon="2.95147">
        <ele>1073.8</ele>
        <time>2024-07-16T14:07:32Z</time>
      </trkpt>
      <trkpt lat="42.47861" lon="2.95157">
        <ele>1071</ele>
        <time>2024-07-16T14:07:41Z</time>
      </trkpt>
      <trkpt lat="42.47858" lon="2.95166">
        <ele>1069</ele>
        <time>2024-07-16T14:07:49Z</time>
      </trkpt>
      <trkpt lat="42.47859" lon="2.95174">
        <ele>1067.4</ele>
        <time>2024-07-16T14:07:55Z</time>
      </trkpt>
      <trkpt lat="42.47858" lon="2.95175">
        <ele>1065.8</ele>
        <time>2024-07-16T14:08:00Z</time>
      </trkpt>
      <trkpt lat="42.47861" lon="2.95176">
        <ele>1065</ele>
        <time>2024-07-16T14:08:09Z</time>
      </trkpt>
      <trkpt lat="42.47861" lon="2.95177">
        <ele>1064.6</ele>
        <time>2024-07-16T14:08:15Z</time>
      </trkpt>
      <trkpt lat="42.47856" lon="2.95176">
        <ele>1064.6</ele>
        <time>2024-07-16T14:08:39Z</time>
      </trkpt>
      <trkpt lat="42.47853" lon="2.95176">
        <ele>1065</ele>
        <time>2024-07-16T14:08:44Z</time>
      </trkpt>
      <trkpt lat="42.47854" lon="2.95177">
        <ele>1066.6</ele>
        <time>2024-07-16T14:08:51Z</time>
      </trkpt>
      <trkpt lat="42.47854" lon="2.95176">
        <ele>1069.8</ele>
        <time>2024-07-16T14:09:00Z</time>
      </trkpt>
      <trkpt lat="42.47848" lon="2.9518">
        <ele>1074.8</ele>
        <time>2024-07-16T14:14:43Z</time>
      </trkpt>
      <trkpt lat="42.47838" lon="2.95183">
        <ele>1073.2</ele>
        <time>2024-07-16T14:14:49Z</time>
      </trkpt>
      <trkpt lat="42.47836" lon="2.95184">
        <ele>1072.4</ele>
        <time>2024-07-16T14:14:52Z</time>
      </trkpt>
      <trkpt lat="42.4783" lon="2.9519">
        <ele>1071.2</ele>
        <time>2024-07-16T14:15:00Z</time>
      </trkpt>
      <trkpt lat="42.47823" lon="2.95195">
        <ele>1071</ele>
        <time>2024-07-16T14:15:09Z</time>
      </trkpt>
      <trkpt lat="42.47817" lon="2.95198">
        <ele>1070.6</ele>
        <time>2024-07-16T14:15:15Z</time>
      </trkpt>
      <trkpt lat="42.47814" lon="2.952">
        <ele>1070.6</ele>
        <time>2024-07-16T14:15:18Z</time>
      </trkpt>
      <trkpt lat="42.47802" lon="2.95212">
        <ele>1070.4</ele>
        <time>2024-07-16T14:15:32Z</time>
      </trkpt>
      <trkpt lat="42.47791" lon="2.95223">
        <ele>1069.4</ele>
        <time>2024-07-16T14:15:46Z</time>
      </trkpt>
      <trkpt lat="42.47782" lon="2.9523">
        <ele>1068</ele>
        <time>2024-07-16T14:15:56Z</time>
      </trkpt>
      <trkpt lat="42.47774" lon="2.95236">
        <ele>1068.6</ele>
        <time>2024-07-16T14:16:05Z</time>
      </trkpt>
      <trkpt lat="42.47767" lon="2.95243">
        <ele>1068.8</ele>
        <time>2024-07-16T14:16:13Z</time>
      </trkpt>
      <trkpt lat="42.47755" lon="2.9525">
        <ele>1068</ele>
        <time>2024-07-16T14:16:25Z</time>
      </trkpt>
      <trkpt lat="42.47747" lon="2.95257">
        <ele>1067</ele>
        <time>2024-07-16T14:16:34Z</time>
      </trkpt>
      <trkpt lat="42.47739" lon="2.95266">
        <ele>1065</ele>
        <time>2024-07-16T14:16:44Z</time>
      </trkpt>
      <trkpt lat="42.47729" lon="2.95278">
        <ele>1062.4</ele>
        <time>2024-07-16T14:16:55Z</time>
      </trkpt>
      <trkpt lat="42.4772" lon="2.95288">
        <ele>1062</ele>
        <time>2024-07-16T14:17:05Z</time>
      </trkpt>
      <trkpt lat="42.4771" lon="2.95296">
        <ele>1060.4</ele>
        <time>2024-07-16T14:17:15Z</time>
      </trkpt>
      <trkpt lat="42.47699" lon="2.95305">
        <ele>1059.4</ele>
        <time>2024-07-16T14:17:26Z</time>
      </trkpt>
      <trkpt lat="42.4769" lon="2.95319">
        <ele>1060.4</ele>
        <time>2024-07-16T14:17:37Z</time>
      </trkpt>
      <trkpt lat="42.47683" lon="2.95329">
        <ele>1060.8</ele>
        <time>2024-07-16T14:17:46Z</time>
      </trkpt>
      <trkpt lat="42.47677" lon="2.95347">
        <ele>1060.2</ele>
        <time>2024-07-16T14:17:58Z</time>
      </trkpt>
      <trkpt lat="42.47674" lon="2.95364">
        <ele>1059.6</ele>
        <time>2024-07-16T14:18:09Z</time>
      </trkpt>
      <trkpt lat="42.4767" lon="2.95383">
        <ele>1058.8</ele>
        <time>2024-07-16T14:18:20Z</time>
      </trkpt>
      <trkpt lat="42.47669" lon="2.95396">
        <ele>1057.8</ele>
        <time>2024-07-16T14:18:29Z</time>
      </trkpt>
      <trkpt lat="42.47665" lon="2.95417">
        <ele>1055</ele>
        <time>2024-07-16T14:18:41Z</time>
      </trkpt>
      <trkpt lat="42.47659" lon="2.95438">
        <ele>1053.6</ele>
        <time>2024-07-16T14:18:54Z</time>
      </trkpt>
      <trkpt lat="42.47654" lon="2.95454">
        <ele>1052.4</ele>
        <time>2024-07-16T14:19:04Z</time>
      </trkpt>
      <trkpt lat="42.47647" lon="2.95471">
        <ele>1050.8</ele>
        <time>2024-07-16T14:19:16Z</time>
      </trkpt>
      <trkpt lat="42.47642" lon="2.95483">
        <ele>1049.8</ele>
        <time>2024-07-16T14:19:25Z</time>
      </trkpt>
      <trkpt lat="42.47634" lon="2.95502">
        <ele>1050.2</ele>
        <time>2024-07-16T14:19:38Z</time>
      </trkpt>
      <trkpt lat="42.47629" lon="2.95516">
        <ele>1051</ele>
        <time>2024-07-16T14:19:47Z</time>
      </trkpt>
      <trkpt lat="42.47623" lon="2.95534">
        <ele>1050.2</ele>
        <time>2024-07-16T14:20:00Z</time>
      </trkpt>
      <trkpt lat="42.47618" lon="2.9555">
        <ele>1048.6</ele>
        <time>2024-07-16T14:20:11Z</time>
      </trkpt>
      <trkpt lat="42.47614" lon="2.95565">
        <ele>1047.8</ele>
        <time>2024-07-16T14:20:20Z</time>
      </trkpt>
      <trkpt lat="42.47611" lon="2.95581">
        <ele>1048</ele>
        <time>2024-07-16T14:20:30Z</time>
      </trkpt>
      <trkpt lat="42.47607" lon="2.95599">
        <ele>1047.8</ele>
        <time>2024-07-16T14:20:41Z</time>
      </trkpt>
      <trkpt lat="42.47605" lon="2.95619">
        <ele>1048.4</ele>
        <time>2024-07-16T14:20:54Z</time>
      </trkpt>
      <trkpt lat="42.47603" lon="2.95635">
        <ele>1047.8</ele>
        <time>2024-07-16T14:21:04Z</time>
      </trkpt>
      <trkpt lat="42.47603" lon="2.95648">
        <ele>1046.6</ele>
        <time>2024-07-16T14:21:12Z</time>
      </trkpt>
      <trkpt lat="42.476" lon="2.95658">
        <ele>1046.2</ele>
        <time>2024-07-16T14:21:19Z</time>
      </trkpt>
      <trkpt lat="42.47596" lon="2.95669">
        <ele>1046.2</ele>
        <time>2024-07-16T14:21:28Z</time>
      </trkpt>
      <trkpt lat="42.47592" lon="2.95679">
        <ele>1046.8</ele>
        <time>2024-07-16T14:21:35Z</time>
      </trkpt>
      <trkpt lat="42.47589" lon="2.95694">
        <ele>1049.2</ele>
        <time>2024-07-16T14:21:43Z</time>
      </trkpt>
      <trkpt lat="42.47585" lon="2.95707">
        <ele>1050</ele>
        <time>2024-07-16T14:21:51Z</time>
      </trkpt>
      <trkpt lat="42.47583" lon="2.9572">
        <ele>1048.2</ele>
        <time>2024-07-16T14:22:00Z</time>
      </trkpt>
      <trkpt lat="42.47576" lon="2.95729">
        <ele>1046.8</ele>
        <time>2024-07-16T14:22:07Z</time>
      </trkpt>
      <trkpt lat="42.47567" lon="2.95735">
        <ele>1047.2</ele>
        <time>2024-07-16T14:22:15Z</time>
      </trkpt>
      <trkpt lat="42.4756" lon="2.95744">
        <ele>1047.2</ele>
        <time>2024-07-16T14:22:22Z</time>
      </trkpt>
      <trkpt lat="42.47551" lon="2.95753">
        <ele>1046.4</ele>
        <time>2024-07-16T14:22:31Z</time>
      </trkpt>
      <trkpt lat="42.47542" lon="2.95764">
        <ele>1045.2</ele>
        <time>2024-07-16T14:22:40Z</time>
      </trkpt>
      <trkpt lat="42.47532" lon="2.95773">
        <ele>1044.4</ele>
        <time>2024-07-16T14:22:48Z</time>
      </trkpt>
      <trkpt lat="42.47529" lon="2.95783">
        <ele>1041.8</ele>
        <time>2024-07-16T14:22:56Z</time>
      </trkpt>
      <trkpt lat="42.47524" lon="2.95792">
        <ele>1038.4</ele>
        <time>2024-07-16T14:23:05Z</time>
      </trkpt>
      <trkpt lat="42.47522" lon="2.95804">
        <ele>1034.8</ele>
        <time>2024-07-16T14:23:13Z</time>
      </trkpt>
      <trkpt lat="42.47514" lon="2.95818">
        <ele>1033.4</ele>
        <time>2024-07-16T14:23:21Z</time>
      </trkpt>
      <trkpt lat="42.47511" lon="2.95834">
        <ele>1036.2</ele>
        <time>2024-07-16T14:23:30Z</time>
      </trkpt>
      <trkpt lat="42.47511" lon="2.95845">
        <ele>1036.4</ele>
        <time>2024-07-16T14:23:38Z</time>
      </trkpt>
      <trkpt lat="42.47511" lon="2.95847">
        <ele>1036</ele>
        <time>2024-07-16T14:23:39Z</time>
      </trkpt>
      <trkpt lat="42.47508" lon="2.95855">
        <ele>1032.6</ele>
        <time>2024-07-16T14:23:45Z</time>
      </trkpt>
      <trkpt lat="42.47504" lon="2.95874">
        <ele>1032.4</ele>
        <time>2024-07-16T14:23:55Z</time>
      </trkpt>
      <trkpt lat="42.47499" lon="2.95886">
        <ele>1032.8</ele>
        <time>2024-07-16T14:24:03Z</time>
      </trkpt>
      <trkpt lat="42.47494" lon="2.959">
        <ele>1031.2</ele>
        <time>2024-07-16T14:24:13Z</time>
      </trkpt>
      <trkpt lat="42.47491" lon="2.9591">
        <ele>1030.8</ele>
        <time>2024-07-16T14:24:21Z</time>
      </trkpt>
      <trkpt lat="42.47489" lon="2.95921">
        <ele>1029.4</ele>
        <time>2024-07-16T14:24:29Z</time>
      </trkpt>
      <trkpt lat="42.47487" lon="2.95926">
        <ele>1028.6</ele>
        <time>2024-07-16T14:24:32Z</time>
      </trkpt>
      <trkpt lat="42.47486" lon="2.95932">
        <ele>1027.4</ele>
        <time>2024-07-16T14:24:35Z</time>
      </trkpt>
      <trkpt lat="42.47481" lon="2.95948">
        <ele>1025.8</ele>
        <time>2024-07-16T14:24:44Z</time>
      </trkpt>
      <trkpt lat="42.47478" lon="2.95958">
        <ele>1026.4</ele>
        <time>2024-07-16T14:24:52Z</time>
      </trkpt>
      <trkpt lat="42.47477" lon="2.9596">
        <ele>1026.4</ele>
        <time>2024-07-16T14:24:53Z</time>
      </trkpt>
      <trkpt lat="42.47473" lon="2.9597">
        <ele>1027.2</ele>
        <time>2024-07-16T14:25:00Z</time>
      </trkpt>
      <trkpt lat="42.47471" lon="2.95977">
        <ele>1028</ele>
        <time>2024-07-16T14:25:05Z</time>
      </trkpt>
      <trkpt lat="42.47468" lon="2.95982">
        <ele>1028.6</ele>
        <time>2024-07-16T14:25:08Z</time>
      </trkpt>
      <trkpt lat="42.47463" lon="2.95993">
        <ele>1028.4</ele>
        <time>2024-07-16T14:25:16Z</time>
      </trkpt>
      <trkpt lat="42.47461" lon="2.95996">
        <ele>1028</ele>
        <time>2024-07-16T14:25:19Z</time>
      </trkpt>
      <trkpt lat="42.47459" lon="2.96">
        <ele>1027.6</ele>
        <time>2024-07-16T14:25:22Z</time>
      </trkpt>
      <trkpt lat="42.47457" lon="2.96004">
        <ele>1026.6</ele>
        <time>2024-07-16T14:25:25Z</time>
      </trkpt>
      <trkpt lat="42.47455" lon="2.96007">
        <ele>1025.8</ele>
        <time>2024-07-16T14:25:27Z</time>
      </trkpt>
      <trkpt lat="42.47455" lon="2.96008">
        <ele>1025</ele>
        <time>2024-07-16T14:25:29Z</time>
      </trkpt>
      <trkpt lat="42.47452" lon="2.96014">
        <ele>1024</ele>
        <time>2024-07-16T14:25:33Z</time>
      </trkpt>
      <trkpt lat="42.4745" lon="2.96017">
        <ele>1023.6</ele>
        <time>2024-07-16T14:25:36Z</time>
      </trkpt>
      <trkpt lat="42.47448" lon="2.96021">
        <ele>1023.4</ele>
        <time>2024-07-16T14:25:38Z</time>
      </trkpt>
      <trkpt lat="42.47447" lon="2.96026">
        <ele>1024</ele>
        <time>2024-07-16T14:25:42Z</time>
      </trkpt>
      <trkpt lat="42.47443" lon="2.96032">
        <ele>1025.6</ele>
        <time>2024-07-16T14:25:48Z</time>
      </trkpt>
      <trkpt lat="42.47441" lon="2.96035">
        <ele>1026.2</ele>
        <time>2024-07-16T14:25:50Z</time>
      </trkpt>
      <trkpt lat="42.47437" lon="2.96043">
        <ele>1027.2</ele>
        <time>2024-07-16T14:25:58Z</time>
      </trkpt>
      <trkpt lat="42.47429" lon="2.96048">
        <ele>1029</ele>
        <time>2024-07-16T14:26:05Z</time>
      </trkpt>
      <trkpt lat="42.47421" lon="2.96054">
        <ele>1028.8</ele>
        <time>2024-07-16T14:26:12Z</time>
      </trkpt>
      <trkpt lat="42.4741" lon="2.96066">
        <ele>1026.8</ele>
        <time>2024-07-16T14:26:21Z</time>
      </trkpt>
      <trkpt lat="42.47402" lon="2.9607">
        <ele>1027.4</ele>
        <time>2024-07-16T14:26:29Z</time>
      </trkpt>
      <trkpt lat="42.47387" lon="2.96079">
        <ele>1023.8</ele>
        <time>2024-07-16T14:26:38Z</time>
      </trkpt>
      <trkpt lat="42.47384" lon="2.96079">
        <ele>1021.8</ele>
        <time>2024-07-16T14:26:44Z</time>
      </trkpt>
      <trkpt lat="42.47377" lon="2.96082">
        <ele>1020.2</ele>
        <time>2024-07-16T14:26:51Z</time>
      </trkpt>
      <trkpt lat="42.47372" lon="2.96085">
        <ele>1019.2</ele>
        <time>2024-07-16T14:26:57Z</time>
      </trkpt>
      <trkpt lat="42.47369" lon="2.96086">
        <ele>1019.2</ele>
        <time>2024-07-16T14:27:00Z</time>
      </trkpt>
      <trkpt lat="42.47364" lon="2.96087">
        <ele>1020</ele>
        <time>2024-07-16T14:27:03Z</time>
      </trkpt>
      <trkpt lat="42.47354" lon="2.9609">
        <ele>1021.8</ele>
        <time>2024-07-16T14:27:11Z</time>
      </trkpt>
      <trkpt lat="42.47344" lon="2.96086">
        <ele>1023</ele>
        <time>2024-07-16T14:27:18Z</time>
      </trkpt>
      <trkpt lat="42.4734" lon="2.96081">
        <ele>1023.2</ele>
        <time>2024-07-16T14:27:24Z</time>
      </trkpt>
      <trkpt lat="42.47332" lon="2.96077">
        <ele>1023</ele>
        <time>2024-07-16T14:27:32Z</time>
      </trkpt>
      <trkpt lat="42.47322" lon="2.96073">
        <ele>1024.6</ele>
        <time>2024-07-16T14:27:41Z</time>
      </trkpt>
      <trkpt lat="42.47316" lon="2.96073">
        <ele>1028.2</ele>
        <time>2024-07-16T14:27:50Z</time>
      </trkpt>
      <trkpt lat="42.47315" lon="2.96074">
        <ele>1028.4</ele>
        <time>2024-07-16T14:27:51Z</time>
      </trkpt>
      <trkpt lat="42.47309" lon="2.96079">
        <ele>1029.2</ele>
        <time>2024-07-16T14:27:59Z</time>
      </trkpt>
      <trkpt lat="42.47304" lon="2.96085">
        <ele>1028</ele>
        <time>2024-07-16T14:28:09Z</time>
      </trkpt>
      <trkpt lat="42.47298" lon="2.96092">
        <ele>1029.6</ele>
        <time>2024-07-16T14:28:20Z</time>
      </trkpt>
      <trkpt lat="42.47289" lon="2.96096">
        <ele>1030.4</ele>
        <time>2024-07-16T14:28:31Z</time>
      </trkpt>
      <trkpt lat="42.47279" lon="2.96104">
        <ele>1034.4</ele>
        <time>2024-07-16T14:28:45Z</time>
      </trkpt>
      <trkpt lat="42.47274" lon="2.96108">
        <ele>1036</ele>
        <time>2024-07-16T14:28:52Z</time>
      </trkpt>
      <trkpt lat="42.47267" lon="2.96114">
        <ele>1036.2</ele>
        <time>2024-07-16T14:29:02Z</time>
      </trkpt>
      <trkpt lat="42.47261" lon="2.9612">
        <ele>1036.6</ele>
        <time>2024-07-16T14:29:13Z</time>
      </trkpt>
      <trkpt lat="42.47255" lon="2.96127">
        <ele>1037.2</ele>
        <time>2024-07-16T14:29:23Z</time>
      </trkpt>
      <trkpt lat="42.47248" lon="2.96133">
        <ele>1038</ele>
        <time>2024-07-16T14:29:32Z</time>
      </trkpt>
      <trkpt lat="42.47242" lon="2.96137">
        <ele>1039.4</ele>
        <time>2024-07-16T14:29:39Z</time>
      </trkpt>
      <trkpt lat="42.47233" lon="2.96142">
        <ele>1041.2</ele>
        <time>2024-07-16T14:29:49Z</time>
      </trkpt>
      <trkpt lat="42.47225" lon="2.96146">
        <ele>1043</ele>
        <time>2024-07-16T14:30:00Z</time>
      </trkpt>
      <trkpt lat="42.47218" lon="2.96148">
        <ele>1043.8</ele>
        <time>2024-07-16T14:30:06Z</time>
      </trkpt>
      <trkpt lat="42.47207" lon="2.96151">
        <ele>1046.2</ele>
        <time>2024-07-16T14:30:14Z</time>
      </trkpt>
      <trkpt lat="42.47195" lon="2.96155">
        <ele>1047.2</ele>
        <time>2024-07-16T14:30:25Z</time>
      </trkpt>
      <trkpt lat="42.47185" lon="2.96159">
        <ele>1045.8</ele>
        <time>2024-07-16T14:30:35Z</time>
      </trkpt>
      <trkpt lat="42.47182" lon="2.96159">
        <ele>1045</ele>
        <time>2024-07-16T14:30:39Z</time>
      </trkpt>
      <trkpt lat="42.47179" lon="2.9616">
        <ele>1043.6</ele>
        <time>2024-07-16T14:30:42Z</time>
      </trkpt>
      <trkpt lat="42.47174" lon="2.96164">
        <ele>1043</ele>
        <time>2024-07-16T14:30:49Z</time>
      </trkpt>
      <trkpt lat="42.47173" lon="2.96163">
        <ele>1043.2</ele>
        <time>2024-07-16T14:30:50Z</time>
      </trkpt>
      <trkpt lat="42.47172" lon="2.96164">
        <ele>1043.6</ele>
        <time>2024-07-16T14:30:51Z</time>
      </trkpt>
      <trkpt lat="42.4717" lon="2.96165">
        <ele>1045</ele>
        <time>2024-07-16T14:30:55Z</time>
      </trkpt>
      <trkpt lat="42.47164" lon="2.96166">
        <ele>1046</ele>
        <time>2024-07-16T14:31:01Z</time>
      </trkpt>
      <trkpt lat="42.47156" lon="2.96169">
        <ele>1047.4</ele>
        <time>2024-07-16T14:31:07Z</time>
      </trkpt>
      <trkpt lat="42.4715" lon="2.96173">
        <ele>1049.6</ele>
        <time>2024-07-16T14:31:14Z</time>
      </trkpt>
      <trkpt lat="42.4714" lon="2.96178">
        <ele>1049</ele>
        <time>2024-07-16T14:31:21Z</time>
      </trkpt>
      <trkpt lat="42.47135" lon="2.96179">
        <ele>1047.2</ele>
        <time>2024-07-16T14:31:29Z</time>
      </trkpt>
      <trkpt lat="42.47124" lon="2.96181">
        <ele>1044</ele>
        <time>2024-07-16T14:31:37Z</time>
      </trkpt>
      <trkpt lat="42.47118" lon="2.96182">
        <ele>1046.6</ele>
        <time>2024-07-16T14:31:44Z</time>
      </trkpt>
      <trkpt lat="42.47112" lon="2.96188">
        <ele>1049.2</ele>
        <time>2024-07-16T14:31:50Z</time>
      </trkpt>
      <trkpt lat="42.47108" lon="2.96191">
        <ele>1050</ele>
        <time>2024-07-16T14:31:53Z</time>
      </trkpt>
      <trkpt lat="42.47095" lon="2.96195">
        <ele>1052.2</ele>
        <time>2024-07-16T14:32:03Z</time>
      </trkpt>
      <trkpt lat="42.47087" lon="2.96199">
        <ele>1054.8</ele>
        <time>2024-07-16T14:32:12Z</time>
      </trkpt>
      <trkpt lat="42.4708" lon="2.96206">
        <ele>1055</ele>
        <time>2024-07-16T14:32:20Z</time>
      </trkpt>
      <trkpt lat="42.47073" lon="2.96212">
        <ele>1054.2</ele>
        <time>2024-07-16T14:32:27Z</time>
      </trkpt>
      <trkpt lat="42.47066" lon="2.96225">
        <ele>1054.8</ele>
        <time>2024-07-16T14:32:38Z</time>
      </trkpt>
      <trkpt lat="42.4706" lon="2.96234">
        <ele>1055.2</ele>
        <time>2024-07-16T14:32:46Z</time>
      </trkpt>
      <trkpt lat="42.47054" lon="2.96246">
        <ele>1052.4</ele>
        <time>2024-07-16T14:32:54Z</time>
      </trkpt>
      <trkpt lat="42.47051" lon="2.96257">
        <ele>1049.4</ele>
        <time>2024-07-16T14:33:01Z</time>
      </trkpt>
      <trkpt lat="42.4705" lon="2.96258">
        <ele>1049.2</ele>
        <time>2024-07-16T14:33:02Z</time>
      </trkpt>
      <trkpt lat="42.47047" lon="2.96268">
        <ele>1048.4</ele>
        <time>2024-07-16T14:33:09Z</time>
      </trkpt>
      <trkpt lat="42.4704" lon="2.96279">
        <ele>1046.6</ele>
        <time>2024-07-16T14:33:17Z</time>
      </trkpt>
      <trkpt lat="42.47039" lon="2.9628">
        <ele>1046.4</ele>
        <time>2024-07-16T14:33:18Z</time>
      </trkpt>
      <trkpt lat="42.47037" lon="2.96281">
        <ele>1046.4</ele>
        <time>2024-07-16T14:33:20Z</time>
      </trkpt>
      <trkpt lat="42.47036" lon="2.96285">
        <ele>1046.2</ele>
        <time>2024-07-16T14:33:23Z</time>
      </trkpt>
      <trkpt lat="42.47029" lon="2.96293">
        <ele>1046</ele>
        <time>2024-07-16T14:33:31Z</time>
      </trkpt>
      <trkpt lat="42.4702" lon="2.96306">
        <ele>1047.8</ele>
        <time>2024-07-16T14:33:40Z</time>
      </trkpt>
      <trkpt lat="42.47019" lon="2.96308">
        <ele>1048.8</ele>
        <time>2024-07-16T14:33:44Z</time>
      </trkpt>
      <trkpt lat="42.47007" lon="2.96315">
        <ele>1050.8</ele>
        <time>2024-07-16T14:33:53Z</time>
      </trkpt>
      <trkpt lat="42.47005" lon="2.96316">
        <ele>1051.4</ele>
        <time>2024-07-16T14:33:55Z</time>
      </trkpt>
      <trkpt lat="42.47" lon="2.96319">
        <ele>1052</ele>
        <time>2024-07-16T14:33:59Z</time>
      </trkpt>
      <trkpt lat="42.46993" lon="2.96325">
        <ele>1052.8</ele>
        <time>2024-07-16T14:34:08Z</time>
      </trkpt>
      <trkpt lat="42.46982" lon="2.96329">
        <ele>1053.6</ele>
        <time>2024-07-16T14:34:16Z</time>
      </trkpt>
      <trkpt lat="42.46978" lon="2.96329">
        <ele>1053.4</ele>
        <time>2024-07-16T14:34:18Z</time>
      </trkpt>
      <trkpt lat="42.46973" lon="2.96328">
        <ele>1053</ele>
        <time>2024-07-16T14:34:22Z</time>
      </trkpt>
      <trkpt lat="42.46963" lon="2.96332">
        <ele>1051.2</ele>
        <time>2024-07-16T14:34:30Z</time>
      </trkpt>
      <trkpt lat="42.46954" lon="2.96338">
        <ele>1052.2</ele>
        <time>2024-07-16T14:34:37Z</time>
      </trkpt>
      <trkpt lat="42.46952" lon="2.96341">
        <ele>1053.6</ele>
        <time>2024-07-16T14:34:42Z</time>
      </trkpt>
      <trkpt lat="42.46951" lon="2.9635">
        <ele>1053.2</ele>
        <time>2024-07-16T14:34:47Z</time>
      </trkpt>
      <trkpt lat="42.4695" lon="2.96352">
        <ele>1053</ele>
        <time>2024-07-16T14:34:48Z</time>
      </trkpt>
      <trkpt lat="42.4695" lon="2.96353">
        <ele>1052.8</ele>
        <time>2024-07-16T14:34:49Z</time>
      </trkpt>
      <trkpt lat="42.46947" lon="2.96362">
        <ele>1052.6</ele>
        <time>2024-07-16T14:34:54Z</time>
      </trkpt>
      <trkpt lat="42.46942" lon="2.96366">
        <ele>1053</ele>
        <time>2024-07-16T14:35:01Z</time>
      </trkpt>
      <trkpt lat="42.46934" lon="2.96372">
        <ele>1056.8</ele>
        <time>2024-07-16T14:35:09Z</time>
      </trkpt>
      <trkpt lat="42.46927" lon="2.96378">
        <ele>1055</ele>
        <time>2024-07-16T14:35:16Z</time>
      </trkpt>
      <trkpt lat="42.46925" lon="2.96379">
        <ele>1054.6</ele>
        <time>2024-07-16T14:35:17Z</time>
      </trkpt>
      <trkpt lat="42.46923" lon="2.96379">
        <ele>1054</ele>
        <time>2024-07-16T14:35:18Z</time>
      </trkpt>
      <trkpt lat="42.46917" lon="2.96381">
        <ele>1051.6</ele>
        <time>2024-07-16T14:35:25Z</time>
      </trkpt>
      <trkpt lat="42.46911" lon="2.96387">
        <ele>1049.8</ele>
        <time>2024-07-16T14:35:32Z</time>
      </trkpt>
      <trkpt lat="42.46906" lon="2.964">
        <ele>1045.6</ele>
        <time>2024-07-16T14:35:41Z</time>
      </trkpt>
      <trkpt lat="42.46903" lon="2.96406">
        <ele>1042</ele>
        <time>2024-07-16T14:35:47Z</time>
      </trkpt>
      <trkpt lat="42.46903" lon="2.96408">
        <ele>1041.4</ele>
        <time>2024-07-16T14:35:49Z</time>
      </trkpt>
      <trkpt lat="42.469" lon="2.96415">
        <ele>1039.2</ele>
        <time>2024-07-16T14:35:55Z</time>
      </trkpt>
      <trkpt lat="42.46893" lon="2.96424">
        <ele>1037.4</ele>
        <time>2024-07-16T14:36:04Z</time>
      </trkpt>
      <trkpt lat="42.46893" lon="2.96426">
        <ele>1037.4</ele>
        <time>2024-07-16T14:36:05Z</time>
      </trkpt>
      <trkpt lat="42.4689" lon="2.96432">
        <ele>1036.6</ele>
        <time>2024-07-16T14:36:10Z</time>
      </trkpt>
      <trkpt lat="42.46882" lon="2.96443">
        <ele>1035</ele>
        <time>2024-07-16T14:36:16Z</time>
      </trkpt>
      <trkpt lat="42.46879" lon="2.96455">
        <ele>1034.2</ele>
        <time>2024-07-16T14:36:23Z</time>
      </trkpt>
      <trkpt lat="42.46878" lon="2.96458">
        <ele>1033</ele>
        <time>2024-07-16T14:36:25Z</time>
      </trkpt>
      <trkpt lat="42.46873" lon="2.96466">
        <ele>1030.8</ele>
        <time>2024-07-16T14:36:30Z</time>
      </trkpt>
      <trkpt lat="42.46869" lon="2.96478">
        <ele>1026.4</ele>
        <time>2024-07-16T14:36:39Z</time>
      </trkpt>
      <trkpt lat="42.46856" lon="2.96488">
        <ele>1022.6</ele>
        <time>2024-07-16T14:36:50Z</time>
      </trkpt>
      <trkpt lat="42.46846" lon="2.96496">
        <ele>1021</ele>
        <time>2024-07-16T14:37:00Z</time>
      </trkpt>
      <trkpt lat="42.46839" lon="2.96511">
        <ele>1018.4</ele>
        <time>2024-07-16T14:37:11Z</time>
      </trkpt>
      <trkpt lat="42.46833" lon="2.9652">
        <ele>1016</ele>
        <time>2024-07-16T14:37:20Z</time>
      </trkpt>
      <trkpt lat="42.46832" lon="2.96522">
        <ele>1015.2</ele>
        <time>2024-07-16T14:37:22Z</time>
      </trkpt>
      <trkpt lat="42.46831" lon="2.9653">
        <ele>1013.4</ele>
        <time>2024-07-16T14:37:28Z</time>
      </trkpt>
      <trkpt lat="42.46825" lon="2.96544">
        <ele>1010.4</ele>
        <time>2024-07-16T14:37:40Z</time>
      </trkpt>
      <trkpt lat="42.46815" lon="2.96553">
        <ele>1009.2</ele>
        <time>2024-07-16T14:37:51Z</time>
      </trkpt>
      <trkpt lat="42.46806" lon="2.96556">
        <ele>1007.6</ele>
        <time>2024-07-16T14:38:01Z</time>
      </trkpt>
      <trkpt lat="42.46797" lon="2.96562">
        <ele>1007</ele>
        <time>2024-07-16T14:38:10Z</time>
      </trkpt>
      <trkpt lat="42.46793" lon="2.96566">
        <ele>1003.8</ele>
        <time>2024-07-16T14:38:16Z</time>
      </trkpt>
      <trkpt lat="42.46785" lon="2.96572">
        <ele>1000.8</ele>
        <time>2024-07-16T14:38:26Z</time>
      </trkpt>
      <trkpt lat="42.46783" lon="2.96578">
        <ele>1000.6</ele>
        <time>2024-07-16T14:38:33Z</time>
      </trkpt>
      <trkpt lat="42.46777" lon="2.96585">
        <ele>999.4</ele>
        <time>2024-07-16T14:38:41Z</time>
      </trkpt>
      <trkpt lat="42.46769" lon="2.96588">
        <ele>999.6</ele>
        <time>2024-07-16T14:38:48Z</time>
      </trkpt>
      <trkpt lat="42.46765" lon="2.96587">
        <ele>1000</ele>
        <time>2024-07-16T14:38:51Z</time>
      </trkpt>
      <trkpt lat="42.4676" lon="2.9659">
        <ele>999.8</ele>
        <time>2024-07-16T14:38:56Z</time>
      </trkpt>
      <trkpt lat="42.46756" lon="2.96593">
        <ele>999.8</ele>
        <time>2024-07-16T14:38:59Z</time>
      </trkpt>
      <trkpt lat="42.46749" lon="2.96597">
        <ele>1000.4</ele>
        <time>2024-07-16T14:39:05Z</time>
      </trkpt>
      <trkpt lat="42.46746" lon="2.966">
        <ele>1001</ele>
        <time>2024-07-16T14:39:11Z</time>
      </trkpt>
      <trkpt lat="42.46743" lon="2.96606">
        <ele>1000.4</ele>
        <time>2024-07-16T14:39:17Z</time>
      </trkpt>
      <trkpt lat="42.4674" lon="2.96613">
        <ele>999.2</ele>
        <time>2024-07-16T14:39:23Z</time>
      </trkpt>
      <trkpt lat="42.46738" lon="2.96617">
        <ele>998.4</ele>
        <time>2024-07-16T14:39:26Z</time>
      </trkpt>
      <trkpt lat="42.46737" lon="2.96619">
        <ele>998</ele>
        <time>2024-07-16T14:39:28Z</time>
      </trkpt>
      <trkpt lat="42.46732" lon="2.96631">
        <ele>994.6</ele>
        <time>2024-07-16T14:39:36Z</time>
      </trkpt>
      <trkpt lat="42.46725" lon="2.96641">
        <ele>991.2</ele>
        <time>2024-07-16T14:39:43Z</time>
      </trkpt>
      <trkpt lat="42.46721" lon="2.96649">
        <ele>989.2</ele>
        <time>2024-07-16T14:39:50Z</time>
      </trkpt>
      <trkpt lat="42.4672" lon="2.9665">
        <ele>988.8</ele>
        <time>2024-07-16T14:39:51Z</time>
      </trkpt>
      <trkpt lat="42.46718" lon="2.96652">
        <ele>988.2</ele>
        <time>2024-07-16T14:39:53Z</time>
      </trkpt>
      <trkpt lat="42.46718" lon="2.96657">
        <ele>987.4</ele>
        <time>2024-07-16T14:39:56Z</time>
      </trkpt>
      <trkpt lat="42.46716" lon="2.96665">
        <ele>987</ele>
        <time>2024-07-16T14:40:01Z</time>
      </trkpt>
      <trkpt lat="42.46716" lon="2.96667">
        <ele>986.8</ele>
        <time>2024-07-16T14:40:02Z</time>
      </trkpt>
      <trkpt lat="42.46712" lon="2.96684">
        <ele>986.6</ele>
        <time>2024-07-16T14:40:12Z</time>
      </trkpt>
      <trkpt lat="42.4671" lon="2.96695">
        <ele>985.8</ele>
        <time>2024-07-16T14:40:19Z</time>
      </trkpt>
      <trkpt lat="42.46704" lon="2.96712">
        <ele>985.2</ele>
        <time>2024-07-16T14:40:31Z</time>
      </trkpt>
      <trkpt lat="42.46696" lon="2.96724">
        <ele>984.8</ele>
        <time>2024-07-16T14:40:41Z</time>
      </trkpt>
      <trkpt lat="42.46693" lon="2.96737">
        <ele>985</ele>
        <time>2024-07-16T14:40:49Z</time>
      </trkpt>
      <trkpt lat="42.46689" lon="2.96749">
        <ele>986</ele>
        <time>2024-07-16T14:40:57Z</time>
      </trkpt>
      <trkpt lat="42.46684" lon="2.96767">
        <ele>984.4</ele>
        <time>2024-07-16T14:41:08Z</time>
      </trkpt>
      <trkpt lat="42.46682" lon="2.96782">
        <ele>983.6</ele>
        <time>2024-07-16T14:41:17Z</time>
      </trkpt>
      <trkpt lat="42.46679" lon="2.96799">
        <ele>983.6</ele>
        <time>2024-07-16T14:41:27Z</time>
      </trkpt>
      <trkpt lat="42.46678" lon="2.96817">
        <ele>983</ele>
        <time>2024-07-16T14:41:38Z</time>
      </trkpt>
      <trkpt lat="42.46675" lon="2.96833">
        <ele>981.4</ele>
        <time>2024-07-16T14:41:48Z</time>
      </trkpt>
      <trkpt lat="42.46673" lon="2.96859">
        <ele>980.6</ele>
        <time>2024-07-16T14:42:03Z</time>
      </trkpt>
      <trkpt lat="42.46671" lon="2.96877">
        <ele>980.6</ele>
        <time>2024-07-16T14:42:14Z</time>
      </trkpt>
      <trkpt lat="42.46672" lon="2.96894">
        <ele>981</ele>
        <time>2024-07-16T14:42:24Z</time>
      </trkpt>
      <trkpt lat="42.46673" lon="2.96911">
        <ele>981.8</ele>
        <time>2024-07-16T14:42:35Z</time>
      </trkpt>
      <trkpt lat="42.46674" lon="2.96926">
        <ele>981</ele>
        <time>2024-07-16T14:42:45Z</time>
      </trkpt>
      <trkpt lat="42.46673" lon="2.96946">
        <ele>980.8</ele>
        <time>2024-07-16T14:42:57Z</time>
      </trkpt>
      <trkpt lat="42.46672" lon="2.96965">
        <ele>980.8</ele>
        <time>2024-07-16T14:43:08Z</time>
      </trkpt>
      <trkpt lat="42.46668" lon="2.9698">
        <ele>980.2</ele>
        <time>2024-07-16T14:43:17Z</time>
      </trkpt>
      <trkpt lat="42.46668" lon="2.96997">
        <ele>978.8</ele>
        <time>2024-07-16T14:43:27Z</time>
      </trkpt>
      <trkpt lat="42.46666" lon="2.97013">
        <ele>977.2</ele>
        <time>2024-07-16T14:43:36Z</time>
      </trkpt>
      <trkpt lat="42.46666" lon="2.97033">
        <ele>975.2</ele>
        <time>2024-07-16T14:43:47Z</time>
      </trkpt>
      <trkpt lat="42.46664" lon="2.97055">
        <ele>972.8</ele>
        <time>2024-07-16T14:44:01Z</time>
      </trkpt>
      <trkpt lat="42.46666" lon="2.97072">
        <ele>972.2</ele>
        <time>2024-07-16T14:44:11Z</time>
      </trkpt>
      <trkpt lat="42.46666" lon="2.97088">
        <ele>972.2</ele>
        <time>2024-07-16T14:44:21Z</time>
      </trkpt>
      <trkpt lat="42.46665" lon="2.97101">
        <ele>972.6</ele>
        <time>2024-07-16T14:44:29Z</time>
      </trkpt>
      <trkpt lat="42.46666" lon="2.97117">
        <ele>972.8</ele>
        <time>2024-07-16T14:44:39Z</time>
      </trkpt>
      <trkpt lat="42.46666" lon="2.97138">
        <ele>972</ele>
        <time>2024-07-16T14:44:52Z</time>
      </trkpt>
      <trkpt lat="42.46667" lon="2.97152">
        <ele>972.8</ele>
        <time>2024-07-16T14:45:01Z</time>
      </trkpt>
      <trkpt lat="42.4667" lon="2.97168">
        <ele>972.8</ele>
        <time>2024-07-16T14:45:11Z</time>
      </trkpt>
      <trkpt lat="42.46673" lon="2.97181">
        <ele>973.6</ele>
        <time>2024-07-16T14:45:20Z</time>
      </trkpt>
      <trkpt lat="42.46675" lon="2.97197">
        <ele>974</ele>
        <time>2024-07-16T14:45:31Z</time>
      </trkpt>
      <trkpt lat="42.46679" lon="2.97212">
        <ele>974.4</ele>
        <time>2024-07-16T14:45:42Z</time>
      </trkpt>
      <trkpt lat="42.46683" lon="2.97224">
        <ele>976.8</ele>
        <time>2024-07-16T14:45:52Z</time>
      </trkpt>
      <trkpt lat="42.46688" lon="2.97235">
        <ele>979</ele>
        <time>2024-07-16T14:46:02Z</time>
      </trkpt>
      <trkpt lat="42.46692" lon="2.97248">
        <ele>981.2</ele>
        <time>2024-07-16T14:46:14Z</time>
      </trkpt>
      <trkpt lat="42.46696" lon="2.97261">
        <ele>982.4</ele>
        <time>2024-07-16T14:46:27Z</time>
      </trkpt>
      <trkpt lat="42.46698" lon="2.9727">
        <ele>983.6</ele>
        <time>2024-07-16T14:46:38Z</time>
      </trkpt>
      <trkpt lat="42.46702" lon="2.97278">
        <ele>985.2</ele>
        <time>2024-07-16T14:46:46Z</time>
      </trkpt>
      <trkpt lat="42.46704" lon="2.9729">
        <ele>987.8</ele>
        <time>2024-07-16T14:46:58Z</time>
      </trkpt>
      <trkpt lat="42.46706" lon="2.97298">
        <ele>989.6</ele>
        <time>2024-07-16T14:47:06Z</time>
      </trkpt>
      <trkpt lat="42.46706" lon="2.97309">
        <ele>991</ele>
        <time>2024-07-16T14:47:16Z</time>
      </trkpt>
      <trkpt lat="42.46707" lon="2.97316">
        <ele>992</ele>
        <time>2024-07-16T14:47:24Z</time>
      </trkpt>
      <trkpt lat="42.46709" lon="2.97325">
        <ele>993.4</ele>
        <time>2024-07-16T14:47:33Z</time>
      </trkpt>
      <trkpt lat="42.46708" lon="2.97334">
        <ele>995.2</ele>
        <time>2024-07-16T14:47:42Z</time>
      </trkpt>
      <trkpt lat="42.46708" lon="2.97344">
        <ele>997</ele>
        <time>2024-07-16T14:47:51Z</time>
      </trkpt>
      <trkpt lat="42.46709" lon="2.97352">
        <ele>997.8</ele>
        <time>2024-07-16T14:47:59Z</time>
      </trkpt>
      <trkpt lat="42.46713" lon="2.97362">
        <ele>998.6</ele>
        <time>2024-07-16T14:48:10Z</time>
      </trkpt>
      <trkpt lat="42.46715" lon="2.97371">
        <ele>1000.4</ele>
        <time>2024-07-16T14:48:19Z</time>
      </trkpt>
      <trkpt lat="42.4672" lon="2.97383">
        <ele>1002.2</ele>
        <time>2024-07-16T14:48:31Z</time>
      </trkpt>
      <trkpt lat="42.46724" lon="2.97394">
        <ele>1005.6</ele>
        <time>2024-07-16T14:48:42Z</time>
      </trkpt>
      <trkpt lat="42.46726" lon="2.97407">
        <ele>1007.2</ele>
        <time>2024-07-16T14:48:54Z</time>
      </trkpt>
      <trkpt lat="42.46725" lon="2.97407">
        <ele>1008</ele>
        <time>2024-07-16T14:48:59Z</time>
      </trkpt>
      <trkpt lat="42.46725" lon="2.97408">
        <ele>1008.6</ele>
        <time>2024-07-16T14:49:07Z</time>
      </trkpt>
      <trkpt lat="42.46725" lon="2.97417">
        <ele>1010.6</ele>
        <time>2024-07-16T14:49:59Z</time>
      </trkpt>
      <trkpt lat="42.46727" lon="2.97428">
        <ele>1013</ele>
        <time>2024-07-16T14:50:07Z</time>
      </trkpt>
      <trkpt lat="42.46728" lon="2.97429">
        <ele>1013.4</ele>
        <time>2024-07-16T14:50:08Z</time>
      </trkpt>
      <trkpt lat="42.46729" lon="2.97439">
        <ele>1014.4</ele>
        <time>2024-07-16T14:50:16Z</time>
      </trkpt>
      <trkpt lat="42.46729" lon="2.9744">
        <ele>1014.4</ele>
        <time>2024-07-16T14:50:17Z</time>
      </trkpt>
      <trkpt lat="42.46729" lon="2.97447">
        <ele>1015.2</ele>
        <time>2024-07-16T14:50:25Z</time>
      </trkpt>
      <trkpt lat="42.46728" lon="2.9745">
        <ele>1016.6</ele>
        <time>2024-07-16T14:50:33Z</time>
      </trkpt>
      <trkpt lat="42.46731" lon="2.97465">
        <ele>1017.6</ele>
        <time>2024-07-16T14:50:45Z</time>
      </trkpt>
      <trkpt lat="42.46734" lon="2.97475">
        <ele>1019</ele>
        <time>2024-07-16T14:50:54Z</time>
      </trkpt>
      <trkpt lat="42.46735" lon="2.97485">
        <ele>1020.2</ele>
        <time>2024-07-16T14:51:03Z</time>
      </trkpt>
      <trkpt lat="42.46739" lon="2.97496">
        <ele>1021.8</ele>
        <time>2024-07-16T14:51:14Z</time>
      </trkpt>
      <trkpt lat="42.46745" lon="2.9751">
        <ele>1025</ele>
        <time>2024-07-16T14:51:28Z</time>
      </trkpt>
      <trkpt lat="42.46748" lon="2.97513">
        <ele>1025.6</ele>
        <time>2024-07-16T14:51:35Z</time>
      </trkpt>
      <trkpt lat="42.46751" lon="2.97516">
        <ele>1025.6</ele>
        <time>2024-07-16T14:51:41Z</time>
      </trkpt>
      <trkpt lat="42.46757" lon="2.97523">
        <ele>1027.6</ele>
        <time>2024-07-16T14:51:51Z</time>
      </trkpt>
      <trkpt lat="42.46764" lon="2.97528">
        <ele>1029</ele>
        <time>2024-07-16T14:52:01Z</time>
      </trkpt>
      <trkpt lat="42.4677" lon="2.97535">
        <ele>1031.4</ele>
        <time>2024-07-16T14:52:12Z</time>
      </trkpt>
      <trkpt lat="42.46771" lon="2.97543">
        <ele>1033</ele>
        <time>2024-07-16T14:52:21Z</time>
      </trkpt>
      <trkpt lat="42.46774" lon="2.97552">
        <ele>1035.2</ele>
        <time>2024-07-16T14:52:32Z</time>
      </trkpt>
      <trkpt lat="42.46774" lon="2.97559">
        <ele>1036.4</ele>
        <time>2024-07-16T14:52:39Z</time>
      </trkpt>
      <trkpt lat="42.46774" lon="2.97569">
        <ele>1037.2</ele>
        <time>2024-07-16T14:52:48Z</time>
      </trkpt>
      <trkpt lat="42.46774" lon="2.9758">
        <ele>1039.2</ele>
        <time>2024-07-16T14:52:57Z</time>
      </trkpt>
      <trkpt lat="42.46777" lon="2.97593">
        <ele>1041.8</ele>
        <time>2024-07-16T14:53:08Z</time>
      </trkpt>
      <trkpt lat="42.46778" lon="2.97606">
        <ele>1044.2</ele>
        <time>2024-07-16T14:53:20Z</time>
      </trkpt>
      <trkpt lat="42.46782" lon="2.97616">
        <ele>1046.2</ele>
        <time>2024-07-16T14:53:30Z</time>
      </trkpt>
      <trkpt lat="42.46785" lon="2.97621">
        <ele>1047.6</ele>
        <time>2024-07-16T14:53:35Z</time>
      </trkpt>
      <trkpt lat="42.46787" lon="2.97627">
        <ele>1048.8</ele>
        <time>2024-07-16T14:53:40Z</time>
      </trkpt>
      <trkpt lat="42.46787" lon="2.97628">
        <ele>1049</ele>
        <time>2024-07-16T14:53:41Z</time>
      </trkpt>
      <trkpt lat="42.46788" lon="2.97636">
        <ele>1050.6</ele>
        <time>2024-07-16T14:53:48Z</time>
      </trkpt>
      <trkpt lat="42.46791" lon="2.97645">
        <ele>1052</ele>
        <time>2024-07-16T14:53:56Z</time>
      </trkpt>
      <trkpt lat="42.46796" lon="2.97662">
        <ele>1054.4</ele>
        <time>2024-07-16T14:54:09Z</time>
      </trkpt>
      <trkpt lat="42.46796" lon="2.97673">
        <ele>1056.2</ele>
        <time>2024-07-16T14:54:17Z</time>
      </trkpt>
      <trkpt lat="42.46794" lon="2.97696">
        <ele>1058.8</ele>
        <time>2024-07-16T14:54:32Z</time>
      </trkpt>
      <trkpt lat="42.46792" lon="2.97704">
        <ele>1059.4</ele>
        <time>2024-07-16T14:54:38Z</time>
      </trkpt>
      <trkpt lat="42.46792" lon="2.97709">
        <ele>1059.6</ele>
        <time>2024-07-16T14:54:42Z</time>
      </trkpt>
      <trkpt lat="42.46792" lon="2.97721">
        <ele>1060</ele>
        <time>2024-07-16T14:54:50Z</time>
      </trkpt>
      <trkpt lat="42.46796" lon="2.97741">
        <ele>1060.8</ele>
        <time>2024-07-16T14:55:03Z</time>
      </trkpt>
      <trkpt lat="42.46799" lon="2.97763">
        <ele>1062</ele>
        <time>2024-07-16T14:55:16Z</time>
      </trkpt>
      <trkpt lat="42.46803" lon="2.97787">
        <ele>1062.2</ele>
        <time>2024-07-16T14:55:30Z</time>
      </trkpt>
      <trkpt lat="42.46803" lon="2.97789">
        <ele>1062.2</ele>
        <time>2024-07-16T14:55:31Z</time>
      </trkpt>
      <trkpt lat="42.46807" lon="2.97807">
        <ele>1062</ele>
        <time>2024-07-16T14:55:41Z</time>
      </trkpt>
      <trkpt lat="42.46807" lon="2.97828">
        <ele>1062.6</ele>
        <time>2024-07-16T14:55:53Z</time>
      </trkpt>
      <trkpt lat="42.46807" lon="2.97845">
        <ele>1063.8</ele>
        <time>2024-07-16T14:56:04Z</time>
      </trkpt>
      <trkpt lat="42.4681" lon="2.9786">
        <ele>1063.4</ele>
        <time>2024-07-16T14:56:13Z</time>
      </trkpt>
      <trkpt lat="42.46811" lon="2.97874">
        <ele>1063</ele>
        <time>2024-07-16T14:56:21Z</time>
      </trkpt>
      <trkpt lat="42.46814" lon="2.97889">
        <ele>1060.8</ele>
        <time>2024-07-16T14:56:32Z</time>
      </trkpt>
      <trkpt lat="42.46817" lon="2.97903">
        <ele>1059.8</ele>
        <time>2024-07-16T14:56:41Z</time>
      </trkpt>
      <trkpt lat="42.46824" lon="2.9792">
        <ele>1058.4</ele>
        <time>2024-07-16T14:56:54Z</time>
      </trkpt>
      <trkpt lat="42.46824" lon="2.97921">
        <ele>1058.4</ele>
        <time>2024-07-16T14:56:55Z</time>
      </trkpt>
      <trkpt lat="42.46825" lon="2.97931">
        <ele>1057.4</ele>
        <time>2024-07-16T14:57:01Z</time>
      </trkpt>
      <trkpt lat="42.46825" lon="2.97941">
        <ele>1056.8</ele>
        <time>2024-07-16T14:57:08Z</time>
      </trkpt>
      <trkpt lat="42.46825" lon="2.97944">
        <ele>1056.4</ele>
        <time>2024-07-16T14:57:10Z</time>
      </trkpt>
      <trkpt lat="42.46829" lon="2.9796">
        <ele>1055.4</ele>
        <time>2024-07-16T14:57:21Z</time>
      </trkpt>
      <trkpt lat="42.46831" lon="2.97972">
        <ele>1054.4</ele>
        <time>2024-07-16T14:57:29Z</time>
      </trkpt>
      <trkpt lat="42.46836" lon="2.97988">
        <ele>1052.2</ele>
        <time>2024-07-16T14:57:41Z</time>
      </trkpt>
      <trkpt lat="42.46845" lon="2.98003">
        <ele>1052</ele>
        <time>2024-07-16T14:57:52Z</time>
      </trkpt>
      <trkpt lat="42.46853" lon="2.98018">
        <ele>1051</ele>
        <time>2024-07-16T14:58:03Z</time>
      </trkpt>
      <trkpt lat="42.46861" lon="2.9803">
        <ele>1049</ele>
        <time>2024-07-16T14:58:13Z</time>
      </trkpt>
      <trkpt lat="42.46871" lon="2.98051">
        <ele>1046.8</ele>
        <time>2024-07-16T14:58:26Z</time>
      </trkpt>
      <trkpt lat="42.4688" lon="2.98063">
        <ele>1045.4</ele>
        <time>2024-07-16T14:58:35Z</time>
      </trkpt>
      <trkpt lat="42.46889" lon="2.9808">
        <ele>1046.8</ele>
        <time>2024-07-16T14:58:46Z</time>
      </trkpt>
      <trkpt lat="42.46897" lon="2.98091">
        <ele>1048.8</ele>
        <time>2024-07-16T14:58:55Z</time>
      </trkpt>
      <trkpt lat="42.46906" lon="2.981">
        <ele>1048.4</ele>
        <time>2024-07-16T14:59:03Z</time>
      </trkpt>
      <trkpt lat="42.46919" lon="2.98115">
        <ele>1047</ele>
        <time>2024-07-16T14:59:15Z</time>
      </trkpt>
      <trkpt lat="42.4693" lon="2.98124">
        <ele>1046</ele>
        <time>2024-07-16T14:59:25Z</time>
      </trkpt>
      <trkpt lat="42.46944" lon="2.98133">
        <ele>1045.8</ele>
        <time>2024-07-16T14:59:36Z</time>
      </trkpt>
      <trkpt lat="42.46961" lon="2.98142">
        <ele>1045.8</ele>
        <time>2024-07-16T14:59:49Z</time>
      </trkpt>
      <trkpt lat="42.46962" lon="2.98143">
        <ele>1045.8</ele>
        <time>2024-07-16T14:59:50Z</time>
      </trkpt>
      <trkpt lat="42.46975" lon="2.98151">
        <ele>1045.2</ele>
        <time>2024-07-16T15:00:01Z</time>
      </trkpt>
      <trkpt lat="42.46988" lon="2.98159">
        <ele>1045.4</ele>
        <time>2024-07-16T15:00:12Z</time>
      </trkpt>
      <trkpt lat="42.47004" lon="2.98166">
        <ele>1044.4</ele>
        <time>2024-07-16T15:00:24Z</time>
      </trkpt>
      <trkpt lat="42.47018" lon="2.98171">
        <ele>1044</ele>
        <time>2024-07-16T15:00:35Z</time>
      </trkpt>
      <trkpt lat="42.47033" lon="2.98172">
        <ele>1044.4</ele>
        <time>2024-07-16T15:00:46Z</time>
      </trkpt>
      <trkpt lat="42.47046" lon="2.98172">
        <ele>1045.8</ele>
        <time>2024-07-16T15:00:56Z</time>
      </trkpt>
      <trkpt lat="42.4706" lon="2.98174">
        <ele>1046</ele>
        <time>2024-07-16T15:01:07Z</time>
      </trkpt>
      <trkpt lat="42.47073" lon="2.98176">
        <ele>1047</ele>
        <time>2024-07-16T15:01:17Z</time>
      </trkpt>
      <trkpt lat="42.47091" lon="2.98179">
        <ele>1047.6</ele>
        <time>2024-07-16T15:01:31Z</time>
      </trkpt>
      <trkpt lat="42.47104" lon="2.98188">
        <ele>1046.4</ele>
        <time>2024-07-16T15:01:43Z</time>
      </trkpt>
      <trkpt lat="42.47117" lon="2.98191">
        <ele>1045.8</ele>
        <time>2024-07-16T15:01:52Z</time>
      </trkpt>
      <trkpt lat="42.4713" lon="2.98191">
        <ele>1045.4</ele>
        <time>2024-07-16T15:02:02Z</time>
      </trkpt>
      <trkpt lat="42.47145" lon="2.98194">
        <ele>1044.2</ele>
        <time>2024-07-16T15:02:14Z</time>
      </trkpt>
      <trkpt lat="42.47155" lon="2.98201">
        <ele>1043.2</ele>
        <time>2024-07-16T15:02:23Z</time>
      </trkpt>
      <trkpt lat="42.47165" lon="2.98211">
        <ele>1042.2</ele>
        <time>2024-07-16T15:02:32Z</time>
      </trkpt>
      <trkpt lat="42.47178" lon="2.98222">
        <ele>1042.4</ele>
        <time>2024-07-16T15:02:43Z</time>
      </trkpt>
      <trkpt lat="42.47187" lon="2.98233">
        <ele>1040.8</ele>
        <time>2024-07-16T15:02:52Z</time>
      </trkpt>
      <trkpt lat="42.47195" lon="2.9825">
        <ele>1038.6</ele>
        <time>2024-07-16T15:03:03Z</time>
      </trkpt>
      <trkpt lat="42.472" lon="2.98264">
        <ele>1036.4</ele>
        <time>2024-07-16T15:03:12Z</time>
      </trkpt>
      <trkpt lat="42.47207" lon="2.98287">
        <ele>1033.2</ele>
        <time>2024-07-16T15:03:26Z</time>
      </trkpt>
      <trkpt lat="42.4721" lon="2.983">
        <ele>1030.8</ele>
        <time>2024-07-16T15:03:34Z</time>
      </trkpt>
      <trkpt lat="42.47214" lon="2.98312">
        <ele>1029</ele>
        <time>2024-07-16T15:03:44Z</time>
      </trkpt>
      <trkpt lat="42.4722" lon="2.98316">
        <ele>1029.2</ele>
        <time>2024-07-16T15:04:23Z</time>
      </trkpt>
      <trkpt lat="42.4723" lon="2.98327">
        <ele>1028.4</ele>
        <time>2024-07-16T15:04:31Z</time>
      </trkpt>
      <trkpt lat="42.47242" lon="2.9834">
        <ele>1026.4</ele>
        <time>2024-07-16T15:04:44Z</time>
      </trkpt>
      <trkpt lat="42.4725" lon="2.98348">
        <ele>1027.2</ele>
        <time>2024-07-16T15:04:53Z</time>
      </trkpt>
      <trkpt lat="42.47259" lon="2.98358">
        <ele>1028.2</ele>
        <time>2024-07-16T15:05:06Z</time>
      </trkpt>
      <trkpt lat="42.47267" lon="2.98367">
        <ele>1029.6</ele>
        <time>2024-07-16T15:05:18Z</time>
      </trkpt>
      <trkpt lat="42.47278" lon="2.98375">
        <ele>1031</ele>
        <time>2024-07-16T15:05:30Z</time>
      </trkpt>
      <trkpt lat="42.47286" lon="2.98385">
        <ele>1034</ele>
        <time>2024-07-16T15:05:42Z</time>
      </trkpt>
      <trkpt lat="42.47294" lon="2.98395">
        <ele>1036.2</ele>
        <time>2024-07-16T15:05:54Z</time>
      </trkpt>
      <trkpt lat="42.47301" lon="2.98402">
        <ele>1038</ele>
        <time>2024-07-16T15:06:05Z</time>
      </trkpt>
      <trkpt lat="42.47305" lon="2.98407">
        <ele>1039</ele>
        <time>2024-07-16T15:06:14Z</time>
      </trkpt>
      <trkpt lat="42.47309" lon="2.98412">
        <ele>1040.4</ele>
        <time>2024-07-16T15:06:21Z</time>
      </trkpt>
      <trkpt lat="42.47315" lon="2.98419">
        <ele>1042</ele>
        <time>2024-07-16T15:06:30Z</time>
      </trkpt>
      <trkpt lat="42.47323" lon="2.98423">
        <ele>1043.4</ele>
        <time>2024-07-16T15:06:39Z</time>
      </trkpt>
      <trkpt lat="42.47327" lon="2.98426">
        <ele>1044.8</ele>
        <time>2024-07-16T15:06:45Z</time>
      </trkpt>
      <trkpt lat="42.47332" lon="2.9843">
        <ele>1046.4</ele>
        <time>2024-07-16T15:06:51Z</time>
      </trkpt>
      <trkpt lat="42.47341" lon="2.98437">
        <ele>1047.4</ele>
        <time>2024-07-16T15:07:01Z</time>
      </trkpt>
      <trkpt lat="42.47347" lon="2.98446">
        <ele>1048.6</ele>
        <time>2024-07-16T15:07:09Z</time>
      </trkpt>
      <trkpt lat="42.47354" lon="2.98453">
        <ele>1048.8</ele>
        <time>2024-07-16T15:07:18Z</time>
      </trkpt>
      <trkpt lat="42.47359" lon="2.98457">
        <ele>1049</ele>
        <time>2024-07-16T15:07:24Z</time>
      </trkpt>
      <trkpt lat="42.47359" lon="2.98458">
        <ele>1049</ele>
        <time>2024-07-16T15:07:25Z</time>
      </trkpt>
      <trkpt lat="42.4736" lon="2.98459">
        <ele>1049.2</ele>
        <time>2024-07-16T15:07:26Z</time>
      </trkpt>
      <trkpt lat="42.47362" lon="2.98461">
        <ele>1049.2</ele>
        <time>2024-07-16T15:07:29Z</time>
      </trkpt>
      <trkpt lat="42.47363" lon="2.98463">
        <ele>1049.2</ele>
        <time>2024-07-16T15:07:31Z</time>
      </trkpt>
      <trkpt lat="42.47368" lon="2.9847">
        <ele>1051.8</ele>
        <time>2024-07-16T15:07:38Z</time>
      </trkpt>
      <trkpt lat="42.47374" lon="2.98475">
        <ele>1056.2</ele>
        <time>2024-07-16T15:07:46Z</time>
      </trkpt>
      <trkpt lat="42.47378" lon="2.98478">
        <ele>1058</ele>
        <time>2024-07-16T15:07:52Z</time>
      </trkpt>
      <trkpt lat="42.47381" lon="2.98483">
        <ele>1060.4</ele>
        <time>2024-07-16T15:07:59Z</time>
      </trkpt>
      <trkpt lat="42.47383" lon="2.98486">
        <ele>1061.4</ele>
        <time>2024-07-16T15:08:03Z</time>
      </trkpt>
      <trkpt lat="42.47383" lon="2.98488">
        <ele>1061.4</ele>
        <time>2024-07-16T15:08:04Z</time>
      </trkpt>
      <trkpt lat="42.47386" lon="2.98491">
        <ele>1061.6</ele>
        <time>2024-07-16T15:08:08Z</time>
      </trkpt>
      <trkpt lat="42.47388" lon="2.98494">
        <ele>1062.2</ele>
        <time>2024-07-16T15:08:12Z</time>
      </trkpt>
      <trkpt lat="42.4739" lon="2.98498">
        <ele>1064</ele>
        <time>2024-07-16T15:08:18Z</time>
      </trkpt>
      <trkpt lat="42.47392" lon="2.98505">
        <ele>1065.2</ele>
        <time>2024-07-16T15:08:24Z</time>
      </trkpt>
      <trkpt lat="42.47392" lon="2.98506">
        <ele>1065.2</ele>
        <time>2024-07-16T15:08:25Z</time>
      </trkpt>
      <trkpt lat="42.47394" lon="2.98511">
        <ele>1064.8</ele>
        <time>2024-07-16T15:08:32Z</time>
      </trkpt>
      <trkpt lat="42.474" lon="2.98518">
        <ele>1064.8</ele>
        <time>2024-07-16T15:08:39Z</time>
      </trkpt>
      <trkpt lat="42.47407" lon="2.98526">
        <ele>1065.4</ele>
        <time>2024-07-16T15:08:47Z</time>
      </trkpt>
      <trkpt lat="42.47408" lon="2.98527">
        <ele>1065.8</ele>
        <time>2024-07-16T15:08:48Z</time>
      </trkpt>
      <trkpt lat="42.47412" lon="2.98531">
        <ele>1067</ele>
        <time>2024-07-16T15:08:54Z</time>
      </trkpt>
      <trkpt lat="42.47413" lon="2.98531">
        <ele>1067.2</ele>
        <time>2024-07-16T15:08:55Z</time>
      </trkpt>
      <trkpt lat="42.47414" lon="2.98531">
        <ele>1067.4</ele>
        <time>2024-07-16T15:08:57Z</time>
      </trkpt>
      <trkpt lat="42.47417" lon="2.98532">
        <ele>1067.6</ele>
        <time>2024-07-16T15:09:00Z</time>
      </trkpt>
      <trkpt lat="42.47425" lon="2.98539">
        <ele>1069</ele>
        <time>2024-07-16T15:09:10Z</time>
      </trkpt>
      <trkpt lat="42.47427" lon="2.98539">
        <ele>1069.4</ele>
        <time>2024-07-16T15:09:12Z</time>
      </trkpt>
      <trkpt lat="42.47429" lon="2.98541">
        <ele>1070.2</ele>
        <time>2024-07-16T15:09:15Z</time>
      </trkpt>
      <trkpt lat="42.47431" lon="2.98543">
        <ele>1071</ele>
        <time>2024-07-16T15:09:17Z</time>
      </trkpt>
      <trkpt lat="42.47434" lon="2.98545">
        <ele>1072</ele>
        <time>2024-07-16T15:09:21Z</time>
      </trkpt>
      <trkpt lat="42.47434" lon="2.98546">
        <ele>1072.4</ele>
        <time>2024-07-16T15:09:22Z</time>
      </trkpt>
      <trkpt lat="42.47438" lon="2.98553">
        <ele>1073.8</ele>
        <time>2024-07-16T15:09:27Z</time>
      </trkpt>
      <trkpt lat="42.47444" lon="2.98556">
        <ele>1074.2</ele>
        <time>2024-07-16T15:09:34Z</time>
      </trkpt>
      <trkpt lat="42.47447" lon="2.98558">
        <ele>1074.4</ele>
        <time>2024-07-16T15:09:36Z</time>
      </trkpt>
      <trkpt lat="42.47448" lon="2.98561">
        <ele>1074.4</ele>
        <time>2024-07-16T15:09:38Z</time>
      </trkpt>
      <trkpt lat="42.47449" lon="2.98562">
        <ele>1074.4</ele>
        <time>2024-07-16T15:09:40Z</time>
      </trkpt>
      <trkpt lat="42.4745" lon="2.98563">
        <ele>1074.4</ele>
        <time>2024-07-16T15:09:41Z</time>
      </trkpt>
      <trkpt lat="42.47453" lon="2.98561">
        <ele>1074.4</ele>
        <time>2024-07-16T15:09:47Z</time>
      </trkpt>
      <trkpt lat="42.4746" lon="2.98565">
        <ele>1079.4</ele>
        <time>2024-07-16T15:09:54Z</time>
      </trkpt>
      <trkpt lat="42.47466" lon="2.98568">
        <ele>1080.8</ele>
        <time>2024-07-16T15:09:59Z</time>
      </trkpt>
      <trkpt lat="42.47469" lon="2.98567">
        <ele>1082</ele>
        <time>2024-07-16T15:10:05Z</time>
      </trkpt>
      <trkpt lat="42.47471" lon="2.98568">
        <ele>1082.4</ele>
        <time>2024-07-16T15:10:07Z</time>
      </trkpt>
      <trkpt lat="42.47471" lon="2.9857">
        <ele>1082.8</ele>
        <time>2024-07-16T15:10:08Z</time>
      </trkpt>
      <trkpt lat="42.47479" lon="2.98573">
        <ele>1083.6</ele>
        <time>2024-07-16T15:10:13Z</time>
      </trkpt>
      <trkpt lat="42.47482" lon="2.98576">
        <ele>1083.8</ele>
        <time>2024-07-16T15:10:16Z</time>
      </trkpt>
      <trkpt lat="42.47486" lon="2.98576">
        <ele>1084.6</ele>
        <time>2024-07-16T15:10:20Z</time>
      </trkpt>
      <trkpt lat="42.47494" lon="2.98579">
        <ele>1086</ele>
        <time>2024-07-16T15:10:27Z</time>
      </trkpt>
      <trkpt lat="42.47501" lon="2.98582">
        <ele>1086.2</ele>
        <time>2024-07-16T15:10:33Z</time>
      </trkpt>
      <trkpt lat="42.47508" lon="2.98584">
        <ele>1086.2</ele>
        <time>2024-07-16T15:10:40Z</time>
      </trkpt>
      <trkpt lat="42.47512" lon="2.98583">
        <ele>1085.8</ele>
        <time>2024-07-16T15:10:43Z</time>
      </trkpt>
      <trkpt lat="42.47515" lon="2.98586">
        <ele>1085</ele>
        <time>2024-07-16T15:10:47Z</time>
      </trkpt>
      <trkpt lat="42.47523" lon="2.98591">
        <ele>1084.2</ele>
        <time>2024-07-16T15:10:56Z</time>
      </trkpt>
      <trkpt lat="42.47525" lon="2.9859">
        <ele>1084.2</ele>
        <time>2024-07-16T15:10:58Z</time>
      </trkpt>
      <trkpt lat="42.47526" lon="2.98591">
        <ele>1084.2</ele>
        <time>2024-07-16T15:10:59Z</time>
      </trkpt>
      <trkpt lat="42.47531" lon="2.98594">
        <ele>1086</ele>
        <time>2024-07-16T15:11:03Z</time>
      </trkpt>
      <trkpt lat="42.47533" lon="2.98593">
        <ele>1086.4</ele>
        <time>2024-07-16T15:11:04Z</time>
      </trkpt>
      <trkpt lat="42.47533" lon="2.98593">
        <ele>1086.6</ele>
        <time>2024-07-16T15:11:05Z</time>
      </trkpt>
      <trkpt lat="42.47537" lon="2.9859">
        <ele>1088.2</ele>
        <time>2024-07-16T15:11:10Z</time>
      </trkpt>
      <trkpt lat="42.47546" lon="2.98592">
        <ele>1090.2</ele>
        <time>2024-07-16T15:11:18Z</time>
      </trkpt>
      <trkpt lat="42.47546" lon="2.9859">
        <ele>1090</ele>
        <time>2024-07-16T15:11:19Z</time>
      </trkpt>
      <trkpt lat="42.47549" lon="2.98586">
        <ele>1089.2</ele>
        <time>2024-07-16T15:11:23Z</time>
      </trkpt>
      <trkpt lat="42.47551" lon="2.98584">
        <ele>1088.8</ele>
        <time>2024-07-16T15:11:25Z</time>
      </trkpt>
      <trkpt lat="42.47554" lon="2.98583">
        <ele>1088.4</ele>
        <time>2024-07-16T15:11:29Z</time>
      </trkpt>
      <trkpt lat="42.47557" lon="2.98581">
        <ele>1089.2</ele>
        <time>2024-07-16T15:11:31Z</time>
      </trkpt>
      <trkpt lat="42.47561" lon="2.98581">
        <ele>1090</ele>
        <time>2024-07-16T15:11:34Z</time>
      </trkpt>
      <trkpt lat="42.47562" lon="2.98582">
        <ele>1090</ele>
        <time>2024-07-16T15:11:35Z</time>
      </trkpt>
      <trkpt lat="42.47568" lon="2.98583">
        <ele>1090.4</ele>
        <time>2024-07-16T15:11:40Z</time>
      </trkpt>
      <trkpt lat="42.47571" lon="2.98582">
        <ele>1090.4</ele>
        <time>2024-07-16T15:11:41Z</time>
      </trkpt>
      <trkpt lat="42.47572" lon="2.98582">
        <ele>1090.4</ele>
        <time>2024-07-16T15:11:42Z</time>
      </trkpt>
      <trkpt lat="42.47576" lon="2.98586">
        <ele>1090.2</ele>
        <time>2024-07-16T15:11:45Z</time>
      </trkpt>
      <trkpt lat="42.47577" lon="2.98586">
        <ele>1090.6</ele>
        <time>2024-07-16T15:11:46Z</time>
      </trkpt>
      <trkpt lat="42.47579" lon="2.98583">
        <ele>1091.4</ele>
        <time>2024-07-16T15:11:49Z</time>
      </trkpt>
      <trkpt lat="42.47583" lon="2.98581">
        <ele>1093.2</ele>
        <time>2024-07-16T15:11:52Z</time>
      </trkpt>
      <trkpt lat="42.47591" lon="2.98579">
        <ele>1096</ele>
        <time>2024-07-16T15:12:00Z</time>
      </trkpt>
      <trkpt lat="42.47594" lon="2.9858">
        <ele>1096.2</ele>
        <time>2024-07-16T15:12:02Z</time>
      </trkpt>
      <trkpt lat="42.47596" lon="2.98579">
        <ele>1096.4</ele>
        <time>2024-07-16T15:12:04Z</time>
      </trkpt>
      <trkpt lat="42.47599" lon="2.98578">
        <ele>1096.2</ele>
        <time>2024-07-16T15:12:06Z</time>
      </trkpt>
      <trkpt lat="42.47608" lon="2.98576">
        <ele>1096.2</ele>
        <time>2024-07-16T15:12:12Z</time>
      </trkpt>
      <trkpt lat="42.47611" lon="2.98573">
        <ele>1094.2</ele>
        <time>2024-07-16T15:12:16Z</time>
      </trkpt>
      <trkpt lat="42.47612" lon="2.9857">
        <ele>1093.6</ele>
        <time>2024-07-16T15:12:18Z</time>
      </trkpt>
      <trkpt lat="42.4762" lon="2.98566">
        <ele>1094.8</ele>
        <time>2024-07-16T15:12:25Z</time>
      </trkpt>
      <trkpt lat="42.47626" lon="2.98561">
        <ele>1096</ele>
        <time>2024-07-16T15:12:31Z</time>
      </trkpt>
      <trkpt lat="42.47629" lon="2.98556">
        <ele>1094.4</ele>
        <time>2024-07-16T15:12:37Z</time>
      </trkpt>
      <trkpt lat="42.47632" lon="2.98551">
        <ele>1092.2</ele>
        <time>2024-07-16T15:12:43Z</time>
      </trkpt>
      <trkpt lat="42.47634" lon="2.98549">
        <ele>1091.8</ele>
        <time>2024-07-16T15:12:45Z</time>
      </trkpt>
      <trkpt lat="42.47635" lon="2.98549">
        <ele>1091.4</ele>
        <time>2024-07-16T15:12:48Z</time>
      </trkpt>
      <trkpt lat="42.47635" lon="2.9855">
        <ele>1091.2</ele>
        <time>2024-07-16T15:12:57Z</time>
      </trkpt>
      <trkpt lat="42.47644" lon="2.98548">
        <ele>1091</ele>
        <time>2024-07-16T15:13:48Z</time>
      </trkpt>
      <trkpt lat="42.47653" lon="2.98549">
        <ele>1093</ele>
        <time>2024-07-16T15:13:53Z</time>
      </trkpt>
      <trkpt lat="42.47653" lon="2.98547">
        <ele>1095.8</ele>
        <time>2024-07-16T15:13:58Z</time>
      </trkpt>
      <trkpt lat="42.47655" lon="2.98549">
        <ele>1097.6</ele>
        <time>2024-07-16T15:14:05Z</time>
      </trkpt>
      <trkpt lat="42.47663" lon="2.98554">
        <ele>1096.8</ele>
        <time>2024-07-16T15:14:14Z</time>
      </trkpt>
      <trkpt lat="42.47667" lon="2.98561">
        <ele>1097.4</ele>
        <time>2024-07-16T15:14:20Z</time>
      </trkpt>
      <trkpt lat="42.47674" lon="2.98566">
        <ele>1096.2</ele>
        <time>2024-07-16T15:14:27Z</time>
      </trkpt>
      <trkpt lat="42.47676" lon="2.98565">
        <ele>1096.4</ele>
        <time>2024-07-16T15:14:34Z</time>
      </trkpt>
      <trkpt lat="42.47678" lon="2.98558">
        <ele>1096.8</ele>
        <time>2024-07-16T15:14:40Z</time>
      </trkpt>
      <trkpt lat="42.47682" lon="2.98552">
        <ele>1096.6</ele>
        <time>2024-07-16T15:14:46Z</time>
      </trkpt>
      <trkpt lat="42.47685" lon="2.9855">
        <ele>1096.8</ele>
        <time>2024-07-16T15:14:51Z</time>
      </trkpt>
      <trkpt lat="42.47688" lon="2.9855">
        <ele>1098.6</ele>
        <time>2024-07-16T15:14:57Z</time>
      </trkpt>
      <trkpt lat="42.47693" lon="2.98553">
        <ele>1099.4</ele>
        <time>2024-07-16T15:15:04Z</time>
      </trkpt>
      <trkpt lat="42.47697" lon="2.98556">
        <ele>1101.8</ele>
        <time>2024-07-16T15:15:11Z</time>
      </trkpt>
      <trkpt lat="42.47701" lon="2.9856">
        <ele>1101.4</ele>
        <time>2024-07-16T15:15:18Z</time>
      </trkpt>
      <trkpt lat="42.47709" lon="2.98563">
        <ele>1102.8</ele>
        <time>2024-07-16T15:15:26Z</time>
      </trkpt>
      <trkpt lat="42.47717" lon="2.98563">
        <ele>1103.8</ele>
        <time>2024-07-16T15:15:33Z</time>
      </trkpt>
      <trkpt lat="42.47726" lon="2.98565">
        <ele>1103.6</ele>
        <time>2024-07-16T15:15:40Z</time>
      </trkpt>
      <trkpt lat="42.47728" lon="2.98565">
        <ele>1103.4</ele>
        <time>2024-07-16T15:15:41Z</time>
      </trkpt>
      <trkpt lat="42.4773" lon="2.98565">
        <ele>1103</ele>
        <time>2024-07-16T15:15:43Z</time>
      </trkpt>
      <trkpt lat="42.47733" lon="2.98565">
        <ele>1101.8</ele>
        <time>2024-07-16T15:15:46Z</time>
      </trkpt>
      <trkpt lat="42.47739" lon="2.98564">
        <ele>1101</ele>
        <time>2024-07-16T15:15:50Z</time>
      </trkpt>
      <trkpt lat="42.47742" lon="2.98561">
        <ele>1100.8</ele>
        <time>2024-07-16T15:15:53Z</time>
      </trkpt>
      <trkpt lat="42.47743" lon="2.98561">
        <ele>1100.6</ele>
        <time>2024-07-16T15:15:54Z</time>
      </trkpt>
      <trkpt lat="42.47751" lon="2.98564">
        <ele>1100</ele>
        <time>2024-07-16T15:16:01Z</time>
      </trkpt>
      <trkpt lat="42.47752" lon="2.98566">
        <ele>1099.8</ele>
        <time>2024-07-16T15:16:02Z</time>
      </trkpt>
      <trkpt lat="42.47762" lon="2.98573">
        <ele>1099.6</ele>
        <time>2024-07-16T15:16:10Z</time>
      </trkpt>
      <trkpt lat="42.47767" lon="2.98576">
        <ele>1101.6</ele>
        <time>2024-07-16T15:16:15Z</time>
      </trkpt>
      <trkpt lat="42.4777" lon="2.98575">
        <ele>1102</ele>
        <time>2024-07-16T15:16:17Z</time>
      </trkpt>
      <trkpt lat="42.47773" lon="2.98576">
        <ele>1102.4</ele>
        <time>2024-07-16T15:16:20Z</time>
      </trkpt>
      <trkpt lat="42.47776" lon="2.98576">
        <ele>1103</ele>
        <time>2024-07-16T15:16:22Z</time>
      </trkpt>
      <trkpt lat="42.47779" lon="2.98578">
        <ele>1104.4</ele>
        <time>2024-07-16T15:16:25Z</time>
      </trkpt>
      <trkpt lat="42.47781" lon="2.98582">
        <ele>1105.8</ele>
        <time>2024-07-16T15:16:28Z</time>
      </trkpt>
      <trkpt lat="42.47788" lon="2.98593">
        <ele>1106.2</ele>
        <time>2024-07-16T15:16:38Z</time>
      </trkpt>
      <trkpt lat="42.47791" lon="2.98602">
        <ele>1105.6</ele>
        <time>2024-07-16T15:16:44Z</time>
      </trkpt>
      <trkpt lat="42.47797" lon="2.98611">
        <ele>1106.2</ele>
        <time>2024-07-16T15:16:52Z</time>
      </trkpt>
      <trkpt lat="42.47801" lon="2.98615">
        <ele>1108.8</ele>
        <time>2024-07-16T15:16:58Z</time>
      </trkpt>
      <trkpt lat="42.478" lon="2.9862">
        <ele>1109.4</ele>
        <time>2024-07-16T15:17:03Z</time>
      </trkpt>
      <trkpt lat="42.47804" lon="2.98627">
        <ele>1109.6</ele>
        <time>2024-07-16T15:17:11Z</time>
      </trkpt>
      <trkpt lat="42.47803" lon="2.98633">
        <ele>1111.2</ele>
        <time>2024-07-16T15:17:16Z</time>
      </trkpt>
      <trkpt lat="42.47805" lon="2.98645">
        <ele>1111.2</ele>
        <time>2024-07-16T15:17:22Z</time>
      </trkpt>
      <trkpt lat="42.47806" lon="2.98653">
        <ele>1109.4</ele>
        <time>2024-07-16T15:17:30Z</time>
      </trkpt>
      <trkpt lat="42.47803" lon="2.9866">
        <ele>1110.8</ele>
        <time>2024-07-16T15:17:36Z</time>
      </trkpt>
      <trkpt lat="42.47799" lon="2.98664">
        <ele>1111.2</ele>
        <time>2024-07-16T15:17:43Z</time>
      </trkpt>
      <trkpt lat="42.47796" lon="2.98671">
        <ele>1110.8</ele>
        <time>2024-07-16T15:17:50Z</time>
      </trkpt>
      <trkpt lat="42.47781" lon="2.98682">
        <ele>1117.8</ele>
        <time>2024-07-16T15:18:01Z</time>
      </trkpt>
      <trkpt lat="42.47775" lon="2.98689">
        <ele>1121</ele>
        <time>2024-07-16T15:18:10Z</time>
      </trkpt>
      <trkpt lat="42.47771" lon="2.98692">
        <ele>1121.6</ele>
        <time>2024-07-16T15:18:16Z</time>
      </trkpt>
      <trkpt lat="42.47769" lon="2.98696">
        <ele>1122.6</ele>
        <time>2024-07-16T15:18:22Z</time>
      </trkpt>
      <trkpt lat="42.47762" lon="2.98707">
        <ele>1122.4</ele>
        <time>2024-07-16T15:18:30Z</time>
      </trkpt>
      <trkpt lat="42.47759" lon="2.98713">
        <ele>1121</ele>
        <time>2024-07-16T15:18:36Z</time>
      </trkpt>
      <trkpt lat="42.47755" lon="2.98718">
        <ele>1120</ele>
        <time>2024-07-16T15:18:41Z</time>
      </trkpt>
      <trkpt lat="42.47753" lon="2.98723">
        <ele>1120.2</ele>
        <time>2024-07-16T15:18:45Z</time>
      </trkpt>
      <trkpt lat="42.47749" lon="2.98735">
        <ele>1121.4</ele>
        <time>2024-07-16T15:18:54Z</time>
      </trkpt>
      <trkpt lat="42.47748" lon="2.98739">
        <ele>1122.2</ele>
        <time>2024-07-16T15:18:57Z</time>
      </trkpt>
      <trkpt lat="42.47744" lon="2.98745">
        <ele>1123</ele>
        <time>2024-07-16T15:19:01Z</time>
      </trkpt>
      <trkpt lat="42.47734" lon="2.98753">
        <ele>1126.8</ele>
        <time>2024-07-16T15:19:09Z</time>
      </trkpt>
      <trkpt lat="42.47731" lon="2.98754">
        <ele>1128.2</ele>
        <time>2024-07-16T15:19:12Z</time>
      </trkpt>
      <trkpt lat="42.47724" lon="2.98755">
        <ele>1128.6</ele>
        <time>2024-07-16T15:19:17Z</time>
      </trkpt>
      <trkpt lat="42.47713" lon="2.98764">
        <ele>1125.8</ele>
        <time>2024-07-16T15:19:27Z</time>
      </trkpt>
      <trkpt lat="42.47707" lon="2.98767">
        <ele>1125.6</ele>
        <time>2024-07-16T15:19:34Z</time>
      </trkpt>
      <trkpt lat="42.47697" lon="2.9877">
        <ele>1125.6</ele>
        <time>2024-07-16T15:19:43Z</time>
      </trkpt>
      <trkpt lat="42.47683" lon="2.98765">
        <ele>1127.6</ele>
        <time>2024-07-16T15:19:51Z</time>
      </trkpt>
      <trkpt lat="42.47682" lon="2.98765">
        <ele>1127.8</ele>
        <time>2024-07-16T15:19:52Z</time>
      </trkpt>
      <trkpt lat="42.47679" lon="2.98762">
        <ele>1128</ele>
        <time>2024-07-16T15:19:56Z</time>
      </trkpt>
      <trkpt lat="42.47678" lon="2.98763">
        <ele>1128</ele>
        <time>2024-07-16T15:19:57Z</time>
      </trkpt>
      <trkpt lat="42.47674" lon="2.98771">
        <ele>1127.8</ele>
        <time>2024-07-16T15:20:05Z</time>
      </trkpt>
      <trkpt lat="42.47673" lon="2.98772">
        <ele>1127.8</ele>
        <time>2024-07-16T15:20:06Z</time>
      </trkpt>
      <trkpt lat="42.47666" lon="2.98778">
        <ele>1127.2</ele>
        <time>2024-07-16T15:20:13Z</time>
      </trkpt>
      <trkpt lat="42.47663" lon="2.98779">
        <ele>1127</ele>
        <time>2024-07-16T15:20:16Z</time>
      </trkpt>
      <trkpt lat="42.47657" lon="2.98781">
        <ele>1127</ele>
        <time>2024-07-16T15:20:20Z</time>
      </trkpt>
      <trkpt lat="42.47652" lon="2.98783">
        <ele>1127.2</ele>
        <time>2024-07-16T15:20:24Z</time>
      </trkpt>
      <trkpt lat="42.47649" lon="2.98782">
        <ele>1127.6</ele>
        <time>2024-07-16T15:20:27Z</time>
      </trkpt>
      <trkpt lat="42.47633" lon="2.98789">
        <ele>1129.6</ele>
        <time>2024-07-16T15:20:36Z</time>
      </trkpt>
      <trkpt lat="42.47625" lon="2.98793">
        <ele>1132</ele>
        <time>2024-07-16T15:20:42Z</time>
      </trkpt>
      <trkpt lat="42.47621" lon="2.98792">
        <ele>1132.4</ele>
        <time>2024-07-16T15:20:44Z</time>
      </trkpt>
      <trkpt lat="42.4762" lon="2.98792">
        <ele>1132.6</ele>
        <time>2024-07-16T15:20:45Z</time>
      </trkpt>
      <trkpt lat="42.47616" lon="2.9879">
        <ele>1132.6</ele>
        <time>2024-07-16T15:20:50Z</time>
      </trkpt>
      <trkpt lat="42.47613" lon="2.98795">
        <ele>1132.4</ele>
        <time>2024-07-16T15:20:54Z</time>
      </trkpt>
      <trkpt lat="42.4761" lon="2.98797">
        <ele>1132.4</ele>
        <time>2024-07-16T15:20:56Z</time>
      </trkpt>
      <trkpt lat="42.47607" lon="2.98802">
        <ele>1132</ele>
        <time>2024-07-16T15:21:00Z</time>
      </trkpt>
      <trkpt lat="42.47608" lon="2.9881">
        <ele>1130.8</ele>
        <time>2024-07-16T15:21:05Z</time>
      </trkpt>
      <trkpt lat="42.47602" lon="2.9882">
        <ele>1130.2</ele>
        <time>2024-07-16T15:21:11Z</time>
      </trkpt>
      <trkpt lat="42.47597" lon="2.98827">
        <ele>1129.6</ele>
        <time>2024-07-16T15:21:16Z</time>
      </trkpt>
      <trkpt lat="42.47594" lon="2.98833">
        <ele>1129.2</ele>
        <time>2024-07-16T15:21:20Z</time>
      </trkpt>
      <trkpt lat="42.47589" lon="2.98847">
        <ele>1129.4</ele>
        <time>2024-07-16T15:21:28Z</time>
      </trkpt>
      <trkpt lat="42.47584" lon="2.9886">
        <ele>1128.2</ele>
        <time>2024-07-16T15:21:36Z</time>
      </trkpt>
      <trkpt lat="42.47584" lon="2.98874">
        <ele>1128</ele>
        <time>2024-07-16T15:21:43Z</time>
      </trkpt>
      <trkpt lat="42.47579" lon="2.98882">
        <ele>1126.4</ele>
        <time>2024-07-16T15:21:47Z</time>
      </trkpt>
      <trkpt lat="42.47578" lon="2.98885">
        <ele>1125.6</ele>
        <time>2024-07-16T15:21:50Z</time>
      </trkpt>
      <trkpt lat="42.47573" lon="2.98901">
        <ele>1125.2</ele>
        <time>2024-07-16T15:21:59Z</time>
      </trkpt>
      <trkpt lat="42.47568" lon="2.98912">
        <ele>1123.6</ele>
        <time>2024-07-16T15:22:07Z</time>
      </trkpt>
      <trkpt lat="42.47568" lon="2.98914">
        <ele>1123.2</ele>
        <time>2024-07-16T15:22:08Z</time>
      </trkpt>
      <trkpt lat="42.47564" lon="2.98922">
        <ele>1123</ele>
        <time>2024-07-16T15:22:13Z</time>
      </trkpt>
      <trkpt lat="42.47561" lon="2.98936">
        <ele>1124</ele>
        <time>2024-07-16T15:22:22Z</time>
      </trkpt>
      <trkpt lat="42.47562" lon="2.98943">
        <ele>1125.2</ele>
        <time>2024-07-16T15:22:26Z</time>
      </trkpt>
      <trkpt lat="42.47561" lon="2.98946">
        <ele>1125.6</ele>
        <time>2024-07-16T15:22:28Z</time>
      </trkpt>
      <trkpt lat="42.47557" lon="2.98957">
        <ele>1126.6</ele>
        <time>2024-07-16T15:22:35Z</time>
      </trkpt>
      <trkpt lat="42.47555" lon="2.98971">
        <ele>1128</ele>
        <time>2024-07-16T15:22:42Z</time>
      </trkpt>
      <trkpt lat="42.47554" lon="2.98977">
        <ele>1128.4</ele>
        <time>2024-07-16T15:22:45Z</time>
      </trkpt>
      <trkpt lat="42.47553" lon="2.98985">
        <ele>1126.6</ele>
        <time>2024-07-16T15:22:50Z</time>
      </trkpt>
      <trkpt lat="42.4755" lon="2.98996">
        <ele>1125.4</ele>
        <time>2024-07-16T15:22:56Z</time>
      </trkpt>
      <trkpt lat="42.47548" lon="2.99009">
        <ele>1123.8</ele>
        <time>2024-07-16T15:23:04Z</time>
      </trkpt>
      <trkpt lat="42.47545" lon="2.99019">
        <ele>1124.8</ele>
        <time>2024-07-16T15:23:12Z</time>
      </trkpt>
      <trkpt lat="42.47545" lon="2.99021">
        <ele>1124.6</ele>
        <time>2024-07-16T15:23:13Z</time>
      </trkpt>
      <trkpt lat="42.47547" lon="2.99032">
        <ele>1124.2</ele>
        <time>2024-07-16T15:23:19Z</time>
      </trkpt>
      <trkpt lat="42.4755" lon="2.99042">
        <ele>1124.2</ele>
        <time>2024-07-16T15:23:23Z</time>
      </trkpt>
      <trkpt lat="42.47545" lon="2.99054">
        <ele>1122.4</ele>
        <time>2024-07-16T15:23:31Z</time>
      </trkpt>
      <trkpt lat="42.47541" lon="2.99064">
        <ele>1120.8</ele>
        <time>2024-07-16T15:23:37Z</time>
      </trkpt>
      <trkpt lat="42.47538" lon="2.99075">
        <ele>1119</ele>
        <time>2024-07-16T15:23:44Z</time>
      </trkpt>
      <trkpt lat="42.47538" lon="2.99076">
        <ele>1118.8</ele>
        <time>2024-07-16T15:23:45Z</time>
      </trkpt>
      <trkpt lat="42.47538" lon="2.99077">
        <ele>1118.4</ele>
        <time>2024-07-16T15:23:46Z</time>
      </trkpt>
      <trkpt lat="42.47537" lon="2.99085">
        <ele>1117.8</ele>
        <time>2024-07-16T15:23:51Z</time>
      </trkpt>
      <trkpt lat="42.47537" lon="2.99087">
        <ele>1117.8</ele>
        <time>2024-07-16T15:23:52Z</time>
      </trkpt>
      <trkpt lat="42.47538" lon="2.99089">
        <ele>1117.8</ele>
        <time>2024-07-16T15:23:54Z</time>
      </trkpt>
      <trkpt lat="42.47537" lon="2.99099">
        <ele>1118.6</ele>
        <time>2024-07-16T15:23:59Z</time>
      </trkpt>
      <trkpt lat="42.47535" lon="2.99117">
        <ele>1120.6</ele>
        <time>2024-07-16T15:24:09Z</time>
      </trkpt>
      <trkpt lat="42.47533" lon="2.9912">
        <ele>1120.8</ele>
        <time>2024-07-16T15:24:11Z</time>
      </trkpt>
      <trkpt lat="42.47531" lon="2.99127">
        <ele>1122.2</ele>
        <time>2024-07-16T15:24:15Z</time>
      </trkpt>
      <trkpt lat="42.47523" lon="2.99137">
        <ele>1121.6</ele>
        <time>2024-07-16T15:24:23Z</time>
      </trkpt>
      <trkpt lat="42.4752" lon="2.99148">
        <ele>1119.8</ele>
        <time>2024-07-16T15:24:29Z</time>
      </trkpt>
      <trkpt lat="42.47515" lon="2.99155">
        <ele>1117.4</ele>
        <time>2024-07-16T15:24:35Z</time>
      </trkpt>
      <trkpt lat="42.47513" lon="2.99157">
        <ele>1116.8</ele>
        <time>2024-07-16T15:24:37Z</time>
      </trkpt>
      <trkpt lat="42.4751" lon="2.99164">
        <ele>1117</ele>
        <time>2024-07-16T15:24:42Z</time>
      </trkpt>
      <trkpt lat="42.47509" lon="2.99165">
        <ele>1117</ele>
        <time>2024-07-16T15:24:43Z</time>
      </trkpt>
      <trkpt lat="42.47509" lon="2.99166">
        <ele>1117</ele>
        <time>2024-07-16T15:24:44Z</time>
      </trkpt>
      <trkpt lat="42.47508" lon="2.99174">
        <ele>1117.2</ele>
        <time>2024-07-16T15:24:49Z</time>
      </trkpt>
      <trkpt lat="42.47505" lon="2.99182">
        <ele>1118</ele>
        <time>2024-07-16T15:24:56Z</time>
      </trkpt>
      <trkpt lat="42.47499" lon="2.99193">
        <ele>1119.8</ele>
        <time>2024-07-16T15:25:03Z</time>
      </trkpt>
      <trkpt lat="42.47498" lon="2.99195">
        <ele>1120</ele>
        <time>2024-07-16T15:25:04Z</time>
      </trkpt>
      <trkpt lat="42.47489" lon="2.99207">
        <ele>1121</ele>
        <time>2024-07-16T15:25:12Z</time>
      </trkpt>
      <trkpt lat="42.47487" lon="2.99221">
        <ele>1122.2</ele>
        <time>2024-07-16T15:25:21Z</time>
      </trkpt>
      <trkpt lat="42.47487" lon="2.99232">
        <ele>1124.4</ele>
        <time>2024-07-16T15:25:27Z</time>
      </trkpt>
      <trkpt lat="42.47483" lon="2.99244">
        <ele>1125</ele>
        <time>2024-07-16T15:25:35Z</time>
      </trkpt>
      <trkpt lat="42.47476" lon="2.99251">
        <ele>1125.8</ele>
        <time>2024-07-16T15:25:42Z</time>
      </trkpt>
      <trkpt lat="42.47476" lon="2.99262">
        <ele>1125.6</ele>
        <time>2024-07-16T15:25:50Z</time>
      </trkpt>
      <trkpt lat="42.47476" lon="2.9927">
        <ele>1127</ele>
        <time>2024-07-16T15:25:58Z</time>
      </trkpt>
      <trkpt lat="42.47473" lon="2.99277">
        <ele>1126.8</ele>
        <time>2024-07-16T15:26:05Z</time>
      </trkpt>
      <trkpt lat="42.47467" lon="2.99281">
        <ele>1126.2</ele>
        <time>2024-07-16T15:26:12Z</time>
      </trkpt>
      <trkpt lat="42.47464" lon="2.99292">
        <ele>1125</ele>
        <time>2024-07-16T15:26:19Z</time>
      </trkpt>
      <trkpt lat="42.47462" lon="2.99304">
        <ele>1123.6</ele>
        <time>2024-07-16T15:26:27Z</time>
      </trkpt>
      <trkpt lat="42.47461" lon="2.9931">
        <ele>1124</ele>
        <time>2024-07-16T15:26:31Z</time>
      </trkpt>
      <trkpt lat="42.47458" lon="2.99314">
        <ele>1124.4</ele>
        <time>2024-07-16T15:26:34Z</time>
      </trkpt>
      <trkpt lat="42.47452" lon="2.99326">
        <ele>1123.8</ele>
        <time>2024-07-16T15:26:43Z</time>
      </trkpt>
      <trkpt lat="42.47447" lon="2.99341">
        <ele>1125.6</ele>
        <time>2024-07-16T15:26:52Z</time>
      </trkpt>
      <trkpt lat="42.47444" lon="2.9935">
        <ele>1128.4</ele>
        <time>2024-07-16T15:26:59Z</time>
      </trkpt>
      <trkpt lat="42.47443" lon="2.99364">
        <ele>1130</ele>
        <time>2024-07-16T15:27:07Z</time>
      </trkpt>
      <trkpt lat="42.47439" lon="2.99378">
        <ele>1130.8</ele>
        <time>2024-07-16T15:27:15Z</time>
      </trkpt>
      <trkpt lat="42.47439" lon="2.99379">
        <ele>1130.8</ele>
        <time>2024-07-16T15:27:16Z</time>
      </trkpt>
      <trkpt lat="42.47438" lon="2.99385">
        <ele>1131</ele>
        <time>2024-07-16T15:27:20Z</time>
      </trkpt>
      <trkpt lat="42.47437" lon="2.99387">
        <ele>1131.2</ele>
        <time>2024-07-16T15:27:22Z</time>
      </trkpt>
      <trkpt lat="42.47436" lon="2.99392">
        <ele>1131.8</ele>
        <time>2024-07-16T15:27:25Z</time>
      </trkpt>
      <trkpt lat="42.47431" lon="2.99398">
        <ele>1132.6</ele>
        <time>2024-07-16T15:27:29Z</time>
      </trkpt>
      <trkpt lat="42.47424" lon="2.99408">
        <ele>1130.8</ele>
        <time>2024-07-16T15:27:38Z</time>
      </trkpt>
      <trkpt lat="42.47415" lon="2.99419">
        <ele>1128.2</ele>
        <time>2024-07-16T15:27:46Z</time>
      </trkpt>
      <trkpt lat="42.47403" lon="2.99436">
        <ele>1129</ele>
        <time>2024-07-16T15:27:58Z</time>
      </trkpt>
      <trkpt lat="42.47393" lon="2.99457">
        <ele>1126.6</ele>
        <time>2024-07-16T15:28:11Z</time>
      </trkpt>
      <trkpt lat="42.47387" lon="2.99472">
        <ele>1126.4</ele>
        <time>2024-07-16T15:28:20Z</time>
      </trkpt>
      <trkpt lat="42.47383" lon="2.99487">
        <ele>1125.2</ele>
        <time>2024-07-16T15:28:29Z</time>
      </trkpt>
      <trkpt lat="42.47378" lon="2.99508">
        <ele>1124.6</ele>
        <time>2024-07-16T15:28:40Z</time>
      </trkpt>
      <trkpt lat="42.47378" lon="2.99522">
        <ele>1124.8</ele>
        <time>2024-07-16T15:28:48Z</time>
      </trkpt>
      <trkpt lat="42.47384" lon="2.99538">
        <ele>1125</ele>
        <time>2024-07-16T15:28:57Z</time>
      </trkpt>
      <trkpt lat="42.47391" lon="2.99554">
        <ele>1125.4</ele>
        <time>2024-07-16T15:29:07Z</time>
      </trkpt>
      <trkpt lat="42.47397" lon="2.99575">
        <ele>1125.6</ele>
        <time>2024-07-16T15:29:19Z</time>
      </trkpt>
      <trkpt lat="42.47401" lon="2.99592">
        <ele>1126</ele>
        <time>2024-07-16T15:29:28Z</time>
      </trkpt>
      <trkpt lat="42.47403" lon="2.99604">
        <ele>1126.6</ele>
        <time>2024-07-16T15:29:35Z</time>
      </trkpt>
      <trkpt lat="42.47405" lon="2.99619">
        <ele>1127</ele>
        <time>2024-07-16T15:29:44Z</time>
      </trkpt>
      <trkpt lat="42.47405" lon="2.99635">
        <ele>1127.8</ele>
        <time>2024-07-16T15:29:53Z</time>
      </trkpt>
      <trkpt lat="42.47406" lon="2.9965">
        <ele>1128.2</ele>
        <time>2024-07-16T15:30:02Z</time>
      </trkpt>
      <trkpt lat="42.47407" lon="2.99665">
        <ele>1130.6</ele>
        <time>2024-07-16T15:30:11Z</time>
      </trkpt>
      <trkpt lat="42.47408" lon="2.99682">
        <ele>1132.8</ele>
        <time>2024-07-16T15:30:21Z</time>
      </trkpt>
      <trkpt lat="42.47408" lon="2.99706">
        <ele>1133.6</ele>
        <time>2024-07-16T15:30:35Z</time>
      </trkpt>
      <trkpt lat="42.47411" lon="2.99726">
        <ele>1135.4</ele>
        <time>2024-07-16T15:30:47Z</time>
      </trkpt>
      <trkpt lat="42.47413" lon="2.99751">
        <ele>1137</ele>
        <time>2024-07-16T15:31:02Z</time>
      </trkpt>
      <trkpt lat="42.47414" lon="2.99753">
        <ele>1137.2</ele>
        <time>2024-07-16T15:31:03Z</time>
      </trkpt>
      <trkpt lat="42.47415" lon="2.99774">
        <ele>1137.4</ele>
        <time>2024-07-16T15:31:15Z</time>
      </trkpt>
      <trkpt lat="42.47415" lon="2.99795">
        <ele>1138.2</ele>
        <time>2024-07-16T15:31:27Z</time>
      </trkpt>
      <trkpt lat="42.47412" lon="2.99807">
        <ele>1138.2</ele>
        <time>2024-07-16T15:31:37Z</time>
      </trkpt>
      <trkpt lat="42.47411" lon="2.99809">
        <ele>1139.2</ele>
        <time>2024-07-16T15:31:44Z</time>
      </trkpt>
      <trkpt lat="42.47411" lon="2.99813">
        <ele>1138.6</ele>
        <time>2024-07-16T15:31:51Z</time>
      </trkpt>
      <trkpt lat="42.47408" lon="2.99821">
        <ele>1137.8</ele>
        <time>2024-07-16T15:31:56Z</time>
      </trkpt>
      <trkpt lat="42.47407" lon="2.99833">
        <ele>1137.4</ele>
        <time>2024-07-16T15:32:04Z</time>
      </trkpt>
      <trkpt lat="42.47401" lon="2.99851">
        <ele>1134.6</ele>
        <time>2024-07-16T15:32:15Z</time>
      </trkpt>
      <trkpt lat="42.47396" lon="2.99863">
        <ele>1133.8</ele>
        <time>2024-07-16T15:32:23Z</time>
      </trkpt>
      <trkpt lat="42.47388" lon="2.99877">
        <ele>1132.6</ele>
        <time>2024-07-16T15:32:33Z</time>
      </trkpt>
      <trkpt lat="42.47384" lon="2.99891">
        <ele>1131</ele>
        <time>2024-07-16T15:32:41Z</time>
      </trkpt>
      <trkpt lat="42.47378" lon="2.99902">
        <ele>1130</ele>
        <time>2024-07-16T15:32:48Z</time>
      </trkpt>
      <trkpt lat="42.4737" lon="2.99915">
        <ele>1129.4</ele>
        <time>2024-07-16T15:32:57Z</time>
      </trkpt>
      <trkpt lat="42.47362" lon="2.99931">
        <ele>1127.4</ele>
        <time>2024-07-16T15:33:07Z</time>
      </trkpt>
      <trkpt lat="42.47356" lon="2.99949">
        <ele>1126</ele>
        <time>2024-07-16T15:33:17Z</time>
      </trkpt>
      <trkpt lat="42.47356" lon="2.99962">
        <ele>1124.8</ele>
        <time>2024-07-16T15:33:26Z</time>
      </trkpt>
      <trkpt lat="42.47355" lon="2.99962">
        <ele>1124.8</ele>
        <time>2024-07-16T15:33:35Z</time>
      </trkpt>
      <trkpt lat="42.47356" lon="2.99962">
        <ele>1125</ele>
        <time>2024-07-16T15:33:45Z</time>
      </trkpt>
      <trkpt lat="42.47353" lon="2.99969">
        <ele>1125.4</ele>
        <time>2024-07-16T15:34:07Z</time>
      </trkpt>
      <trkpt lat="42.47344" lon="2.99983">
        <ele>1123.6</ele>
        <time>2024-07-16T15:34:16Z</time>
      </trkpt>
      <trkpt lat="42.47337" lon="3">
        <ele>1120.8</ele>
        <time>2024-07-16T15:34:26Z</time>
      </trkpt>
      <trkpt lat="42.47331" lon="3.00016">
        <ele>1118.8</ele>
        <time>2024-07-16T15:34:35Z</time>
      </trkpt>
      <trkpt lat="42.47324" lon="3.00033">
        <ele>1116</ele>
        <time>2024-07-16T15:34:45Z</time>
      </trkpt>
      <trkpt lat="42.47315" lon="3.00049">
        <ele>1116</ele>
        <time>2024-07-16T15:34:55Z</time>
      </trkpt>
      <trkpt lat="42.47309" lon="3.00062">
        <ele>1115.8</ele>
        <time>2024-07-16T15:35:04Z</time>
      </trkpt>
      <trkpt lat="42.47299" lon="3.00079">
        <ele>1113.6</ele>
        <time>2024-07-16T15:35:15Z</time>
      </trkpt>
      <trkpt lat="42.47293" lon="3.00099">
        <ele>1111.2</ele>
        <time>2024-07-16T15:35:26Z</time>
      </trkpt>
      <trkpt lat="42.47286" lon="3.00113">
        <ele>1109.6</ele>
        <time>2024-07-16T15:35:35Z</time>
      </trkpt>
      <trkpt lat="42.47282" lon="3.00124">
        <ele>1109</ele>
        <time>2024-07-16T15:35:42Z</time>
      </trkpt>
      <trkpt lat="42.47278" lon="3.00142">
        <ele>1108.2</ele>
        <time>2024-07-16T15:35:51Z</time>
      </trkpt>
      <trkpt lat="42.4727" lon="3.00157">
        <ele>1105.8</ele>
        <time>2024-07-16T15:36:02Z</time>
      </trkpt>
      <trkpt lat="42.47262" lon="3.00169">
        <ele>1102.4</ele>
        <time>2024-07-16T15:36:11Z</time>
      </trkpt>
      <trkpt lat="42.47254" lon="3.00177">
        <ele>1100.2</ele>
        <time>2024-07-16T15:36:19Z</time>
      </trkpt>
      <trkpt lat="42.47249" lon="3.00187">
        <ele>1097.8</ele>
        <time>2024-07-16T15:36:26Z</time>
      </trkpt>
      <trkpt lat="42.47242" lon="3.002">
        <ele>1095</ele>
        <time>2024-07-16T15:36:35Z</time>
      </trkpt>
      <trkpt lat="42.47236" lon="3.00211">
        <ele>1092.8</ele>
        <time>2024-07-16T15:36:44Z</time>
      </trkpt>
      <trkpt lat="42.47234" lon="3.00217">
        <ele>1090.6</ele>
        <time>2024-07-16T15:36:53Z</time>
      </trkpt>
      <trkpt lat="42.47231" lon="3.00223">
        <ele>1089.4</ele>
        <time>2024-07-16T15:36:59Z</time>
      </trkpt>
      <trkpt lat="42.47227" lon="3.0023">
        <ele>1087.4</ele>
        <time>2024-07-16T15:37:06Z</time>
      </trkpt>
      <trkpt lat="42.47226" lon="3.00239">
        <ele>1085.4</ele>
        <time>2024-07-16T15:37:13Z</time>
      </trkpt>
      <trkpt lat="42.47226" lon="3.00247">
        <ele>1084.2</ele>
        <time>2024-07-16T15:37:20Z</time>
      </trkpt>
      <trkpt lat="42.47224" lon="3.00255">
        <ele>1080.6</ele>
        <time>2024-07-16T15:37:28Z</time>
      </trkpt>
      <trkpt lat="42.47219" lon="3.00262">
        <ele>1077.6</ele>
        <time>2024-07-16T15:37:36Z</time>
      </trkpt>
      <trkpt lat="42.47217" lon="3.0027">
        <ele>1075</ele>
        <time>2024-07-16T15:37:44Z</time>
      </trkpt>
      <trkpt lat="42.47213" lon="3.00273">
        <ele>1074.2</ele>
        <time>2024-07-16T15:37:50Z</time>
      </trkpt>
      <trkpt lat="42.47211" lon="3.00275">
        <ele>1073.6</ele>
        <time>2024-07-16T15:37:53Z</time>
      </trkpt>
      <trkpt lat="42.47209" lon="3.00276">
        <ele>1073.2</ele>
        <time>2024-07-16T15:37:55Z</time>
      </trkpt>
      <trkpt lat="42.47208" lon="3.00279">
        <ele>1072.6</ele>
        <time>2024-07-16T15:37:57Z</time>
      </trkpt>
      <trkpt lat="42.47207" lon="3.0028">
        <ele>1072.4</ele>
        <time>2024-07-16T15:37:58Z</time>
      </trkpt>
      <trkpt lat="42.47199" lon="3.00282">
        <ele>1070.4</ele>
        <time>2024-07-16T15:38:05Z</time>
      </trkpt>
      <trkpt lat="42.47198" lon="3.00281">
        <ele>1070.2</ele>
        <time>2024-07-16T15:38:06Z</time>
      </trkpt>
      <trkpt lat="42.47188" lon="3.00281">
        <ele>1065.2</ele>
        <time>2024-07-16T15:38:14Z</time>
      </trkpt>
      <trkpt lat="42.47185" lon="3.00284">
        <ele>1063.2</ele>
        <time>2024-07-16T15:38:17Z</time>
      </trkpt>
      <trkpt lat="42.4718" lon="3.00286">
        <ele>1060.6</ele>
        <time>2024-07-16T15:38:21Z</time>
      </trkpt>
      <trkpt lat="42.47179" lon="3.00286">
        <ele>1060.2</ele>
        <time>2024-07-16T15:38:22Z</time>
      </trkpt>
      <trkpt lat="42.47179" lon="3.00286">
        <ele>1058.8</ele>
        <time>2024-07-16T15:38:26Z</time>
      </trkpt>
      <trkpt lat="42.47177" lon="3.00286">
        <ele>1058.4</ele>
        <time>2024-07-16T15:38:37Z</time>
      </trkpt>
      <trkpt lat="42.47167" lon="3.00288">
        <ele>1057</ele>
        <time>2024-07-16T15:38:43Z</time>
      </trkpt>
      <trkpt lat="42.47154" lon="3.00293">
        <ele>1054.4</ele>
        <time>2024-07-16T15:38:51Z</time>
      </trkpt>
      <trkpt lat="42.47143" lon="3.00297">
        <ele>1052.6</ele>
        <time>2024-07-16T15:38:58Z</time>
      </trkpt>
      <trkpt lat="42.47129" lon="3.00303">
        <ele>1049</ele>
        <time>2024-07-16T15:39:08Z</time>
      </trkpt>
      <trkpt lat="42.47116" lon="3.00305">
        <ele>1046.4</ele>
        <time>2024-07-16T15:39:18Z</time>
      </trkpt>
      <trkpt lat="42.47109" lon="3.00305">
        <ele>1044.2</ele>
        <time>2024-07-16T15:39:24Z</time>
      </trkpt>
      <trkpt lat="42.47106" lon="3.00308">
        <ele>1043.4</ele>
        <time>2024-07-16T15:39:26Z</time>
      </trkpt>
      <trkpt lat="42.47093" lon="3.00322">
        <ele>1038.8</ele>
        <time>2024-07-16T15:39:35Z</time>
      </trkpt>
      <trkpt lat="42.47084" lon="3.00336">
        <ele>1033.6</ele>
        <time>2024-07-16T15:39:45Z</time>
      </trkpt>
      <trkpt lat="42.47076" lon="3.00346">
        <ele>1030.8</ele>
        <time>2024-07-16T15:39:53Z</time>
      </trkpt>
      <trkpt lat="42.47069" lon="3.00357">
        <ele>1029.8</ele>
        <time>2024-07-16T15:40:01Z</time>
      </trkpt>
      <trkpt lat="42.47059" lon="3.0037">
        <ele>1029.2</ele>
        <time>2024-07-16T15:40:11Z</time>
      </trkpt>
      <trkpt lat="42.47052" lon="3.00382">
        <ele>1027.4</ele>
        <time>2024-07-16T15:40:20Z</time>
      </trkpt>
      <trkpt lat="42.47046" lon="3.00402">
        <ele>1025.2</ele>
        <time>2024-07-16T15:40:31Z</time>
      </trkpt>
      <trkpt lat="42.47041" lon="3.00418">
        <ele>1023.6</ele>
        <time>2024-07-16T15:40:40Z</time>
      </trkpt>
      <trkpt lat="42.47038" lon="3.00442">
        <ele>1022</ele>
        <time>2024-07-16T15:40:52Z</time>
      </trkpt>
      <trkpt lat="42.47037" lon="3.00446">
        <ele>1021.8</ele>
        <time>2024-07-16T15:40:54Z</time>
      </trkpt>
      <trkpt lat="42.47034" lon="3.00467">
        <ele>1019.6</ele>
        <time>2024-07-16T15:41:05Z</time>
      </trkpt>
      <trkpt lat="42.4703" lon="3.00485">
        <ele>1017.4</ele>
        <time>2024-07-16T15:41:15Z</time>
      </trkpt>
      <trkpt lat="42.47024" lon="3.00505">
        <ele>1015</ele>
        <time>2024-07-16T15:41:26Z</time>
      </trkpt>
      <trkpt lat="42.47025" lon="3.00525">
        <ele>1013.8</ele>
        <time>2024-07-16T15:41:37Z</time>
      </trkpt>
      <trkpt lat="42.47027" lon="3.00549">
        <ele>1011.2</ele>
        <time>2024-07-16T15:41:50Z</time>
      </trkpt>
      <trkpt lat="42.47024" lon="3.00566">
        <ele>1008.2</ele>
        <time>2024-07-16T15:41:59Z</time>
      </trkpt>
      <trkpt lat="42.47016" lon="3.00583">
        <ele>1005.4</ele>
        <time>2024-07-16T15:42:09Z</time>
      </trkpt>
      <trkpt lat="42.47008" lon="3.00596">
        <ele>1003.6</ele>
        <time>2024-07-16T15:42:18Z</time>
      </trkpt>
      <trkpt lat="42.47002" lon="3.00609">
        <ele>1001.8</ele>
        <time>2024-07-16T15:42:26Z</time>
      </trkpt>
      <trkpt lat="42.46995" lon="3.00625">
        <ele>998.4</ele>
        <time>2024-07-16T15:42:37Z</time>
      </trkpt>
      <trkpt lat="42.46987" lon="3.00638">
        <ele>996</ele>
        <time>2024-07-16T15:42:46Z</time>
      </trkpt>
      <trkpt lat="42.46981" lon="3.00647">
        <ele>993</ele>
        <time>2024-07-16T15:42:53Z</time>
      </trkpt>
      <trkpt lat="42.4698" lon="3.00652">
        <ele>991.8</ele>
        <time>2024-07-16T15:42:56Z</time>
      </trkpt>
      <trkpt lat="42.46977" lon="3.00669">
        <ele>989.2</ele>
        <time>2024-07-16T15:43:05Z</time>
      </trkpt>
      <trkpt lat="42.46975" lon="3.00688">
        <ele>987</ele>
        <time>2024-07-16T15:43:15Z</time>
      </trkpt>
      <trkpt lat="42.46974" lon="3.00705">
        <ele>985.2</ele>
        <time>2024-07-16T15:43:24Z</time>
      </trkpt>
      <trkpt lat="42.46976" lon="3.00725">
        <ele>982</ele>
        <time>2024-07-16T15:43:34Z</time>
      </trkpt>
      <trkpt lat="42.46979" lon="3.00743">
        <ele>980</ele>
        <time>2024-07-16T15:43:43Z</time>
      </trkpt>
      <trkpt lat="42.46981" lon="3.00752">
        <ele>978.6</ele>
        <time>2024-07-16T15:43:47Z</time>
      </trkpt>
      <trkpt lat="42.46982" lon="3.00754">
        <ele>977.4</ele>
        <time>2024-07-16T15:43:50Z</time>
      </trkpt>
      <trkpt lat="42.46982" lon="3.00754">
        <ele>976.2</ele>
        <time>2024-07-16T15:43:57Z</time>
      </trkpt>
      <trkpt lat="42.46982" lon="3.00753">
        <ele>975.4</ele>
        <time>2024-07-16T15:44:15Z</time>
      </trkpt>
      <trkpt lat="42.46983" lon="3.00756">
        <ele>977.8</ele>
        <time>2024-07-16T15:47:14Z</time>
      </trkpt>
      <trkpt lat="42.46983" lon="3.00776">
        <ele>976</ele>
        <time>2024-07-16T15:47:22Z</time>
      </trkpt>
      <trkpt lat="42.46978" lon="3.00791">
        <ele>973.4</ele>
        <time>2024-07-16T15:47:30Z</time>
      </trkpt>
      <trkpt lat="42.46976" lon="3.00802">
        <ele>972.4</ele>
        <time>2024-07-16T15:47:36Z</time>
      </trkpt>
      <trkpt lat="42.46972" lon="3.00816">
        <ele>972.2</ele>
        <time>2024-07-16T15:47:44Z</time>
      </trkpt>
      <trkpt lat="42.46971" lon="3.00833">
        <ele>970.8</ele>
        <time>2024-07-16T15:47:52Z</time>
      </trkpt>
      <trkpt lat="42.46969" lon="3.00849">
        <ele>968</ele>
        <time>2024-07-16T15:48:00Z</time>
      </trkpt>
      <trkpt lat="42.46962" lon="3.00866">
        <ele>966.6</ele>
        <time>2024-07-16T15:48:10Z</time>
      </trkpt>
      <trkpt lat="42.4696" lon="3.00879">
        <ele>965.4</ele>
        <time>2024-07-16T15:48:17Z</time>
      </trkpt>
      <trkpt lat="42.46953" lon="3.00891">
        <ele>964.2</ele>
        <time>2024-07-16T15:48:25Z</time>
      </trkpt>
      <trkpt lat="42.4695" lon="3.00906">
        <ele>963.8</ele>
        <time>2024-07-16T15:48:33Z</time>
      </trkpt>
      <trkpt lat="42.46946" lon="3.00921">
        <ele>963.6</ele>
        <time>2024-07-16T15:48:41Z</time>
      </trkpt>
      <trkpt lat="42.46944" lon="3.00926">
        <ele>963</ele>
        <time>2024-07-16T15:48:44Z</time>
      </trkpt>
      <trkpt lat="42.46942" lon="3.0093">
        <ele>962.8</ele>
        <time>2024-07-16T15:48:47Z</time>
      </trkpt>
      <trkpt lat="42.46937" lon="3.00943">
        <ele>962.6</ele>
        <time>2024-07-16T15:48:55Z</time>
      </trkpt>
      <trkpt lat="42.46933" lon="3.0096">
        <ele>961</ele>
        <time>2024-07-16T15:49:04Z</time>
      </trkpt>
      <trkpt lat="42.46923" lon="3.00973">
        <ele>959.8</ele>
        <time>2024-07-16T15:49:13Z</time>
      </trkpt>
      <trkpt lat="42.46922" lon="3.00976">
        <ele>959.8</ele>
        <time>2024-07-16T15:49:17Z</time>
      </trkpt>
      <trkpt lat="42.46918" lon="3.00985">
        <ele>960.6</ele>
        <time>2024-07-16T15:49:23Z</time>
      </trkpt>
      <trkpt lat="42.46911" lon="3.01002">
        <ele>961.4</ele>
        <time>2024-07-16T15:49:33Z</time>
      </trkpt>
      <trkpt lat="42.46903" lon="3.01024">
        <ele>961</ele>
        <time>2024-07-16T15:49:45Z</time>
      </trkpt>
      <trkpt lat="42.46894" lon="3.01045">
        <ele>958.8</ele>
        <time>2024-07-16T15:49:57Z</time>
      </trkpt>
      <trkpt lat="42.46893" lon="3.01046">
        <ele>958.6</ele>
        <time>2024-07-16T15:49:58Z</time>
      </trkpt>
      <trkpt lat="42.46885" lon="3.01065">
        <ele>958.2</ele>
        <time>2024-07-16T15:50:08Z</time>
      </trkpt>
      <trkpt lat="42.46879" lon="3.01079">
        <ele>959</ele>
        <time>2024-07-16T15:50:16Z</time>
      </trkpt>
      <trkpt lat="42.46873" lon="3.01096">
        <ele>959.6</ele>
        <time>2024-07-16T15:50:25Z</time>
      </trkpt>
      <trkpt lat="42.46862" lon="3.01105">
        <ele>959.8</ele>
        <time>2024-07-16T15:50:34Z</time>
      </trkpt>
      <trkpt lat="42.46852" lon="3.01117">
        <ele>960.2</ele>
        <time>2024-07-16T15:50:43Z</time>
      </trkpt>
      <trkpt lat="42.46844" lon="3.01123">
        <ele>959.6</ele>
        <time>2024-07-16T15:50:49Z</time>
      </trkpt>
      <trkpt lat="42.46844" lon="3.01124">
        <ele>959.4</ele>
        <time>2024-07-16T15:50:50Z</time>
      </trkpt>
      <trkpt lat="42.46842" lon="3.01141">
        <ele>957.6</ele>
        <time>2024-07-16T15:50:59Z</time>
      </trkpt>
      <trkpt lat="42.46839" lon="3.01162">
        <ele>954</ele>
        <time>2024-07-16T15:51:09Z</time>
      </trkpt>
      <trkpt lat="42.46837" lon="3.01182">
        <ele>952.4</ele>
        <time>2024-07-16T15:51:19Z</time>
      </trkpt>
      <trkpt lat="42.46833" lon="3.01201">
        <ele>951.8</ele>
        <time>2024-07-16T15:51:29Z</time>
      </trkpt>
      <trkpt lat="42.46829" lon="3.01217">
        <ele>950.6</ele>
        <time>2024-07-16T15:51:38Z</time>
      </trkpt>
      <trkpt lat="42.46827" lon="3.01237">
        <ele>948.8</ele>
        <time>2024-07-16T15:51:48Z</time>
      </trkpt>
      <trkpt lat="42.46826" lon="3.01253">
        <ele>948.4</ele>
        <time>2024-07-16T15:51:56Z</time>
      </trkpt>
      <trkpt lat="42.46821" lon="3.01275">
        <ele>946.6</ele>
        <time>2024-07-16T15:52:07Z</time>
      </trkpt>
      <trkpt lat="42.46817" lon="3.0129">
        <ele>946</ele>
        <time>2024-07-16T15:52:15Z</time>
      </trkpt>
      <trkpt lat="42.46814" lon="3.01313">
        <ele>945.6</ele>
        <time>2024-07-16T15:52:26Z</time>
      </trkpt>
      <trkpt lat="42.4681" lon="3.01335">
        <ele>945.6</ele>
        <time>2024-07-16T15:52:37Z</time>
      </trkpt>
      <trkpt lat="42.46811" lon="3.01353">
        <ele>945</ele>
        <time>2024-07-16T15:52:46Z</time>
      </trkpt>
      <trkpt lat="42.4681" lon="3.01366">
        <ele>943.4</ele>
        <time>2024-07-16T15:52:52Z</time>
      </trkpt>
      <trkpt lat="42.46809" lon="3.01387">
        <ele>940.8</ele>
        <time>2024-07-16T15:53:02Z</time>
      </trkpt>
      <trkpt lat="42.46809" lon="3.01403">
        <ele>940.6</ele>
        <time>2024-07-16T15:53:10Z</time>
      </trkpt>
      <trkpt lat="42.46813" lon="3.01421">
        <ele>938</ele>
        <time>2024-07-16T15:53:18Z</time>
      </trkpt>
      <trkpt lat="42.4682" lon="3.01435">
        <ele>937.6</ele>
        <time>2024-07-16T15:53:25Z</time>
      </trkpt>
      <trkpt lat="42.46827" lon="3.01446">
        <ele>936.6</ele>
        <time>2024-07-16T15:53:31Z</time>
      </trkpt>
      <trkpt lat="42.46836" lon="3.01463">
        <ele>935.4</ele>
        <time>2024-07-16T15:53:41Z</time>
      </trkpt>
      <trkpt lat="42.46839" lon="3.01475">
        <ele>934.6</ele>
        <time>2024-07-16T15:53:47Z</time>
      </trkpt>
      <trkpt lat="42.46845" lon="3.01492">
        <ele>932.2</ele>
        <time>2024-07-16T15:53:56Z</time>
      </trkpt>
      <trkpt lat="42.46848" lon="3.01505">
        <ele>931</ele>
        <time>2024-07-16T15:54:03Z</time>
      </trkpt>
      <trkpt lat="42.46852" lon="3.01516">
        <ele>929.6</ele>
        <time>2024-07-16T15:54:10Z</time>
      </trkpt>
      <trkpt lat="42.46859" lon="3.01529">
        <ele>928.6</ele>
        <time>2024-07-16T15:54:18Z</time>
      </trkpt>
      <trkpt lat="42.46868" lon="3.01539">
        <ele>926.6</ele>
        <time>2024-07-16T15:54:26Z</time>
      </trkpt>
      <trkpt lat="42.46878" lon="3.01554">
        <ele>926</ele>
        <time>2024-07-16T15:54:35Z</time>
      </trkpt>
      <trkpt lat="42.46885" lon="3.01568">
        <ele>925</ele>
        <time>2024-07-16T15:54:44Z</time>
      </trkpt>
      <trkpt lat="42.46891" lon="3.01582">
        <ele>924.4</ele>
        <time>2024-07-16T15:54:53Z</time>
      </trkpt>
      <trkpt lat="42.46896" lon="3.01593">
        <ele>925.8</ele>
        <time>2024-07-16T15:55:01Z</time>
      </trkpt>
      <trkpt lat="42.46897" lon="3.01594">
        <ele>925.8</ele>
        <time>2024-07-16T15:55:02Z</time>
      </trkpt>
      <trkpt lat="42.46905" lon="3.01599">
        <ele>926.6</ele>
        <time>2024-07-16T15:55:08Z</time>
      </trkpt>
      <trkpt lat="42.46911" lon="3.01611">
        <ele>927.6</ele>
        <time>2024-07-16T15:55:15Z</time>
      </trkpt>
      <trkpt lat="42.46915" lon="3.01618">
        <ele>927.4</ele>
        <time>2024-07-16T15:55:20Z</time>
      </trkpt>
      <trkpt lat="42.46916" lon="3.01621">
        <ele>926.8</ele>
        <time>2024-07-16T15:55:22Z</time>
      </trkpt>
      <trkpt lat="42.46923" lon="3.01631">
        <ele>925.2</ele>
        <time>2024-07-16T15:55:29Z</time>
      </trkpt>
      <trkpt lat="42.46935" lon="3.01637">
        <ele>922.6</ele>
        <time>2024-07-16T15:55:38Z</time>
      </trkpt>
      <trkpt lat="42.46946" lon="3.01645">
        <ele>922.8</ele>
        <time>2024-07-16T15:55:47Z</time>
      </trkpt>
      <trkpt lat="42.46949" lon="3.01649">
        <ele>923</ele>
        <time>2024-07-16T15:55:50Z</time>
      </trkpt>
      <trkpt lat="42.46951" lon="3.01659">
        <ele>923.6</ele>
        <time>2024-07-16T15:55:55Z</time>
      </trkpt>
      <trkpt lat="42.46954" lon="3.01674">
        <ele>924.8</ele>
        <time>2024-07-16T15:56:04Z</time>
      </trkpt>
      <trkpt lat="42.46959" lon="3.01689">
        <ele>924.8</ele>
        <time>2024-07-16T15:56:13Z</time>
      </trkpt>
      <trkpt lat="42.46964" lon="3.01707">
        <ele>922.8</ele>
        <time>2024-07-16T15:56:22Z</time>
      </trkpt>
      <trkpt lat="42.46967" lon="3.01717">
        <ele>921.4</ele>
        <time>2024-07-16T15:56:28Z</time>
      </trkpt>
      <trkpt lat="42.46974" lon="3.01737">
        <ele>918.4</ele>
        <time>2024-07-16T15:56:40Z</time>
      </trkpt>
      <trkpt lat="42.46978" lon="3.01755">
        <ele>917.2</ele>
        <time>2024-07-16T15:56:50Z</time>
      </trkpt>
      <trkpt lat="42.46984" lon="3.01772">
        <ele>916</ele>
        <time>2024-07-16T15:57:00Z</time>
      </trkpt>
      <trkpt lat="42.46988" lon="3.01784">
        <ele>915.2</ele>
        <time>2024-07-16T15:57:09Z</time>
      </trkpt>
      <trkpt lat="42.4699" lon="3.01787">
        <ele>915.2</ele>
        <time>2024-07-16T15:57:12Z</time>
      </trkpt>
      <trkpt lat="42.46993" lon="3.01792">
        <ele>915.2</ele>
        <time>2024-07-16T15:57:16Z</time>
      </trkpt>
      <trkpt lat="42.46994" lon="3.01793">
        <ele>915.2</ele>
        <time>2024-07-16T15:57:17Z</time>
      </trkpt>
      <trkpt lat="42.46996" lon="3.01804">
        <ele>915.4</ele>
        <time>2024-07-16T15:57:25Z</time>
      </trkpt>
      <trkpt lat="42.46999" lon="3.01807">
        <ele>915.4</ele>
        <time>2024-07-16T15:57:28Z</time>
      </trkpt>
      <trkpt lat="42.47001" lon="3.01811">
        <ele>914.8</ele>
        <time>2024-07-16T15:57:31Z</time>
      </trkpt>
      <trkpt lat="42.47002" lon="3.01811">
        <ele>914.6</ele>
        <time>2024-07-16T15:57:32Z</time>
      </trkpt>
      <trkpt lat="42.47012" lon="3.01814">
        <ele>913</ele>
        <time>2024-07-16T15:57:42Z</time>
      </trkpt>
      <trkpt lat="42.47017" lon="3.01813">
        <ele>913</ele>
        <time>2024-07-16T15:57:51Z</time>
      </trkpt>
      <trkpt lat="42.47017" lon="3.01813">
        <ele>912.4</ele>
        <time>2024-07-16T15:58:02Z</time>
      </trkpt>
      <trkpt lat="42.4702" lon="3.01805">
        <ele>912.4</ele>
        <time>2024-07-16T15:58:09Z</time>
      </trkpt>
      <trkpt lat="42.47028" lon="3.01793">
        <ele>911.6</ele>
        <time>2024-07-16T15:58:17Z</time>
      </trkpt>
      <trkpt lat="42.4704" lon="3.0179">
        <ele>909.4</ele>
        <time>2024-07-16T15:58:26Z</time>
      </trkpt>
      <trkpt lat="42.47053" lon="3.01788">
        <ele>907.2</ele>
        <time>2024-07-16T15:58:35Z</time>
      </trkpt>
      <trkpt lat="42.47068" lon="3.01788">
        <ele>904.8</ele>
        <time>2024-07-16T15:58:46Z</time>
      </trkpt>
      <trkpt lat="42.47077" lon="3.01798">
        <ele>904</ele>
        <time>2024-07-16T15:58:55Z</time>
      </trkpt>
      <trkpt lat="42.47081" lon="3.01812">
        <ele>903.2</ele>
        <time>2024-07-16T15:59:04Z</time>
      </trkpt>
      <trkpt lat="42.47085" lon="3.01825">
        <ele>902.8</ele>
        <time>2024-07-16T15:59:12Z</time>
      </trkpt>
      <trkpt lat="42.47086" lon="3.0184">
        <ele>903.8</ele>
        <time>2024-07-16T15:59:21Z</time>
      </trkpt>
      <trkpt lat="42.47087" lon="3.01841">
        <ele>904</ele>
        <time>2024-07-16T15:59:22Z</time>
      </trkpt>
      <trkpt lat="42.47089" lon="3.01853">
        <ele>904.4</ele>
        <time>2024-07-16T15:59:30Z</time>
      </trkpt>
      <trkpt lat="42.47088" lon="3.01865">
        <ele>904.6</ele>
        <time>2024-07-16T15:59:40Z</time>
      </trkpt>
      <trkpt lat="42.47088" lon="3.01873">
        <ele>905.6</ele>
        <time>2024-07-16T15:59:47Z</time>
      </trkpt>
      <trkpt lat="42.47087" lon="3.01875">
        <ele>907.4</ele>
        <time>2024-07-16T15:59:52Z</time>
      </trkpt>
      <trkpt lat="42.47088" lon="3.01875">
        <ele>909.6</ele>
        <time>2024-07-16T16:00:13Z</time>
      </trkpt>
      <trkpt lat="42.47092" lon="3.01879">
        <ele>909.6</ele>
        <time>2024-07-16T16:00:17Z</time>
      </trkpt>
      <trkpt lat="42.47107" lon="3.01886">
        <ele>910.8</ele>
        <time>2024-07-16T16:00:28Z</time>
      </trkpt>
      <trkpt lat="42.47121" lon="3.01894">
        <ele>913.8</ele>
        <time>2024-07-16T16:00:39Z</time>
      </trkpt>
      <trkpt lat="42.47129" lon="3.01901">
        <ele>915.6</ele>
        <time>2024-07-16T16:00:47Z</time>
      </trkpt>
      <trkpt lat="42.47141" lon="3.0191">
        <ele>916.6</ele>
        <time>2024-07-16T16:00:58Z</time>
      </trkpt>
      <trkpt lat="42.4715" lon="3.01924">
        <ele>916.6</ele>
        <time>2024-07-16T16:01:11Z</time>
      </trkpt>
      <trkpt lat="42.47152" lon="3.01929">
        <ele>917</ele>
        <time>2024-07-16T16:01:15Z</time>
      </trkpt>
      <trkpt lat="42.47154" lon="3.01933">
        <ele>917.2</ele>
        <time>2024-07-16T16:01:19Z</time>
      </trkpt>
      <trkpt lat="42.47161" lon="3.01945">
        <ele>918.8</ele>
        <time>2024-07-16T16:01:30Z</time>
      </trkpt>
      <trkpt lat="42.4717" lon="3.01959">
        <ele>920.2</ele>
        <time>2024-07-16T16:01:42Z</time>
      </trkpt>
      <trkpt lat="42.47171" lon="3.01963">
        <ele>920.8</ele>
        <time>2024-07-16T16:01:45Z</time>
      </trkpt>
      <trkpt lat="42.47173" lon="3.01972">
        <ele>921.6</ele>
        <time>2024-07-16T16:01:53Z</time>
      </trkpt>
      <trkpt lat="42.47178" lon="3.01987">
        <ele>924</ele>
        <time>2024-07-16T16:02:04Z</time>
      </trkpt>
      <trkpt lat="42.47179" lon="3.01995">
        <ele>926.2</ele>
        <time>2024-07-16T16:02:12Z</time>
      </trkpt>
      <trkpt lat="42.4718" lon="3.01995">
        <ele>926.8</ele>
        <time>2024-07-16T16:02:20Z</time>
      </trkpt>
      <trkpt lat="42.4718" lon="3.01999">
        <ele>927.4</ele>
        <time>2024-07-16T16:02:35Z</time>
      </trkpt>
      <trkpt lat="42.4718" lon="3.02016">
        <ele>929</ele>
        <time>2024-07-16T16:02:46Z</time>
      </trkpt>
      <trkpt lat="42.4718" lon="3.02017">
        <ele>930.6</ele>
        <time>2024-07-16T16:02:53Z</time>
      </trkpt>
      <trkpt lat="42.47182" lon="3.02019">
        <ele>931.8</ele>
        <time>2024-07-16T16:03:02Z</time>
      </trkpt>
      <trkpt lat="42.47184" lon="3.02029">
        <ele>932.4</ele>
        <time>2024-07-16T16:03:09Z</time>
      </trkpt>
      <trkpt lat="42.47185" lon="3.02035">
        <ele>932.8</ele>
        <time>2024-07-16T16:03:13Z</time>
      </trkpt>
      <trkpt lat="42.47184" lon="3.02037">
        <ele>933.2</ele>
        <time>2024-07-16T16:03:16Z</time>
      </trkpt>
      <trkpt lat="42.47184" lon="3.0204">
        <ele>933.4</ele>
        <time>2024-07-16T16:03:18Z</time>
      </trkpt>
      <trkpt lat="42.47185" lon="3.02047">
        <ele>933.8</ele>
        <time>2024-07-16T16:03:23Z</time>
      </trkpt>
      <trkpt lat="42.47185" lon="3.02049">
        <ele>933.8</ele>
        <time>2024-07-16T16:03:24Z</time>
      </trkpt>
      <trkpt lat="42.47187" lon="3.02058">
        <ele>934.6</ele>
        <time>2024-07-16T16:03:30Z</time>
      </trkpt>
      <trkpt lat="42.47188" lon="3.0207">
        <ele>936.2</ele>
        <time>2024-07-16T16:03:39Z</time>
      </trkpt>
      <trkpt lat="42.47189" lon="3.02086">
        <ele>937.4</ele>
        <time>2024-07-16T16:03:49Z</time>
      </trkpt>
      <trkpt lat="42.47191" lon="3.02094">
        <ele>939.4</ele>
        <time>2024-07-16T16:03:55Z</time>
      </trkpt>
      <trkpt lat="42.47195" lon="3.02108">
        <ele>940.8</ele>
        <time>2024-07-16T16:04:04Z</time>
      </trkpt>
      <trkpt lat="42.47195" lon="3.02116">
        <ele>941.8</ele>
        <time>2024-07-16T16:04:10Z</time>
      </trkpt>
      <trkpt lat="42.47196" lon="3.02119">
        <ele>942.4</ele>
        <time>2024-07-16T16:04:12Z</time>
      </trkpt>
      <trkpt lat="42.472" lon="3.02128">
        <ele>943.2</ele>
        <time>2024-07-16T16:04:19Z</time>
      </trkpt>
      <trkpt lat="42.47204" lon="3.02139">
        <ele>944.4</ele>
        <time>2024-07-16T16:04:28Z</time>
      </trkpt>
      <trkpt lat="42.47207" lon="3.02146">
        <ele>946.2</ele>
        <time>2024-07-16T16:04:34Z</time>
      </trkpt>
      <trkpt lat="42.47209" lon="3.02148">
        <ele>946.8</ele>
        <time>2024-07-16T16:04:36Z</time>
      </trkpt>
      <trkpt lat="42.47215" lon="3.02155">
        <ele>947.2</ele>
        <time>2024-07-16T16:04:43Z</time>
      </trkpt>
      <trkpt lat="42.47221" lon="3.02162">
        <ele>946.4</ele>
        <time>2024-07-16T16:04:51Z</time>
      </trkpt>
      <trkpt lat="42.47227" lon="3.02166">
        <ele>946.2</ele>
        <time>2024-07-16T16:04:57Z</time>
      </trkpt>
      <trkpt lat="42.47232" lon="3.02173">
        <ele>946.2</ele>
        <time>2024-07-16T16:05:04Z</time>
      </trkpt>
      <trkpt lat="42.47233" lon="3.02175">
        <ele>946.8</ele>
        <time>2024-07-16T16:05:10Z</time>
      </trkpt>
      <trkpt lat="42.47233" lon="3.02175">
        <ele>947.4</ele>
        <time>2024-07-16T16:05:19Z</time>
      </trkpt>
      <trkpt lat="42.47238" lon="3.02176">
        <ele>947.8</ele>
        <time>2024-07-16T16:05:46Z</time>
      </trkpt>
      <trkpt lat="42.47256" lon="3.02177">
        <ele>949.6</ele>
        <time>2024-07-16T16:05:57Z</time>
      </trkpt>
      <trkpt lat="42.47265" lon="3.02173">
        <ele>949.8</ele>
        <time>2024-07-16T16:06:05Z</time>
      </trkpt>
      <trkpt lat="42.47274" lon="3.02172">
        <ele>949.2</ele>
        <time>2024-07-16T16:06:13Z</time>
      </trkpt>
      <trkpt lat="42.47287" lon="3.0217">
        <ele>950.6</ele>
        <time>2024-07-16T16:06:24Z</time>
      </trkpt>
      <trkpt lat="42.47298" lon="3.02164">
        <ele>951.4</ele>
        <time>2024-07-16T16:06:33Z</time>
      </trkpt>
      <trkpt lat="42.47309" lon="3.02158">
        <ele>952.2</ele>
        <time>2024-07-16T16:06:43Z</time>
      </trkpt>
      <trkpt lat="42.47318" lon="3.02153">
        <ele>951.8</ele>
        <time>2024-07-16T16:06:50Z</time>
      </trkpt>
      <trkpt lat="42.47329" lon="3.02148">
        <ele>951.6</ele>
        <time>2024-07-16T16:06:59Z</time>
      </trkpt>
      <trkpt lat="42.47338" lon="3.02149">
        <ele>951.4</ele>
        <time>2024-07-16T16:07:06Z</time>
      </trkpt>
      <trkpt lat="42.47352" lon="3.02149">
        <ele>951.6</ele>
        <time>2024-07-16T16:07:17Z</time>
      </trkpt>
      <trkpt lat="42.4737" lon="3.02151">
        <ele>950</ele>
        <time>2024-07-16T16:07:30Z</time>
      </trkpt>
      <trkpt lat="42.4738" lon="3.02155">
        <ele>949.4</ele>
        <time>2024-07-16T16:07:38Z</time>
      </trkpt>
      <trkpt lat="42.47393" lon="3.02166">
        <ele>949</ele>
        <time>2024-07-16T16:07:48Z</time>
      </trkpt>
      <trkpt lat="42.474" lon="3.0218">
        <ele>947</ele>
        <time>2024-07-16T16:07:56Z</time>
      </trkpt>
      <trkpt lat="42.474" lon="3.02191">
        <ele>945.4</ele>
        <time>2024-07-16T16:08:02Z</time>
      </trkpt>
      <trkpt lat="42.47398" lon="3.02205">
        <ele>944</ele>
        <time>2024-07-16T16:08:09Z</time>
      </trkpt>
      <trkpt lat="42.47396" lon="3.02222">
        <ele>940.2</ele>
        <time>2024-07-16T16:08:18Z</time>
      </trkpt>
      <trkpt lat="42.47398" lon="3.0224">
        <ele>937.6</ele>
        <time>2024-07-16T16:08:27Z</time>
      </trkpt>
      <trkpt lat="42.47399" lon="3.02253">
        <ele>935.8</ele>
        <time>2024-07-16T16:08:34Z</time>
      </trkpt>
      <trkpt lat="42.47396" lon="3.02267">
        <ele>935.4</ele>
        <time>2024-07-16T16:08:41Z</time>
      </trkpt>
      <trkpt lat="42.47392" lon="3.02283">
        <ele>936.8</ele>
        <time>2024-07-16T16:08:50Z</time>
      </trkpt>
      <trkpt lat="42.47388" lon="3.02295">
        <ele>936.6</ele>
        <time>2024-07-16T16:08:57Z</time>
      </trkpt>
      <trkpt lat="42.47384" lon="3.02316">
        <ele>936.8</ele>
        <time>2024-07-16T16:09:08Z</time>
      </trkpt>
      <trkpt lat="42.47382" lon="3.0233">
        <ele>936.4</ele>
        <time>2024-07-16T16:09:16Z</time>
      </trkpt>
      <trkpt lat="42.47378" lon="3.0235">
        <ele>934.6</ele>
        <time>2024-07-16T16:09:26Z</time>
      </trkpt>
      <trkpt lat="42.47373" lon="3.02365">
        <ele>933.8</ele>
        <time>2024-07-16T16:09:34Z</time>
      </trkpt>
      <trkpt lat="42.47373" lon="3.02378">
        <ele>935</ele>
        <time>2024-07-16T16:09:41Z</time>
      </trkpt>
      <trkpt lat="42.47372" lon="3.02391">
        <ele>936.8</ele>
        <time>2024-07-16T16:09:48Z</time>
      </trkpt>
      <trkpt lat="42.47367" lon="3.02402">
        <ele>937.2</ele>
        <time>2024-07-16T16:09:55Z</time>
      </trkpt>
      <trkpt lat="42.47365" lon="3.02411">
        <ele>936.4</ele>
        <time>2024-07-16T16:10:02Z</time>
      </trkpt>
      <trkpt lat="42.47365" lon="3.02412">
        <ele>936.4</ele>
        <time>2024-07-16T16:10:03Z</time>
      </trkpt>
      <trkpt lat="42.47368" lon="3.02416">
        <ele>936.2</ele>
        <time>2024-07-16T16:10:07Z</time>
      </trkpt>
      <trkpt lat="42.47369" lon="3.0242">
        <ele>936.4</ele>
        <time>2024-07-16T16:10:10Z</time>
      </trkpt>
      <trkpt lat="42.47373" lon="3.02434">
        <ele>938.2</ele>
        <time>2024-07-16T16:10:19Z</time>
      </trkpt>
      <trkpt lat="42.47375" lon="3.02449">
        <ele>939.2</ele>
        <time>2024-07-16T16:10:28Z</time>
      </trkpt>
      <trkpt lat="42.47379" lon="3.02468">
        <ele>939.4</ele>
        <time>2024-07-16T16:10:39Z</time>
      </trkpt>
      <trkpt lat="42.47381" lon="3.02483">
        <ele>941.2</ele>
        <time>2024-07-16T16:10:48Z</time>
      </trkpt>
      <trkpt lat="42.4738" lon="3.02497">
        <ele>941.2</ele>
        <time>2024-07-16T16:10:56Z</time>
      </trkpt>
      <trkpt lat="42.4738" lon="3.02518">
        <ele>940.6</ele>
        <time>2024-07-16T16:11:06Z</time>
      </trkpt>
      <trkpt lat="42.47377" lon="3.02533">
        <ele>940</ele>
        <time>2024-07-16T16:11:14Z</time>
      </trkpt>
      <trkpt lat="42.4737" lon="3.02551">
        <ele>939.2</ele>
        <time>2024-07-16T16:11:24Z</time>
      </trkpt>
      <trkpt lat="42.47361" lon="3.02567">
        <ele>938.2</ele>
        <time>2024-07-16T16:11:34Z</time>
      </trkpt>
      <trkpt lat="42.47351" lon="3.02581">
        <ele>937.8</ele>
        <time>2024-07-16T16:11:44Z</time>
      </trkpt>
      <trkpt lat="42.47341" lon="3.02602">
        <ele>935.2</ele>
        <time>2024-07-16T16:11:57Z</time>
      </trkpt>
      <trkpt lat="42.47338" lon="3.02618">
        <ele>932.6</ele>
        <time>2024-07-16T16:12:05Z</time>
      </trkpt>
      <trkpt lat="42.47335" lon="3.02635">
        <ele>931.4</ele>
        <time>2024-07-16T16:12:13Z</time>
      </trkpt>
      <trkpt lat="42.47334" lon="3.0266">
        <ele>929</ele>
        <time>2024-07-16T16:12:25Z</time>
      </trkpt>
      <trkpt lat="42.47334" lon="3.02662">
        <ele>928.8</ele>
        <time>2024-07-16T16:12:26Z</time>
      </trkpt>
      <trkpt lat="42.47334" lon="3.02678">
        <ele>927.4</ele>
        <time>2024-07-16T16:12:34Z</time>
      </trkpt>
      <trkpt lat="42.47332" lon="3.02689">
        <ele>925.6</ele>
        <time>2024-07-16T16:12:40Z</time>
      </trkpt>
      <trkpt lat="42.47332" lon="3.02691">
        <ele>925.6</ele>
        <time>2024-07-16T16:12:41Z</time>
      </trkpt>
      <trkpt lat="42.47333" lon="3.02714">
        <ele>924.4</ele>
        <time>2024-07-16T16:12:52Z</time>
      </trkpt>
      <trkpt lat="42.47334" lon="3.02734">
        <ele>923.8</ele>
        <time>2024-07-16T16:13:02Z</time>
      </trkpt>
      <trkpt lat="42.47333" lon="3.0275">
        <ele>924.2</ele>
        <time>2024-07-16T16:13:10Z</time>
      </trkpt>
      <trkpt lat="42.47333" lon="3.02764">
        <ele>923.4</ele>
        <time>2024-07-16T16:13:17Z</time>
      </trkpt>
      <trkpt lat="42.4733" lon="3.02785">
        <ele>921.6</ele>
        <time>2024-07-16T16:13:27Z</time>
      </trkpt>
      <trkpt lat="42.47332" lon="3.02801">
        <ele>921</ele>
        <time>2024-07-16T16:13:35Z</time>
      </trkpt>
      <trkpt lat="42.47339" lon="3.02813">
        <ele>922</ele>
        <time>2024-07-16T16:13:43Z</time>
      </trkpt>
      <trkpt lat="42.47343" lon="3.02825">
        <ele>922.4</ele>
        <time>2024-07-16T16:13:50Z</time>
      </trkpt>
      <trkpt lat="42.47349" lon="3.0284">
        <ele>919.6</ele>
        <time>2024-07-16T16:13:59Z</time>
      </trkpt>
      <trkpt lat="42.47358" lon="3.02855">
        <ele>918</ele>
        <time>2024-07-16T16:14:08Z</time>
      </trkpt>
      <trkpt lat="42.47362" lon="3.02865">
        <ele>916.6</ele>
        <time>2024-07-16T16:14:14Z</time>
      </trkpt>
      <trkpt lat="42.4737" lon="3.02878">
        <ele>915</ele>
        <time>2024-07-16T16:14:22Z</time>
      </trkpt>
      <trkpt lat="42.47382" lon="3.0289">
        <ele>912</ele>
        <time>2024-07-16T16:14:32Z</time>
      </trkpt>
      <trkpt lat="42.47394" lon="3.029">
        <ele>911.4</ele>
        <time>2024-07-16T16:14:42Z</time>
      </trkpt>
      <trkpt lat="42.47408" lon="3.02913">
        <ele>911.8</ele>
        <time>2024-07-16T16:14:54Z</time>
      </trkpt>
      <trkpt lat="42.47418" lon="3.02922">
        <ele>912.6</ele>
        <time>2024-07-16T16:15:02Z</time>
      </trkpt>
      <trkpt lat="42.47425" lon="3.02931">
        <ele>913.2</ele>
        <time>2024-07-16T16:15:09Z</time>
      </trkpt>
      <trkpt lat="42.47433" lon="3.02941">
        <ele>912.6</ele>
        <time>2024-07-16T16:15:17Z</time>
      </trkpt>
      <trkpt lat="42.47448" lon="3.02952">
        <ele>913</ele>
        <time>2024-07-16T16:15:28Z</time>
      </trkpt>
      <trkpt lat="42.47454" lon="3.02964">
        <ele>913.8</ele>
        <time>2024-07-16T16:15:36Z</time>
      </trkpt>
      <trkpt lat="42.47461" lon="3.02979">
        <ele>912.4</ele>
        <time>2024-07-16T16:15:45Z</time>
      </trkpt>
      <trkpt lat="42.47462" lon="3.02981">
        <ele>912.4</ele>
        <time>2024-07-16T16:15:46Z</time>
      </trkpt>
      <trkpt lat="42.47464" lon="3.02995">
        <ele>910.4</ele>
        <time>2024-07-16T16:15:54Z</time>
      </trkpt>
      <trkpt lat="42.47465" lon="3.02997">
        <ele>910</ele>
        <time>2024-07-16T16:15:55Z</time>
      </trkpt>
      <trkpt lat="42.47471" lon="3.0301">
        <ele>907.4</ele>
        <time>2024-07-16T16:16:02Z</time>
      </trkpt>
      <trkpt lat="42.47475" lon="3.03027">
        <ele>905.4</ele>
        <time>2024-07-16T16:16:11Z</time>
      </trkpt>
      <trkpt lat="42.47475" lon="3.03041">
        <ele>902</ele>
        <time>2024-07-16T16:16:18Z</time>
      </trkpt>
      <trkpt lat="42.47477" lon="3.03058">
        <ele>898</ele>
        <time>2024-07-16T16:16:26Z</time>
      </trkpt>
      <trkpt lat="42.47483" lon="3.03076">
        <ele>893.6</ele>
        <time>2024-07-16T16:16:35Z</time>
      </trkpt>
      <trkpt lat="42.47487" lon="3.03088">
        <ele>891.4</ele>
        <time>2024-07-16T16:16:42Z</time>
      </trkpt>
      <trkpt lat="42.4749" lon="3.03104">
        <ele>889.6</ele>
        <time>2024-07-16T16:16:50Z</time>
      </trkpt>
      <trkpt lat="42.47493" lon="3.0312">
        <ele>887.8</ele>
        <time>2024-07-16T16:16:59Z</time>
      </trkpt>
      <trkpt lat="42.47493" lon="3.03132">
        <ele>887.4</ele>
        <time>2024-07-16T16:17:07Z</time>
      </trkpt>
      <trkpt lat="42.47495" lon="3.03135">
        <ele>887.6</ele>
        <time>2024-07-16T16:17:10Z</time>
      </trkpt>
      <trkpt lat="42.47499" lon="3.03142">
        <ele>888.6</ele>
        <time>2024-07-16T16:17:18Z</time>
      </trkpt>
      <trkpt lat="42.47503" lon="3.03146">
        <ele>889.6</ele>
        <time>2024-07-16T16:17:25Z</time>
      </trkpt>
      <trkpt lat="42.47507" lon="3.03158">
        <ele>888.8</ele>
        <time>2024-07-16T16:17:34Z</time>
      </trkpt>
      <trkpt lat="42.47513" lon="3.03174">
        <ele>887</ele>
        <time>2024-07-16T16:17:44Z</time>
      </trkpt>
      <trkpt lat="42.47515" lon="3.03183">
        <ele>887</ele>
        <time>2024-07-16T16:17:50Z</time>
      </trkpt>
      <trkpt lat="42.47521" lon="3.03197">
        <ele>887.6</ele>
        <time>2024-07-16T16:17:58Z</time>
      </trkpt>
      <trkpt lat="42.47523" lon="3.0321">
        <ele>887.2</ele>
        <time>2024-07-16T16:18:06Z</time>
      </trkpt>
      <trkpt lat="42.47524" lon="3.03212">
        <ele>887.2</ele>
        <time>2024-07-16T16:18:07Z</time>
      </trkpt>
      <trkpt lat="42.47526" lon="3.03232">
        <ele>887.4</ele>
        <time>2024-07-16T16:18:18Z</time>
      </trkpt>
      <trkpt lat="42.4753" lon="3.03249">
        <ele>886.6</ele>
        <time>2024-07-16T16:18:28Z</time>
      </trkpt>
      <trkpt lat="42.47532" lon="3.03261">
        <ele>887.8</ele>
        <time>2024-07-16T16:18:36Z</time>
      </trkpt>
      <trkpt lat="42.47542" lon="3.03277">
        <ele>888.8</ele>
        <time>2024-07-16T16:18:47Z</time>
      </trkpt>
      <trkpt lat="42.47551" lon="3.0329">
        <ele>889.4</ele>
        <time>2024-07-16T16:18:56Z</time>
      </trkpt>
      <trkpt lat="42.47552" lon="3.03293">
        <ele>889.6</ele>
        <time>2024-07-16T16:19:00Z</time>
      </trkpt>
      <trkpt lat="42.47553" lon="3.03294">
        <ele>889.6</ele>
        <time>2024-07-16T16:19:01Z</time>
      </trkpt>
      <trkpt lat="42.47558" lon="3.03304">
        <ele>889.6</ele>
        <time>2024-07-16T16:19:08Z</time>
      </trkpt>
      <trkpt lat="42.4756" lon="3.03306">
        <ele>889</ele>
        <time>2024-07-16T16:19:15Z</time>
      </trkpt>
      <trkpt lat="42.4756" lon="3.03306">
        <ele>888.8</ele>
        <time>2024-07-16T16:19:26Z</time>
      </trkpt>
      <trkpt lat="42.47561" lon="3.03314">
        <ele>887</ele>
        <time>2024-07-16T16:19:59Z</time>
      </trkpt>
      <trkpt lat="42.47565" lon="3.03333">
        <ele>888.4</ele>
        <time>2024-07-16T16:20:09Z</time>
      </trkpt>
      <trkpt lat="42.4757" lon="3.03351">
        <ele>890.2</ele>
        <time>2024-07-16T16:20:21Z</time>
      </trkpt>
      <trkpt lat="42.47574" lon="3.03371">
        <ele>891.8</ele>
        <time>2024-07-16T16:20:32Z</time>
      </trkpt>
      <trkpt lat="42.47577" lon="3.03386">
        <ele>893</ele>
        <time>2024-07-16T16:20:41Z</time>
      </trkpt>
      <trkpt lat="42.47576" lon="3.03399">
        <ele>892.8</ele>
        <time>2024-07-16T16:20:48Z</time>
      </trkpt>
      <trkpt lat="42.47574" lon="3.03404">
        <ele>892.6</ele>
        <time>2024-07-16T16:20:52Z</time>
      </trkpt>
      <trkpt lat="42.47575" lon="3.03408">
        <ele>892.4</ele>
        <time>2024-07-16T16:20:55Z</time>
      </trkpt>
      <trkpt lat="42.47575" lon="3.03416">
        <ele>892.2</ele>
        <time>2024-07-16T16:21:00Z</time>
      </trkpt>
      <trkpt lat="42.47576" lon="3.03418">
        <ele>892.4</ele>
        <time>2024-07-16T16:21:02Z</time>
      </trkpt>
      <trkpt lat="42.47575" lon="3.03421">
        <ele>892.8</ele>
        <time>2024-07-16T16:21:04Z</time>
      </trkpt>
      <trkpt lat="42.47575" lon="3.03426">
        <ele>893.8</ele>
        <time>2024-07-16T16:21:08Z</time>
      </trkpt>
      <trkpt lat="42.47576" lon="3.03432">
        <ele>895</ele>
        <time>2024-07-16T16:21:13Z</time>
      </trkpt>
      <trkpt lat="42.47577" lon="3.03437">
        <ele>896.4</ele>
        <time>2024-07-16T16:21:15Z</time>
      </trkpt>
      <trkpt lat="42.47578" lon="3.03441">
        <ele>897.6</ele>
        <time>2024-07-16T16:21:17Z</time>
      </trkpt>
      <trkpt lat="42.47579" lon="3.03445">
        <ele>898.4</ele>
        <time>2024-07-16T16:21:20Z</time>
      </trkpt>
      <trkpt lat="42.4758" lon="3.03453">
        <ele>899.4</ele>
        <time>2024-07-16T16:21:24Z</time>
      </trkpt>
      <trkpt lat="42.47582" lon="3.03466">
        <ele>902.4</ele>
        <time>2024-07-16T16:21:32Z</time>
      </trkpt>
      <trkpt lat="42.47583" lon="3.03472">
        <ele>904.6</ele>
        <time>2024-07-16T16:21:36Z</time>
      </trkpt>
      <trkpt lat="42.47582" lon="3.03475">
        <ele>905.8</ele>
        <time>2024-07-16T16:21:38Z</time>
      </trkpt>
      <trkpt lat="42.47584" lon="3.03482">
        <ele>908.6</ele>
        <time>2024-07-16T16:21:43Z</time>
      </trkpt>
      <trkpt lat="42.47585" lon="3.03486">
        <ele>909.2</ele>
        <time>2024-07-16T16:21:46Z</time>
      </trkpt>
      <trkpt lat="42.47587" lon="3.03492">
        <ele>909</ele>
        <time>2024-07-16T16:21:50Z</time>
      </trkpt>
      <trkpt lat="42.47586" lon="3.035">
        <ele>909</ele>
        <time>2024-07-16T16:21:53Z</time>
      </trkpt>
      <trkpt lat="42.47584" lon="3.03515">
        <ele>908.2</ele>
        <time>2024-07-16T16:22:00Z</time>
      </trkpt>
      <trkpt lat="42.47584" lon="3.03528">
        <ele>908.4</ele>
        <time>2024-07-16T16:22:08Z</time>
      </trkpt>
      <trkpt lat="42.47585" lon="3.03532">
        <ele>908.4</ele>
        <time>2024-07-16T16:22:10Z</time>
      </trkpt>
      <trkpt lat="42.47584" lon="3.03535">
        <ele>908.2</ele>
        <time>2024-07-16T16:22:13Z</time>
      </trkpt>
      <trkpt lat="42.47583" lon="3.03535">
        <ele>907.6</ele>
        <time>2024-07-16T16:22:18Z</time>
      </trkpt>
      <trkpt lat="42.47583" lon="3.03534">
        <ele>907.4</ele>
        <time>2024-07-16T16:22:25Z</time>
      </trkpt>
      <trkpt lat="42.47583" lon="3.03533">
        <ele>907.6</ele>
        <time>2024-07-16T16:22:32Z</time>
      </trkpt>
      <trkpt lat="42.47584" lon="3.03535">
        <ele>907.4</ele>
        <time>2024-07-16T16:22:39Z</time>
      </trkpt>
      <trkpt lat="42.47585" lon="3.03551">
        <ele>907</ele>
        <time>2024-07-16T16:22:46Z</time>
      </trkpt>
      <trkpt lat="42.47586" lon="3.03555">
        <ele>906.4</ele>
        <time>2024-07-16T16:22:48Z</time>
      </trkpt>
      <trkpt lat="42.47587" lon="3.03566">
        <ele>903.6</ele>
        <time>2024-07-16T16:22:53Z</time>
      </trkpt>
      <trkpt lat="42.47587" lon="3.03567">
        <ele>902.8</ele>
        <time>2024-07-16T16:22:54Z</time>
      </trkpt>
      <trkpt lat="42.47587" lon="3.03571">
        <ele>901.8</ele>
        <time>2024-07-16T16:22:56Z</time>
      </trkpt>
      <trkpt lat="42.47589" lon="3.03576">
        <ele>900.6</ele>
        <time>2024-07-16T16:22:59Z</time>
      </trkpt>
      <trkpt lat="42.4759" lon="3.0358">
        <ele>899.4</ele>
        <time>2024-07-16T16:23:02Z</time>
      </trkpt>
      <trkpt lat="42.4759" lon="3.03585">
        <ele>899</ele>
        <time>2024-07-16T16:23:05Z</time>
      </trkpt>
      <trkpt lat="42.47589" lon="3.03596">
        <ele>900</ele>
        <time>2024-07-16T16:23:12Z</time>
      </trkpt>
      <trkpt lat="42.47591" lon="3.03603">
        <ele>901.2</ele>
        <time>2024-07-16T16:23:18Z</time>
      </trkpt>
      <trkpt lat="42.47592" lon="3.03614">
        <ele>901.6</ele>
        <time>2024-07-16T16:23:22Z</time>
      </trkpt>
      <trkpt lat="42.47594" lon="3.03618">
        <ele>901.4</ele>
        <time>2024-07-16T16:23:24Z</time>
      </trkpt>
      <trkpt lat="42.47593" lon="3.03624">
        <ele>900.6</ele>
        <time>2024-07-16T16:23:27Z</time>
      </trkpt>
      <trkpt lat="42.47592" lon="3.03629">
        <ele>899.8</ele>
        <time>2024-07-16T16:23:30Z</time>
      </trkpt>
      <trkpt lat="42.47593" lon="3.03632">
        <ele>899.4</ele>
        <time>2024-07-16T16:23:32Z</time>
      </trkpt>
      <trkpt lat="42.47592" lon="3.03637">
        <ele>900.2</ele>
        <time>2024-07-16T16:23:38Z</time>
      </trkpt>
      <trkpt lat="42.47592" lon="3.03637">
        <ele>901.6</ele>
        <time>2024-07-16T16:23:45Z</time>
      </trkpt>
      <trkpt lat="42.47591" lon="3.03638">
        <ele>902.2</ele>
        <time>2024-07-16T16:23:53Z</time>
      </trkpt>
      <trkpt lat="42.47589" lon="3.03641">
        <ele>903.2</ele>
        <time>2024-07-16T16:24:00Z</time>
      </trkpt>
      <trkpt lat="42.47588" lon="3.0364">
        <ele>905</ele>
        <time>2024-07-16T16:24:05Z</time>
      </trkpt>
      <trkpt lat="42.4759" lon="3.03641">
        <ele>906.4</ele>
        <time>2024-07-16T16:24:12Z</time>
      </trkpt>
      <trkpt lat="42.4759" lon="3.03644">
        <ele>906.6</ele>
        <time>2024-07-16T16:24:18Z</time>
      </trkpt>
      <trkpt lat="42.4759" lon="3.03645">
        <ele>906.8</ele>
        <time>2024-07-16T16:24:24Z</time>
      </trkpt>
      <trkpt lat="42.4759" lon="3.03645">
        <ele>908.6</ele>
        <time>2024-07-16T16:24:37Z</time>
      </trkpt>
      <trkpt lat="42.47595" lon="3.03651">
        <ele>914.8</ele>
        <time>2024-07-16T16:26:13Z</time>
      </trkpt>
      <trkpt lat="42.47597" lon="3.03651">
        <ele>914.8</ele>
        <time>2024-07-16T16:26:21Z</time>
      </trkpt>
      <trkpt lat="42.47589" lon="3.03645">
        <ele>922.4</ele>
        <time>2024-07-16T16:28:23Z</time>
      </trkpt>
      <trkpt lat="42.47588" lon="3.03645">
        <ele>921.4</ele>
        <time>2024-07-16T16:28:28Z</time>
      </trkpt>
      <trkpt lat="42.47588" lon="3.03644">
        <ele>920.4</ele>
        <time>2024-07-16T16:28:34Z</time>
      </trkpt>
      <trkpt lat="42.4759" lon="3.03643">
        <ele>920.2</ele>
        <time>2024-07-16T16:29:02Z</time>
      </trkpt>
      <trkpt lat="42.47592" lon="3.03642">
        <ele>920.8</ele>
        <time>2024-07-16T16:29:06Z</time>
      </trkpt>
      <trkpt lat="42.47596" lon="3.03645">
        <ele>921.4</ele>
        <time>2024-07-16T16:29:12Z</time>
      </trkpt>
      <trkpt lat="42.476" lon="3.0365">
        <ele>921.8</ele>
        <time>2024-07-16T16:29:17Z</time>
      </trkpt>
      <trkpt lat="42.47603" lon="3.03654">
        <ele>922</ele>
        <time>2024-07-16T16:29:23Z</time>
      </trkpt>
      <trkpt lat="42.47605" lon="3.0366">
        <ele>921.8</ele>
        <time>2024-07-16T16:29:27Z</time>
      </trkpt>
      <trkpt lat="42.47608" lon="3.03665">
        <ele>920.2</ele>
        <time>2024-07-16T16:29:33Z</time>
      </trkpt>
      <trkpt lat="42.47606" lon="3.03661">
        <ele>918.8</ele>
        <time>2024-07-16T16:29:38Z</time>
      </trkpt>
      <trkpt lat="42.47605" lon="3.03661">
        <ele>919.2</ele>
        <time>2024-07-16T16:29:42Z</time>
      </trkpt>
      <trkpt lat="42.47606" lon="3.03663">
        <ele>920.6</ele>
        <time>2024-07-16T16:29:48Z</time>
      </trkpt>
      <trkpt lat="42.47601" lon="3.03666">
        <ele>920.4</ele>
        <time>2024-07-16T16:29:54Z</time>
      </trkpt>
      <trkpt lat="42.476" lon="3.03664">
        <ele>918.8</ele>
        <time>2024-07-16T16:29:58Z</time>
      </trkpt>
      <trkpt lat="42.47603" lon="3.03665">
        <ele>918.4</ele>
        <time>2024-07-16T16:30:04Z</time>
      </trkpt>
      <trkpt lat="42.47601" lon="3.03664">
        <ele>919.4</ele>
        <time>2024-07-16T16:30:11Z</time>
      </trkpt>
      <trkpt lat="42.476" lon="3.03662">
        <ele>917.8</ele>
        <time>2024-07-16T16:30:20Z</time>
      </trkpt>
      <trkpt lat="42.476" lon="3.03662">
        <ele>916.6</ele>
        <time>2024-07-16T16:30:37Z</time>
      </trkpt>
      <trkpt lat="42.47598" lon="3.03661">
        <ele>915</ele>
        <time>2024-07-16T16:30:48Z</time>
      </trkpt>
      <trkpt lat="42.47596" lon="3.03659">
        <ele>910</ele>
        <time>2024-07-16T16:30:55Z</time>
      </trkpt>
      <trkpt lat="42.47594" lon="3.03656">
        <ele>907.6</ele>
        <time>2024-07-16T16:31:04Z</time>
      </trkpt>
      <trkpt lat="42.47594" lon="3.03655">
        <ele>908.2</ele>
        <time>2024-07-16T16:31:11Z</time>
      </trkpt>
      <trkpt lat="42.47593" lon="3.03656">
        <ele>909</ele>
        <time>2024-07-16T16:31:17Z</time>
      </trkpt>
      <trkpt lat="42.47591" lon="3.03656">
        <ele>909.2</ele>
        <time>2024-07-16T16:31:19Z</time>
      </trkpt>
      <trkpt lat="42.4759" lon="3.03656">
        <ele>908.8</ele>
        <time>2024-07-16T16:31:24Z</time>
      </trkpt>
      <trkpt lat="42.47589" lon="3.03657">
        <ele>908.6</ele>
        <time>2024-07-16T16:31:29Z</time>
      </trkpt>
      <trkpt lat="42.47588" lon="3.03652">
        <ele>908.8</ele>
        <time>2024-07-16T16:32:03Z</time>
      </trkpt>
      <trkpt lat="42.4759" lon="3.0365">
        <ele>909.8</ele>
        <time>2024-07-16T16:32:07Z</time>
      </trkpt>
      <trkpt lat="42.47588" lon="3.03649">
        <ele>910.8</ele>
        <time>2024-07-16T16:32:11Z</time>
      </trkpt>
      <trkpt lat="42.47588" lon="3.03649">
        <ele>911.2</ele>
        <time>2024-07-16T16:32:16Z</time>
      </trkpt>
      <trkpt lat="42.47587" lon="3.03651">
        <ele>911.6</ele>
        <time>2024-07-16T16:32:22Z</time>
      </trkpt>
      <trkpt lat="42.47586" lon="3.03649">
        <ele>911.4</ele>
        <time>2024-07-16T16:32:28Z</time>
      </trkpt>
      <trkpt lat="42.47585" lon="3.03651">
        <ele>911.8</ele>
        <time>2024-07-16T16:32:35Z</time>
      </trkpt>
      <trkpt lat="42.47585" lon="3.03651">
        <ele>912</ele>
        <time>2024-07-16T16:32:57Z</time>
      </trkpt>
      <trkpt lat="42.47587" lon="3.03653">
        <ele>908.4</ele>
        <time>2024-07-16T16:33:40Z</time>
      </trkpt>
      <trkpt lat="42.47587" lon="3.03654">
        <ele>909.2</ele>
        <time>2024-07-16T16:33:51Z</time>
      </trkpt>
      <trkpt lat="42.47586" lon="3.03647">
        <ele>914.2</ele>
        <time>2024-07-16T16:34:50Z</time>
      </trkpt>
      <trkpt lat="42.47586" lon="3.03647">
        <ele>911</ele>
        <time>2024-07-16T16:35:09Z</time>
      </trkpt>
      <trkpt lat="42.47593" lon="3.03661">
        <ele>913.4</ele>
        <time>2024-07-16T16:36:01Z</time>
      </trkpt>
      <trkpt lat="42.47593" lon="3.0367">
        <ele>912.4</ele>
        <time>2024-07-16T16:36:07Z</time>
      </trkpt>
      <trkpt lat="42.47587" lon="3.03672">
        <ele>912</ele>
        <time>2024-07-16T16:36:13Z</time>
      </trkpt>
      <trkpt lat="42.47586" lon="3.03675">
        <ele>912.8</ele>
        <time>2024-07-16T16:36:18Z</time>
      </trkpt>
      <trkpt lat="42.47583" lon="3.0368">
        <ele>912.6</ele>
        <time>2024-07-16T16:36:25Z</time>
      </trkpt>
      <trkpt lat="42.47582" lon="3.03685">
        <ele>912.6</ele>
        <time>2024-07-16T16:36:32Z</time>
      </trkpt>
      <trkpt lat="42.4758" lon="3.03688">
        <ele>913.4</ele>
        <time>2024-07-16T16:36:39Z</time>
      </trkpt>
      <trkpt lat="42.47577" lon="3.03692">
        <ele>913.4</ele>
        <time>2024-07-16T16:36:46Z</time>
      </trkpt>
      <trkpt lat="42.47576" lon="3.03696">
        <ele>913.2</ele>
        <time>2024-07-16T16:36:52Z</time>
      </trkpt>
      <trkpt lat="42.47573" lon="3.03698">
        <ele>913.6</ele>
        <time>2024-07-16T16:36:58Z</time>
      </trkpt>
      <trkpt lat="42.47569" lon="3.03702">
        <ele>912.2</ele>
        <time>2024-07-16T16:37:07Z</time>
      </trkpt>
      <trkpt lat="42.47567" lon="3.03708">
        <ele>911.6</ele>
        <time>2024-07-16T16:37:16Z</time>
      </trkpt>
      <trkpt lat="42.47568" lon="3.0371">
        <ele>914.2</ele>
        <time>2024-07-16T16:37:23Z</time>
      </trkpt>
      <trkpt lat="42.47568" lon="3.0371">
        <ele>916.8</ele>
        <time>2024-07-16T16:37:36Z</time>
      </trkpt>
      <trkpt lat="42.47567" lon="3.0372">
        <ele>917.6</ele>
        <time>2024-07-16T16:37:54Z</time>
      </trkpt>
      <trkpt lat="42.47565" lon="3.03734">
        <ele>919.6</ele>
        <time>2024-07-16T16:38:02Z</time>
      </trkpt>
      <trkpt lat="42.47568" lon="3.03741">
        <ele>921.6</ele>
        <time>2024-07-16T16:38:09Z</time>
      </trkpt>
      <trkpt lat="42.47569" lon="3.03743">
        <ele>922</ele>
        <time>2024-07-16T16:38:11Z</time>
      </trkpt>
      <trkpt lat="42.47573" lon="3.0375">
        <ele>922.6</ele>
        <time>2024-07-16T16:38:17Z</time>
      </trkpt>
      <trkpt lat="42.47579" lon="3.0376">
        <ele>923.8</ele>
        <time>2024-07-16T16:38:26Z</time>
      </trkpt>
      <trkpt lat="42.47582" lon="3.0377">
        <ele>923.6</ele>
        <time>2024-07-16T16:38:34Z</time>
      </trkpt>
      <trkpt lat="42.47582" lon="3.03777">
        <ele>923.8</ele>
        <time>2024-07-16T16:38:40Z</time>
      </trkpt>
      <trkpt lat="42.47583" lon="3.03778">
        <ele>923.8</ele>
        <time>2024-07-16T16:38:41Z</time>
      </trkpt>
      <trkpt lat="42.47583" lon="3.03782">
        <ele>924.6</ele>
        <time>2024-07-16T16:38:48Z</time>
      </trkpt>
      <trkpt lat="42.47579" lon="3.03787">
        <ele>925.2</ele>
        <time>2024-07-16T16:39:02Z</time>
      </trkpt>
      <trkpt lat="42.47574" lon="3.03791">
        <ele>925.8</ele>
        <time>2024-07-16T16:39:12Z</time>
      </trkpt>
      <trkpt lat="42.47571" lon="3.03795">
        <ele>925.6</ele>
        <time>2024-07-16T16:39:19Z</time>
      </trkpt>
      <trkpt lat="42.47572" lon="3.03802">
        <ele>926.6</ele>
        <time>2024-07-16T16:39:25Z</time>
      </trkpt>
      <trkpt lat="42.4757" lon="3.03812">
        <ele>928.8</ele>
        <time>2024-07-16T16:39:34Z</time>
      </trkpt>
      <trkpt lat="42.47569" lon="3.03818">
        <ele>930.4</ele>
        <time>2024-07-16T16:39:41Z</time>
      </trkpt>
      <trkpt lat="42.47569" lon="3.03824">
        <ele>931.8</ele>
        <time>2024-07-16T16:39:48Z</time>
      </trkpt>
      <trkpt lat="42.47569" lon="3.03829">
        <ele>933</ele>
        <time>2024-07-16T16:39:54Z</time>
      </trkpt>
      <trkpt lat="42.47569" lon="3.03837">
        <ele>934.6</ele>
        <time>2024-07-16T16:40:03Z</time>
      </trkpt>
      <trkpt lat="42.47569" lon="3.03845">
        <ele>935.4</ele>
        <time>2024-07-16T16:40:11Z</time>
      </trkpt>
      <trkpt lat="42.4757" lon="3.03853">
        <ele>936</ele>
        <time>2024-07-16T16:40:18Z</time>
      </trkpt>
      <trkpt lat="42.47572" lon="3.03865">
        <ele>937.2</ele>
        <time>2024-07-16T16:40:29Z</time>
      </trkpt>
      <trkpt lat="42.47575" lon="3.03875">
        <ele>938.8</ele>
        <time>2024-07-16T16:40:38Z</time>
      </trkpt>
      <trkpt lat="42.47581" lon="3.03887">
        <ele>941</ele>
        <time>2024-07-16T16:40:49Z</time>
      </trkpt>
      <trkpt lat="42.47587" lon="3.03895">
        <ele>942.6</ele>
        <time>2024-07-16T16:40:57Z</time>
      </trkpt>
      <trkpt lat="42.47592" lon="3.03904">
        <ele>943.4</ele>
        <time>2024-07-16T16:41:05Z</time>
      </trkpt>
      <trkpt lat="42.47595" lon="3.03911">
        <ele>944.6</ele>
        <time>2024-07-16T16:41:12Z</time>
      </trkpt>
      <trkpt lat="42.47596" lon="3.03912">
        <ele>944.8</ele>
        <time>2024-07-16T16:41:13Z</time>
      </trkpt>
      <trkpt lat="42.47598" lon="3.03919">
        <ele>946</ele>
        <time>2024-07-16T16:41:19Z</time>
      </trkpt>
      <trkpt lat="42.47601" lon="3.03927">
        <ele>946.6</ele>
        <time>2024-07-16T16:41:26Z</time>
      </trkpt>
      <trkpt lat="42.47607" lon="3.03938">
        <ele>949</ele>
        <time>2024-07-16T16:41:36Z</time>
      </trkpt>
      <trkpt lat="42.47615" lon="3.03947">
        <ele>950.8</ele>
        <time>2024-07-16T16:41:46Z</time>
      </trkpt>
      <trkpt lat="42.47624" lon="3.03955">
        <ele>952.6</ele>
        <time>2024-07-16T16:41:56Z</time>
      </trkpt>
      <trkpt lat="42.4763" lon="3.03964">
        <ele>954.4</ele>
        <time>2024-07-16T16:42:05Z</time>
      </trkpt>
      <trkpt lat="42.47635" lon="3.03973">
        <ele>955.2</ele>
        <time>2024-07-16T16:42:13Z</time>
      </trkpt>
      <trkpt lat="42.47641" lon="3.03982">
        <ele>955.2</ele>
        <time>2024-07-16T16:42:23Z</time>
      </trkpt>
      <trkpt lat="42.47648" lon="3.0399">
        <ele>956.2</ele>
        <time>2024-07-16T16:42:32Z</time>
      </trkpt>
      <trkpt lat="42.47656" lon="3.03997">
        <ele>956.8</ele>
        <time>2024-07-16T16:42:41Z</time>
      </trkpt>
      <trkpt lat="42.47667" lon="3.04002">
        <ele>957.6</ele>
        <time>2024-07-16T16:42:52Z</time>
      </trkpt>
      <trkpt lat="42.47677" lon="3.04008">
        <ele>959.2</ele>
        <time>2024-07-16T16:43:04Z</time>
      </trkpt>
      <trkpt lat="42.47686" lon="3.04014">
        <ele>960.4</ele>
        <time>2024-07-16T16:43:13Z</time>
      </trkpt>
      <trkpt lat="42.47691" lon="3.04022">
        <ele>961.2</ele>
        <time>2024-07-16T16:43:20Z</time>
      </trkpt>
      <trkpt lat="42.47698" lon="3.04034">
        <ele>961.4</ele>
        <time>2024-07-16T16:43:30Z</time>
      </trkpt>
      <trkpt lat="42.47704" lon="3.04032">
        <ele>961.6</ele>
        <time>2024-07-16T16:43:37Z</time>
      </trkpt>
      <trkpt lat="42.47714" lon="3.04029">
        <ele>963.2</ele>
        <time>2024-07-16T16:43:47Z</time>
      </trkpt>
      <trkpt lat="42.47722" lon="3.04026">
        <ele>965.2</ele>
        <time>2024-07-16T16:43:56Z</time>
      </trkpt>
      <trkpt lat="42.47723" lon="3.04026">
        <ele>965.4</ele>
        <time>2024-07-16T16:43:58Z</time>
      </trkpt>
      <trkpt lat="42.47726" lon="3.04024">
        <ele>965.4</ele>
        <time>2024-07-16T16:44:01Z</time>
      </trkpt>
      <trkpt lat="42.47726" lon="3.04024">
        <ele>965.2</ele>
        <time>2024-07-16T16:44:02Z</time>
      </trkpt>
      <trkpt lat="42.47729" lon="3.04024">
        <ele>965.2</ele>
        <time>2024-07-16T16:44:09Z</time>
      </trkpt>
      <trkpt lat="42.47729" lon="3.04024">
        <ele>966.4</ele>
        <time>2024-07-16T16:44:18Z</time>
      </trkpt>
      <trkpt lat="42.47749" lon="3.04009">
        <ele>984.6</ele>
        <time>2024-07-16T16:47:12Z</time>
      </trkpt>
      <trkpt lat="42.47712" lon="3.04025">
        <ele>957.4</ele>
        <time>2024-07-16T16:47:18Z</time>
      </trkpt>
      <trkpt lat="42.47697" lon="3.04037">
        <ele>963.6</ele>
        <time>2024-07-16T16:47:27Z</time>
      </trkpt>
      <trkpt lat="42.47688" lon="3.04051">
        <ele>965.6</ele>
        <time>2024-07-16T16:47:38Z</time>
      </trkpt>
      <trkpt lat="42.47691" lon="3.0405">
        <ele>966</ele>
        <time>2024-07-16T16:47:43Z</time>
      </trkpt>
      <trkpt lat="42.47691" lon="3.04049">
        <ele>966.8</ele>
        <time>2024-07-16T16:47:50Z</time>
      </trkpt>
      <trkpt lat="42.47702" lon="3.04047">
        <ele>966.6</ele>
        <time>2024-07-16T16:48:02Z</time>
      </trkpt>
      <trkpt lat="42.47713" lon="3.0404">
        <ele>965.4</ele>
        <time>2024-07-16T16:48:09Z</time>
      </trkpt>
      <trkpt lat="42.47714" lon="3.0404">
        <ele>963.6</ele>
        <time>2024-07-16T16:48:17Z</time>
      </trkpt>
      <trkpt lat="42.47714" lon="3.04038">
        <ele>963.4</ele>
        <time>2024-07-16T16:48:39Z</time>
      </trkpt>
    </trkseg>
  </trk>
</gpx>